<?xml version="1.0" encoding="UTF-8" standalone="no" ?>
<gpx xmlns="http://www.topografix.com/GPX/1/1" xmlns:xsi="http://www.w3.org/2001/XMLSchema-instance" xsi:schemaLocation="http://www.topografix.com/GPX/1/1 http://www.topografix.com/GPX/1/1/gpx.xsd" version="1.1" creator="VisuGPX - https://www.visugpx.com">
  <metadata>
    <name>X_Pic Pas du chien</name>
  </metadata>
  <trk>
    <name><![CDATA[X_Pic Pas du chien_1]]></name>
    <extensions>
      <line xmlns="http://www.topografix.com/GPX/gpx_style/0/2">
        <color>0000FF</color>
        <width>4</width>
      </line>
    </extensions>
    <trkseg>
      <trkpt lat="42.79342" lon="1.5816">
        <ele>639.4</ele>
        <time>2014-09-21T06:00:57Z</time>
      </trkpt>
      <trkpt lat="42.79342" lon="1.5816">
        <ele>639.4</ele>
        <time>2014-09-21T06:00:57Z</time>
      </trkpt>
      <trkpt lat="42.79342" lon="1.5816">
        <ele>639.4</ele>
        <time>2014-09-21T06:00:58Z</time>
      </trkpt>
      <trkpt lat="42.79342" lon="1.5816">
        <ele>599.5</ele>
        <time>2014-09-21T06:01:02Z</time>
      </trkpt>
      <trkpt lat="42.79342" lon="1.5816">
        <ele>599.5</ele>
        <time>2014-09-21T06:01:03Z</time>
      </trkpt>
      <trkpt lat="42.79345" lon="1.58159">
        <ele>599.5</ele>
        <time>2014-09-21T06:01:33Z</time>
      </trkpt>
      <trkpt lat="42.79342" lon="1.58158">
        <ele>599.5</ele>
        <time>2014-09-21T06:02:05Z</time>
      </trkpt>
      <trkpt lat="42.79339" lon="1.58162">
        <ele>599.5</ele>
        <time>2014-09-21T06:02:11Z</time>
      </trkpt>
      <trkpt lat="42.7934" lon="1.58168">
        <ele>599.5</ele>
        <time>2014-09-21T06:02:14Z</time>
      </trkpt>
      <trkpt lat="42.7935" lon="1.58208">
        <ele>599.5</ele>
        <time>2014-09-21T06:02:24Z</time>
      </trkpt>
      <trkpt lat="42.79383" lon="1.5829">
        <ele>599.5</ele>
        <time>2014-09-21T06:02:40Z</time>
      </trkpt>
      <trkpt lat="42.79385" lon="1.58294">
        <ele>599.5</ele>
        <time>2014-09-21T06:02:41Z</time>
      </trkpt>
      <trkpt lat="42.79388" lon="1.58299">
        <ele>599.5</ele>
        <time>2014-09-21T06:02:42Z</time>
      </trkpt>
      <trkpt lat="42.79393" lon="1.58309">
        <ele>599.5</ele>
        <time>2014-09-21T06:02:44Z</time>
      </trkpt>
      <trkpt lat="42.79408" lon="1.58327">
        <ele>599.5</ele>
        <time>2014-09-21T06:02:48Z</time>
      </trkpt>
      <trkpt lat="42.79463" lon="1.5838">
        <ele>598.1</ele>
        <time>2014-09-21T06:03:01Z</time>
      </trkpt>
      <trkpt lat="42.79481" lon="1.58401">
        <ele>598.1</ele>
        <time>2014-09-21T06:03:06Z</time>
      </trkpt>
      <trkpt lat="42.79484" lon="1.58406">
        <ele>598.1</ele>
        <time>2014-09-21T06:03:07Z</time>
      </trkpt>
      <trkpt lat="42.79487" lon="1.58412">
        <ele>598.1</ele>
        <time>2014-09-21T06:03:08Z</time>
      </trkpt>
      <trkpt lat="42.79511" lon="1.5847">
        <ele>598.1</ele>
        <time>2014-09-21T06:03:18Z</time>
      </trkpt>
      <trkpt lat="42.79523" lon="1.58491">
        <ele>598.1</ele>
        <time>2014-09-21T06:03:22Z</time>
      </trkpt>
      <trkpt lat="42.79535" lon="1.58508">
        <ele>598.1</ele>
        <time>2014-09-21T06:03:26Z</time>
      </trkpt>
      <trkpt lat="42.79539" lon="1.58511">
        <ele>598.1</ele>
        <time>2014-09-21T06:03:27Z</time>
      </trkpt>
      <trkpt lat="42.79543" lon="1.58514">
        <ele>598.1</ele>
        <time>2014-09-21T06:03:28Z</time>
      </trkpt>
      <trkpt lat="42.79566" lon="1.58529">
        <ele>599</ele>
        <time>2014-09-21T06:03:33Z</time>
      </trkpt>
      <trkpt lat="42.7957" lon="1.58532">
        <ele>599</ele>
        <time>2014-09-21T06:03:34Z</time>
      </trkpt>
      <trkpt lat="42.79594" lon="1.58545">
        <ele>599</ele>
        <time>2014-09-21T06:03:39Z</time>
      </trkpt>
      <trkpt lat="42.79633" lon="1.58569">
        <ele>597.6</ele>
        <time>2014-09-21T06:03:51Z</time>
      </trkpt>
      <trkpt lat="42.79653" lon="1.58581">
        <ele>596.2</ele>
        <time>2014-09-21T06:04:03Z</time>
      </trkpt>
      <trkpt lat="42.7965" lon="1.5858">
        <ele>596.2</ele>
        <time>2014-09-21T06:04:27Z</time>
      </trkpt>
      <trkpt lat="42.79653" lon="1.58582">
        <ele>596.2</ele>
        <time>2014-09-21T06:04:52Z</time>
      </trkpt>
      <trkpt lat="42.79653" lon="1.58581">
        <ele>596.2</ele>
        <time>2014-09-21T06:05:03Z</time>
      </trkpt>
      <trkpt lat="42.79651" lon="1.58582">
        <ele>596.2</ele>
        <time>2014-09-21T06:05:04Z</time>
      </trkpt>
      <trkpt lat="42.79648" lon="1.58574">
        <ele>596.2</ele>
        <time>2014-09-21T06:05:08Z</time>
      </trkpt>
      <trkpt lat="42.79646" lon="1.58572">
        <ele>596.2</ele>
        <time>2014-09-21T06:05:09Z</time>
      </trkpt>
      <trkpt lat="42.79644" lon="1.5857">
        <ele>596.2</ele>
        <time>2014-09-21T06:05:10Z</time>
      </trkpt>
      <trkpt lat="42.79641" lon="1.58569">
        <ele>596.2</ele>
        <time>2014-09-21T06:05:11Z</time>
      </trkpt>
      <trkpt lat="42.79626" lon="1.58565">
        <ele>597.6</ele>
        <time>2014-09-21T06:05:16Z</time>
      </trkpt>
      <trkpt lat="42.79623" lon="1.58568">
        <ele>597.6</ele>
        <time>2014-09-21T06:05:17Z</time>
      </trkpt>
      <trkpt lat="42.79621" lon="1.58571">
        <ele>597.6</ele>
        <time>2014-09-21T06:05:18Z</time>
      </trkpt>
      <trkpt lat="42.79619" lon="1.58575">
        <ele>597.6</ele>
        <time>2014-09-21T06:05:19Z</time>
      </trkpt>
      <trkpt lat="42.79618" lon="1.58579">
        <ele>598.1</ele>
        <time>2014-09-21T06:05:20Z</time>
      </trkpt>
      <trkpt lat="42.79605" lon="1.58616">
        <ele>600</ele>
        <time>2014-09-21T06:05:32Z</time>
      </trkpt>
      <trkpt lat="42.79594" lon="1.58638">
        <ele>603.4</ele>
        <time>2014-09-21T06:05:45Z</time>
      </trkpt>
      <trkpt lat="42.79576" lon="1.58665">
        <ele>606.7</ele>
        <time>2014-09-21T06:06:02Z</time>
      </trkpt>
      <trkpt lat="42.79562" lon="1.58692">
        <ele>609.1</ele>
        <time>2014-09-21T06:06:18Z</time>
      </trkpt>
      <trkpt lat="42.79557" lon="1.58704">
        <ele>611.5</ele>
        <time>2014-09-21T06:06:26Z</time>
      </trkpt>
      <trkpt lat="42.79556" lon="1.58705">
        <ele>611.5</ele>
        <time>2014-09-21T06:06:27Z</time>
      </trkpt>
      <trkpt lat="42.79538" lon="1.5873">
        <ele>614.4</ele>
        <time>2014-09-21T06:06:44Z</time>
      </trkpt>
      <trkpt lat="42.79538" lon="1.58731">
        <ele>614.4</ele>
        <time>2014-09-21T06:06:45Z</time>
      </trkpt>
      <trkpt lat="42.79538" lon="1.58733">
        <ele>614.9</ele>
        <time>2014-09-21T06:06:46Z</time>
      </trkpt>
      <trkpt lat="42.79537" lon="1.58735">
        <ele>614.9</ele>
        <time>2014-09-21T06:06:47Z</time>
      </trkpt>
      <trkpt lat="42.79536" lon="1.58737">
        <ele>614.9</ele>
        <time>2014-09-21T06:06:48Z</time>
      </trkpt>
      <trkpt lat="42.79535" lon="1.58738">
        <ele>615.9</ele>
        <time>2014-09-21T06:06:49Z</time>
      </trkpt>
      <trkpt lat="42.79534" lon="1.58738">
        <ele>615.9</ele>
        <time>2014-09-21T06:06:50Z</time>
      </trkpt>
      <trkpt lat="42.79532" lon="1.58738">
        <ele>615.9</ele>
        <time>2014-09-21T06:06:51Z</time>
      </trkpt>
      <trkpt lat="42.79531" lon="1.58738">
        <ele>615.9</ele>
        <time>2014-09-21T06:06:52Z</time>
      </trkpt>
      <trkpt lat="42.7953" lon="1.58739">
        <ele>616.8</ele>
        <time>2014-09-21T06:06:53Z</time>
      </trkpt>
      <trkpt lat="42.79529" lon="1.58741">
        <ele>616.8</ele>
        <time>2014-09-21T06:06:54Z</time>
      </trkpt>
      <trkpt lat="42.79528" lon="1.58743">
        <ele>616.8</ele>
        <time>2014-09-21T06:06:55Z</time>
      </trkpt>
      <trkpt lat="42.79528" lon="1.58745">
        <ele>617.3</ele>
        <time>2014-09-21T06:06:56Z</time>
      </trkpt>
      <trkpt lat="42.79528" lon="1.58747">
        <ele>617.3</ele>
        <time>2014-09-21T06:06:57Z</time>
      </trkpt>
      <trkpt lat="42.79528" lon="1.58748">
        <ele>617.3</ele>
        <time>2014-09-21T06:06:58Z</time>
      </trkpt>
      <trkpt lat="42.79529" lon="1.5875">
        <ele>617.8</ele>
        <time>2014-09-21T06:06:59Z</time>
      </trkpt>
      <trkpt lat="42.7953" lon="1.58751">
        <ele>617.8</ele>
        <time>2014-09-21T06:07:00Z</time>
      </trkpt>
      <trkpt lat="42.79531" lon="1.58752">
        <ele>617.8</ele>
        <time>2014-09-21T06:07:01Z</time>
      </trkpt>
      <trkpt lat="42.79554" lon="1.58763">
        <ele>620.7</ele>
        <time>2014-09-21T06:07:17Z</time>
      </trkpt>
      <trkpt lat="42.79564" lon="1.58765">
        <ele>621.6</ele>
        <time>2014-09-21T06:07:23Z</time>
      </trkpt>
      <trkpt lat="42.79565" lon="1.58766">
        <ele>621.6</ele>
        <time>2014-09-21T06:07:24Z</time>
      </trkpt>
      <trkpt lat="42.79567" lon="1.58767">
        <ele>621.6</ele>
        <time>2014-09-21T06:07:25Z</time>
      </trkpt>
      <trkpt lat="42.79568" lon="1.58768">
        <ele>622.1</ele>
        <time>2014-09-21T06:07:26Z</time>
      </trkpt>
      <trkpt lat="42.79569" lon="1.58769">
        <ele>622.1</ele>
        <time>2014-09-21T06:07:27Z</time>
      </trkpt>
      <trkpt lat="42.79598" lon="1.58784">
        <ele>624.5</ele>
        <time>2014-09-21T06:07:46Z</time>
      </trkpt>
      <trkpt lat="42.79625" lon="1.58794">
        <ele>627.4</ele>
        <time>2014-09-21T06:08:03Z</time>
      </trkpt>
      <trkpt lat="42.79649" lon="1.58804">
        <ele>629.8</ele>
        <time>2014-09-21T06:08:19Z</time>
      </trkpt>
      <trkpt lat="42.79675" lon="1.58807">
        <ele>632.2</ele>
        <time>2014-09-21T06:08:36Z</time>
      </trkpt>
      <trkpt lat="42.79677" lon="1.58806">
        <ele>632.7</ele>
        <time>2014-09-21T06:08:37Z</time>
      </trkpt>
      <trkpt lat="42.79702" lon="1.58809">
        <ele>635.1</ele>
        <time>2014-09-21T06:08:53Z</time>
      </trkpt>
      <trkpt lat="42.79725" lon="1.58819">
        <ele>638</ele>
        <time>2014-09-21T06:09:09Z</time>
      </trkpt>
      <trkpt lat="42.79752" lon="1.58834">
        <ele>640.9</ele>
        <time>2014-09-21T06:09:27Z</time>
      </trkpt>
      <trkpt lat="42.79761" lon="1.58841">
        <ele>642.3</ele>
        <time>2014-09-21T06:09:34Z</time>
      </trkpt>
      <trkpt lat="42.7977" lon="1.58842">
        <ele>642.8</ele>
        <time>2014-09-21T06:09:39Z</time>
      </trkpt>
      <trkpt lat="42.79771" lon="1.58844">
        <ele>643.3</ele>
        <time>2014-09-21T06:09:40Z</time>
      </trkpt>
      <trkpt lat="42.79794" lon="1.58854">
        <ele>645.7</ele>
        <time>2014-09-21T06:09:56Z</time>
      </trkpt>
      <trkpt lat="42.79795" lon="1.58861">
        <ele>646.6</ele>
        <time>2014-09-21T06:09:59Z</time>
      </trkpt>
      <trkpt lat="42.79794" lon="1.58863">
        <ele>646.6</ele>
        <time>2014-09-21T06:10:00Z</time>
      </trkpt>
      <trkpt lat="42.79793" lon="1.58864">
        <ele>647.1</ele>
        <time>2014-09-21T06:10:01Z</time>
      </trkpt>
      <trkpt lat="42.79792" lon="1.58865">
        <ele>647.1</ele>
        <time>2014-09-21T06:10:02Z</time>
      </trkpt>
      <trkpt lat="42.7979" lon="1.58865">
        <ele>647.1</ele>
        <time>2014-09-21T06:10:03Z</time>
      </trkpt>
      <trkpt lat="42.79788" lon="1.58865">
        <ele>647.1</ele>
        <time>2014-09-21T06:10:04Z</time>
      </trkpt>
      <trkpt lat="42.79787" lon="1.58864">
        <ele>647.6</ele>
        <time>2014-09-21T06:10:05Z</time>
      </trkpt>
      <trkpt lat="42.79764" lon="1.58857">
        <ele>649.5</ele>
        <time>2014-09-21T06:10:20Z</time>
      </trkpt>
      <trkpt lat="42.79736" lon="1.58852">
        <ele>652.9</ele>
        <time>2014-09-21T06:10:39Z</time>
      </trkpt>
      <trkpt lat="42.79713" lon="1.58847">
        <ele>655.3</ele>
        <time>2014-09-21T06:10:55Z</time>
      </trkpt>
      <trkpt lat="42.79697" lon="1.58852">
        <ele>657.2</ele>
        <time>2014-09-21T06:11:05Z</time>
      </trkpt>
      <trkpt lat="42.79696" lon="1.58853">
        <ele>657.2</ele>
        <time>2014-09-21T06:11:06Z</time>
      </trkpt>
      <trkpt lat="42.7968" lon="1.58863">
        <ele>658.6</ele>
        <time>2014-09-21T06:11:17Z</time>
      </trkpt>
      <trkpt lat="42.79665" lon="1.5888">
        <ele>661</ele>
        <time>2014-09-21T06:11:31Z</time>
      </trkpt>
      <trkpt lat="42.79663" lon="1.58883">
        <ele>661</ele>
        <time>2014-09-21T06:11:33Z</time>
      </trkpt>
      <trkpt lat="42.79661" lon="1.58883">
        <ele>661</ele>
        <time>2014-09-21T06:11:34Z</time>
      </trkpt>
      <trkpt lat="42.7966" lon="1.58884">
        <ele>661</ele>
        <time>2014-09-21T06:11:35Z</time>
      </trkpt>
      <trkpt lat="42.79651" lon="1.58894">
        <ele>662.5</ele>
        <time>2014-09-21T06:11:43Z</time>
      </trkpt>
      <trkpt lat="42.79638" lon="1.58905">
        <ele>664.4</ele>
        <time>2014-09-21T06:11:54Z</time>
      </trkpt>
      <trkpt lat="42.79636" lon="1.58905">
        <ele>664.4</ele>
        <time>2014-09-21T06:11:55Z</time>
      </trkpt>
      <trkpt lat="42.79635" lon="1.58905">
        <ele>664.4</ele>
        <time>2014-09-21T06:11:56Z</time>
      </trkpt>
      <trkpt lat="42.79634" lon="1.58906">
        <ele>664.4</ele>
        <time>2014-09-21T06:11:57Z</time>
      </trkpt>
      <trkpt lat="42.79633" lon="1.58907">
        <ele>664.9</ele>
        <time>2014-09-21T06:11:58Z</time>
      </trkpt>
      <trkpt lat="42.79632" lon="1.58909">
        <ele>664.9</ele>
        <time>2014-09-21T06:11:59Z</time>
      </trkpt>
      <trkpt lat="42.79632" lon="1.58911">
        <ele>664.9</ele>
        <time>2014-09-21T06:12:00Z</time>
      </trkpt>
      <trkpt lat="42.79631" lon="1.58913">
        <ele>665.4</ele>
        <time>2014-09-21T06:12:01Z</time>
      </trkpt>
      <trkpt lat="42.7963" lon="1.58914">
        <ele>665.4</ele>
        <time>2014-09-21T06:12:02Z</time>
      </trkpt>
      <trkpt lat="42.79629" lon="1.58914">
        <ele>665.4</ele>
        <time>2014-09-21T06:12:03Z</time>
      </trkpt>
      <trkpt lat="42.79627" lon="1.58914">
        <ele>665.9</ele>
        <time>2014-09-21T06:12:04Z</time>
      </trkpt>
      <trkpt lat="42.79625" lon="1.58915">
        <ele>665.9</ele>
        <time>2014-09-21T06:12:05Z</time>
      </trkpt>
      <trkpt lat="42.79624" lon="1.58915">
        <ele>666.3</ele>
        <time>2014-09-21T06:12:06Z</time>
      </trkpt>
      <trkpt lat="42.79622" lon="1.58916">
        <ele>666.3</ele>
        <time>2014-09-21T06:12:07Z</time>
      </trkpt>
      <trkpt lat="42.79615" lon="1.58923">
        <ele>667.3</ele>
        <time>2014-09-21T06:12:13Z</time>
      </trkpt>
      <trkpt lat="42.79613" lon="1.58924">
        <ele>667.3</ele>
        <time>2014-09-21T06:12:14Z</time>
      </trkpt>
      <trkpt lat="42.79592" lon="1.58942">
        <ele>670.2</ele>
        <time>2014-09-21T06:12:30Z</time>
      </trkpt>
      <trkpt lat="42.79575" lon="1.58954">
        <ele>672.6</ele>
        <time>2014-09-21T06:12:43Z</time>
      </trkpt>
      <trkpt lat="42.79558" lon="1.58973">
        <ele>674.5</ele>
        <time>2014-09-21T06:12:57Z</time>
      </trkpt>
      <trkpt lat="42.79538" lon="1.58992">
        <ele>676.9</ele>
        <time>2014-09-21T06:13:13Z</time>
      </trkpt>
      <trkpt lat="42.79532" lon="1.58997">
        <ele>677.4</ele>
        <time>2014-09-21T06:13:17Z</time>
      </trkpt>
      <trkpt lat="42.79532" lon="1.58999">
        <ele>677.4</ele>
        <time>2014-09-21T06:13:18Z</time>
      </trkpt>
      <trkpt lat="42.79514" lon="1.59026">
        <ele>680.3</ele>
        <time>2014-09-21T06:13:33Z</time>
      </trkpt>
      <trkpt lat="42.79498" lon="1.59048">
        <ele>682.7</ele>
        <time>2014-09-21T06:13:47Z</time>
      </trkpt>
      <trkpt lat="42.79497" lon="1.5905">
        <ele>683.2</ele>
        <time>2014-09-21T06:13:48Z</time>
      </trkpt>
      <trkpt lat="42.79496" lon="1.59051">
        <ele>683.2</ele>
        <time>2014-09-21T06:13:49Z</time>
      </trkpt>
      <trkpt lat="42.79494" lon="1.59053">
        <ele>683.2</ele>
        <time>2014-09-21T06:13:50Z</time>
      </trkpt>
      <trkpt lat="42.79493" lon="1.59055">
        <ele>683.6</ele>
        <time>2014-09-21T06:13:51Z</time>
      </trkpt>
      <trkpt lat="42.79492" lon="1.59057">
        <ele>683.6</ele>
        <time>2014-09-21T06:13:52Z</time>
      </trkpt>
      <trkpt lat="42.79469" lon="1.59086">
        <ele>687</ele>
        <time>2014-09-21T06:14:09Z</time>
      </trkpt>
      <trkpt lat="42.79451" lon="1.59115">
        <ele>689.4</ele>
        <time>2014-09-21T06:14:25Z</time>
      </trkpt>
      <trkpt lat="42.79439" lon="1.59139">
        <ele>691.8</ele>
        <time>2014-09-21T06:14:38Z</time>
      </trkpt>
      <trkpt lat="42.79438" lon="1.5914">
        <ele>691.8</ele>
        <time>2014-09-21T06:14:39Z</time>
      </trkpt>
      <trkpt lat="42.79437" lon="1.59142">
        <ele>692.3</ele>
        <time>2014-09-21T06:14:40Z</time>
      </trkpt>
      <trkpt lat="42.79435" lon="1.59143">
        <ele>692.3</ele>
        <time>2014-09-21T06:14:41Z</time>
      </trkpt>
      <trkpt lat="42.79434" lon="1.59144">
        <ele>692.3</ele>
        <time>2014-09-21T06:14:42Z</time>
      </trkpt>
      <trkpt lat="42.79433" lon="1.59147">
        <ele>692.8</ele>
        <time>2014-09-21T06:14:43Z</time>
      </trkpt>
      <trkpt lat="42.79433" lon="1.59148">
        <ele>692.8</ele>
        <time>2014-09-21T06:14:44Z</time>
      </trkpt>
      <trkpt lat="42.7943" lon="1.59156">
        <ele>693.7</ele>
        <time>2014-09-21T06:14:47Z</time>
      </trkpt>
      <trkpt lat="42.79428" lon="1.59157">
        <ele>693.7</ele>
        <time>2014-09-21T06:14:48Z</time>
      </trkpt>
      <trkpt lat="42.79427" lon="1.59157">
        <ele>693.7</ele>
        <time>2014-09-21T06:14:49Z</time>
      </trkpt>
      <trkpt lat="42.79426" lon="1.59159">
        <ele>693.7</ele>
        <time>2014-09-21T06:14:50Z</time>
      </trkpt>
      <trkpt lat="42.79425" lon="1.5916">
        <ele>694.2</ele>
        <time>2014-09-21T06:14:51Z</time>
      </trkpt>
      <trkpt lat="42.79424" lon="1.59162">
        <ele>694.2</ele>
        <time>2014-09-21T06:14:52Z</time>
      </trkpt>
      <trkpt lat="42.79423" lon="1.59165">
        <ele>694.7</ele>
        <time>2014-09-21T06:14:53Z</time>
      </trkpt>
      <trkpt lat="42.79422" lon="1.59167">
        <ele>694.7</ele>
        <time>2014-09-21T06:14:54Z</time>
      </trkpt>
      <trkpt lat="42.79421" lon="1.5917">
        <ele>694.7</ele>
        <time>2014-09-21T06:14:55Z</time>
      </trkpt>
      <trkpt lat="42.7942" lon="1.59172">
        <ele>695.2</ele>
        <time>2014-09-21T06:14:56Z</time>
      </trkpt>
      <trkpt lat="42.79419" lon="1.59173">
        <ele>695.2</ele>
        <time>2014-09-21T06:14:57Z</time>
      </trkpt>
      <trkpt lat="42.79418" lon="1.59175">
        <ele>695.7</ele>
        <time>2014-09-21T06:14:58Z</time>
      </trkpt>
      <trkpt lat="42.79417" lon="1.59177">
        <ele>695.7</ele>
        <time>2014-09-21T06:14:59Z</time>
      </trkpt>
      <trkpt lat="42.79414" lon="1.59186">
        <ele>696.6</ele>
        <time>2014-09-21T06:15:03Z</time>
      </trkpt>
      <trkpt lat="42.79413" lon="1.59188">
        <ele>696.6</ele>
        <time>2014-09-21T06:15:04Z</time>
      </trkpt>
      <trkpt lat="42.79412" lon="1.5919">
        <ele>696.6</ele>
        <time>2014-09-21T06:15:05Z</time>
      </trkpt>
      <trkpt lat="42.79411" lon="1.59192">
        <ele>696.6</ele>
        <time>2014-09-21T06:15:06Z</time>
      </trkpt>
      <trkpt lat="42.79409" lon="1.59194">
        <ele>696.6</ele>
        <time>2014-09-21T06:15:07Z</time>
      </trkpt>
      <trkpt lat="42.79408" lon="1.59196">
        <ele>697.1</ele>
        <time>2014-09-21T06:15:08Z</time>
      </trkpt>
      <trkpt lat="42.79407" lon="1.59199">
        <ele>697.1</ele>
        <time>2014-09-21T06:15:09Z</time>
      </trkpt>
      <trkpt lat="42.79407" lon="1.59201">
        <ele>697.6</ele>
        <time>2014-09-21T06:15:10Z</time>
      </trkpt>
      <trkpt lat="42.79407" lon="1.59204">
        <ele>698.1</ele>
        <time>2014-09-21T06:15:11Z</time>
      </trkpt>
      <trkpt lat="42.79406" lon="1.59206">
        <ele>698.1</ele>
        <time>2014-09-21T06:15:12Z</time>
      </trkpt>
      <trkpt lat="42.79405" lon="1.59208">
        <ele>698.1</ele>
        <time>2014-09-21T06:15:13Z</time>
      </trkpt>
      <trkpt lat="42.79401" lon="1.59213">
        <ele>698.5</ele>
        <time>2014-09-21T06:15:16Z</time>
      </trkpt>
      <trkpt lat="42.794" lon="1.59216">
        <ele>698.5</ele>
        <time>2014-09-21T06:15:17Z</time>
      </trkpt>
      <trkpt lat="42.794" lon="1.59218">
        <ele>698.5</ele>
        <time>2014-09-21T06:15:18Z</time>
      </trkpt>
      <trkpt lat="42.79398" lon="1.59225">
        <ele>699.5</ele>
        <time>2014-09-21T06:15:21Z</time>
      </trkpt>
      <trkpt lat="42.79397" lon="1.59227">
        <ele>699.5</ele>
        <time>2014-09-21T06:15:22Z</time>
      </trkpt>
      <trkpt lat="42.79395" lon="1.59229">
        <ele>699.5</ele>
        <time>2014-09-21T06:15:23Z</time>
      </trkpt>
      <trkpt lat="42.79394" lon="1.5923">
        <ele>700</ele>
        <time>2014-09-21T06:15:24Z</time>
      </trkpt>
      <trkpt lat="42.79392" lon="1.59232">
        <ele>700</ele>
        <time>2014-09-21T06:15:25Z</time>
      </trkpt>
      <trkpt lat="42.79391" lon="1.59233">
        <ele>700.5</ele>
        <time>2014-09-21T06:15:26Z</time>
      </trkpt>
      <trkpt lat="42.7939" lon="1.59236">
        <ele>700.5</ele>
        <time>2014-09-21T06:15:27Z</time>
      </trkpt>
      <trkpt lat="42.7939" lon="1.59238">
        <ele>700.5</ele>
        <time>2014-09-21T06:15:28Z</time>
      </trkpt>
      <trkpt lat="42.79389" lon="1.59241">
        <ele>700.9</ele>
        <time>2014-09-21T06:15:29Z</time>
      </trkpt>
      <trkpt lat="42.79389" lon="1.59243">
        <ele>700.9</ele>
        <time>2014-09-21T06:15:30Z</time>
      </trkpt>
      <trkpt lat="42.79389" lon="1.59246">
        <ele>701.4</ele>
        <time>2014-09-21T06:15:31Z</time>
      </trkpt>
      <trkpt lat="42.79388" lon="1.59248">
        <ele>701.4</ele>
        <time>2014-09-21T06:15:32Z</time>
      </trkpt>
      <trkpt lat="42.79387" lon="1.5925">
        <ele>701.4</ele>
        <time>2014-09-21T06:15:33Z</time>
      </trkpt>
      <trkpt lat="42.79385" lon="1.59251">
        <ele>701.9</ele>
        <time>2014-09-21T06:15:34Z</time>
      </trkpt>
      <trkpt lat="42.79384" lon="1.59253">
        <ele>701.9</ele>
        <time>2014-09-21T06:15:35Z</time>
      </trkpt>
      <trkpt lat="42.79383" lon="1.59255">
        <ele>702.4</ele>
        <time>2014-09-21T06:15:36Z</time>
      </trkpt>
      <trkpt lat="42.79383" lon="1.59257">
        <ele>702.4</ele>
        <time>2014-09-21T06:15:37Z</time>
      </trkpt>
      <trkpt lat="42.79383" lon="1.59259">
        <ele>702.4</ele>
        <time>2014-09-21T06:15:38Z</time>
      </trkpt>
      <trkpt lat="42.79382" lon="1.59261">
        <ele>702.9</ele>
        <time>2014-09-21T06:15:39Z</time>
      </trkpt>
      <trkpt lat="42.79382" lon="1.59264">
        <ele>702.9</ele>
        <time>2014-09-21T06:15:40Z</time>
      </trkpt>
      <trkpt lat="42.7938" lon="1.59265">
        <ele>702.9</ele>
        <time>2014-09-21T06:15:41Z</time>
      </trkpt>
      <trkpt lat="42.79379" lon="1.59267">
        <ele>703.3</ele>
        <time>2014-09-21T06:15:42Z</time>
      </trkpt>
      <trkpt lat="42.79378" lon="1.59268">
        <ele>703.3</ele>
        <time>2014-09-21T06:15:43Z</time>
      </trkpt>
      <trkpt lat="42.79377" lon="1.59271">
        <ele>703.8</ele>
        <time>2014-09-21T06:15:44Z</time>
      </trkpt>
      <trkpt lat="42.79377" lon="1.59273">
        <ele>703.8</ele>
        <time>2014-09-21T06:15:45Z</time>
      </trkpt>
      <trkpt lat="42.79377" lon="1.59276">
        <ele>704.3</ele>
        <time>2014-09-21T06:15:46Z</time>
      </trkpt>
      <trkpt lat="42.79376" lon="1.59278">
        <ele>704.3</ele>
        <time>2014-09-21T06:15:47Z</time>
      </trkpt>
      <trkpt lat="42.79375" lon="1.5928">
        <ele>704.8</ele>
        <time>2014-09-21T06:15:48Z</time>
      </trkpt>
      <trkpt lat="42.79374" lon="1.59281">
        <ele>704.8</ele>
        <time>2014-09-21T06:15:49Z</time>
      </trkpt>
      <trkpt lat="42.79373" lon="1.59283">
        <ele>704.8</ele>
        <time>2014-09-21T06:15:50Z</time>
      </trkpt>
      <trkpt lat="42.79372" lon="1.59285">
        <ele>705.3</ele>
        <time>2014-09-21T06:15:51Z</time>
      </trkpt>
      <trkpt lat="42.79371" lon="1.59287">
        <ele>705.3</ele>
        <time>2014-09-21T06:15:52Z</time>
      </trkpt>
      <trkpt lat="42.7937" lon="1.5929">
        <ele>705.3</ele>
        <time>2014-09-21T06:15:53Z</time>
      </trkpt>
      <trkpt lat="42.79354" lon="1.59318">
        <ele>707.7</ele>
        <time>2014-09-21T06:16:08Z</time>
      </trkpt>
      <trkpt lat="42.79338" lon="1.59339">
        <ele>710.6</ele>
        <time>2014-09-21T06:16:21Z</time>
      </trkpt>
      <trkpt lat="42.79333" lon="1.5937">
        <ele>712.5</ele>
        <time>2014-09-21T06:16:35Z</time>
      </trkpt>
      <trkpt lat="42.7933" lon="1.59407">
        <ele>715.8</ele>
        <time>2014-09-21T06:16:50Z</time>
      </trkpt>
      <trkpt lat="42.79326" lon="1.59443">
        <ele>718.2</ele>
        <time>2014-09-21T06:17:05Z</time>
      </trkpt>
      <trkpt lat="42.79312" lon="1.59482">
        <ele>721.1</ele>
        <time>2014-09-21T06:17:23Z</time>
      </trkpt>
      <trkpt lat="42.79305" lon="1.59496">
        <ele>722.1</ele>
        <time>2014-09-21T06:17:30Z</time>
      </trkpt>
      <trkpt lat="42.79303" lon="1.59498">
        <ele>722.1</ele>
        <time>2014-09-21T06:17:31Z</time>
      </trkpt>
      <trkpt lat="42.79285" lon="1.59523">
        <ele>725.5</ele>
        <time>2014-09-21T06:17:46Z</time>
      </trkpt>
      <trkpt lat="42.7927" lon="1.59558">
        <ele>727.4</ele>
        <time>2014-09-21T06:18:02Z</time>
      </trkpt>
      <trkpt lat="42.79269" lon="1.59562">
        <ele>727.9</ele>
        <time>2014-09-21T06:18:04Z</time>
      </trkpt>
      <trkpt lat="42.79268" lon="1.59567">
        <ele>727.9</ele>
        <time>2014-09-21T06:18:06Z</time>
      </trkpt>
      <trkpt lat="42.79267" lon="1.59569">
        <ele>727.9</ele>
        <time>2014-09-21T06:18:07Z</time>
      </trkpt>
      <trkpt lat="42.7926" lon="1.59582">
        <ele>729.8</ele>
        <time>2014-09-21T06:18:15Z</time>
      </trkpt>
      <trkpt lat="42.79249" lon="1.59608">
        <ele>732.2</ele>
        <time>2014-09-21T06:18:29Z</time>
      </trkpt>
      <trkpt lat="42.79248" lon="1.5961">
        <ele>732.2</ele>
        <time>2014-09-21T06:18:30Z</time>
      </trkpt>
      <trkpt lat="42.79247" lon="1.59611">
        <ele>732.7</ele>
        <time>2014-09-21T06:18:31Z</time>
      </trkpt>
      <trkpt lat="42.79245" lon="1.59613">
        <ele>732.7</ele>
        <time>2014-09-21T06:18:32Z</time>
      </trkpt>
      <trkpt lat="42.79244" lon="1.59614">
        <ele>733.6</ele>
        <time>2014-09-21T06:18:33Z</time>
      </trkpt>
      <trkpt lat="42.79243" lon="1.59615">
        <ele>733.6</ele>
        <time>2014-09-21T06:18:34Z</time>
      </trkpt>
      <trkpt lat="42.79242" lon="1.59617">
        <ele>733.6</ele>
        <time>2014-09-21T06:18:35Z</time>
      </trkpt>
      <trkpt lat="42.79242" lon="1.59619">
        <ele>734.1</ele>
        <time>2014-09-21T06:18:36Z</time>
      </trkpt>
      <trkpt lat="42.79237" lon="1.59629">
        <ele>735.1</ele>
        <time>2014-09-21T06:18:42Z</time>
      </trkpt>
      <trkpt lat="42.79236" lon="1.5963">
        <ele>735.1</ele>
        <time>2014-09-21T06:18:43Z</time>
      </trkpt>
      <trkpt lat="42.79234" lon="1.59632">
        <ele>735.1</ele>
        <time>2014-09-21T06:18:44Z</time>
      </trkpt>
      <trkpt lat="42.79233" lon="1.59634">
        <ele>735.6</ele>
        <time>2014-09-21T06:18:45Z</time>
      </trkpt>
      <trkpt lat="42.79233" lon="1.59636">
        <ele>735.6</ele>
        <time>2014-09-21T06:18:46Z</time>
      </trkpt>
      <trkpt lat="42.79232" lon="1.59638">
        <ele>735.6</ele>
        <time>2014-09-21T06:18:47Z</time>
      </trkpt>
      <trkpt lat="42.79232" lon="1.59639">
        <ele>736</ele>
        <time>2014-09-21T06:18:48Z</time>
      </trkpt>
      <trkpt lat="42.79231" lon="1.59641">
        <ele>736</ele>
        <time>2014-09-21T06:18:49Z</time>
      </trkpt>
      <trkpt lat="42.7923" lon="1.59643">
        <ele>736</ele>
        <time>2014-09-21T06:18:50Z</time>
      </trkpt>
      <trkpt lat="42.79229" lon="1.59644">
        <ele>736</ele>
        <time>2014-09-21T06:18:51Z</time>
      </trkpt>
      <trkpt lat="42.79228" lon="1.59645">
        <ele>737</ele>
        <time>2014-09-21T06:18:52Z</time>
      </trkpt>
      <trkpt lat="42.79225" lon="1.59648">
        <ele>737</ele>
        <time>2014-09-21T06:18:54Z</time>
      </trkpt>
      <trkpt lat="42.79225" lon="1.5965">
        <ele>737.5</ele>
        <time>2014-09-21T06:18:55Z</time>
      </trkpt>
      <trkpt lat="42.79225" lon="1.59652">
        <ele>737.5</ele>
        <time>2014-09-21T06:18:56Z</time>
      </trkpt>
      <trkpt lat="42.79224" lon="1.59654">
        <ele>738</ele>
        <time>2014-09-21T06:18:57Z</time>
      </trkpt>
      <trkpt lat="42.79224" lon="1.59656">
        <ele>738</ele>
        <time>2014-09-21T06:18:58Z</time>
      </trkpt>
      <trkpt lat="42.79223" lon="1.59658">
        <ele>738.4</ele>
        <time>2014-09-21T06:18:59Z</time>
      </trkpt>
      <trkpt lat="42.79222" lon="1.59659">
        <ele>738.4</ele>
        <time>2014-09-21T06:19:00Z</time>
      </trkpt>
      <trkpt lat="42.79211" lon="1.59681">
        <ele>741.3</ele>
        <time>2014-09-21T06:19:14Z</time>
      </trkpt>
      <trkpt lat="42.79203" lon="1.59709">
        <ele>744.7</ele>
        <time>2014-09-21T06:19:29Z</time>
      </trkpt>
      <trkpt lat="42.79197" lon="1.59736">
        <ele>746.6</ele>
        <time>2014-09-21T06:19:42Z</time>
      </trkpt>
      <trkpt lat="42.79193" lon="1.59755">
        <ele>748</ele>
        <time>2014-09-21T06:19:57Z</time>
      </trkpt>
      <trkpt lat="42.79194" lon="1.59757">
        <ele>748</ele>
        <time>2014-09-21T06:20:26Z</time>
      </trkpt>
      <trkpt lat="42.79193" lon="1.59758">
        <ele>748</ele>
        <time>2014-09-21T06:20:47Z</time>
      </trkpt>
      <trkpt lat="42.79192" lon="1.59761">
        <ele>748.5</ele>
        <time>2014-09-21T06:20:51Z</time>
      </trkpt>
      <trkpt lat="42.79186" lon="1.59789">
        <ele>751.4</ele>
        <time>2014-09-21T06:21:05Z</time>
      </trkpt>
      <trkpt lat="42.79181" lon="1.59811">
        <ele>754.3</ele>
        <time>2014-09-21T06:21:17Z</time>
      </trkpt>
      <trkpt lat="42.7918" lon="1.59815">
        <ele>754.3</ele>
        <time>2014-09-21T06:21:20Z</time>
      </trkpt>
      <trkpt lat="42.79179" lon="1.59817">
        <ele>754.3</ele>
        <time>2014-09-21T06:21:21Z</time>
      </trkpt>
      <trkpt lat="42.79179" lon="1.59818">
        <ele>755.3</ele>
        <time>2014-09-21T06:21:22Z</time>
      </trkpt>
      <trkpt lat="42.79179" lon="1.5982">
        <ele>755.3</ele>
        <time>2014-09-21T06:21:23Z</time>
      </trkpt>
      <trkpt lat="42.79179" lon="1.59823">
        <ele>755.3</ele>
        <time>2014-09-21T06:21:24Z</time>
      </trkpt>
      <trkpt lat="42.79178" lon="1.59846">
        <ele>758.6</ele>
        <time>2014-09-21T06:21:37Z</time>
      </trkpt>
      <trkpt lat="42.79184" lon="1.59868">
        <ele>760.5</ele>
        <time>2014-09-21T06:21:49Z</time>
      </trkpt>
      <trkpt lat="42.79185" lon="1.59872">
        <ele>761.5</ele>
        <time>2014-09-21T06:21:51Z</time>
      </trkpt>
      <trkpt lat="42.79184" lon="1.59874">
        <ele>761.5</ele>
        <time>2014-09-21T06:21:52Z</time>
      </trkpt>
      <trkpt lat="42.79163" lon="1.59903">
        <ele>761.5</ele>
        <time>2014-09-21T06:22:05Z</time>
      </trkpt>
      <trkpt lat="42.7916" lon="1.59907">
        <ele>761.5</ele>
        <time>2014-09-21T06:22:06Z</time>
      </trkpt>
      <trkpt lat="42.79154" lon="1.59917">
        <ele>760.5</ele>
        <time>2014-09-21T06:22:08Z</time>
      </trkpt>
      <trkpt lat="42.79131" lon="1.59948">
        <ele>760.5</ele>
        <time>2014-09-21T06:22:19Z</time>
      </trkpt>
      <trkpt lat="42.79092" lon="1.59964">
        <ele>759.1</ele>
        <time>2014-09-21T06:22:30Z</time>
      </trkpt>
      <trkpt lat="42.79086" lon="1.59969">
        <ele>759.1</ele>
        <time>2014-09-21T06:22:32Z</time>
      </trkpt>
      <trkpt lat="42.79084" lon="1.59972">
        <ele>759.1</ele>
        <time>2014-09-21T06:22:33Z</time>
      </trkpt>
      <trkpt lat="42.79084" lon="1.59974">
        <ele>759.1</ele>
        <time>2014-09-21T06:22:34Z</time>
      </trkpt>
      <trkpt lat="42.79082" lon="1.59977">
        <ele>759.1</ele>
        <time>2014-09-21T06:22:48Z</time>
      </trkpt>
      <trkpt lat="42.79081" lon="1.59977">
        <ele>759.1</ele>
        <time>2014-09-21T06:22:56Z</time>
      </trkpt>
      <trkpt lat="42.7908" lon="1.59977">
        <ele>759.1</ele>
        <time>2014-09-21T06:22:57Z</time>
      </trkpt>
      <trkpt lat="42.79074" lon="1.59977">
        <ele>759.6</ele>
        <time>2014-09-21T06:23:00Z</time>
      </trkpt>
      <trkpt lat="42.79072" lon="1.59978">
        <ele>759.1</ele>
        <time>2014-09-21T06:23:01Z</time>
      </trkpt>
      <trkpt lat="42.79065" lon="1.59988">
        <ele>760.5</ele>
        <time>2014-09-21T06:23:05Z</time>
      </trkpt>
      <trkpt lat="42.79037" lon="1.60008">
        <ele>763.4</ele>
        <time>2014-09-21T06:23:20Z</time>
      </trkpt>
      <trkpt lat="42.79" lon="1.60025">
        <ele>765.4</ele>
        <time>2014-09-21T06:23:37Z</time>
      </trkpt>
      <trkpt lat="42.78976" lon="1.60054">
        <ele>767.3</ele>
        <time>2014-09-21T06:23:52Z</time>
      </trkpt>
      <trkpt lat="42.78959" lon="1.60087">
        <ele>769.7</ele>
        <time>2014-09-21T06:24:06Z</time>
      </trkpt>
      <trkpt lat="42.78951" lon="1.60099">
        <ele>770.6</ele>
        <time>2014-09-21T06:24:12Z</time>
      </trkpt>
      <trkpt lat="42.78949" lon="1.601">
        <ele>771.1</ele>
        <time>2014-09-21T06:24:13Z</time>
      </trkpt>
      <trkpt lat="42.78924" lon="1.6011">
        <ele>773.5</ele>
        <time>2014-09-21T06:24:28Z</time>
      </trkpt>
      <trkpt lat="42.789" lon="1.60124">
        <ele>776.9</ele>
        <time>2014-09-21T06:24:45Z</time>
      </trkpt>
      <trkpt lat="42.7888" lon="1.60141">
        <ele>779.3</ele>
        <time>2014-09-21T06:25:01Z</time>
      </trkpt>
      <trkpt lat="42.7887" lon="1.60155">
        <ele>781.2</ele>
        <time>2014-09-21T06:25:11Z</time>
      </trkpt>
      <trkpt lat="42.78858" lon="1.6017">
        <ele>783.6</ele>
        <time>2014-09-21T06:25:23Z</time>
      </trkpt>
      <trkpt lat="42.78857" lon="1.60171">
        <ele>783.6</ele>
        <time>2014-09-21T06:25:24Z</time>
      </trkpt>
      <trkpt lat="42.78843" lon="1.60193">
        <ele>785.5</ele>
        <time>2014-09-21T06:25:39Z</time>
      </trkpt>
      <trkpt lat="42.78838" lon="1.60211">
        <ele>787.5</ele>
        <time>2014-09-21T06:25:49Z</time>
      </trkpt>
      <trkpt lat="42.78836" lon="1.60227">
        <ele>788.9</ele>
        <time>2014-09-21T06:25:56Z</time>
      </trkpt>
      <trkpt lat="42.78835" lon="1.60228">
        <ele>788.9</ele>
        <time>2014-09-21T06:25:57Z</time>
      </trkpt>
      <trkpt lat="42.78832" lon="1.60235">
        <ele>789.4</ele>
        <time>2014-09-21T06:26:01Z</time>
      </trkpt>
      <trkpt lat="42.78822" lon="1.6026">
        <ele>791.8</ele>
        <time>2014-09-21T06:26:15Z</time>
      </trkpt>
      <trkpt lat="42.78816" lon="1.6027">
        <ele>792.7</ele>
        <time>2014-09-21T06:26:22Z</time>
      </trkpt>
      <trkpt lat="42.78815" lon="1.60272">
        <ele>793.2</ele>
        <time>2014-09-21T06:26:23Z</time>
      </trkpt>
      <trkpt lat="42.78815" lon="1.60273">
        <ele>793.2</ele>
        <time>2014-09-21T06:26:24Z</time>
      </trkpt>
      <trkpt lat="42.78814" lon="1.60275">
        <ele>793.7</ele>
        <time>2014-09-21T06:26:25Z</time>
      </trkpt>
      <trkpt lat="42.78814" lon="1.60277">
        <ele>793.7</ele>
        <time>2014-09-21T06:26:26Z</time>
      </trkpt>
      <trkpt lat="42.78814" lon="1.60279">
        <ele>793.7</ele>
        <time>2014-09-21T06:26:27Z</time>
      </trkpt>
      <trkpt lat="42.78813" lon="1.60281">
        <ele>794.2</ele>
        <time>2014-09-21T06:26:28Z</time>
      </trkpt>
      <trkpt lat="42.78811" lon="1.60282">
        <ele>794.2</ele>
        <time>2014-09-21T06:26:29Z</time>
      </trkpt>
      <trkpt lat="42.7881" lon="1.60283">
        <ele>794.2</ele>
        <time>2014-09-21T06:26:30Z</time>
      </trkpt>
      <trkpt lat="42.78798" lon="1.60305">
        <ele>796.6</ele>
        <time>2014-09-21T06:26:44Z</time>
      </trkpt>
      <trkpt lat="42.78797" lon="1.60307">
        <ele>796.6</ele>
        <time>2014-09-21T06:26:45Z</time>
      </trkpt>
      <trkpt lat="42.78796" lon="1.60309">
        <ele>797.1</ele>
        <time>2014-09-21T06:26:46Z</time>
      </trkpt>
      <trkpt lat="42.78795" lon="1.6031">
        <ele>797.1</ele>
        <time>2014-09-21T06:26:47Z</time>
      </trkpt>
      <trkpt lat="42.78794" lon="1.60312">
        <ele>797.1</ele>
        <time>2014-09-21T06:26:48Z</time>
      </trkpt>
      <trkpt lat="42.78793" lon="1.60314">
        <ele>797.6</ele>
        <time>2014-09-21T06:26:49Z</time>
      </trkpt>
      <trkpt lat="42.78792" lon="1.60316">
        <ele>797.6</ele>
        <time>2014-09-21T06:26:50Z</time>
      </trkpt>
      <trkpt lat="42.78791" lon="1.60339">
        <ele>799</ele>
        <time>2014-09-21T06:27:02Z</time>
      </trkpt>
      <trkpt lat="42.78791" lon="1.6034">
        <ele>799</ele>
        <time>2014-09-21T06:27:03Z</time>
      </trkpt>
      <trkpt lat="42.78787" lon="1.60372">
        <ele>801.4</ele>
        <time>2014-09-21T06:27:18Z</time>
      </trkpt>
      <trkpt lat="42.78774" lon="1.60398">
        <ele>803.3</ele>
        <time>2014-09-21T06:27:32Z</time>
      </trkpt>
      <trkpt lat="42.7876" lon="1.60417">
        <ele>805.2</ele>
        <time>2014-09-21T06:27:43Z</time>
      </trkpt>
      <trkpt lat="42.78759" lon="1.60419">
        <ele>805.2</ele>
        <time>2014-09-21T06:27:44Z</time>
      </trkpt>
      <trkpt lat="42.78735" lon="1.60447">
        <ele>807.6</ele>
        <time>2014-09-21T06:27:59Z</time>
      </trkpt>
      <trkpt lat="42.78709" lon="1.60476">
        <ele>809.1</ele>
        <time>2014-09-21T06:28:13Z</time>
      </trkpt>
      <trkpt lat="42.78675" lon="1.60496">
        <ele>811.5</ele>
        <time>2014-09-21T06:28:28Z</time>
      </trkpt>
      <trkpt lat="42.78642" lon="1.60508">
        <ele>813.9</ele>
        <time>2014-09-21T06:28:45Z</time>
      </trkpt>
      <trkpt lat="42.78622" lon="1.60519">
        <ele>815.8</ele>
        <time>2014-09-21T06:28:56Z</time>
      </trkpt>
      <trkpt lat="42.78622" lon="1.60521">
        <ele>816.3</ele>
        <time>2014-09-21T06:28:57Z</time>
      </trkpt>
      <trkpt lat="42.78622" lon="1.60523">
        <ele>816.3</ele>
        <time>2014-09-21T06:28:58Z</time>
      </trkpt>
      <trkpt lat="42.7863" lon="1.60567">
        <ele>817.3</ele>
        <time>2014-09-21T06:29:12Z</time>
      </trkpt>
      <trkpt lat="42.78642" lon="1.60615">
        <ele>819.7</ele>
        <time>2014-09-21T06:29:28Z</time>
      </trkpt>
      <trkpt lat="42.78662" lon="1.6063">
        <ele>822.6</ele>
        <time>2014-09-21T06:29:39Z</time>
      </trkpt>
      <trkpt lat="42.78663" lon="1.6063">
        <ele>822.6</ele>
        <time>2014-09-21T06:29:40Z</time>
      </trkpt>
      <trkpt lat="42.78695" lon="1.60625">
        <ele>825.4</ele>
        <time>2014-09-21T06:29:56Z</time>
      </trkpt>
      <trkpt lat="42.78731" lon="1.60621">
        <ele>828.8</ele>
        <time>2014-09-21T06:30:14Z</time>
      </trkpt>
      <trkpt lat="42.78759" lon="1.60622">
        <ele>831.7</ele>
        <time>2014-09-21T06:30:28Z</time>
      </trkpt>
      <trkpt lat="42.78761" lon="1.60622">
        <ele>831.7</ele>
        <time>2014-09-21T06:30:29Z</time>
      </trkpt>
      <trkpt lat="42.78763" lon="1.60622">
        <ele>831.7</ele>
        <time>2014-09-21T06:30:30Z</time>
      </trkpt>
      <trkpt lat="42.78765" lon="1.60622">
        <ele>832.2</ele>
        <time>2014-09-21T06:30:31Z</time>
      </trkpt>
      <trkpt lat="42.78767" lon="1.60621">
        <ele>832.2</ele>
        <time>2014-09-21T06:30:32Z</time>
      </trkpt>
      <trkpt lat="42.78801" lon="1.60622">
        <ele>835</ele>
        <time>2014-09-21T06:30:48Z</time>
      </trkpt>
      <trkpt lat="42.78833" lon="1.60629">
        <ele>837.5</ele>
        <time>2014-09-21T06:31:03Z</time>
      </trkpt>
      <trkpt lat="42.78868" lon="1.60647">
        <ele>838.9</ele>
        <time>2014-09-21T06:31:19Z</time>
      </trkpt>
      <trkpt lat="42.78904" lon="1.60679">
        <ele>841.8</ele>
        <time>2014-09-21T06:31:38Z</time>
      </trkpt>
      <trkpt lat="42.78937" lon="1.60691">
        <ele>844.2</ele>
        <time>2014-09-21T06:31:54Z</time>
      </trkpt>
      <trkpt lat="42.7897" lon="1.607">
        <ele>846.6</ele>
        <time>2014-09-21T06:32:09Z</time>
      </trkpt>
      <trkpt lat="42.79009" lon="1.60695">
        <ele>849.9</ele>
        <time>2014-09-21T06:32:27Z</time>
      </trkpt>
      <trkpt lat="42.79033" lon="1.60703">
        <ele>851.4</ele>
        <time>2014-09-21T06:32:39Z</time>
      </trkpt>
      <trkpt lat="42.79035" lon="1.60702">
        <ele>851.9</ele>
        <time>2014-09-21T06:32:40Z</time>
      </trkpt>
      <trkpt lat="42.79064" lon="1.60689">
        <ele>854.8</ele>
        <time>2014-09-21T06:32:57Z</time>
      </trkpt>
      <trkpt lat="42.79086" lon="1.60698">
        <ele>857.2</ele>
        <time>2014-09-21T06:33:10Z</time>
      </trkpt>
      <trkpt lat="42.79106" lon="1.60707">
        <ele>859.1</ele>
        <time>2014-09-21T06:33:23Z</time>
      </trkpt>
      <trkpt lat="42.79124" lon="1.60716">
        <ele>861</ele>
        <time>2014-09-21T06:33:36Z</time>
      </trkpt>
      <trkpt lat="42.79148" lon="1.6073">
        <ele>863.9</ele>
        <time>2014-09-21T06:33:53Z</time>
      </trkpt>
      <trkpt lat="42.79167" lon="1.60745">
        <ele>866.3</ele>
        <time>2014-09-21T06:34:08Z</time>
      </trkpt>
      <trkpt lat="42.79171" lon="1.60751">
        <ele>866.8</ele>
        <time>2014-09-21T06:34:12Z</time>
      </trkpt>
      <trkpt lat="42.79172" lon="1.60752">
        <ele>867.3</ele>
        <time>2014-09-21T06:34:13Z</time>
      </trkpt>
      <trkpt lat="42.79173" lon="1.60752">
        <ele>867.3</ele>
        <time>2014-09-21T06:34:14Z</time>
      </trkpt>
      <trkpt lat="42.79175" lon="1.60753">
        <ele>867.3</ele>
        <time>2014-09-21T06:34:15Z</time>
      </trkpt>
      <trkpt lat="42.79176" lon="1.60754">
        <ele>867.7</ele>
        <time>2014-09-21T06:34:16Z</time>
      </trkpt>
      <trkpt lat="42.79177" lon="1.60756">
        <ele>867.7</ele>
        <time>2014-09-21T06:34:17Z</time>
      </trkpt>
      <trkpt lat="42.79178" lon="1.60757">
        <ele>867.7</ele>
        <time>2014-09-21T06:34:18Z</time>
      </trkpt>
      <trkpt lat="42.79178" lon="1.60759">
        <ele>868.7</ele>
        <time>2014-09-21T06:34:19Z</time>
      </trkpt>
      <trkpt lat="42.79178" lon="1.60761">
        <ele>868.7</ele>
        <time>2014-09-21T06:34:20Z</time>
      </trkpt>
      <trkpt lat="42.79179" lon="1.60763">
        <ele>868.7</ele>
        <time>2014-09-21T06:34:21Z</time>
      </trkpt>
      <trkpt lat="42.7918" lon="1.60764">
        <ele>868.7</ele>
        <time>2014-09-21T06:34:22Z</time>
      </trkpt>
      <trkpt lat="42.79182" lon="1.60765">
        <ele>869.2</ele>
        <time>2014-09-21T06:34:23Z</time>
      </trkpt>
      <trkpt lat="42.79183" lon="1.60766">
        <ele>869.2</ele>
        <time>2014-09-21T06:34:24Z</time>
      </trkpt>
      <trkpt lat="42.79184" lon="1.60768">
        <ele>869.2</ele>
        <time>2014-09-21T06:34:25Z</time>
      </trkpt>
      <trkpt lat="42.79185" lon="1.6077">
        <ele>869.7</ele>
        <time>2014-09-21T06:34:26Z</time>
      </trkpt>
      <trkpt lat="42.79185" lon="1.60771">
        <ele>869.7</ele>
        <time>2014-09-21T06:34:27Z</time>
      </trkpt>
      <trkpt lat="42.79201" lon="1.60787">
        <ele>873</ele>
        <time>2014-09-21T06:34:42Z</time>
      </trkpt>
      <trkpt lat="42.79202" lon="1.60788">
        <ele>873</ele>
        <time>2014-09-21T06:34:43Z</time>
      </trkpt>
      <trkpt lat="42.79203" lon="1.60789">
        <ele>873.5</ele>
        <time>2014-09-21T06:34:44Z</time>
      </trkpt>
      <trkpt lat="42.79219" lon="1.60805">
        <ele>875.9</ele>
        <time>2014-09-21T06:35:00Z</time>
      </trkpt>
      <trkpt lat="42.79225" lon="1.60815">
        <ele>877.8</ele>
        <time>2014-09-21T06:35:08Z</time>
      </trkpt>
      <trkpt lat="42.79226" lon="1.60816">
        <ele>877.8</ele>
        <time>2014-09-21T06:35:09Z</time>
      </trkpt>
      <trkpt lat="42.79228" lon="1.60817">
        <ele>877.8</ele>
        <time>2014-09-21T06:35:10Z</time>
      </trkpt>
      <trkpt lat="42.79229" lon="1.60817">
        <ele>878.8</ele>
        <time>2014-09-21T06:35:11Z</time>
      </trkpt>
      <trkpt lat="42.7923" lon="1.60817">
        <ele>878.8</ele>
        <time>2014-09-21T06:35:12Z</time>
      </trkpt>
      <trkpt lat="42.79231" lon="1.60818">
        <ele>878.8</ele>
        <time>2014-09-21T06:35:13Z</time>
      </trkpt>
      <trkpt lat="42.79232" lon="1.60819">
        <ele>878.8</ele>
        <time>2014-09-21T06:35:14Z</time>
      </trkpt>
      <trkpt lat="42.79233" lon="1.6082">
        <ele>879.3</ele>
        <time>2014-09-21T06:35:15Z</time>
      </trkpt>
      <trkpt lat="42.79244" lon="1.60835">
        <ele>882.2</ele>
        <time>2014-09-21T06:35:28Z</time>
      </trkpt>
      <trkpt lat="42.79245" lon="1.60836">
        <ele>882.2</ele>
        <time>2014-09-21T06:35:29Z</time>
      </trkpt>
      <trkpt lat="42.79246" lon="1.60838">
        <ele>882.2</ele>
        <time>2014-09-21T06:35:30Z</time>
      </trkpt>
      <trkpt lat="42.79247" lon="1.6084">
        <ele>882.6</ele>
        <time>2014-09-21T06:35:31Z</time>
      </trkpt>
      <trkpt lat="42.79246" lon="1.60842">
        <ele>882.6</ele>
        <time>2014-09-21T06:35:32Z</time>
      </trkpt>
      <trkpt lat="42.79246" lon="1.60844">
        <ele>882.6</ele>
        <time>2014-09-21T06:35:33Z</time>
      </trkpt>
      <trkpt lat="42.79242" lon="1.60871">
        <ele>885.5</ele>
        <time>2014-09-21T06:35:49Z</time>
      </trkpt>
      <trkpt lat="42.79236" lon="1.60908">
        <ele>888.4</ele>
        <time>2014-09-21T06:36:08Z</time>
      </trkpt>
      <trkpt lat="42.79242" lon="1.60922">
        <ele>889.8</ele>
        <time>2014-09-21T06:36:16Z</time>
      </trkpt>
      <trkpt lat="42.79242" lon="1.60924">
        <ele>889.8</ele>
        <time>2014-09-21T06:36:17Z</time>
      </trkpt>
      <trkpt lat="42.79242" lon="1.60925">
        <ele>889.8</ele>
        <time>2014-09-21T06:36:18Z</time>
      </trkpt>
      <trkpt lat="42.79242" lon="1.60927">
        <ele>890.3</ele>
        <time>2014-09-21T06:36:19Z</time>
      </trkpt>
      <trkpt lat="42.79243" lon="1.60928">
        <ele>890.3</ele>
        <time>2014-09-21T06:36:20Z</time>
      </trkpt>
      <trkpt lat="42.79245" lon="1.60929">
        <ele>890.8</ele>
        <time>2014-09-21T06:36:21Z</time>
      </trkpt>
      <trkpt lat="42.79246" lon="1.6093">
        <ele>890.8</ele>
        <time>2014-09-21T06:36:22Z</time>
      </trkpt>
      <trkpt lat="42.79247" lon="1.60931">
        <ele>891.8</ele>
        <time>2014-09-21T06:36:23Z</time>
      </trkpt>
      <trkpt lat="42.79247" lon="1.60932">
        <ele>891.8</ele>
        <time>2014-09-21T06:36:24Z</time>
      </trkpt>
      <trkpt lat="42.79247" lon="1.60934">
        <ele>891.8</ele>
        <time>2014-09-21T06:36:25Z</time>
      </trkpt>
      <trkpt lat="42.79247" lon="1.60936">
        <ele>891.8</ele>
        <time>2014-09-21T06:36:26Z</time>
      </trkpt>
      <trkpt lat="42.79248" lon="1.60937">
        <ele>892.2</ele>
        <time>2014-09-21T06:36:27Z</time>
      </trkpt>
      <trkpt lat="42.79248" lon="1.60939">
        <ele>892.7</ele>
        <time>2014-09-21T06:36:28Z</time>
      </trkpt>
      <trkpt lat="42.79249" lon="1.6094">
        <ele>892.7</ele>
        <time>2014-09-21T06:36:29Z</time>
      </trkpt>
      <trkpt lat="42.7925" lon="1.60941">
        <ele>893.2</ele>
        <time>2014-09-21T06:36:30Z</time>
      </trkpt>
      <trkpt lat="42.7925" lon="1.60942">
        <ele>893.2</ele>
        <time>2014-09-21T06:36:31Z</time>
      </trkpt>
      <trkpt lat="42.7925" lon="1.60944">
        <ele>893.2</ele>
        <time>2014-09-21T06:36:32Z</time>
      </trkpt>
      <trkpt lat="42.7925" lon="1.60945">
        <ele>893.7</ele>
        <time>2014-09-21T06:36:33Z</time>
      </trkpt>
      <trkpt lat="42.79249" lon="1.60946">
        <ele>894.2</ele>
        <time>2014-09-21T06:36:34Z</time>
      </trkpt>
      <trkpt lat="42.79245" lon="1.60972">
        <ele>896.6</ele>
        <time>2014-09-21T06:36:50Z</time>
      </trkpt>
      <trkpt lat="42.79243" lon="1.60984">
        <ele>897.5</ele>
        <time>2014-09-21T06:37:04Z</time>
      </trkpt>
      <trkpt lat="42.79244" lon="1.60988">
        <ele>897.5</ele>
        <time>2014-09-21T06:37:27Z</time>
      </trkpt>
      <trkpt lat="42.79242" lon="1.60989">
        <ele>898</ele>
        <time>2014-09-21T06:38:02Z</time>
      </trkpt>
      <trkpt lat="42.79245" lon="1.60984">
        <ele>898</ele>
        <time>2014-09-21T06:38:36Z</time>
      </trkpt>
      <trkpt lat="42.79243" lon="1.60984">
        <ele>898</ele>
        <time>2014-09-21T06:39:09Z</time>
      </trkpt>
      <trkpt lat="42.79243" lon="1.60988">
        <ele>898.5</ele>
        <time>2014-09-21T06:39:54Z</time>
      </trkpt>
      <trkpt lat="42.79245" lon="1.60988">
        <ele>898.5</ele>
        <time>2014-09-21T06:40:31Z</time>
      </trkpt>
      <trkpt lat="42.79243" lon="1.60991">
        <ele>898.5</ele>
        <time>2014-09-21T06:41:06Z</time>
      </trkpt>
      <trkpt lat="42.79242" lon="1.60991">
        <ele>898.5</ele>
        <time>2014-09-21T06:41:46Z</time>
      </trkpt>
      <trkpt lat="42.79243" lon="1.60988">
        <ele>898.5</ele>
        <time>2014-09-21T06:42:14Z</time>
      </trkpt>
      <trkpt lat="42.79242" lon="1.60987">
        <ele>898.5</ele>
        <time>2014-09-21T06:42:57Z</time>
      </trkpt>
      <trkpt lat="42.79243" lon="1.6099">
        <ele>898.5</ele>
        <time>2014-09-21T06:43:46Z</time>
      </trkpt>
      <trkpt lat="42.79239" lon="1.60989">
        <ele>899</ele>
        <time>2014-09-21T06:44:23Z</time>
      </trkpt>
      <trkpt lat="42.79244" lon="1.60986">
        <ele>899</ele>
        <time>2014-09-21T06:44:46Z</time>
      </trkpt>
      <trkpt lat="42.79246" lon="1.60986">
        <ele>899</ele>
        <time>2014-09-21T06:45:14Z</time>
      </trkpt>
      <trkpt lat="42.79243" lon="1.60988">
        <ele>899</ele>
        <time>2014-09-21T06:45:39Z</time>
      </trkpt>
      <trkpt lat="42.79242" lon="1.60986">
        <ele>899.5</ele>
        <time>2014-09-21T06:46:14Z</time>
      </trkpt>
      <trkpt lat="42.79241" lon="1.60989">
        <ele>900.4</ele>
        <time>2014-09-21T06:46:25Z</time>
      </trkpt>
      <trkpt lat="42.79241" lon="1.60992">
        <ele>900.4</ele>
        <time>2014-09-21T06:46:28Z</time>
      </trkpt>
      <trkpt lat="42.79223" lon="1.61003">
        <ele>903.3</ele>
        <time>2014-09-21T06:46:42Z</time>
      </trkpt>
      <trkpt lat="42.79199" lon="1.61024">
        <ele>905.7</ele>
        <time>2014-09-21T06:46:59Z</time>
      </trkpt>
      <trkpt lat="42.79182" lon="1.61038">
        <ele>907.6</ele>
        <time>2014-09-21T06:47:12Z</time>
      </trkpt>
      <trkpt lat="42.79181" lon="1.61039">
        <ele>907.6</ele>
        <time>2014-09-21T06:47:13Z</time>
      </trkpt>
      <trkpt lat="42.7918" lon="1.61041">
        <ele>908.1</ele>
        <time>2014-09-21T06:47:14Z</time>
      </trkpt>
      <trkpt lat="42.79179" lon="1.61042">
        <ele>908.1</ele>
        <time>2014-09-21T06:47:15Z</time>
      </trkpt>
      <trkpt lat="42.79178" lon="1.61044">
        <ele>908.6</ele>
        <time>2014-09-21T06:47:16Z</time>
      </trkpt>
      <trkpt lat="42.79176" lon="1.61045">
        <ele>908.6</ele>
        <time>2014-09-21T06:47:17Z</time>
      </trkpt>
      <trkpt lat="42.79157" lon="1.61066">
        <ele>911.5</ele>
        <time>2014-09-21T06:47:33Z</time>
      </trkpt>
      <trkpt lat="42.79136" lon="1.61074">
        <ele>914.4</ele>
        <time>2014-09-21T06:47:48Z</time>
      </trkpt>
      <trkpt lat="42.79116" lon="1.61081">
        <ele>916.8</ele>
        <time>2014-09-21T06:48:03Z</time>
      </trkpt>
      <trkpt lat="42.79094" lon="1.61082">
        <ele>918.2</ele>
        <time>2014-09-21T06:48:16Z</time>
      </trkpt>
      <trkpt lat="42.79065" lon="1.61085">
        <ele>920.1</ele>
        <time>2014-09-21T06:48:31Z</time>
      </trkpt>
      <trkpt lat="42.79038" lon="1.61089">
        <ele>922.5</ele>
        <time>2014-09-21T06:48:46Z</time>
      </trkpt>
      <trkpt lat="42.79012" lon="1.61085">
        <ele>925.4</ele>
        <time>2014-09-21T06:49:01Z</time>
      </trkpt>
      <trkpt lat="42.78985" lon="1.61077">
        <ele>927.8</ele>
        <time>2014-09-21T06:49:16Z</time>
      </trkpt>
      <trkpt lat="42.78972" lon="1.61072">
        <ele>929.7</ele>
        <time>2014-09-21T06:49:25Z</time>
      </trkpt>
      <trkpt lat="42.78971" lon="1.6107">
        <ele>929.7</ele>
        <time>2014-09-21T06:49:26Z</time>
      </trkpt>
      <trkpt lat="42.78969" lon="1.61069">
        <ele>929.7</ele>
        <time>2014-09-21T06:49:27Z</time>
      </trkpt>
      <trkpt lat="42.78967" lon="1.61069">
        <ele>929.7</ele>
        <time>2014-09-21T06:49:28Z</time>
      </trkpt>
      <trkpt lat="42.78945" lon="1.61056">
        <ele>932.6</ele>
        <time>2014-09-21T06:49:42Z</time>
      </trkpt>
      <trkpt lat="42.78918" lon="1.61041">
        <ele>935</ele>
        <time>2014-09-21T06:49:59Z</time>
      </trkpt>
      <trkpt lat="42.78892" lon="1.61035">
        <ele>937.9</ele>
        <time>2014-09-21T06:50:14Z</time>
      </trkpt>
      <trkpt lat="42.78871" lon="1.6104">
        <ele>940.3</ele>
        <time>2014-09-21T06:50:28Z</time>
      </trkpt>
      <trkpt lat="42.78847" lon="1.61057">
        <ele>943.2</ele>
        <time>2014-09-21T06:50:44Z</time>
      </trkpt>
      <trkpt lat="42.78826" lon="1.61082">
        <ele>946.1</ele>
        <time>2014-09-21T06:51:00Z</time>
      </trkpt>
      <trkpt lat="42.78825" lon="1.61084">
        <ele>946.6</ele>
        <time>2014-09-21T06:51:01Z</time>
      </trkpt>
      <trkpt lat="42.78824" lon="1.61086">
        <ele>946.6</ele>
        <time>2014-09-21T06:51:02Z</time>
      </trkpt>
      <trkpt lat="42.78823" lon="1.61087">
        <ele>946.6</ele>
        <time>2014-09-21T06:51:03Z</time>
      </trkpt>
      <trkpt lat="42.78822" lon="1.61089">
        <ele>947.5</ele>
        <time>2014-09-21T06:51:04Z</time>
      </trkpt>
      <trkpt lat="42.78821" lon="1.61091">
        <ele>947.5</ele>
        <time>2014-09-21T06:51:05Z</time>
      </trkpt>
      <trkpt lat="42.7882" lon="1.61092">
        <ele>947.5</ele>
        <time>2014-09-21T06:51:06Z</time>
      </trkpt>
      <trkpt lat="42.788" lon="1.61119">
        <ele>950.4</ele>
        <time>2014-09-21T06:51:23Z</time>
      </trkpt>
      <trkpt lat="42.78781" lon="1.61149">
        <ele>953.8</ele>
        <time>2014-09-21T06:51:42Z</time>
      </trkpt>
      <trkpt lat="42.78764" lon="1.61167">
        <ele>956.2</ele>
        <time>2014-09-21T06:51:56Z</time>
      </trkpt>
      <trkpt lat="42.78762" lon="1.6117">
        <ele>956.2</ele>
        <time>2014-09-21T06:51:58Z</time>
      </trkpt>
      <trkpt lat="42.7876" lon="1.61171">
        <ele>956.7</ele>
        <time>2014-09-21T06:51:59Z</time>
      </trkpt>
      <trkpt lat="42.78753" lon="1.61176">
        <ele>957.6</ele>
        <time>2014-09-21T06:52:05Z</time>
      </trkpt>
      <trkpt lat="42.78752" lon="1.61178">
        <ele>957.6</ele>
        <time>2014-09-21T06:52:07Z</time>
      </trkpt>
      <trkpt lat="42.7875" lon="1.61179">
        <ele>958.1</ele>
        <time>2014-09-21T06:52:08Z</time>
      </trkpt>
      <trkpt lat="42.78749" lon="1.6118">
        <ele>958.1</ele>
        <time>2014-09-21T06:52:09Z</time>
      </trkpt>
      <trkpt lat="42.78747" lon="1.61181">
        <ele>958.1</ele>
        <time>2014-09-21T06:52:10Z</time>
      </trkpt>
      <trkpt lat="42.78746" lon="1.61182">
        <ele>958.6</ele>
        <time>2014-09-21T06:52:11Z</time>
      </trkpt>
      <trkpt lat="42.78744" lon="1.61183">
        <ele>958.6</ele>
        <time>2014-09-21T06:52:12Z</time>
      </trkpt>
      <trkpt lat="42.78742" lon="1.61185">
        <ele>959.1</ele>
        <time>2014-09-21T06:52:13Z</time>
      </trkpt>
      <trkpt lat="42.7874" lon="1.61186">
        <ele>959.1</ele>
        <time>2014-09-21T06:52:14Z</time>
      </trkpt>
      <trkpt lat="42.78738" lon="1.61187">
        <ele>959.1</ele>
        <time>2014-09-21T06:52:15Z</time>
      </trkpt>
      <trkpt lat="42.78714" lon="1.61203">
        <ele>961.5</ele>
        <time>2014-09-21T06:52:29Z</time>
      </trkpt>
      <trkpt lat="42.78685" lon="1.6122">
        <ele>964.3</ele>
        <time>2014-09-21T06:52:44Z</time>
      </trkpt>
      <trkpt lat="42.78677" lon="1.61223">
        <ele>965.3</ele>
        <time>2014-09-21T06:52:50Z</time>
      </trkpt>
      <trkpt lat="42.78676" lon="1.61225">
        <ele>965.8</ele>
        <time>2014-09-21T06:52:51Z</time>
      </trkpt>
      <trkpt lat="42.78674" lon="1.61226">
        <ele>965.8</ele>
        <time>2014-09-21T06:52:52Z</time>
      </trkpt>
      <trkpt lat="42.78655" lon="1.6124">
        <ele>968.7</ele>
        <time>2014-09-21T06:53:06Z</time>
      </trkpt>
      <trkpt lat="42.78636" lon="1.61259">
        <ele>970.1</ele>
        <time>2014-09-21T06:53:19Z</time>
      </trkpt>
      <trkpt lat="42.78617" lon="1.61286">
        <ele>973</ele>
        <time>2014-09-21T06:53:33Z</time>
      </trkpt>
      <trkpt lat="42.78612" lon="1.61294">
        <ele>974</ele>
        <time>2014-09-21T06:53:39Z</time>
      </trkpt>
      <trkpt lat="42.78611" lon="1.61296">
        <ele>974</ele>
        <time>2014-09-21T06:53:40Z</time>
      </trkpt>
      <trkpt lat="42.78599" lon="1.61318">
        <ele>976.8</ele>
        <time>2014-09-21T06:53:54Z</time>
      </trkpt>
      <trkpt lat="42.78589" lon="1.61348">
        <ele>979.2</ele>
        <time>2014-09-21T06:54:06Z</time>
      </trkpt>
      <trkpt lat="42.78574" lon="1.61382">
        <ele>981.6</ele>
        <time>2014-09-21T06:54:21Z</time>
      </trkpt>
      <trkpt lat="42.78574" lon="1.61406">
        <ele>983.1</ele>
        <time>2014-09-21T06:54:29Z</time>
      </trkpt>
      <trkpt lat="42.78575" lon="1.61409">
        <ele>983.1</ele>
        <time>2014-09-21T06:54:30Z</time>
      </trkpt>
      <trkpt lat="42.78576" lon="1.61411">
        <ele>984.1</ele>
        <time>2014-09-21T06:54:31Z</time>
      </trkpt>
      <trkpt lat="42.78578" lon="1.61413">
        <ele>984.1</ele>
        <time>2014-09-21T06:54:32Z</time>
      </trkpt>
      <trkpt lat="42.78579" lon="1.61414">
        <ele>984.1</ele>
        <time>2014-09-21T06:54:33Z</time>
      </trkpt>
      <trkpt lat="42.78581" lon="1.61414">
        <ele>984.5</ele>
        <time>2014-09-21T06:54:34Z</time>
      </trkpt>
      <trkpt lat="42.78582" lon="1.61414">
        <ele>984.5</ele>
        <time>2014-09-21T06:54:35Z</time>
      </trkpt>
      <trkpt lat="42.78584" lon="1.61413">
        <ele>984.5</ele>
        <time>2014-09-21T06:54:36Z</time>
      </trkpt>
      <trkpt lat="42.78605" lon="1.61395">
        <ele>986</ele>
        <time>2014-09-21T06:54:48Z</time>
      </trkpt>
      <trkpt lat="42.78614" lon="1.61387">
        <ele>986.5</ele>
        <time>2014-09-21T06:54:53Z</time>
      </trkpt>
      <trkpt lat="42.78616" lon="1.61386">
        <ele>986.5</ele>
        <time>2014-09-21T06:54:54Z</time>
      </trkpt>
      <trkpt lat="42.78643" lon="1.61373">
        <ele>989.3</ele>
        <time>2014-09-21T06:55:08Z</time>
      </trkpt>
      <trkpt lat="42.78666" lon="1.61359">
        <ele>991.7</ele>
        <time>2014-09-21T06:55:21Z</time>
      </trkpt>
      <trkpt lat="42.78688" lon="1.61347">
        <ele>994.1</ele>
        <time>2014-09-21T06:55:33Z</time>
      </trkpt>
      <trkpt lat="42.78715" lon="1.61334">
        <ele>996.5</ele>
        <time>2014-09-21T06:55:47Z</time>
      </trkpt>
      <trkpt lat="42.78737" lon="1.61328">
        <ele>999</ele>
        <time>2014-09-21T06:56:00Z</time>
      </trkpt>
      <trkpt lat="42.78763" lon="1.61325">
        <ele>1001.4</ele>
        <time>2014-09-21T06:56:14Z</time>
      </trkpt>
      <trkpt lat="42.78791" lon="1.61317">
        <ele>1003.8</ele>
        <time>2014-09-21T06:56:29Z</time>
      </trkpt>
      <trkpt lat="42.78819" lon="1.61312">
        <ele>1006.2</ele>
        <time>2014-09-21T06:56:44Z</time>
      </trkpt>
      <trkpt lat="42.78842" lon="1.61301">
        <ele>1008.6</ele>
        <time>2014-09-21T06:56:57Z</time>
      </trkpt>
      <trkpt lat="42.78865" lon="1.61283">
        <ele>1011.9</ele>
        <time>2014-09-21T06:57:11Z</time>
      </trkpt>
      <trkpt lat="42.78894" lon="1.61263">
        <ele>1014.3</ele>
        <time>2014-09-21T06:57:29Z</time>
      </trkpt>
      <trkpt lat="42.78926" lon="1.61263">
        <ele>1017.2</ele>
        <time>2014-09-21T06:57:45Z</time>
      </trkpt>
      <trkpt lat="42.78954" lon="1.61278">
        <ele>1020.1</ele>
        <time>2014-09-21T06:58:02Z</time>
      </trkpt>
      <trkpt lat="42.78979" lon="1.61292">
        <ele>1023</ele>
        <time>2014-09-21T06:58:17Z</time>
      </trkpt>
      <trkpt lat="42.79009" lon="1.61309">
        <ele>1025.4</ele>
        <time>2014-09-21T06:58:34Z</time>
      </trkpt>
      <trkpt lat="42.79035" lon="1.61326">
        <ele>1028.3</ele>
        <time>2014-09-21T06:58:50Z</time>
      </trkpt>
      <trkpt lat="42.79057" lon="1.61333">
        <ele>1030.7</ele>
        <time>2014-09-21T06:59:03Z</time>
      </trkpt>
      <trkpt lat="42.79081" lon="1.61338">
        <ele>1033.1</ele>
        <time>2014-09-21T06:59:17Z</time>
      </trkpt>
      <trkpt lat="42.79106" lon="1.61339">
        <ele>1036.4</ele>
        <time>2014-09-21T06:59:32Z</time>
      </trkpt>
      <trkpt lat="42.79111" lon="1.61342">
        <ele>1037.4</ele>
        <time>2014-09-21T06:59:36Z</time>
      </trkpt>
      <trkpt lat="42.79113" lon="1.61342">
        <ele>1037.4</ele>
        <time>2014-09-21T06:59:37Z</time>
      </trkpt>
      <trkpt lat="42.79139" lon="1.61353">
        <ele>1040.3</ele>
        <time>2014-09-21T06:59:53Z</time>
      </trkpt>
      <trkpt lat="42.7916" lon="1.61363">
        <ele>1042.7</ele>
        <time>2014-09-21T07:00:06Z</time>
      </trkpt>
      <trkpt lat="42.79183" lon="1.614">
        <ele>1045.1</ele>
        <time>2014-09-21T07:00:21Z</time>
      </trkpt>
      <trkpt lat="42.79205" lon="1.61415">
        <ele>1048</ele>
        <time>2014-09-21T07:00:35Z</time>
      </trkpt>
      <trkpt lat="42.79206" lon="1.61415">
        <ele>1048</ele>
        <time>2014-09-21T07:00:36Z</time>
      </trkpt>
      <trkpt lat="42.79208" lon="1.61416">
        <ele>1048.5</ele>
        <time>2014-09-21T07:00:37Z</time>
      </trkpt>
      <trkpt lat="42.79231" lon="1.61436">
        <ele>1051.3</ele>
        <time>2014-09-21T07:00:53Z</time>
      </trkpt>
      <trkpt lat="42.79253" lon="1.61454">
        <ele>1053.3</ele>
        <time>2014-09-21T07:01:07Z</time>
      </trkpt>
      <trkpt lat="42.79277" lon="1.61467">
        <ele>1056.6</ele>
        <time>2014-09-21T07:01:22Z</time>
      </trkpt>
      <trkpt lat="42.79303" lon="1.61467">
        <ele>1059</ele>
        <time>2014-09-21T07:01:36Z</time>
      </trkpt>
      <trkpt lat="42.79312" lon="1.61465">
        <ele>1060</ele>
        <time>2014-09-21T07:01:41Z</time>
      </trkpt>
      <trkpt lat="42.79321" lon="1.61468">
        <ele>1061</ele>
        <time>2014-09-21T07:01:47Z</time>
      </trkpt>
      <trkpt lat="42.79348" lon="1.61482">
        <ele>1063.4</ele>
        <time>2014-09-21T07:02:02Z</time>
      </trkpt>
      <trkpt lat="42.79355" lon="1.61502">
        <ele>1063.8</ele>
        <time>2014-09-21T07:02:05Z</time>
      </trkpt>
      <trkpt lat="42.79351" lon="1.61516">
        <ele>1065.3</ele>
        <time>2014-09-21T07:02:11Z</time>
      </trkpt>
      <trkpt lat="42.79331" lon="1.61504">
        <ele>1066.7</ele>
        <time>2014-09-21T07:02:24Z</time>
      </trkpt>
      <trkpt lat="42.79307" lon="1.61513">
        <ele>1069.1</ele>
        <time>2014-09-21T07:02:37Z</time>
      </trkpt>
      <trkpt lat="42.79277" lon="1.61519">
        <ele>1071.1</ele>
        <time>2014-09-21T07:02:53Z</time>
      </trkpt>
      <trkpt lat="42.79248" lon="1.61516">
        <ele>1073.9</ele>
        <time>2014-09-21T07:03:09Z</time>
      </trkpt>
      <trkpt lat="42.79245" lon="1.61515">
        <ele>1074.4</ele>
        <time>2014-09-21T07:03:11Z</time>
      </trkpt>
      <trkpt lat="42.79243" lon="1.61515">
        <ele>1074.4</ele>
        <time>2014-09-21T07:03:12Z</time>
      </trkpt>
      <trkpt lat="42.79241" lon="1.61516">
        <ele>1074.4</ele>
        <time>2014-09-21T07:03:13Z</time>
      </trkpt>
      <trkpt lat="42.7924" lon="1.61516">
        <ele>1074.4</ele>
        <time>2014-09-21T07:03:14Z</time>
      </trkpt>
      <trkpt lat="42.79238" lon="1.61516">
        <ele>1074.9</ele>
        <time>2014-09-21T07:03:15Z</time>
      </trkpt>
      <trkpt lat="42.79208" lon="1.61506">
        <ele>1078.3</ele>
        <time>2014-09-21T07:03:33Z</time>
      </trkpt>
      <trkpt lat="42.79194" lon="1.61503">
        <ele>1079.2</ele>
        <time>2014-09-21T07:03:41Z</time>
      </trkpt>
      <trkpt lat="42.79167" lon="1.61498">
        <ele>1081.6</ele>
        <time>2014-09-21T07:03:56Z</time>
      </trkpt>
      <trkpt lat="42.79137" lon="1.61492">
        <ele>1084.5</ele>
        <time>2014-09-21T07:04:13Z</time>
      </trkpt>
      <trkpt lat="42.79111" lon="1.61479">
        <ele>1086.9</ele>
        <time>2014-09-21T07:04:28Z</time>
      </trkpt>
      <trkpt lat="42.79081" lon="1.61471">
        <ele>1089.8</ele>
        <time>2014-09-21T07:04:45Z</time>
      </trkpt>
      <trkpt lat="42.79059" lon="1.61475">
        <ele>1091.7</ele>
        <time>2014-09-21T07:04:57Z</time>
      </trkpt>
      <trkpt lat="42.79057" lon="1.61475">
        <ele>1091.7</ele>
        <time>2014-09-21T07:04:58Z</time>
      </trkpt>
      <trkpt lat="42.79056" lon="1.61476">
        <ele>1092.2</ele>
        <time>2014-09-21T07:04:59Z</time>
      </trkpt>
      <trkpt lat="42.79039" lon="1.6148">
        <ele>1093.2</ele>
        <time>2014-09-21T07:05:08Z</time>
      </trkpt>
      <trkpt lat="42.79015" lon="1.61488">
        <ele>1095.1</ele>
        <time>2014-09-21T07:05:21Z</time>
      </trkpt>
      <trkpt lat="42.78996" lon="1.61508">
        <ele>1097</ele>
        <time>2014-09-21T07:05:34Z</time>
      </trkpt>
      <trkpt lat="42.78981" lon="1.61538">
        <ele>1099.4</ele>
        <time>2014-09-21T07:05:49Z</time>
      </trkpt>
      <trkpt lat="42.78973" lon="1.61567">
        <ele>1101.3</ele>
        <time>2014-09-21T07:06:02Z</time>
      </trkpt>
      <trkpt lat="42.78965" lon="1.61595">
        <ele>1104.7</ele>
        <time>2014-09-21T07:06:16Z</time>
      </trkpt>
      <trkpt lat="42.78952" lon="1.61625">
        <ele>1107.1</ele>
        <time>2014-09-21T07:06:31Z</time>
      </trkpt>
      <trkpt lat="42.78945" lon="1.6164">
        <ele>1108.1</ele>
        <time>2014-09-21T07:06:39Z</time>
      </trkpt>
      <trkpt lat="42.78945" lon="1.61643">
        <ele>1108.1</ele>
        <time>2014-09-21T07:06:40Z</time>
      </trkpt>
      <trkpt lat="42.78946" lon="1.61645">
        <ele>1108.5</ele>
        <time>2014-09-21T07:06:41Z</time>
      </trkpt>
      <trkpt lat="42.78949" lon="1.6165">
        <ele>1109</ele>
        <time>2014-09-21T07:06:44Z</time>
      </trkpt>
      <trkpt lat="42.78951" lon="1.61651">
        <ele>1109</ele>
        <time>2014-09-21T07:06:45Z</time>
      </trkpt>
      <trkpt lat="42.78953" lon="1.61651">
        <ele>1109.5</ele>
        <time>2014-09-21T07:06:46Z</time>
      </trkpt>
      <trkpt lat="42.78955" lon="1.6165">
        <ele>1109</ele>
        <time>2014-09-21T07:06:47Z</time>
      </trkpt>
      <trkpt lat="42.78956" lon="1.61649">
        <ele>1109</ele>
        <time>2014-09-21T07:06:48Z</time>
      </trkpt>
      <trkpt lat="42.78958" lon="1.61647">
        <ele>1110</ele>
        <time>2014-09-21T07:06:49Z</time>
      </trkpt>
      <trkpt lat="42.78966" lon="1.61636">
        <ele>1110.5</ele>
        <time>2014-09-21T07:06:56Z</time>
      </trkpt>
      <trkpt lat="42.78966" lon="1.61634">
        <ele>1110.9</ele>
        <time>2014-09-21T07:06:57Z</time>
      </trkpt>
      <trkpt lat="42.78968" lon="1.61629">
        <ele>1111.4</ele>
        <time>2014-09-21T07:07:00Z</time>
      </trkpt>
      <trkpt lat="42.78969" lon="1.61627">
        <ele>1111.4</ele>
        <time>2014-09-21T07:07:01Z</time>
      </trkpt>
      <trkpt lat="42.78969" lon="1.61625">
        <ele>1111.4</ele>
        <time>2014-09-21T07:07:02Z</time>
      </trkpt>
      <trkpt lat="42.78988" lon="1.61595">
        <ele>1114.3</ele>
        <time>2014-09-21T07:07:19Z</time>
      </trkpt>
      <trkpt lat="42.79006" lon="1.61568">
        <ele>1117.7</ele>
        <time>2014-09-21T07:07:35Z</time>
      </trkpt>
      <trkpt lat="42.79029" lon="1.6156">
        <ele>1119.6</ele>
        <time>2014-09-21T07:07:49Z</time>
      </trkpt>
      <trkpt lat="42.79031" lon="1.6156">
        <ele>1119.6</ele>
        <time>2014-09-21T07:07:50Z</time>
      </trkpt>
      <trkpt lat="42.79033" lon="1.61561">
        <ele>1119.6</ele>
        <time>2014-09-21T07:07:51Z</time>
      </trkpt>
      <trkpt lat="42.79034" lon="1.61562">
        <ele>1120.1</ele>
        <time>2014-09-21T07:07:52Z</time>
      </trkpt>
      <trkpt lat="42.79035" lon="1.61562">
        <ele>1120.1</ele>
        <time>2014-09-21T07:07:53Z</time>
      </trkpt>
      <trkpt lat="42.79059" lon="1.61567">
        <ele>1122.5</ele>
        <time>2014-09-21T07:08:07Z</time>
      </trkpt>
      <trkpt lat="42.79087" lon="1.61574">
        <ele>1125.4</ele>
        <time>2014-09-21T07:08:24Z</time>
      </trkpt>
      <trkpt lat="42.79091" lon="1.61578">
        <ele>1125.8</ele>
        <time>2014-09-21T07:08:27Z</time>
      </trkpt>
      <trkpt lat="42.79093" lon="1.61579">
        <ele>1125.8</ele>
        <time>2014-09-21T07:08:28Z</time>
      </trkpt>
      <trkpt lat="42.79095" lon="1.61579">
        <ele>1125.8</ele>
        <time>2014-09-21T07:08:29Z</time>
      </trkpt>
      <trkpt lat="42.79121" lon="1.61599">
        <ele>1128.7</ele>
        <time>2014-09-21T07:08:47Z</time>
      </trkpt>
      <trkpt lat="42.79143" lon="1.61623">
        <ele>1132.1</ele>
        <time>2014-09-21T07:09:06Z</time>
      </trkpt>
      <trkpt lat="42.7916" lon="1.61641">
        <ele>1134.5</ele>
        <time>2014-09-21T07:09:21Z</time>
      </trkpt>
      <trkpt lat="42.79181" lon="1.61661">
        <ele>1136.9</ele>
        <time>2014-09-21T07:09:37Z</time>
      </trkpt>
      <trkpt lat="42.79199" lon="1.6168">
        <ele>1140.3</ele>
        <time>2014-09-21T07:09:53Z</time>
      </trkpt>
      <trkpt lat="42.79218" lon="1.61698">
        <ele>1142.7</ele>
        <time>2014-09-21T07:10:08Z</time>
      </trkpt>
      <trkpt lat="42.79243" lon="1.61716">
        <ele>1145.6</ele>
        <time>2014-09-21T07:10:26Z</time>
      </trkpt>
      <trkpt lat="42.79266" lon="1.61729">
        <ele>1148.4</ele>
        <time>2014-09-21T07:10:43Z</time>
      </trkpt>
      <trkpt lat="42.79272" lon="1.61734">
        <ele>1149.4</ele>
        <time>2014-09-21T07:10:48Z</time>
      </trkpt>
      <trkpt lat="42.79292" lon="1.61756">
        <ele>1152.3</ele>
        <time>2014-09-21T07:11:04Z</time>
      </trkpt>
      <trkpt lat="42.7931" lon="1.61785">
        <ele>1155.2</ele>
        <time>2014-09-21T07:11:21Z</time>
      </trkpt>
      <trkpt lat="42.79322" lon="1.61803">
        <ele>1157.1</ele>
        <time>2014-09-21T07:11:32Z</time>
      </trkpt>
      <trkpt lat="42.79323" lon="1.61805">
        <ele>1157.1</ele>
        <time>2014-09-21T07:11:33Z</time>
      </trkpt>
      <trkpt lat="42.79324" lon="1.61807">
        <ele>1157.6</ele>
        <time>2014-09-21T07:11:34Z</time>
      </trkpt>
      <trkpt lat="42.79326" lon="1.61808">
        <ele>1157.6</ele>
        <time>2014-09-21T07:11:35Z</time>
      </trkpt>
      <trkpt lat="42.79327" lon="1.6181">
        <ele>1157.6</ele>
        <time>2014-09-21T07:11:36Z</time>
      </trkpt>
      <trkpt lat="42.79344" lon="1.61835">
        <ele>1160</ele>
        <time>2014-09-21T07:11:52Z</time>
      </trkpt>
      <trkpt lat="42.79347" lon="1.61839">
        <ele>1160.9</ele>
        <time>2014-09-21T07:11:55Z</time>
      </trkpt>
      <trkpt lat="42.79348" lon="1.61841">
        <ele>1160.9</ele>
        <time>2014-09-21T07:11:56Z</time>
      </trkpt>
      <trkpt lat="42.79349" lon="1.61843">
        <ele>1160.9</ele>
        <time>2014-09-21T07:11:57Z</time>
      </trkpt>
      <trkpt lat="42.7935" lon="1.61845">
        <ele>1161.4</ele>
        <time>2014-09-21T07:11:58Z</time>
      </trkpt>
      <trkpt lat="42.79351" lon="1.61846">
        <ele>1161.4</ele>
        <time>2014-09-21T07:11:59Z</time>
      </trkpt>
      <trkpt lat="42.79369" lon="1.61877">
        <ele>1163.8</ele>
        <time>2014-09-21T07:12:17Z</time>
      </trkpt>
      <trkpt lat="42.79381" lon="1.61908">
        <ele>1166.7</ele>
        <time>2014-09-21T07:12:33Z</time>
      </trkpt>
      <trkpt lat="42.79388" lon="1.61932">
        <ele>1168.6</ele>
        <time>2014-09-21T07:12:45Z</time>
      </trkpt>
      <trkpt lat="42.79389" lon="1.61934">
        <ele>1169.1</ele>
        <time>2014-09-21T07:12:46Z</time>
      </trkpt>
      <trkpt lat="42.79389" lon="1.61936">
        <ele>1169.1</ele>
        <time>2014-09-21T07:12:47Z</time>
      </trkpt>
      <trkpt lat="42.79388" lon="1.61938">
        <ele>1169.1</ele>
        <time>2014-09-21T07:12:48Z</time>
      </trkpt>
      <trkpt lat="42.79388" lon="1.6194">
        <ele>1169.6</ele>
        <time>2014-09-21T07:12:49Z</time>
      </trkpt>
      <trkpt lat="42.79388" lon="1.61943">
        <ele>1169.6</ele>
        <time>2014-09-21T07:12:50Z</time>
      </trkpt>
      <trkpt lat="42.79389" lon="1.61945">
        <ele>1170.1</ele>
        <time>2014-09-21T07:12:51Z</time>
      </trkpt>
      <trkpt lat="42.79395" lon="1.61982">
        <ele>1173</ele>
        <time>2014-09-21T07:13:08Z</time>
      </trkpt>
      <trkpt lat="42.79397" lon="1.61989">
        <ele>1173.9</ele>
        <time>2014-09-21T07:13:12Z</time>
      </trkpt>
      <trkpt lat="42.79424" lon="1.62006">
        <ele>1176.3</ele>
        <time>2014-09-21T07:13:29Z</time>
      </trkpt>
      <trkpt lat="42.79442" lon="1.61984">
        <ele>1178.7</ele>
        <time>2014-09-21T07:13:43Z</time>
      </trkpt>
      <trkpt lat="42.79463" lon="1.61955">
        <ele>1181.6</ele>
        <time>2014-09-21T07:14:00Z</time>
      </trkpt>
      <trkpt lat="42.7947" lon="1.6194">
        <ele>1182.6</ele>
        <time>2014-09-21T07:14:07Z</time>
      </trkpt>
      <trkpt lat="42.79471" lon="1.61938">
        <ele>1183</ele>
        <time>2014-09-21T07:14:08Z</time>
      </trkpt>
      <trkpt lat="42.79475" lon="1.61893">
        <ele>1185.9</ele>
        <time>2014-09-21T07:14:26Z</time>
      </trkpt>
      <trkpt lat="42.79482" lon="1.61874">
        <ele>1186.9</ele>
        <time>2014-09-21T07:14:35Z</time>
      </trkpt>
      <trkpt lat="42.79484" lon="1.61874">
        <ele>1187.4</ele>
        <time>2014-09-21T07:14:36Z</time>
      </trkpt>
      <trkpt lat="42.79485" lon="1.61874">
        <ele>1187.9</ele>
        <time>2014-09-21T07:14:37Z</time>
      </trkpt>
      <trkpt lat="42.79487" lon="1.61876">
        <ele>1187.9</ele>
        <time>2014-09-21T07:14:38Z</time>
      </trkpt>
      <trkpt lat="42.79489" lon="1.61878">
        <ele>1187.9</ele>
        <time>2014-09-21T07:14:39Z</time>
      </trkpt>
      <trkpt lat="42.7949" lon="1.6188">
        <ele>1187.9</ele>
        <time>2014-09-21T07:14:40Z</time>
      </trkpt>
      <trkpt lat="42.79491" lon="1.61882">
        <ele>1187.9</ele>
        <time>2014-09-21T07:14:41Z</time>
      </trkpt>
      <trkpt lat="42.79492" lon="1.61887">
        <ele>1188.3</ele>
        <time>2014-09-21T07:14:43Z</time>
      </trkpt>
      <trkpt lat="42.79492" lon="1.61889">
        <ele>1188.3</ele>
        <time>2014-09-21T07:14:44Z</time>
      </trkpt>
      <trkpt lat="42.79491" lon="1.61892">
        <ele>1188.3</ele>
        <time>2014-09-21T07:14:45Z</time>
      </trkpt>
      <trkpt lat="42.79488" lon="1.61927">
        <ele>1189.8</ele>
        <time>2014-09-21T07:14:58Z</time>
      </trkpt>
      <trkpt lat="42.79483" lon="1.61971">
        <ele>1192.2</ele>
        <time>2014-09-21T07:15:13Z</time>
      </trkpt>
      <trkpt lat="42.79478" lon="1.62018">
        <ele>1194.1</ele>
        <time>2014-09-21T07:15:29Z</time>
      </trkpt>
      <trkpt lat="42.7948" lon="1.62072">
        <ele>1195.5</ele>
        <time>2014-09-21T07:15:45Z</time>
      </trkpt>
      <trkpt lat="42.7948" lon="1.62084">
        <ele>1196</ele>
        <time>2014-09-21T07:15:49Z</time>
      </trkpt>
      <trkpt lat="42.7948" lon="1.62087">
        <ele>1196</ele>
        <time>2014-09-21T07:15:50Z</time>
      </trkpt>
      <trkpt lat="42.79479" lon="1.62091">
        <ele>1196</ele>
        <time>2014-09-21T07:15:51Z</time>
      </trkpt>
      <trkpt lat="42.79479" lon="1.62094">
        <ele>1196</ele>
        <time>2014-09-21T07:15:52Z</time>
      </trkpt>
      <trkpt lat="42.79479" lon="1.62097">
        <ele>1196</ele>
        <time>2014-09-21T07:15:53Z</time>
      </trkpt>
      <trkpt lat="42.79471" lon="1.62156">
        <ele>1197.5</ele>
        <time>2014-09-21T07:16:10Z</time>
      </trkpt>
      <trkpt lat="42.79453" lon="1.62189">
        <ele>1199.4</ele>
        <time>2014-09-21T07:16:24Z</time>
      </trkpt>
      <trkpt lat="42.7942" lon="1.62213">
        <ele>1201.3</ele>
        <time>2014-09-21T07:16:40Z</time>
      </trkpt>
      <trkpt lat="42.79396" lon="1.62223">
        <ele>1202.8</ele>
        <time>2014-09-21T07:16:52Z</time>
      </trkpt>
      <trkpt lat="42.79384" lon="1.6222">
        <ele>1204.7</ele>
        <time>2014-09-21T07:17:06Z</time>
      </trkpt>
      <trkpt lat="42.79385" lon="1.62219">
        <ele>1204.7</ele>
        <time>2014-09-21T07:17:20Z</time>
      </trkpt>
      <trkpt lat="42.79384" lon="1.62216">
        <ele>1204.7</ele>
        <time>2014-09-21T07:17:28Z</time>
      </trkpt>
      <trkpt lat="42.79383" lon="1.62215">
        <ele>1204.7</ele>
        <time>2014-09-21T07:17:29Z</time>
      </trkpt>
      <trkpt lat="42.79382" lon="1.62213">
        <ele>1204.7</ele>
        <time>2014-09-21T07:17:30Z</time>
      </trkpt>
      <trkpt lat="42.79381" lon="1.62212">
        <ele>1205.2</ele>
        <time>2014-09-21T07:17:31Z</time>
      </trkpt>
      <trkpt lat="42.7938" lon="1.6221">
        <ele>1205.2</ele>
        <time>2014-09-21T07:17:32Z</time>
      </trkpt>
      <trkpt lat="42.7937" lon="1.62182">
        <ele>1208.5</ele>
        <time>2014-09-21T07:17:47Z</time>
      </trkpt>
      <trkpt lat="42.79356" lon="1.62148">
        <ele>1211.4</ele>
        <time>2014-09-21T07:18:04Z</time>
      </trkpt>
      <trkpt lat="42.79354" lon="1.62145">
        <ele>1211.9</ele>
        <time>2014-09-21T07:18:06Z</time>
      </trkpt>
      <trkpt lat="42.79353" lon="1.62143">
        <ele>1211.9</ele>
        <time>2014-09-21T07:18:07Z</time>
      </trkpt>
      <trkpt lat="42.7934" lon="1.62124">
        <ele>1213.3</ele>
        <time>2014-09-21T07:18:18Z</time>
      </trkpt>
      <trkpt lat="42.7934" lon="1.62122">
        <ele>1213.3</ele>
        <time>2014-09-21T07:18:19Z</time>
      </trkpt>
      <trkpt lat="42.7934" lon="1.6212">
        <ele>1213.3</ele>
        <time>2014-09-21T07:18:20Z</time>
      </trkpt>
      <trkpt lat="42.7934" lon="1.62118">
        <ele>1214.3</ele>
        <time>2014-09-21T07:18:21Z</time>
      </trkpt>
      <trkpt lat="42.7934" lon="1.62116">
        <ele>1214.3</ele>
        <time>2014-09-21T07:18:22Z</time>
      </trkpt>
      <trkpt lat="42.79341" lon="1.62114">
        <ele>1214.8</ele>
        <time>2014-09-21T07:18:23Z</time>
      </trkpt>
      <trkpt lat="42.79341" lon="1.62112">
        <ele>1214.8</ele>
        <time>2014-09-21T07:18:24Z</time>
      </trkpt>
      <trkpt lat="42.79345" lon="1.62084">
        <ele>1217.7</ele>
        <time>2014-09-21T07:18:38Z</time>
      </trkpt>
      <trkpt lat="42.79343" lon="1.6207">
        <ele>1218.6</ele>
        <time>2014-09-21T07:18:45Z</time>
      </trkpt>
      <trkpt lat="42.79342" lon="1.62068">
        <ele>1218.6</ele>
        <time>2014-09-21T07:18:46Z</time>
      </trkpt>
      <trkpt lat="42.79331" lon="1.62033">
        <ele>1221</ele>
        <time>2014-09-21T07:19:03Z</time>
      </trkpt>
      <trkpt lat="42.79323" lon="1.62002">
        <ele>1223.4</ele>
        <time>2014-09-21T07:19:18Z</time>
      </trkpt>
      <trkpt lat="42.79312" lon="1.61974">
        <ele>1225.8</ele>
        <time>2014-09-21T07:19:33Z</time>
      </trkpt>
      <trkpt lat="42.79298" lon="1.61947">
        <ele>1228.2</ele>
        <time>2014-09-21T07:19:49Z</time>
      </trkpt>
      <trkpt lat="42.79274" lon="1.61924">
        <ele>1231.6</ele>
        <time>2014-09-21T07:20:08Z</time>
      </trkpt>
      <trkpt lat="42.79246" lon="1.61917">
        <ele>1233.5</ele>
        <time>2014-09-21T07:20:25Z</time>
      </trkpt>
      <trkpt lat="42.79243" lon="1.61916">
        <ele>1234</ele>
        <time>2014-09-21T07:20:27Z</time>
      </trkpt>
      <trkpt lat="42.79242" lon="1.61915">
        <ele>1234</ele>
        <time>2014-09-21T07:20:28Z</time>
      </trkpt>
      <trkpt lat="42.79241" lon="1.61913">
        <ele>1234</ele>
        <time>2014-09-21T07:20:29Z</time>
      </trkpt>
      <trkpt lat="42.7924" lon="1.61912">
        <ele>1234.5</ele>
        <time>2014-09-21T07:20:30Z</time>
      </trkpt>
      <trkpt lat="42.79239" lon="1.6191">
        <ele>1234.5</ele>
        <time>2014-09-21T07:20:31Z</time>
      </trkpt>
      <trkpt lat="42.79238" lon="1.61909">
        <ele>1234.5</ele>
        <time>2014-09-21T07:20:32Z</time>
      </trkpt>
      <trkpt lat="42.79236" lon="1.61909">
        <ele>1234.5</ele>
        <time>2014-09-21T07:20:33Z</time>
      </trkpt>
      <trkpt lat="42.79234" lon="1.61909">
        <ele>1234.5</ele>
        <time>2014-09-21T07:20:34Z</time>
      </trkpt>
      <trkpt lat="42.79233" lon="1.61908">
        <ele>1235</ele>
        <time>2014-09-21T07:20:35Z</time>
      </trkpt>
      <trkpt lat="42.79232" lon="1.61907">
        <ele>1235</ele>
        <time>2014-09-21T07:20:36Z</time>
      </trkpt>
      <trkpt lat="42.7923" lon="1.61907">
        <ele>1235.4</ele>
        <time>2014-09-21T07:20:37Z</time>
      </trkpt>
      <trkpt lat="42.79229" lon="1.61906">
        <ele>1235.4</ele>
        <time>2014-09-21T07:20:38Z</time>
      </trkpt>
      <trkpt lat="42.79228" lon="1.61905">
        <ele>1235.4</ele>
        <time>2014-09-21T07:20:39Z</time>
      </trkpt>
      <trkpt lat="42.79226" lon="1.61905">
        <ele>1235.4</ele>
        <time>2014-09-21T07:20:40Z</time>
      </trkpt>
      <trkpt lat="42.792" lon="1.619">
        <ele>1238.3</ele>
        <time>2014-09-21T07:20:56Z</time>
      </trkpt>
      <trkpt lat="42.79177" lon="1.6191">
        <ele>1240.2</ele>
        <time>2014-09-21T07:21:10Z</time>
      </trkpt>
      <trkpt lat="42.79145" lon="1.61922">
        <ele>1243.1</ele>
        <time>2014-09-21T07:21:28Z</time>
      </trkpt>
      <trkpt lat="42.79122" lon="1.61947">
        <ele>1246</ele>
        <time>2014-09-21T07:21:45Z</time>
      </trkpt>
      <trkpt lat="42.79104" lon="1.61967">
        <ele>1248.4</ele>
        <time>2014-09-21T07:21:59Z</time>
      </trkpt>
      <trkpt lat="42.79083" lon="1.61979">
        <ele>1251.3</ele>
        <time>2014-09-21T07:22:14Z</time>
      </trkpt>
      <trkpt lat="42.79064" lon="1.61999">
        <ele>1253.7</ele>
        <time>2014-09-21T07:22:30Z</time>
      </trkpt>
      <trkpt lat="42.79047" lon="1.6203">
        <ele>1255.1</ele>
        <time>2014-09-21T07:22:45Z</time>
      </trkpt>
      <trkpt lat="42.79035" lon="1.62061">
        <ele>1257.5</ele>
        <time>2014-09-21T07:22:59Z</time>
      </trkpt>
      <trkpt lat="42.7903" lon="1.62094">
        <ele>1259.5</ele>
        <time>2014-09-21T07:23:12Z</time>
      </trkpt>
      <trkpt lat="42.7902" lon="1.62129">
        <ele>1260.4</ele>
        <time>2014-09-21T07:23:25Z</time>
      </trkpt>
      <trkpt lat="42.79017" lon="1.62129">
        <ele>1260.4</ele>
        <time>2014-09-21T07:23:26Z</time>
      </trkpt>
      <trkpt lat="42.79015" lon="1.62129">
        <ele>1260.4</ele>
        <time>2014-09-21T07:23:27Z</time>
      </trkpt>
      <trkpt lat="42.78976" lon="1.62126">
        <ele>1261.9</ele>
        <time>2014-09-21T07:23:43Z</time>
      </trkpt>
      <trkpt lat="42.78936" lon="1.6211">
        <ele>1263.3</ele>
        <time>2014-09-21T07:23:59Z</time>
      </trkpt>
      <trkpt lat="42.78888" lon="1.62101">
        <ele>1265.2</ele>
        <time>2014-09-21T07:24:18Z</time>
      </trkpt>
      <trkpt lat="42.78852" lon="1.62124">
        <ele>1267.6</ele>
        <time>2014-09-21T07:24:34Z</time>
      </trkpt>
      <trkpt lat="42.78822" lon="1.62166">
        <ele>1269.1</ele>
        <time>2014-09-21T07:24:51Z</time>
      </trkpt>
      <trkpt lat="42.78792" lon="1.62211">
        <ele>1270</ele>
        <time>2014-09-21T07:25:07Z</time>
      </trkpt>
      <trkpt lat="42.78762" lon="1.62254">
        <ele>1272.4</ele>
        <time>2014-09-21T07:25:24Z</time>
      </trkpt>
      <trkpt lat="42.78736" lon="1.62282">
        <ele>1274.4</ele>
        <time>2014-09-21T07:25:39Z</time>
      </trkpt>
      <trkpt lat="42.78715" lon="1.62303">
        <ele>1275.8</ele>
        <time>2014-09-21T07:25:52Z</time>
      </trkpt>
      <trkpt lat="42.7869" lon="1.62318">
        <ele>1279.2</ele>
        <time>2014-09-21T07:26:08Z</time>
      </trkpt>
      <trkpt lat="42.78668" lon="1.62332">
        <ele>1281.1</ele>
        <time>2014-09-21T07:26:24Z</time>
      </trkpt>
      <trkpt lat="42.78648" lon="1.6235">
        <ele>1284</ele>
        <time>2014-09-21T07:26:39Z</time>
      </trkpt>
      <trkpt lat="42.78634" lon="1.62373">
        <ele>1284.9</ele>
        <time>2014-09-21T07:26:52Z</time>
      </trkpt>
      <trkpt lat="42.7862" lon="1.62405">
        <ele>1287.3</ele>
        <time>2014-09-21T07:27:06Z</time>
      </trkpt>
      <trkpt lat="42.78606" lon="1.62444">
        <ele>1288.8</ele>
        <time>2014-09-21T07:27:22Z</time>
      </trkpt>
      <trkpt lat="42.78592" lon="1.6247">
        <ele>1290.7</ele>
        <time>2014-09-21T07:27:36Z</time>
      </trkpt>
      <trkpt lat="42.78575" lon="1.62489">
        <ele>1293.6</ele>
        <time>2014-09-21T07:27:51Z</time>
      </trkpt>
      <trkpt lat="42.7855" lon="1.62506">
        <ele>1296.5</ele>
        <time>2014-09-21T07:28:09Z</time>
      </trkpt>
      <trkpt lat="42.78527" lon="1.62514">
        <ele>1298.9</ele>
        <time>2014-09-21T07:28:25Z</time>
      </trkpt>
      <trkpt lat="42.78505" lon="1.62522">
        <ele>1300.8</ele>
        <time>2014-09-21T07:28:40Z</time>
      </trkpt>
      <trkpt lat="42.78479" lon="1.62531">
        <ele>1304.2</ele>
        <time>2014-09-21T07:28:58Z</time>
      </trkpt>
      <trkpt lat="42.78457" lon="1.62541">
        <ele>1307.1</ele>
        <time>2014-09-21T07:29:13Z</time>
      </trkpt>
      <trkpt lat="42.78444" lon="1.62551">
        <ele>1309</ele>
        <time>2014-09-21T07:29:24Z</time>
      </trkpt>
      <trkpt lat="42.78443" lon="1.62553">
        <ele>1309</ele>
        <time>2014-09-21T07:29:25Z</time>
      </trkpt>
      <trkpt lat="42.78438" lon="1.62556">
        <ele>1309.9</ele>
        <time>2014-09-21T07:29:29Z</time>
      </trkpt>
      <trkpt lat="42.78427" lon="1.62566">
        <ele>1311.9</ele>
        <time>2014-09-21T07:29:40Z</time>
      </trkpt>
      <trkpt lat="42.78408" lon="1.62584">
        <ele>1314.3</ele>
        <time>2014-09-21T07:29:56Z</time>
      </trkpt>
      <trkpt lat="42.78393" lon="1.62607">
        <ele>1316.2</ele>
        <time>2014-09-21T07:30:11Z</time>
      </trkpt>
      <trkpt lat="42.78382" lon="1.62627">
        <ele>1318.6</ele>
        <time>2014-09-21T07:30:25Z</time>
      </trkpt>
      <trkpt lat="42.78366" lon="1.62652">
        <ele>1321.5</ele>
        <time>2014-09-21T07:30:41Z</time>
      </trkpt>
      <trkpt lat="42.78354" lon="1.62669">
        <ele>1323.9</ele>
        <time>2014-09-21T07:30:55Z</time>
      </trkpt>
      <trkpt lat="42.78342" lon="1.62683">
        <ele>1325.8</ele>
        <time>2014-09-21T07:31:06Z</time>
      </trkpt>
      <trkpt lat="42.78326" lon="1.62701">
        <ele>1328.7</ele>
        <time>2014-09-21T07:31:21Z</time>
      </trkpt>
      <trkpt lat="42.78314" lon="1.62719">
        <ele>1330.6</ele>
        <time>2014-09-21T07:31:35Z</time>
      </trkpt>
      <trkpt lat="42.78314" lon="1.62721">
        <ele>1331.1</ele>
        <time>2014-09-21T07:31:36Z</time>
      </trkpt>
      <trkpt lat="42.78309" lon="1.62739">
        <ele>1333.5</ele>
        <time>2014-09-21T07:31:48Z</time>
      </trkpt>
      <trkpt lat="42.78309" lon="1.62741">
        <ele>1333.5</ele>
        <time>2014-09-21T07:31:49Z</time>
      </trkpt>
      <trkpt lat="42.78309" lon="1.62743">
        <ele>1333.5</ele>
        <time>2014-09-21T07:31:50Z</time>
      </trkpt>
      <trkpt lat="42.78308" lon="1.62745">
        <ele>1334</ele>
        <time>2014-09-21T07:31:51Z</time>
      </trkpt>
      <trkpt lat="42.78307" lon="1.62747">
        <ele>1334</ele>
        <time>2014-09-21T07:31:52Z</time>
      </trkpt>
      <trkpt lat="42.78298" lon="1.62766">
        <ele>1336.4</ele>
        <time>2014-09-21T07:32:07Z</time>
      </trkpt>
      <trkpt lat="42.78292" lon="1.62775">
        <ele>1336.9</ele>
        <time>2014-09-21T07:32:14Z</time>
      </trkpt>
      <trkpt lat="42.78288" lon="1.62788">
        <ele>1338.3</ele>
        <time>2014-09-21T07:32:22Z</time>
      </trkpt>
      <trkpt lat="42.78288" lon="1.6279">
        <ele>1338.3</ele>
        <time>2014-09-21T07:32:23Z</time>
      </trkpt>
      <trkpt lat="42.78286" lon="1.62794">
        <ele>1338.8</ele>
        <time>2014-09-21T07:32:25Z</time>
      </trkpt>
      <trkpt lat="42.78285" lon="1.62797">
        <ele>1338.8</ele>
        <time>2014-09-21T07:32:27Z</time>
      </trkpt>
      <trkpt lat="42.78284" lon="1.62799">
        <ele>1339.3</ele>
        <time>2014-09-21T07:32:29Z</time>
      </trkpt>
      <trkpt lat="42.78283" lon="1.62801">
        <ele>1339.3</ele>
        <time>2014-09-21T07:32:30Z</time>
      </trkpt>
      <trkpt lat="42.78282" lon="1.62803">
        <ele>1340.2</ele>
        <time>2014-09-21T07:32:31Z</time>
      </trkpt>
      <trkpt lat="42.78264" lon="1.62823">
        <ele>1342.6</ele>
        <time>2014-09-21T07:32:47Z</time>
      </trkpt>
      <trkpt lat="42.78252" lon="1.62829">
        <ele>1343.6</ele>
        <time>2014-09-21T07:32:56Z</time>
      </trkpt>
      <trkpt lat="42.7825" lon="1.62829">
        <ele>1343.6</ele>
        <time>2014-09-21T07:32:57Z</time>
      </trkpt>
      <trkpt lat="42.78227" lon="1.62827">
        <ele>1346</ele>
        <time>2014-09-21T07:33:12Z</time>
      </trkpt>
      <trkpt lat="42.78207" lon="1.62827">
        <ele>1347.9</ele>
        <time>2014-09-21T07:33:26Z</time>
      </trkpt>
      <trkpt lat="42.78192" lon="1.6283">
        <ele>1349.8</ele>
        <time>2014-09-21T07:33:37Z</time>
      </trkpt>
      <trkpt lat="42.78182" lon="1.62833">
        <ele>1351.3</ele>
        <time>2014-09-21T07:33:44Z</time>
      </trkpt>
      <trkpt lat="42.7818" lon="1.62834">
        <ele>1351.3</ele>
        <time>2014-09-21T07:33:45Z</time>
      </trkpt>
      <trkpt lat="42.78179" lon="1.62835">
        <ele>1351.3</ele>
        <time>2014-09-21T07:33:46Z</time>
      </trkpt>
      <trkpt lat="42.78177" lon="1.62835">
        <ele>1351.8</ele>
        <time>2014-09-21T07:33:47Z</time>
      </trkpt>
      <trkpt lat="42.78176" lon="1.62835">
        <ele>1351.8</ele>
        <time>2014-09-21T07:33:48Z</time>
      </trkpt>
      <trkpt lat="42.78174" lon="1.62835">
        <ele>1351.8</ele>
        <time>2014-09-21T07:33:49Z</time>
      </trkpt>
      <trkpt lat="42.7817" lon="1.62834">
        <ele>1352.2</ele>
        <time>2014-09-21T07:33:52Z</time>
      </trkpt>
      <trkpt lat="42.78169" lon="1.62835">
        <ele>1352.2</ele>
        <time>2014-09-21T07:33:53Z</time>
      </trkpt>
      <trkpt lat="42.7815" lon="1.62829">
        <ele>1355.1</ele>
        <time>2014-09-21T07:34:07Z</time>
      </trkpt>
      <trkpt lat="42.78136" lon="1.62807">
        <ele>1357</ele>
        <time>2014-09-21T07:34:22Z</time>
      </trkpt>
      <trkpt lat="42.78121" lon="1.62787">
        <ele>1360.4</ele>
        <time>2014-09-21T07:34:37Z</time>
      </trkpt>
      <trkpt lat="42.78104" lon="1.6277">
        <ele>1362.8</ele>
        <time>2014-09-21T07:34:52Z</time>
      </trkpt>
      <trkpt lat="42.78085" lon="1.62757">
        <ele>1365.2</ele>
        <time>2014-09-21T07:35:07Z</time>
      </trkpt>
      <trkpt lat="42.78065" lon="1.62741">
        <ele>1368.1</ele>
        <time>2014-09-21T07:35:22Z</time>
      </trkpt>
      <trkpt lat="42.78044" lon="1.62725">
        <ele>1370.5</ele>
        <time>2014-09-21T07:35:38Z</time>
      </trkpt>
      <trkpt lat="42.78027" lon="1.62711">
        <ele>1372.9</ele>
        <time>2014-09-21T07:35:52Z</time>
      </trkpt>
      <trkpt lat="42.78003" lon="1.62691">
        <ele>1375.8</ele>
        <time>2014-09-21T07:36:11Z</time>
      </trkpt>
      <trkpt lat="42.7798" lon="1.62669">
        <ele>1378.7</ele>
        <time>2014-09-21T07:36:30Z</time>
      </trkpt>
      <trkpt lat="42.77958" lon="1.62657">
        <ele>1381.6</ele>
        <time>2014-09-21T07:36:46Z</time>
      </trkpt>
      <trkpt lat="42.77937" lon="1.62645">
        <ele>1384.4</ele>
        <time>2014-09-21T07:37:02Z</time>
      </trkpt>
      <trkpt lat="42.77917" lon="1.62632">
        <ele>1387.8</ele>
        <time>2014-09-21T07:37:16Z</time>
      </trkpt>
      <trkpt lat="42.77914" lon="1.62629">
        <ele>1388.3</ele>
        <time>2014-09-21T07:37:19Z</time>
      </trkpt>
      <trkpt lat="42.77891" lon="1.62617">
        <ele>1391.2</ele>
        <time>2014-09-21T07:37:36Z</time>
      </trkpt>
      <trkpt lat="42.77866" lon="1.62618">
        <ele>1394.1</ele>
        <time>2014-09-21T07:37:53Z</time>
      </trkpt>
      <trkpt lat="42.77857" lon="1.62623">
        <ele>1395</ele>
        <time>2014-09-21T07:38:00Z</time>
      </trkpt>
      <trkpt lat="42.77856" lon="1.62624">
        <ele>1395</ele>
        <time>2014-09-21T07:38:01Z</time>
      </trkpt>
      <trkpt lat="42.77855" lon="1.62626">
        <ele>1395</ele>
        <time>2014-09-21T07:38:02Z</time>
      </trkpt>
      <trkpt lat="42.77853" lon="1.62627">
        <ele>1395</ele>
        <time>2014-09-21T07:38:03Z</time>
      </trkpt>
      <trkpt lat="42.77852" lon="1.62628">
        <ele>1395.5</ele>
        <time>2014-09-21T07:38:04Z</time>
      </trkpt>
      <trkpt lat="42.77825" lon="1.62637">
        <ele>1398.4</ele>
        <time>2014-09-21T07:38:22Z</time>
      </trkpt>
      <trkpt lat="42.77819" lon="1.62638">
        <ele>1399.3</ele>
        <time>2014-09-21T07:38:27Z</time>
      </trkpt>
      <trkpt lat="42.77808" lon="1.62636">
        <ele>1400.8</ele>
        <time>2014-09-21T07:38:35Z</time>
      </trkpt>
      <trkpt lat="42.77807" lon="1.62636">
        <ele>1401.3</ele>
        <time>2014-09-21T07:38:36Z</time>
      </trkpt>
      <trkpt lat="42.77805" lon="1.62637">
        <ele>1401.7</ele>
        <time>2014-09-21T07:38:37Z</time>
      </trkpt>
      <trkpt lat="42.77786" lon="1.62637">
        <ele>1403.7</ele>
        <time>2014-09-21T07:38:51Z</time>
      </trkpt>
      <trkpt lat="42.77777" lon="1.62635">
        <ele>1404.6</ele>
        <time>2014-09-21T07:38:58Z</time>
      </trkpt>
      <trkpt lat="42.77776" lon="1.62634">
        <ele>1405.1</ele>
        <time>2014-09-21T07:38:59Z</time>
      </trkpt>
      <trkpt lat="42.77775" lon="1.62633">
        <ele>1405.1</ele>
        <time>2014-09-21T07:39:00Z</time>
      </trkpt>
      <trkpt lat="42.77773" lon="1.62633">
        <ele>1405.1</ele>
        <time>2014-09-21T07:39:01Z</time>
      </trkpt>
      <trkpt lat="42.77772" lon="1.62632">
        <ele>1405.6</ele>
        <time>2014-09-21T07:39:02Z</time>
      </trkpt>
      <trkpt lat="42.77769" lon="1.62633">
        <ele>1405.6</ele>
        <time>2014-09-21T07:39:04Z</time>
      </trkpt>
      <trkpt lat="42.77768" lon="1.62633">
        <ele>1406.1</ele>
        <time>2014-09-21T07:39:05Z</time>
      </trkpt>
      <trkpt lat="42.77767" lon="1.62633">
        <ele>1406.1</ele>
        <time>2014-09-21T07:39:06Z</time>
      </trkpt>
      <trkpt lat="42.77766" lon="1.62632">
        <ele>1406.6</ele>
        <time>2014-09-21T07:39:07Z</time>
      </trkpt>
      <trkpt lat="42.77764" lon="1.62632">
        <ele>1406.6</ele>
        <time>2014-09-21T07:39:08Z</time>
      </trkpt>
      <trkpt lat="42.77742" lon="1.62626">
        <ele>1408.5</ele>
        <time>2014-09-21T07:39:24Z</time>
      </trkpt>
      <trkpt lat="42.77722" lon="1.62624">
        <ele>1410.9</ele>
        <time>2014-09-21T07:39:39Z</time>
      </trkpt>
      <trkpt lat="42.77701" lon="1.62618">
        <ele>1413.3</ele>
        <time>2014-09-21T07:39:53Z</time>
      </trkpt>
      <trkpt lat="42.77685" lon="1.6262">
        <ele>1415.7</ele>
        <time>2014-09-21T07:40:07Z</time>
      </trkpt>
      <trkpt lat="42.77669" lon="1.62623">
        <ele>1418.1</ele>
        <time>2014-09-21T07:40:19Z</time>
      </trkpt>
      <trkpt lat="42.77668" lon="1.62624">
        <ele>1418.1</ele>
        <time>2014-09-21T07:40:20Z</time>
      </trkpt>
      <trkpt lat="42.77667" lon="1.62625">
        <ele>1418.1</ele>
        <time>2014-09-21T07:40:21Z</time>
      </trkpt>
      <trkpt lat="42.77666" lon="1.62625">
        <ele>1418.1</ele>
        <time>2014-09-21T07:40:22Z</time>
      </trkpt>
      <trkpt lat="42.77665" lon="1.62625">
        <ele>1418.6</ele>
        <time>2014-09-21T07:40:23Z</time>
      </trkpt>
      <trkpt lat="42.77663" lon="1.62626">
        <ele>1418.6</ele>
        <time>2014-09-21T07:40:24Z</time>
      </trkpt>
      <trkpt lat="42.77662" lon="1.62626">
        <ele>1418.6</ele>
        <time>2014-09-21T07:40:25Z</time>
      </trkpt>
      <trkpt lat="42.7766" lon="1.62626">
        <ele>1418.6</ele>
        <time>2014-09-21T07:40:26Z</time>
      </trkpt>
      <trkpt lat="42.77659" lon="1.62626">
        <ele>1419</ele>
        <time>2014-09-21T07:40:27Z</time>
      </trkpt>
      <trkpt lat="42.77634" lon="1.62622">
        <ele>1421.5</ele>
        <time>2014-09-21T07:40:44Z</time>
      </trkpt>
      <trkpt lat="42.77613" lon="1.62616">
        <ele>1424.8</ele>
        <time>2014-09-21T07:40:58Z</time>
      </trkpt>
      <trkpt lat="42.77606" lon="1.62614">
        <ele>1424.8</ele>
        <time>2014-09-21T07:41:01Z</time>
      </trkpt>
      <trkpt lat="42.77605" lon="1.62614">
        <ele>1424.8</ele>
        <time>2014-09-21T07:41:02Z</time>
      </trkpt>
      <trkpt lat="42.77603" lon="1.62615">
        <ele>1425.3</ele>
        <time>2014-09-21T07:41:03Z</time>
      </trkpt>
      <trkpt lat="42.77576" lon="1.62628">
        <ele>1427.7</ele>
        <time>2014-09-21T07:41:19Z</time>
      </trkpt>
      <trkpt lat="42.77572" lon="1.62636">
        <ele>1428.2</ele>
        <time>2014-09-21T07:41:24Z</time>
      </trkpt>
      <trkpt lat="42.77569" lon="1.62641">
        <ele>1428.7</ele>
        <time>2014-09-21T07:41:34Z</time>
      </trkpt>
      <trkpt lat="42.77569" lon="1.62642">
        <ele>1428.7</ele>
        <time>2014-09-21T07:41:57Z</time>
      </trkpt>
      <trkpt lat="42.77571" lon="1.62639">
        <ele>1428.7</ele>
        <time>2014-09-21T07:42:26Z</time>
      </trkpt>
      <trkpt lat="42.77572" lon="1.62644">
        <ele>1428.7</ele>
        <time>2014-09-21T07:42:54Z</time>
      </trkpt>
      <trkpt lat="42.77573" lon="1.62643">
        <ele>1428.7</ele>
        <time>2014-09-21T07:43:24Z</time>
      </trkpt>
      <trkpt lat="42.77571" lon="1.62641">
        <ele>1428.7</ele>
        <time>2014-09-21T07:43:45Z</time>
      </trkpt>
      <trkpt lat="42.7757" lon="1.62643">
        <ele>1428.7</ele>
        <time>2014-09-21T07:44:15Z</time>
      </trkpt>
      <trkpt lat="42.7757" lon="1.62641">
        <ele>1429.1</ele>
        <time>2014-09-21T07:44:41Z</time>
      </trkpt>
      <trkpt lat="42.7757" lon="1.6264">
        <ele>1429.1</ele>
        <time>2014-09-21T07:44:49Z</time>
      </trkpt>
      <trkpt lat="42.77565" lon="1.62644">
        <ele>1429.6</ele>
        <time>2014-09-21T07:44:53Z</time>
      </trkpt>
      <trkpt lat="42.7755" lon="1.62672">
        <ele>1432.5</ele>
        <time>2014-09-21T07:45:11Z</time>
      </trkpt>
      <trkpt lat="42.77545" lon="1.62682">
        <ele>1433.5</ele>
        <time>2014-09-21T07:45:17Z</time>
      </trkpt>
      <trkpt lat="42.77535" lon="1.62706">
        <ele>1435.4</ele>
        <time>2014-09-21T07:45:31Z</time>
      </trkpt>
      <trkpt lat="42.77515" lon="1.62733">
        <ele>1438.8</ele>
        <time>2014-09-21T07:45:50Z</time>
      </trkpt>
      <trkpt lat="42.77503" lon="1.6275">
        <ele>1440.7</ele>
        <time>2014-09-21T07:46:02Z</time>
      </trkpt>
      <trkpt lat="42.77483" lon="1.6277">
        <ele>1443.1</ele>
        <time>2014-09-21T07:46:19Z</time>
      </trkpt>
      <trkpt lat="42.77462" lon="1.62779">
        <ele>1445.5</ele>
        <time>2014-09-21T07:46:35Z</time>
      </trkpt>
      <trkpt lat="42.77454" lon="1.6278">
        <ele>1446.9</ele>
        <time>2014-09-21T07:46:40Z</time>
      </trkpt>
      <trkpt lat="42.77439" lon="1.62785">
        <ele>1448.8</ele>
        <time>2014-09-21T07:46:51Z</time>
      </trkpt>
      <trkpt lat="42.77426" lon="1.62792">
        <ele>1450.3</ele>
        <time>2014-09-21T07:47:01Z</time>
      </trkpt>
      <trkpt lat="42.77402" lon="1.6281">
        <ele>1453.7</ele>
        <time>2014-09-21T07:47:19Z</time>
      </trkpt>
      <trkpt lat="42.77385" lon="1.62822">
        <ele>1455.1</ele>
        <time>2014-09-21T07:47:33Z</time>
      </trkpt>
      <trkpt lat="42.77375" lon="1.62828">
        <ele>1456.5</ele>
        <time>2014-09-21T07:47:47Z</time>
      </trkpt>
      <trkpt lat="42.77375" lon="1.62824">
        <ele>1457</ele>
        <time>2014-09-21T07:48:08Z</time>
      </trkpt>
      <trkpt lat="42.77374" lon="1.62825">
        <ele>1456.1</ele>
        <time>2014-09-21T07:48:41Z</time>
      </trkpt>
      <trkpt lat="42.77376" lon="1.62818">
        <ele>1456.1</ele>
        <time>2014-09-21T07:49:18Z</time>
      </trkpt>
      <trkpt lat="42.77374" lon="1.62823">
        <ele>1456.1</ele>
        <time>2014-09-21T07:49:29Z</time>
      </trkpt>
      <trkpt lat="42.77354" lon="1.62821">
        <ele>1458.5</ele>
        <time>2014-09-21T07:49:43Z</time>
      </trkpt>
      <trkpt lat="42.77329" lon="1.62817">
        <ele>1461.8</ele>
        <time>2014-09-21T07:49:59Z</time>
      </trkpt>
      <trkpt lat="42.77316" lon="1.6282">
        <ele>1462.8</ele>
        <time>2014-09-21T07:50:08Z</time>
      </trkpt>
      <trkpt lat="42.77291" lon="1.62833">
        <ele>1465.7</ele>
        <time>2014-09-21T07:50:26Z</time>
      </trkpt>
      <trkpt lat="42.77287" lon="1.62836">
        <ele>1467.1</ele>
        <time>2014-09-21T07:50:29Z</time>
      </trkpt>
      <trkpt lat="42.77278" lon="1.62839">
        <ele>1467.1</ele>
        <time>2014-09-21T07:50:35Z</time>
      </trkpt>
      <trkpt lat="42.77259" lon="1.62852">
        <ele>1469.5</ele>
        <time>2014-09-21T07:50:50Z</time>
      </trkpt>
      <trkpt lat="42.77238" lon="1.62868">
        <ele>1471.9</ele>
        <time>2014-09-21T07:51:07Z</time>
      </trkpt>
      <trkpt lat="42.77233" lon="1.62871">
        <ele>1472.9</ele>
        <time>2014-09-21T07:51:11Z</time>
      </trkpt>
      <trkpt lat="42.77225" lon="1.62879">
        <ele>1473.8</ele>
        <time>2014-09-21T07:51:18Z</time>
      </trkpt>
      <trkpt lat="42.77207" lon="1.62896">
        <ele>1476.2</ele>
        <time>2014-09-21T07:51:33Z</time>
      </trkpt>
      <trkpt lat="42.77184" lon="1.62914">
        <ele>1479.1</ele>
        <time>2014-09-21T07:51:51Z</time>
      </trkpt>
      <trkpt lat="42.77162" lon="1.62923">
        <ele>1480.6</ele>
        <time>2014-09-21T07:52:05Z</time>
      </trkpt>
      <trkpt lat="42.77149" lon="1.62923">
        <ele>1482</ele>
        <time>2014-09-21T07:52:12Z</time>
      </trkpt>
      <trkpt lat="42.77134" lon="1.62927">
        <ele>1483.5</ele>
        <time>2014-09-21T07:52:23Z</time>
      </trkpt>
      <trkpt lat="42.7712" lon="1.62929">
        <ele>1484.4</ele>
        <time>2014-09-21T07:52:33Z</time>
      </trkpt>
      <trkpt lat="42.77094" lon="1.62932">
        <ele>1487.8</ele>
        <time>2014-09-21T07:52:51Z</time>
      </trkpt>
      <trkpt lat="42.77092" lon="1.62932">
        <ele>1487.8</ele>
        <time>2014-09-21T07:52:52Z</time>
      </trkpt>
      <trkpt lat="42.77071" lon="1.62925">
        <ele>1490.2</ele>
        <time>2014-09-21T07:53:08Z</time>
      </trkpt>
      <trkpt lat="42.77069" lon="1.62925">
        <ele>1490.7</ele>
        <time>2014-09-21T07:53:09Z</time>
      </trkpt>
      <trkpt lat="42.7706" lon="1.62922">
        <ele>1492.1</ele>
        <time>2014-09-21T07:53:16Z</time>
      </trkpt>
      <trkpt lat="42.77057" lon="1.62923">
        <ele>1492.1</ele>
        <time>2014-09-21T07:53:18Z</time>
      </trkpt>
      <trkpt lat="42.77042" lon="1.62916">
        <ele>1493.6</ele>
        <time>2014-09-21T07:53:30Z</time>
      </trkpt>
      <trkpt lat="42.77023" lon="1.62904">
        <ele>1496</ele>
        <time>2014-09-21T07:53:44Z</time>
      </trkpt>
      <trkpt lat="42.77006" lon="1.62896">
        <ele>1497.9</ele>
        <time>2014-09-21T07:53:57Z</time>
      </trkpt>
      <trkpt lat="42.76984" lon="1.62889">
        <ele>1499.8</ele>
        <time>2014-09-21T07:54:13Z</time>
      </trkpt>
      <trkpt lat="42.76963" lon="1.62878">
        <ele>1502.2</ele>
        <time>2014-09-21T07:54:28Z</time>
      </trkpt>
      <trkpt lat="42.76943" lon="1.62859">
        <ele>1505.1</ele>
        <time>2014-09-21T07:54:45Z</time>
      </trkpt>
      <trkpt lat="42.76931" lon="1.62846">
        <ele>1507</ele>
        <time>2014-09-21T07:54:55Z</time>
      </trkpt>
      <trkpt lat="42.76915" lon="1.62824">
        <ele>1508.9</ele>
        <time>2014-09-21T07:55:10Z</time>
      </trkpt>
      <trkpt lat="42.76901" lon="1.62798">
        <ele>1511.3</ele>
        <time>2014-09-21T07:55:25Z</time>
      </trkpt>
      <trkpt lat="42.76887" lon="1.62775">
        <ele>1513.3</ele>
        <time>2014-09-21T07:55:38Z</time>
      </trkpt>
      <trkpt lat="42.76875" lon="1.62772">
        <ele>1513.7</ele>
        <time>2014-09-21T07:55:45Z</time>
      </trkpt>
      <trkpt lat="42.76851" lon="1.62774">
        <ele>1517.1</ele>
        <time>2014-09-21T07:56:01Z</time>
      </trkpt>
      <trkpt lat="42.76847" lon="1.62771">
        <ele>1517.1</ele>
        <time>2014-09-21T07:56:04Z</time>
      </trkpt>
      <trkpt lat="42.76837" lon="1.62767">
        <ele>1518.5</ele>
        <time>2014-09-21T07:56:12Z</time>
      </trkpt>
      <trkpt lat="42.76811" lon="1.62775">
        <ele>1521.4</ele>
        <time>2014-09-21T07:56:31Z</time>
      </trkpt>
      <trkpt lat="42.76797" lon="1.62779">
        <ele>1523.4</ele>
        <time>2014-09-21T07:56:42Z</time>
      </trkpt>
      <trkpt lat="42.76777" lon="1.62776">
        <ele>1525.8</ele>
        <time>2014-09-21T07:56:56Z</time>
      </trkpt>
      <trkpt lat="42.76765" lon="1.62768">
        <ele>1527.2</ele>
        <time>2014-09-21T07:57:06Z</time>
      </trkpt>
      <trkpt lat="42.76745" lon="1.62767">
        <ele>1529.6</ele>
        <time>2014-09-21T07:57:20Z</time>
      </trkpt>
      <trkpt lat="42.76738" lon="1.62762">
        <ele>1530.1</ele>
        <time>2014-09-21T07:57:25Z</time>
      </trkpt>
      <trkpt lat="42.76737" lon="1.62763">
        <ele>1530.6</ele>
        <time>2014-09-21T07:57:26Z</time>
      </trkpt>
      <trkpt lat="42.76736" lon="1.62763">
        <ele>1531</ele>
        <time>2014-09-21T07:57:27Z</time>
      </trkpt>
      <trkpt lat="42.76726" lon="1.62736">
        <ele>1532</ele>
        <time>2014-09-21T07:57:41Z</time>
      </trkpt>
      <trkpt lat="42.76728" lon="1.62714">
        <ele>1533.4</ele>
        <time>2014-09-21T07:57:52Z</time>
      </trkpt>
      <trkpt lat="42.7673" lon="1.62692">
        <ele>1535.8</ele>
        <time>2014-09-21T07:58:04Z</time>
      </trkpt>
      <trkpt lat="42.76727" lon="1.62679">
        <ele>1537.3</ele>
        <time>2014-09-21T07:58:11Z</time>
      </trkpt>
      <trkpt lat="42.76726" lon="1.62672">
        <ele>1538.3</ele>
        <time>2014-09-21T07:58:15Z</time>
      </trkpt>
      <trkpt lat="42.76725" lon="1.62659">
        <ele>1539.7</ele>
        <time>2014-09-21T07:58:22Z</time>
      </trkpt>
      <trkpt lat="42.76715" lon="1.62637">
        <ele>1541.1</ele>
        <time>2014-09-21T07:58:36Z</time>
      </trkpt>
      <trkpt lat="42.76705" lon="1.62612">
        <ele>1544</ele>
        <time>2014-09-21T07:58:51Z</time>
      </trkpt>
      <trkpt lat="42.76702" lon="1.62606">
        <ele>1544.5</ele>
        <time>2014-09-21T07:58:55Z</time>
      </trkpt>
      <trkpt lat="42.76683" lon="1.62593">
        <ele>1546.9</ele>
        <time>2014-09-21T07:59:10Z</time>
      </trkpt>
      <trkpt lat="42.76665" lon="1.62588">
        <ele>1548.3</ele>
        <time>2014-09-21T07:59:23Z</time>
      </trkpt>
      <trkpt lat="42.76657" lon="1.62579">
        <ele>1549.8</ele>
        <time>2014-09-21T07:59:30Z</time>
      </trkpt>
      <trkpt lat="42.76654" lon="1.62574">
        <ele>1550.7</ele>
        <time>2014-09-21T07:59:34Z</time>
      </trkpt>
      <trkpt lat="42.76635" lon="1.6256">
        <ele>1552.7</ele>
        <time>2014-09-21T07:59:49Z</time>
      </trkpt>
      <trkpt lat="42.76617" lon="1.6255">
        <ele>1554.6</ele>
        <time>2014-09-21T08:00:02Z</time>
      </trkpt>
      <trkpt lat="42.76615" lon="1.62548">
        <ele>1554.6</ele>
        <time>2014-09-21T08:00:04Z</time>
      </trkpt>
      <trkpt lat="42.76608" lon="1.62539">
        <ele>1556</ele>
        <time>2014-09-21T08:00:11Z</time>
      </trkpt>
      <trkpt lat="42.76606" lon="1.62537">
        <ele>1556.5</ele>
        <time>2014-09-21T08:00:13Z</time>
      </trkpt>
      <trkpt lat="42.766" lon="1.62532">
        <ele>1557.5</ele>
        <time>2014-09-21T08:00:19Z</time>
      </trkpt>
      <trkpt lat="42.76591" lon="1.6253">
        <ele>1558.9</ele>
        <time>2014-09-21T08:00:25Z</time>
      </trkpt>
      <trkpt lat="42.7658" lon="1.62509">
        <ele>1560.8</ele>
        <time>2014-09-21T08:00:38Z</time>
      </trkpt>
      <trkpt lat="42.7658" lon="1.62507">
        <ele>1560.8</ele>
        <time>2014-09-21T08:00:39Z</time>
      </trkpt>
      <trkpt lat="42.76579" lon="1.62494">
        <ele>1562.3</ele>
        <time>2014-09-21T08:00:46Z</time>
      </trkpt>
      <trkpt lat="42.76582" lon="1.62468">
        <ele>1564.2</ele>
        <time>2014-09-21T08:01:00Z</time>
      </trkpt>
      <trkpt lat="42.76579" lon="1.62438">
        <ele>1566.1</ele>
        <time>2014-09-21T08:01:15Z</time>
      </trkpt>
      <trkpt lat="42.76578" lon="1.62437">
        <ele>1566.1</ele>
        <time>2014-09-21T08:01:16Z</time>
      </trkpt>
      <trkpt lat="42.76567" lon="1.62419">
        <ele>1568.1</ele>
        <time>2014-09-21T08:01:27Z</time>
      </trkpt>
      <trkpt lat="42.76547" lon="1.624">
        <ele>1570.5</ele>
        <time>2014-09-21T08:01:44Z</time>
      </trkpt>
      <trkpt lat="42.76528" lon="1.62382">
        <ele>1573.3</ele>
        <time>2014-09-21T08:02:01Z</time>
      </trkpt>
      <trkpt lat="42.76508" lon="1.62372">
        <ele>1575.7</ele>
        <time>2014-09-21T08:02:15Z</time>
      </trkpt>
      <trkpt lat="42.76488" lon="1.62368">
        <ele>1577.7</ele>
        <time>2014-09-21T08:02:28Z</time>
      </trkpt>
      <trkpt lat="42.76467" lon="1.62365">
        <ele>1580.1</ele>
        <time>2014-09-21T08:02:42Z</time>
      </trkpt>
      <trkpt lat="42.76442" lon="1.62368">
        <ele>1582.5</ele>
        <time>2014-09-21T08:02:58Z</time>
      </trkpt>
      <trkpt lat="42.76417" lon="1.62369">
        <ele>1584.9</ele>
        <time>2014-09-21T08:03:15Z</time>
      </trkpt>
      <trkpt lat="42.76397" lon="1.62368">
        <ele>1586.8</ele>
        <time>2014-09-21T08:03:29Z</time>
      </trkpt>
      <trkpt lat="42.76378" lon="1.62364">
        <ele>1589.7</ele>
        <time>2014-09-21T08:03:43Z</time>
      </trkpt>
      <trkpt lat="42.76359" lon="1.62361">
        <ele>1591.6</ele>
        <time>2014-09-21T08:03:56Z</time>
      </trkpt>
      <trkpt lat="42.7634" lon="1.62356">
        <ele>1594</ele>
        <time>2014-09-21T08:04:09Z</time>
      </trkpt>
      <trkpt lat="42.76317" lon="1.6235">
        <ele>1596.4</ele>
        <time>2014-09-21T08:04:25Z</time>
      </trkpt>
      <trkpt lat="42.76297" lon="1.62336">
        <ele>1598.3</ele>
        <time>2014-09-21T08:04:39Z</time>
      </trkpt>
      <trkpt lat="42.76278" lon="1.62317">
        <ele>1600.7</ele>
        <time>2014-09-21T08:04:54Z</time>
      </trkpt>
      <trkpt lat="42.76261" lon="1.62291">
        <ele>1603.6</ele>
        <time>2014-09-21T08:05:11Z</time>
      </trkpt>
      <trkpt lat="42.76248" lon="1.62269">
        <ele>1606</ele>
        <time>2014-09-21T08:05:26Z</time>
      </trkpt>
      <trkpt lat="42.76222" lon="1.62259">
        <ele>1608.9</ele>
        <time>2014-09-21T08:05:44Z</time>
      </trkpt>
      <trkpt lat="42.76199" lon="1.6225">
        <ele>1612.3</ele>
        <time>2014-09-21T08:06:00Z</time>
      </trkpt>
      <trkpt lat="42.76176" lon="1.62245">
        <ele>1614.7</ele>
        <time>2014-09-21T08:06:16Z</time>
      </trkpt>
      <trkpt lat="42.76164" lon="1.62243">
        <ele>1615.6</ele>
        <time>2014-09-21T08:06:24Z</time>
      </trkpt>
      <trkpt lat="42.76141" lon="1.62238">
        <ele>1618.5</ele>
        <time>2014-09-21T08:06:40Z</time>
      </trkpt>
      <trkpt lat="42.76119" lon="1.62234">
        <ele>1621.4</ele>
        <time>2014-09-21T08:06:56Z</time>
      </trkpt>
      <trkpt lat="42.76101" lon="1.62228">
        <ele>1623.8</ele>
        <time>2014-09-21T08:07:09Z</time>
      </trkpt>
      <trkpt lat="42.76094" lon="1.62224">
        <ele>1624.8</ele>
        <time>2014-09-21T08:07:14Z</time>
      </trkpt>
      <trkpt lat="42.76067" lon="1.62217">
        <ele>1627.2</ele>
        <time>2014-09-21T08:07:32Z</time>
      </trkpt>
      <trkpt lat="42.76045" lon="1.62207">
        <ele>1630.1</ele>
        <time>2014-09-21T08:07:48Z</time>
      </trkpt>
      <trkpt lat="42.76026" lon="1.62198">
        <ele>1632</ele>
        <time>2014-09-21T08:08:03Z</time>
      </trkpt>
      <trkpt lat="42.76003" lon="1.62187">
        <ele>1634.4</ele>
        <time>2014-09-21T08:08:19Z</time>
      </trkpt>
      <trkpt lat="42.75987" lon="1.62178">
        <ele>1636.8</ele>
        <time>2014-09-21T08:08:32Z</time>
      </trkpt>
      <trkpt lat="42.75972" lon="1.6217">
        <ele>1639.2</ele>
        <time>2014-09-21T08:08:45Z</time>
      </trkpt>
      <trkpt lat="42.75957" lon="1.62162">
        <ele>1640.6</ele>
        <time>2014-09-21T08:08:57Z</time>
      </trkpt>
      <trkpt lat="42.75937" lon="1.62153">
        <ele>1642.6</ele>
        <time>2014-09-21T08:09:11Z</time>
      </trkpt>
      <trkpt lat="42.75917" lon="1.62143">
        <ele>1645.4</ele>
        <time>2014-09-21T08:09:24Z</time>
      </trkpt>
      <trkpt lat="42.75901" lon="1.62138">
        <ele>1646.9</ele>
        <time>2014-09-21T08:09:36Z</time>
      </trkpt>
      <trkpt lat="42.75879" lon="1.62135">
        <ele>1649.3</ele>
        <time>2014-09-21T08:09:52Z</time>
      </trkpt>
      <trkpt lat="42.75871" lon="1.62134">
        <ele>1650.2</ele>
        <time>2014-09-21T08:09:58Z</time>
      </trkpt>
      <trkpt lat="42.75847" lon="1.62126">
        <ele>1652.6</ele>
        <time>2014-09-21T08:10:14Z</time>
      </trkpt>
      <trkpt lat="42.75826" lon="1.62113">
        <ele>1655.1</ele>
        <time>2014-09-21T08:10:29Z</time>
      </trkpt>
      <trkpt lat="42.75803" lon="1.62096">
        <ele>1657.9</ele>
        <time>2014-09-21T08:10:48Z</time>
      </trkpt>
      <trkpt lat="42.75784" lon="1.62081">
        <ele>1660.3</ele>
        <time>2014-09-21T08:11:03Z</time>
      </trkpt>
      <trkpt lat="42.75777" lon="1.62086">
        <ele>1661.3</ele>
        <time>2014-09-21T08:11:08Z</time>
      </trkpt>
      <trkpt lat="42.7579" lon="1.62116">
        <ele>1662.7</ele>
        <time>2014-09-21T08:11:22Z</time>
      </trkpt>
      <trkpt lat="42.75807" lon="1.62149">
        <ele>1665.1</ele>
        <time>2014-09-21T08:11:40Z</time>
      </trkpt>
      <trkpt lat="42.75813" lon="1.62174">
        <ele>1667.1</ele>
        <time>2014-09-21T08:11:54Z</time>
      </trkpt>
      <trkpt lat="42.75829" lon="1.62197">
        <ele>1669.5</ele>
        <time>2014-09-21T08:12:12Z</time>
      </trkpt>
      <trkpt lat="42.75839" lon="1.6221">
        <ele>1671.9</ele>
        <time>2014-09-21T08:12:22Z</time>
      </trkpt>
      <trkpt lat="42.75843" lon="1.62218">
        <ele>1671.9</ele>
        <time>2014-09-21T08:12:27Z</time>
      </trkpt>
      <trkpt lat="42.75857" lon="1.6224">
        <ele>1674.3</ele>
        <time>2014-09-21T08:12:42Z</time>
      </trkpt>
      <trkpt lat="42.7587" lon="1.62258">
        <ele>1676.7</ele>
        <time>2014-09-21T08:12:56Z</time>
      </trkpt>
      <trkpt lat="42.7588" lon="1.62269">
        <ele>1677.6</ele>
        <time>2014-09-21T08:13:05Z</time>
      </trkpt>
      <trkpt lat="42.75884" lon="1.62274">
        <ele>1678.1</ele>
        <time>2014-09-21T08:13:09Z</time>
      </trkpt>
      <trkpt lat="42.75891" lon="1.62282">
        <ele>1679.6</ele>
        <time>2014-09-21T08:13:16Z</time>
      </trkpt>
      <trkpt lat="42.75895" lon="1.62288">
        <ele>1680</ele>
        <time>2014-09-21T08:13:20Z</time>
      </trkpt>
      <trkpt lat="42.75897" lon="1.6229">
        <ele>1680.5</ele>
        <time>2014-09-21T08:13:22Z</time>
      </trkpt>
      <trkpt lat="42.75907" lon="1.62306">
        <ele>1682</ele>
        <time>2014-09-21T08:13:33Z</time>
      </trkpt>
      <trkpt lat="42.7592" lon="1.62323">
        <ele>1683.9</ele>
        <time>2014-09-21T08:13:46Z</time>
      </trkpt>
      <trkpt lat="42.75931" lon="1.62324">
        <ele>1684.9</ele>
        <time>2014-09-21T08:13:57Z</time>
      </trkpt>
      <trkpt lat="42.75931" lon="1.62324">
        <ele>1684.9</ele>
        <time>2014-09-21T08:14:13Z</time>
      </trkpt>
      <trkpt lat="42.75932" lon="1.62325">
        <ele>1684.9</ele>
        <time>2014-09-21T08:14:34Z</time>
      </trkpt>
      <trkpt lat="42.75925" lon="1.62342">
        <ele>1685.3</ele>
        <time>2014-09-21T08:14:44Z</time>
      </trkpt>
      <trkpt lat="42.75924" lon="1.62345">
        <ele>1685.3</ele>
        <time>2014-09-21T08:14:45Z</time>
      </trkpt>
      <trkpt lat="42.75915" lon="1.62364">
        <ele>1685.3</ele>
        <time>2014-09-21T08:14:55Z</time>
      </trkpt>
      <trkpt lat="42.75914" lon="1.62365">
        <ele>1685.3</ele>
        <time>2014-09-21T08:14:56Z</time>
      </trkpt>
      <trkpt lat="42.75913" lon="1.62366">
        <ele>1685.3</ele>
        <time>2014-09-21T08:14:57Z</time>
      </trkpt>
      <trkpt lat="42.75911" lon="1.62367">
        <ele>1685.3</ele>
        <time>2014-09-21T08:14:58Z</time>
      </trkpt>
      <trkpt lat="42.7591" lon="1.62369">
        <ele>1685.3</ele>
        <time>2014-09-21T08:14:59Z</time>
      </trkpt>
      <trkpt lat="42.75891" lon="1.62387">
        <ele>1682.9</ele>
        <time>2014-09-21T08:15:12Z</time>
      </trkpt>
      <trkpt lat="42.75869" lon="1.62404">
        <ele>1680.5</ele>
        <time>2014-09-21T08:15:21Z</time>
      </trkpt>
      <trkpt lat="42.75861" lon="1.62407">
        <ele>1679.6</ele>
        <time>2014-09-21T08:15:23Z</time>
      </trkpt>
      <trkpt lat="42.75856" lon="1.62409">
        <ele>1679.6</ele>
        <time>2014-09-21T08:15:24Z</time>
      </trkpt>
      <trkpt lat="42.75829" lon="1.62413">
        <ele>1677.2</ele>
        <time>2014-09-21T08:15:29Z</time>
      </trkpt>
      <trkpt lat="42.75814" lon="1.62411">
        <ele>1675.2</ele>
        <time>2014-09-21T08:15:32Z</time>
      </trkpt>
      <trkpt lat="42.75798" lon="1.6241">
        <ele>1674.3</ele>
        <time>2014-09-21T08:15:35Z</time>
      </trkpt>
      <trkpt lat="42.75792" lon="1.6241">
        <ele>1673.3</ele>
        <time>2014-09-21T08:15:36Z</time>
      </trkpt>
      <trkpt lat="42.75785" lon="1.62412">
        <ele>1672.8</ele>
        <time>2014-09-21T08:15:37Z</time>
      </trkpt>
      <trkpt lat="42.75772" lon="1.62416">
        <ele>1671.4</ele>
        <time>2014-09-21T08:15:39Z</time>
      </trkpt>
      <trkpt lat="42.75765" lon="1.62419">
        <ele>1671.4</ele>
        <time>2014-09-21T08:15:40Z</time>
      </trkpt>
      <trkpt lat="42.75758" lon="1.62424">
        <ele>1670.4</ele>
        <time>2014-09-21T08:15:41Z</time>
      </trkpt>
      <trkpt lat="42.75752" lon="1.6243">
        <ele>1670.4</ele>
        <time>2014-09-21T08:15:42Z</time>
      </trkpt>
      <trkpt lat="42.75746" lon="1.62437">
        <ele>1669.5</ele>
        <time>2014-09-21T08:15:43Z</time>
      </trkpt>
      <trkpt lat="42.75742" lon="1.62443">
        <ele>1669</ele>
        <time>2014-09-21T08:15:44Z</time>
      </trkpt>
      <trkpt lat="42.75731" lon="1.6246">
        <ele>1668</ele>
        <time>2014-09-21T08:15:47Z</time>
      </trkpt>
      <trkpt lat="42.75704" lon="1.62491">
        <ele>1665.1</ele>
        <time>2014-09-21T08:15:54Z</time>
      </trkpt>
      <trkpt lat="42.75696" lon="1.62499">
        <ele>1665.1</ele>
        <time>2014-09-21T08:15:56Z</time>
      </trkpt>
      <trkpt lat="42.75684" lon="1.62509">
        <ele>1664.2</ele>
        <time>2014-09-21T08:15:59Z</time>
      </trkpt>
      <trkpt lat="42.7568" lon="1.62511">
        <ele>1664.2</ele>
        <time>2014-09-21T08:16:00Z</time>
      </trkpt>
      <trkpt lat="42.75664" lon="1.6252">
        <ele>1663.7</ele>
        <time>2014-09-21T08:16:04Z</time>
      </trkpt>
      <trkpt lat="42.75642" lon="1.62536">
        <ele>1662.3</ele>
        <time>2014-09-21T08:16:09Z</time>
      </trkpt>
      <trkpt lat="42.75592" lon="1.62554">
        <ele>1659.4</ele>
        <time>2014-09-21T08:16:19Z</time>
      </trkpt>
      <trkpt lat="42.75581" lon="1.62556">
        <ele>1658.4</ele>
        <time>2014-09-21T08:16:21Z</time>
      </trkpt>
      <trkpt lat="42.75537" lon="1.62561">
        <ele>1657.9</ele>
        <time>2014-09-21T08:16:31Z</time>
      </trkpt>
      <trkpt lat="42.75508" lon="1.62561">
        <ele>1660.8</ele>
        <time>2014-09-21T08:16:43Z</time>
      </trkpt>
      <trkpt lat="42.75487" lon="1.62558">
        <ele>1662.7</ele>
        <time>2014-09-21T08:16:54Z</time>
      </trkpt>
      <trkpt lat="42.75485" lon="1.62558">
        <ele>1662.7</ele>
        <time>2014-09-21T08:16:55Z</time>
      </trkpt>
      <trkpt lat="42.75484" lon="1.62558">
        <ele>1662.7</ele>
        <time>2014-09-21T08:16:56Z</time>
      </trkpt>
      <trkpt lat="42.75483" lon="1.62558">
        <ele>1663.2</ele>
        <time>2014-09-21T08:17:07Z</time>
      </trkpt>
      <trkpt lat="42.75481" lon="1.62557">
        <ele>1663.2</ele>
        <time>2014-09-21T08:17:23Z</time>
      </trkpt>
      <trkpt lat="42.75479" lon="1.62557">
        <ele>1663.2</ele>
        <time>2014-09-21T08:17:35Z</time>
      </trkpt>
      <trkpt lat="42.75479" lon="1.62559">
        <ele>1663.7</ele>
        <time>2014-09-21T08:18:10Z</time>
      </trkpt>
      <trkpt lat="42.75479" lon="1.62559">
        <ele>1663.7</ele>
        <time>2014-09-21T08:18:49Z</time>
      </trkpt>
      <trkpt lat="42.75478" lon="1.62558">
        <ele>1663.7</ele>
        <time>2014-09-21T08:19:31Z</time>
      </trkpt>
      <trkpt lat="42.75477" lon="1.62559">
        <ele>1663.7</ele>
        <time>2014-09-21T08:19:33Z</time>
      </trkpt>
      <trkpt lat="42.75475" lon="1.6256">
        <ele>1663.7</ele>
        <time>2014-09-21T08:19:35Z</time>
      </trkpt>
      <trkpt lat="42.75473" lon="1.6256">
        <ele>1663.7</ele>
        <time>2014-09-21T08:19:36Z</time>
      </trkpt>
      <trkpt lat="42.75449" lon="1.62557">
        <ele>1666.6</ele>
        <time>2014-09-21T08:19:51Z</time>
      </trkpt>
      <trkpt lat="42.75428" lon="1.62558">
        <ele>1669.5</ele>
        <time>2014-09-21T08:20:06Z</time>
      </trkpt>
      <trkpt lat="42.75427" lon="1.62558">
        <ele>1670</ele>
        <time>2014-09-21T08:20:07Z</time>
      </trkpt>
      <trkpt lat="42.75426" lon="1.62558">
        <ele>1670</ele>
        <time>2014-09-21T08:20:08Z</time>
      </trkpt>
      <trkpt lat="42.75407" lon="1.62542">
        <ele>1672.4</ele>
        <time>2014-09-21T08:20:25Z</time>
      </trkpt>
      <trkpt lat="42.7539" lon="1.62521">
        <ele>1674.8</ele>
        <time>2014-09-21T08:20:43Z</time>
      </trkpt>
      <trkpt lat="42.7537" lon="1.62502">
        <ele>1677.2</ele>
        <time>2014-09-21T08:21:01Z</time>
      </trkpt>
      <trkpt lat="42.75349" lon="1.6249">
        <ele>1679.6</ele>
        <time>2014-09-21T08:21:17Z</time>
      </trkpt>
      <trkpt lat="42.7534" lon="1.62485">
        <ele>1680.5</ele>
        <time>2014-09-21T08:21:24Z</time>
      </trkpt>
      <trkpt lat="42.75339" lon="1.62485">
        <ele>1680.5</ele>
        <time>2014-09-21T08:21:25Z</time>
      </trkpt>
      <trkpt lat="42.75338" lon="1.62485">
        <ele>1681</ele>
        <time>2014-09-21T08:21:26Z</time>
      </trkpt>
      <trkpt lat="42.75337" lon="1.62484">
        <ele>1681</ele>
        <time>2014-09-21T08:21:27Z</time>
      </trkpt>
      <trkpt lat="42.75336" lon="1.62483">
        <ele>1681.5</ele>
        <time>2014-09-21T08:21:28Z</time>
      </trkpt>
      <trkpt lat="42.75335" lon="1.62482">
        <ele>1681.5</ele>
        <time>2014-09-21T08:21:29Z</time>
      </trkpt>
      <trkpt lat="42.75334" lon="1.62481">
        <ele>1682</ele>
        <time>2014-09-21T08:21:30Z</time>
      </trkpt>
      <trkpt lat="42.75333" lon="1.6248">
        <ele>1682</ele>
        <time>2014-09-21T08:21:31Z</time>
      </trkpt>
      <trkpt lat="42.75332" lon="1.6248">
        <ele>1682</ele>
        <time>2014-09-21T08:21:32Z</time>
      </trkpt>
      <trkpt lat="42.7533" lon="1.62479">
        <ele>1682.4</ele>
        <time>2014-09-21T08:21:33Z</time>
      </trkpt>
      <trkpt lat="42.75311" lon="1.62469">
        <ele>1685.3</ele>
        <time>2014-09-21T08:21:50Z</time>
      </trkpt>
      <trkpt lat="42.75309" lon="1.62467">
        <ele>1685.3</ele>
        <time>2014-09-21T08:21:52Z</time>
      </trkpt>
      <trkpt lat="42.75293" lon="1.62453">
        <ele>1687.7</ele>
        <time>2014-09-21T08:22:07Z</time>
      </trkpt>
      <trkpt lat="42.75273" lon="1.62437">
        <ele>1690.6</ele>
        <time>2014-09-21T08:22:24Z</time>
      </trkpt>
      <trkpt lat="42.75255" lon="1.62417">
        <ele>1693.5</ele>
        <time>2014-09-21T08:22:41Z</time>
      </trkpt>
      <trkpt lat="42.75234" lon="1.62393">
        <ele>1695.9</ele>
        <time>2014-09-21T08:22:59Z</time>
      </trkpt>
      <trkpt lat="42.75231" lon="1.62391">
        <ele>1696.4</ele>
        <time>2014-09-21T08:23:01Z</time>
      </trkpt>
      <trkpt lat="42.7523" lon="1.62391">
        <ele>1696.4</ele>
        <time>2014-09-21T08:23:02Z</time>
      </trkpt>
      <trkpt lat="42.75208" lon="1.62381">
        <ele>1698.8</ele>
        <time>2014-09-21T08:23:17Z</time>
      </trkpt>
      <trkpt lat="42.75179" lon="1.62376">
        <ele>1700.2</ele>
        <time>2014-09-21T08:23:34Z</time>
      </trkpt>
      <trkpt lat="42.75143" lon="1.62353">
        <ele>1702.6</ele>
        <time>2014-09-21T08:23:53Z</time>
      </trkpt>
      <trkpt lat="42.75117" lon="1.62331">
        <ele>1705</ele>
        <time>2014-09-21T08:24:09Z</time>
      </trkpt>
      <trkpt lat="42.75088" lon="1.62307">
        <ele>1707</ele>
        <time>2014-09-21T08:24:25Z</time>
      </trkpt>
      <trkpt lat="42.75064" lon="1.62271">
        <ele>1708.9</ele>
        <time>2014-09-21T08:24:43Z</time>
      </trkpt>
      <trkpt lat="42.75051" lon="1.62233">
        <ele>1710.8</ele>
        <time>2014-09-21T08:24:58Z</time>
      </trkpt>
      <trkpt lat="42.75034" lon="1.62188">
        <ele>1713.7</ele>
        <time>2014-09-21T08:25:17Z</time>
      </trkpt>
      <trkpt lat="42.75014" lon="1.6216">
        <ele>1716.1</ele>
        <time>2014-09-21T08:25:33Z</time>
      </trkpt>
      <trkpt lat="42.74997" lon="1.62137">
        <ele>1718</ele>
        <time>2014-09-21T08:25:47Z</time>
      </trkpt>
      <trkpt lat="42.74978" lon="1.62113">
        <ele>1719.5</ele>
        <time>2014-09-21T08:26:00Z</time>
      </trkpt>
      <trkpt lat="42.74951" lon="1.62085">
        <ele>1720.4</ele>
        <time>2014-09-21T08:26:16Z</time>
      </trkpt>
      <trkpt lat="42.74913" lon="1.62057">
        <ele>1721.4</ele>
        <time>2014-09-21T08:26:32Z</time>
      </trkpt>
      <trkpt lat="42.74881" lon="1.62031">
        <ele>1722.8</ele>
        <time>2014-09-21T08:26:46Z</time>
      </trkpt>
      <trkpt lat="42.74853" lon="1.61997">
        <ele>1722.8</ele>
        <time>2014-09-21T08:26:59Z</time>
      </trkpt>
      <trkpt lat="42.74822" lon="1.61978">
        <ele>1723.3</ele>
        <time>2014-09-21T08:27:10Z</time>
      </trkpt>
      <trkpt lat="42.74785" lon="1.61952">
        <ele>1723.3</ele>
        <time>2014-09-21T08:27:23Z</time>
      </trkpt>
      <trkpt lat="42.74764" lon="1.61938">
        <ele>1722.3</ele>
        <time>2014-09-21T08:27:30Z</time>
      </trkpt>
      <trkpt lat="42.74724" lon="1.61925">
        <ele>1722.3</ele>
        <time>2014-09-21T08:27:42Z</time>
      </trkpt>
      <trkpt lat="42.7467" lon="1.61915">
        <ele>1721.4</ele>
        <time>2014-09-21T08:27:57Z</time>
      </trkpt>
      <trkpt lat="42.74626" lon="1.61886">
        <ele>1720.4</ele>
        <time>2014-09-21T08:28:10Z</time>
      </trkpt>
      <trkpt lat="42.74584" lon="1.61883">
        <ele>1721.4</ele>
        <time>2014-09-21T08:28:23Z</time>
      </trkpt>
      <trkpt lat="42.74582" lon="1.61883">
        <ele>1721.4</ele>
        <time>2014-09-21T08:28:24Z</time>
      </trkpt>
      <trkpt lat="42.74559" lon="1.61893">
        <ele>1724.7</ele>
        <time>2014-09-21T08:28:36Z</time>
      </trkpt>
      <trkpt lat="42.74531" lon="1.61898">
        <ele>1727.6</ele>
        <time>2014-09-21T08:28:52Z</time>
      </trkpt>
      <trkpt lat="42.74496" lon="1.61899">
        <ele>1728.6</ele>
        <time>2014-09-21T08:29:07Z</time>
      </trkpt>
      <trkpt lat="42.74458" lon="1.61887">
        <ele>1729.6</ele>
        <time>2014-09-21T08:29:22Z</time>
      </trkpt>
      <trkpt lat="42.74429" lon="1.61883">
        <ele>1729.6</ele>
        <time>2014-09-21T08:29:30Z</time>
      </trkpt>
      <trkpt lat="42.74424" lon="1.61885">
        <ele>1728.6</ele>
        <time>2014-09-21T08:29:31Z</time>
      </trkpt>
      <trkpt lat="42.7442" lon="1.61886">
        <ele>1728.6</ele>
        <time>2014-09-21T08:29:32Z</time>
      </trkpt>
      <trkpt lat="42.74417" lon="1.61887">
        <ele>1728.6</ele>
        <time>2014-09-21T08:29:33Z</time>
      </trkpt>
      <trkpt lat="42.74413" lon="1.61888">
        <ele>1728.6</ele>
        <time>2014-09-21T08:29:34Z</time>
      </trkpt>
      <trkpt lat="42.74409" lon="1.61888">
        <ele>1728.6</ele>
        <time>2014-09-21T08:29:35Z</time>
      </trkpt>
      <trkpt lat="42.74369" lon="1.61905">
        <ele>1728.1</ele>
        <time>2014-09-21T08:29:47Z</time>
      </trkpt>
      <trkpt lat="42.74354" lon="1.6192">
        <ele>1728.1</ele>
        <time>2014-09-21T08:29:52Z</time>
      </trkpt>
      <trkpt lat="42.74302" lon="1.61947">
        <ele>1727.2</ele>
        <time>2014-09-21T08:30:07Z</time>
      </trkpt>
      <trkpt lat="42.74281" lon="1.61963">
        <ele>1727.2</ele>
        <time>2014-09-21T08:30:20Z</time>
      </trkpt>
      <trkpt lat="42.74281" lon="1.61962">
        <ele>1726.7</ele>
        <time>2014-09-21T08:30:34Z</time>
      </trkpt>
      <trkpt lat="42.74281" lon="1.61963">
        <ele>1726.7</ele>
        <time>2014-09-21T08:31:04Z</time>
      </trkpt>
      <trkpt lat="42.74279" lon="1.61965">
        <ele>1726.7</ele>
        <time>2014-09-21T08:31:29Z</time>
      </trkpt>
      <trkpt lat="42.74251" lon="1.61969">
        <ele>1726.2</ele>
        <time>2014-09-21T08:31:39Z</time>
      </trkpt>
      <trkpt lat="42.74213" lon="1.61981">
        <ele>1725.7</ele>
        <time>2014-09-21T08:31:51Z</time>
      </trkpt>
      <trkpt lat="42.74212" lon="1.62011">
        <ele>1727.2</ele>
        <time>2014-09-21T08:32:00Z</time>
      </trkpt>
      <trkpt lat="42.74215" lon="1.62016">
        <ele>1727.6</ele>
        <time>2014-09-21T08:32:03Z</time>
      </trkpt>
      <trkpt lat="42.74216" lon="1.62017">
        <ele>1727.6</ele>
        <time>2014-09-21T08:32:04Z</time>
      </trkpt>
      <trkpt lat="42.74224" lon="1.62049">
        <ele>1730.5</ele>
        <time>2014-09-21T08:32:19Z</time>
      </trkpt>
      <trkpt lat="42.74225" lon="1.62062">
        <ele>1731.5</ele>
        <time>2014-09-21T08:32:25Z</time>
      </trkpt>
      <trkpt lat="42.74225" lon="1.62064">
        <ele>1731.5</ele>
        <time>2014-09-21T08:32:26Z</time>
      </trkpt>
      <trkpt lat="42.74226" lon="1.62066">
        <ele>1731.5</ele>
        <time>2014-09-21T08:32:27Z</time>
      </trkpt>
      <trkpt lat="42.74226" lon="1.62068">
        <ele>1731.5</ele>
        <time>2014-09-21T08:32:28Z</time>
      </trkpt>
      <trkpt lat="42.74226" lon="1.6207">
        <ele>1732</ele>
        <time>2014-09-21T08:32:29Z</time>
      </trkpt>
      <trkpt lat="42.74227" lon="1.62072">
        <ele>1732</ele>
        <time>2014-09-21T08:32:30Z</time>
      </trkpt>
      <trkpt lat="42.74227" lon="1.62074">
        <ele>1732.4</ele>
        <time>2014-09-21T08:32:31Z</time>
      </trkpt>
      <trkpt lat="42.74228" lon="1.62076">
        <ele>1732.4</ele>
        <time>2014-09-21T08:32:32Z</time>
      </trkpt>
      <trkpt lat="42.74229" lon="1.62078">
        <ele>1732.4</ele>
        <time>2014-09-21T08:32:33Z</time>
      </trkpt>
      <trkpt lat="42.74229" lon="1.62079">
        <ele>1732.4</ele>
        <time>2014-09-21T08:32:34Z</time>
      </trkpt>
      <trkpt lat="42.7423" lon="1.62081">
        <ele>1732.9</ele>
        <time>2014-09-21T08:32:35Z</time>
      </trkpt>
      <trkpt lat="42.7423" lon="1.62083">
        <ele>1733.4</ele>
        <time>2014-09-21T08:32:36Z</time>
      </trkpt>
      <trkpt lat="42.7423" lon="1.62085">
        <ele>1732.9</ele>
        <time>2014-09-21T08:32:37Z</time>
      </trkpt>
      <trkpt lat="42.74231" lon="1.62087">
        <ele>1733.4</ele>
        <time>2014-09-21T08:32:38Z</time>
      </trkpt>
      <trkpt lat="42.74231" lon="1.6209">
        <ele>1733.4</ele>
        <time>2014-09-21T08:32:39Z</time>
      </trkpt>
      <trkpt lat="42.74239" lon="1.62129">
        <ele>1736.8</ele>
        <time>2014-09-21T08:32:58Z</time>
      </trkpt>
      <trkpt lat="42.74248" lon="1.62158">
        <ele>1738.7</ele>
        <time>2014-09-21T08:33:14Z</time>
      </trkpt>
      <trkpt lat="42.74259" lon="1.62184">
        <ele>1741.6</ele>
        <time>2014-09-21T08:33:31Z</time>
      </trkpt>
      <trkpt lat="42.74268" lon="1.62213">
        <ele>1744</ele>
        <time>2014-09-21T08:33:47Z</time>
      </trkpt>
      <trkpt lat="42.74273" lon="1.6224">
        <ele>1745.9</ele>
        <time>2014-09-21T08:34:01Z</time>
      </trkpt>
      <trkpt lat="42.74278" lon="1.62269">
        <ele>1747.8</ele>
        <time>2014-09-21T08:34:16Z</time>
      </trkpt>
      <trkpt lat="42.74285" lon="1.62299">
        <ele>1749.7</ele>
        <time>2014-09-21T08:34:31Z</time>
      </trkpt>
      <trkpt lat="42.74289" lon="1.62326">
        <ele>1751.7</ele>
        <time>2014-09-21T08:34:45Z</time>
      </trkpt>
      <trkpt lat="42.74292" lon="1.62352">
        <ele>1754.1</ele>
        <time>2014-09-21T08:34:58Z</time>
      </trkpt>
      <trkpt lat="42.74291" lon="1.62359">
        <ele>1754.1</ele>
        <time>2014-09-21T08:35:01Z</time>
      </trkpt>
      <trkpt lat="42.74291" lon="1.62361">
        <ele>1754.1</ele>
        <time>2014-09-21T08:35:02Z</time>
      </trkpt>
      <trkpt lat="42.7429" lon="1.62392">
        <ele>1756.5</ele>
        <time>2014-09-21T08:35:17Z</time>
      </trkpt>
      <trkpt lat="42.74289" lon="1.62404">
        <ele>1757.4</ele>
        <time>2014-09-21T08:35:23Z</time>
      </trkpt>
      <trkpt lat="42.74289" lon="1.62406">
        <ele>1757.9</ele>
        <time>2014-09-21T08:35:24Z</time>
      </trkpt>
      <trkpt lat="42.74288" lon="1.62408">
        <ele>1757.9</ele>
        <time>2014-09-21T08:35:25Z</time>
      </trkpt>
      <trkpt lat="42.74288" lon="1.6241">
        <ele>1757.9</ele>
        <time>2014-09-21T08:35:26Z</time>
      </trkpt>
      <trkpt lat="42.74288" lon="1.62412">
        <ele>1757.9</ele>
        <time>2014-09-21T08:35:27Z</time>
      </trkpt>
      <trkpt lat="42.74288" lon="1.62414">
        <ele>1757.9</ele>
        <time>2014-09-21T08:35:28Z</time>
      </trkpt>
      <trkpt lat="42.74288" lon="1.62416">
        <ele>1759.4</ele>
        <time>2014-09-21T08:35:29Z</time>
      </trkpt>
      <trkpt lat="42.74288" lon="1.62418">
        <ele>1759.4</ele>
        <time>2014-09-21T08:35:30Z</time>
      </trkpt>
      <trkpt lat="42.74286" lon="1.6243">
        <ele>1759.4</ele>
        <time>2014-09-21T08:35:36Z</time>
      </trkpt>
      <trkpt lat="42.74285" lon="1.62431">
        <ele>1759.8</ele>
        <time>2014-09-21T08:35:37Z</time>
      </trkpt>
      <trkpt lat="42.74282" lon="1.62454">
        <ele>1761.8</ele>
        <time>2014-09-21T08:35:49Z</time>
      </trkpt>
      <trkpt lat="42.74283" lon="1.62456">
        <ele>1761.8</ele>
        <time>2014-09-21T08:35:50Z</time>
      </trkpt>
      <trkpt lat="42.74283" lon="1.62458">
        <ele>1761.8</ele>
        <time>2014-09-21T08:35:51Z</time>
      </trkpt>
      <trkpt lat="42.74284" lon="1.6246">
        <ele>1761.8</ele>
        <time>2014-09-21T08:35:52Z</time>
      </trkpt>
      <trkpt lat="42.74283" lon="1.62462">
        <ele>1762.7</ele>
        <time>2014-09-21T08:35:53Z</time>
      </trkpt>
      <trkpt lat="42.74283" lon="1.62464">
        <ele>1762.2</ele>
        <time>2014-09-21T08:35:54Z</time>
      </trkpt>
      <trkpt lat="42.74283" lon="1.62466">
        <ele>1762.7</ele>
        <time>2014-09-21T08:35:55Z</time>
      </trkpt>
      <trkpt lat="42.74283" lon="1.62467">
        <ele>1762.7</ele>
        <time>2014-09-21T08:35:56Z</time>
      </trkpt>
      <trkpt lat="42.74283" lon="1.62469">
        <ele>1762.7</ele>
        <time>2014-09-21T08:35:57Z</time>
      </trkpt>
      <trkpt lat="42.74284" lon="1.62471">
        <ele>1762.7</ele>
        <time>2014-09-21T08:35:58Z</time>
      </trkpt>
      <trkpt lat="42.74284" lon="1.62474">
        <ele>1762.7</ele>
        <time>2014-09-21T08:35:59Z</time>
      </trkpt>
      <trkpt lat="42.74284" lon="1.62476">
        <ele>1762.7</ele>
        <time>2014-09-21T08:36:00Z</time>
      </trkpt>
      <trkpt lat="42.74284" lon="1.62478">
        <ele>1762.7</ele>
        <time>2014-09-21T08:36:01Z</time>
      </trkpt>
      <trkpt lat="42.74284" lon="1.6248">
        <ele>1763.7</ele>
        <time>2014-09-21T08:36:02Z</time>
      </trkpt>
      <trkpt lat="42.74284" lon="1.62483">
        <ele>1763.7</ele>
        <time>2014-09-21T08:36:03Z</time>
      </trkpt>
      <trkpt lat="42.74283" lon="1.62487">
        <ele>1762.2</ele>
        <time>2014-09-21T08:36:05Z</time>
      </trkpt>
      <trkpt lat="42.74281" lon="1.62492">
        <ele>1763.7</ele>
        <time>2014-09-21T08:36:07Z</time>
      </trkpt>
      <trkpt lat="42.74272" lon="1.62525">
        <ele>1765.1</ele>
        <time>2014-09-21T08:36:21Z</time>
      </trkpt>
      <trkpt lat="42.74266" lon="1.62552">
        <ele>1767</ele>
        <time>2014-09-21T08:36:34Z</time>
      </trkpt>
      <trkpt lat="42.74265" lon="1.62553">
        <ele>1767</ele>
        <time>2014-09-21T08:36:35Z</time>
      </trkpt>
      <trkpt lat="42.74263" lon="1.62554">
        <ele>1767</ele>
        <time>2014-09-21T08:36:36Z</time>
      </trkpt>
      <trkpt lat="42.74262" lon="1.62554">
        <ele>1767</ele>
        <time>2014-09-21T08:36:37Z</time>
      </trkpt>
      <trkpt lat="42.74261" lon="1.62554">
        <ele>1767</ele>
        <time>2014-09-21T08:36:38Z</time>
      </trkpt>
      <trkpt lat="42.74259" lon="1.62553">
        <ele>1767.5</ele>
        <time>2014-09-21T08:36:39Z</time>
      </trkpt>
      <trkpt lat="42.74259" lon="1.62551">
        <ele>1767.5</ele>
        <time>2014-09-21T08:36:40Z</time>
      </trkpt>
      <trkpt lat="42.74258" lon="1.62549">
        <ele>1767.5</ele>
        <time>2014-09-21T08:36:41Z</time>
      </trkpt>
      <trkpt lat="42.74256" lon="1.62548">
        <ele>1767.5</ele>
        <time>2014-09-21T08:36:42Z</time>
      </trkpt>
      <trkpt lat="42.74256" lon="1.62546">
        <ele>1767.5</ele>
        <time>2014-09-21T08:36:43Z</time>
      </trkpt>
      <trkpt lat="42.74255" lon="1.62544">
        <ele>1768</ele>
        <time>2014-09-21T08:36:44Z</time>
      </trkpt>
      <trkpt lat="42.74255" lon="1.62543">
        <ele>1768</ele>
        <time>2014-09-21T08:36:45Z</time>
      </trkpt>
      <trkpt lat="42.74255" lon="1.62541">
        <ele>1768</ele>
        <time>2014-09-21T08:36:46Z</time>
      </trkpt>
      <trkpt lat="42.74255" lon="1.62539">
        <ele>1768</ele>
        <time>2014-09-21T08:36:47Z</time>
      </trkpt>
      <trkpt lat="42.74252" lon="1.62511">
        <ele>1770.9</ele>
        <time>2014-09-21T08:37:02Z</time>
      </trkpt>
      <trkpt lat="42.74242" lon="1.62483">
        <ele>1772.8</ele>
        <time>2014-09-21T08:37:17Z</time>
      </trkpt>
      <trkpt lat="42.74231" lon="1.62448">
        <ele>1774.7</ele>
        <time>2014-09-21T08:37:35Z</time>
      </trkpt>
      <trkpt lat="42.74221" lon="1.62421">
        <ele>1777.1</ele>
        <time>2014-09-21T08:37:50Z</time>
      </trkpt>
      <trkpt lat="42.74204" lon="1.62394">
        <ele>1779.1</ele>
        <time>2014-09-21T08:38:06Z</time>
      </trkpt>
      <trkpt lat="42.74188" lon="1.6237">
        <ele>1781.9</ele>
        <time>2014-09-21T08:38:23Z</time>
      </trkpt>
      <trkpt lat="42.74171" lon="1.62351">
        <ele>1783.9</ele>
        <time>2014-09-21T08:38:38Z</time>
      </trkpt>
      <trkpt lat="42.74163" lon="1.62347">
        <ele>1784.8</ele>
        <time>2014-09-21T08:38:43Z</time>
      </trkpt>
      <trkpt lat="42.74162" lon="1.62346">
        <ele>1784.8</ele>
        <time>2014-09-21T08:38:44Z</time>
      </trkpt>
      <trkpt lat="42.74151" lon="1.62327">
        <ele>1786.3</ele>
        <time>2014-09-21T08:38:56Z</time>
      </trkpt>
      <trkpt lat="42.74149" lon="1.62327">
        <ele>1786.3</ele>
        <time>2014-09-21T08:38:57Z</time>
      </trkpt>
      <trkpt lat="42.74147" lon="1.62324">
        <ele>1786.3</ele>
        <time>2014-09-21T08:38:59Z</time>
      </trkpt>
      <trkpt lat="42.74127" lon="1.62306">
        <ele>1788.7</ele>
        <time>2014-09-21T08:39:15Z</time>
      </trkpt>
      <trkpt lat="42.74112" lon="1.62291">
        <ele>1790.6</ele>
        <time>2014-09-21T08:39:28Z</time>
      </trkpt>
      <trkpt lat="42.74089" lon="1.62273">
        <ele>1793.5</ele>
        <time>2014-09-21T08:39:46Z</time>
      </trkpt>
      <trkpt lat="42.74067" lon="1.62263">
        <ele>1795.4</ele>
        <time>2014-09-21T08:40:02Z</time>
      </trkpt>
      <trkpt lat="42.74057" lon="1.62255">
        <ele>1796.4</ele>
        <time>2014-09-21T08:40:10Z</time>
      </trkpt>
      <trkpt lat="42.7405" lon="1.6225">
        <ele>1797.8</ele>
        <time>2014-09-21T08:40:16Z</time>
      </trkpt>
      <trkpt lat="42.74048" lon="1.6225">
        <ele>1797.8</ele>
        <time>2014-09-21T08:40:17Z</time>
      </trkpt>
      <trkpt lat="42.74047" lon="1.6225">
        <ele>1797.8</ele>
        <time>2014-09-21T08:40:18Z</time>
      </trkpt>
      <trkpt lat="42.74045" lon="1.62249">
        <ele>1798.3</ele>
        <time>2014-09-21T08:40:19Z</time>
      </trkpt>
      <trkpt lat="42.74044" lon="1.62249">
        <ele>1798.3</ele>
        <time>2014-09-21T08:40:20Z</time>
      </trkpt>
      <trkpt lat="42.74043" lon="1.62248">
        <ele>1798.3</ele>
        <time>2014-09-21T08:40:21Z</time>
      </trkpt>
      <trkpt lat="42.74041" lon="1.62247">
        <ele>1798.8</ele>
        <time>2014-09-21T08:40:22Z</time>
      </trkpt>
      <trkpt lat="42.7404" lon="1.62246">
        <ele>1798.8</ele>
        <time>2014-09-21T08:40:23Z</time>
      </trkpt>
      <trkpt lat="42.74014" lon="1.62229">
        <ele>1801.7</ele>
        <time>2014-09-21T08:40:43Z</time>
      </trkpt>
      <trkpt lat="42.73996" lon="1.62216">
        <ele>1803.1</ele>
        <time>2014-09-21T08:40:57Z</time>
      </trkpt>
      <trkpt lat="42.73979" lon="1.62195">
        <ele>1805.5</ele>
        <time>2014-09-21T08:41:13Z</time>
      </trkpt>
      <trkpt lat="42.73962" lon="1.62172">
        <ele>1807.9</ele>
        <time>2014-09-21T08:41:29Z</time>
      </trkpt>
      <trkpt lat="42.73944" lon="1.62155">
        <ele>1810.3</ele>
        <time>2014-09-21T08:41:44Z</time>
      </trkpt>
      <trkpt lat="42.7393" lon="1.62135">
        <ele>1812.2</ele>
        <time>2014-09-21T08:41:59Z</time>
      </trkpt>
      <trkpt lat="42.73928" lon="1.62132">
        <ele>1812.7</ele>
        <time>2014-09-21T08:42:01Z</time>
      </trkpt>
      <trkpt lat="42.73927" lon="1.62131">
        <ele>1812.7</ele>
        <time>2014-09-21T08:42:02Z</time>
      </trkpt>
      <trkpt lat="42.73926" lon="1.62129">
        <ele>1813.2</ele>
        <time>2014-09-21T08:42:03Z</time>
      </trkpt>
      <trkpt lat="42.73925" lon="1.62128">
        <ele>1813.2</ele>
        <time>2014-09-21T08:42:04Z</time>
      </trkpt>
      <trkpt lat="42.73924" lon="1.62128">
        <ele>1813.2</ele>
        <time>2014-09-21T08:42:05Z</time>
      </trkpt>
      <trkpt lat="42.73922" lon="1.62127">
        <ele>1813.2</ele>
        <time>2014-09-21T08:42:06Z</time>
      </trkpt>
      <trkpt lat="42.73921" lon="1.62126">
        <ele>1813.2</ele>
        <time>2014-09-21T08:42:07Z</time>
      </trkpt>
      <trkpt lat="42.73899" lon="1.62109">
        <ele>1816.6</ele>
        <time>2014-09-21T08:42:25Z</time>
      </trkpt>
      <trkpt lat="42.73887" lon="1.62095">
        <ele>1818</ele>
        <time>2014-09-21T08:42:36Z</time>
      </trkpt>
      <trkpt lat="42.73886" lon="1.62093">
        <ele>1818</ele>
        <time>2014-09-21T08:42:37Z</time>
      </trkpt>
      <trkpt lat="42.73885" lon="1.62092">
        <ele>1818.5</ele>
        <time>2014-09-21T08:42:38Z</time>
      </trkpt>
      <trkpt lat="42.73884" lon="1.6209">
        <ele>1818.5</ele>
        <time>2014-09-21T08:42:39Z</time>
      </trkpt>
      <trkpt lat="42.73884" lon="1.62088">
        <ele>1818.5</ele>
        <time>2014-09-21T08:42:40Z</time>
      </trkpt>
      <trkpt lat="42.73883" lon="1.62087">
        <ele>1818.5</ele>
        <time>2014-09-21T08:42:41Z</time>
      </trkpt>
      <trkpt lat="42.73882" lon="1.62085">
        <ele>1819</ele>
        <time>2014-09-21T08:42:42Z</time>
      </trkpt>
      <trkpt lat="42.73862" lon="1.62062">
        <ele>1820.9</ele>
        <time>2014-09-21T08:42:58Z</time>
      </trkpt>
      <trkpt lat="42.73859" lon="1.62059">
        <ele>1820.9</ele>
        <time>2014-09-21T08:43:00Z</time>
      </trkpt>
      <trkpt lat="42.73858" lon="1.62058">
        <ele>1820.9</ele>
        <time>2014-09-21T08:43:01Z</time>
      </trkpt>
      <trkpt lat="42.73857" lon="1.62056">
        <ele>1821.4</ele>
        <time>2014-09-21T08:43:02Z</time>
      </trkpt>
      <trkpt lat="42.73856" lon="1.62055">
        <ele>1821.4</ele>
        <time>2014-09-21T08:43:03Z</time>
      </trkpt>
      <trkpt lat="42.73855" lon="1.62053">
        <ele>1821.4</ele>
        <time>2014-09-21T08:43:04Z</time>
      </trkpt>
      <trkpt lat="42.73854" lon="1.62051">
        <ele>1821.8</ele>
        <time>2014-09-21T08:43:05Z</time>
      </trkpt>
      <trkpt lat="42.73853" lon="1.62049">
        <ele>1821.8</ele>
        <time>2014-09-21T08:43:06Z</time>
      </trkpt>
      <trkpt lat="42.73852" lon="1.62047">
        <ele>1821.8</ele>
        <time>2014-09-21T08:43:07Z</time>
      </trkpt>
      <trkpt lat="42.73851" lon="1.62045">
        <ele>1821.8</ele>
        <time>2014-09-21T08:43:08Z</time>
      </trkpt>
      <trkpt lat="42.7385" lon="1.62043">
        <ele>1821.8</ele>
        <time>2014-09-21T08:43:09Z</time>
      </trkpt>
      <trkpt lat="42.73837" lon="1.62016">
        <ele>1823.8</ele>
        <time>2014-09-21T08:43:23Z</time>
      </trkpt>
      <trkpt lat="42.73832" lon="1.62012">
        <ele>1824.7</ele>
        <time>2014-09-21T08:43:27Z</time>
      </trkpt>
      <trkpt lat="42.7383" lon="1.62012">
        <ele>1824.7</ele>
        <time>2014-09-21T08:43:28Z</time>
      </trkpt>
      <trkpt lat="42.73829" lon="1.62013">
        <ele>1824.7</ele>
        <time>2014-09-21T08:43:29Z</time>
      </trkpt>
      <trkpt lat="42.73827" lon="1.62013">
        <ele>1824.7</ele>
        <time>2014-09-21T08:43:30Z</time>
      </trkpt>
      <trkpt lat="42.73826" lon="1.62014">
        <ele>1825.2</ele>
        <time>2014-09-21T08:43:31Z</time>
      </trkpt>
      <trkpt lat="42.73824" lon="1.62016">
        <ele>1825.2</ele>
        <time>2014-09-21T08:43:32Z</time>
      </trkpt>
      <trkpt lat="42.73824" lon="1.62018">
        <ele>1825.2</ele>
        <time>2014-09-21T08:43:33Z</time>
      </trkpt>
      <trkpt lat="42.73824" lon="1.6202">
        <ele>1826.2</ele>
        <time>2014-09-21T08:43:34Z</time>
      </trkpt>
      <trkpt lat="42.73824" lon="1.62022">
        <ele>1826.2</ele>
        <time>2014-09-21T08:43:35Z</time>
      </trkpt>
      <trkpt lat="42.73829" lon="1.62039">
        <ele>1826.6</ele>
        <time>2014-09-21T08:43:43Z</time>
      </trkpt>
      <trkpt lat="42.73829" lon="1.62042">
        <ele>1826.6</ele>
        <time>2014-09-21T08:43:44Z</time>
      </trkpt>
      <trkpt lat="42.73823" lon="1.62075">
        <ele>1829.5</ele>
        <time>2014-09-21T08:44:00Z</time>
      </trkpt>
      <trkpt lat="42.73821" lon="1.62083">
        <ele>1830</ele>
        <time>2014-09-21T08:44:04Z</time>
      </trkpt>
      <trkpt lat="42.7382" lon="1.62085">
        <ele>1830</ele>
        <time>2014-09-21T08:44:05Z</time>
      </trkpt>
      <trkpt lat="42.73819" lon="1.62087">
        <ele>1830.5</ele>
        <time>2014-09-21T08:44:06Z</time>
      </trkpt>
      <trkpt lat="42.73818" lon="1.62089">
        <ele>1830.5</ele>
        <time>2014-09-21T08:44:07Z</time>
      </trkpt>
      <trkpt lat="42.73817" lon="1.6209">
        <ele>1830.5</ele>
        <time>2014-09-21T08:44:08Z</time>
      </trkpt>
      <trkpt lat="42.73816" lon="1.62092">
        <ele>1830.5</ele>
        <time>2014-09-21T08:44:09Z</time>
      </trkpt>
      <trkpt lat="42.73801" lon="1.62121">
        <ele>1832.9</ele>
        <time>2014-09-21T08:44:25Z</time>
      </trkpt>
      <trkpt lat="42.73786" lon="1.62147">
        <ele>1834.3</ele>
        <time>2014-09-21T08:44:40Z</time>
      </trkpt>
      <trkpt lat="42.73766" lon="1.62169">
        <ele>1836.3</ele>
        <time>2014-09-21T08:44:54Z</time>
      </trkpt>
      <trkpt lat="42.73763" lon="1.62172">
        <ele>1836.7</ele>
        <time>2014-09-21T08:44:56Z</time>
      </trkpt>
      <trkpt lat="42.73762" lon="1.62172">
        <ele>1836.7</ele>
        <time>2014-09-21T08:44:57Z</time>
      </trkpt>
      <trkpt lat="42.7376" lon="1.62172">
        <ele>1836.7</ele>
        <time>2014-09-21T08:44:58Z</time>
      </trkpt>
      <trkpt lat="42.73759" lon="1.62173">
        <ele>1836.7</ele>
        <time>2014-09-21T08:44:59Z</time>
      </trkpt>
      <trkpt lat="42.73757" lon="1.62174">
        <ele>1836.7</ele>
        <time>2014-09-21T08:45:00Z</time>
      </trkpt>
      <trkpt lat="42.73756" lon="1.62176">
        <ele>1837.2</ele>
        <time>2014-09-21T08:45:01Z</time>
      </trkpt>
      <trkpt lat="42.73754" lon="1.62177">
        <ele>1837.2</ele>
        <time>2014-09-21T08:45:02Z</time>
      </trkpt>
      <trkpt lat="42.73753" lon="1.62179">
        <ele>1837.2</ele>
        <time>2014-09-21T08:45:03Z</time>
      </trkpt>
      <trkpt lat="42.73751" lon="1.6218">
        <ele>1837.2</ele>
        <time>2014-09-21T08:45:04Z</time>
      </trkpt>
      <trkpt lat="42.73731" lon="1.62201">
        <ele>1838.2</ele>
        <time>2014-09-21T08:45:17Z</time>
      </trkpt>
      <trkpt lat="42.73731" lon="1.62198">
        <ele>1838.2</ele>
        <time>2014-09-21T08:45:29Z</time>
      </trkpt>
      <trkpt lat="42.73731" lon="1.622">
        <ele>1838.2</ele>
        <time>2014-09-21T08:46:02Z</time>
      </trkpt>
      <trkpt lat="42.73731" lon="1.622">
        <ele>1837.2</ele>
        <time>2014-09-21T08:46:31Z</time>
      </trkpt>
      <trkpt lat="42.73731" lon="1.62201">
        <ele>1837.7</ele>
        <time>2014-09-21T08:47:03Z</time>
      </trkpt>
      <trkpt lat="42.7373" lon="1.62203">
        <ele>1837.7</ele>
        <time>2014-09-21T08:47:13Z</time>
      </trkpt>
      <trkpt lat="42.73729" lon="1.62205">
        <ele>1837.7</ele>
        <time>2014-09-21T08:47:14Z</time>
      </trkpt>
      <trkpt lat="42.73727" lon="1.62207">
        <ele>1837.7</ele>
        <time>2014-09-21T08:47:15Z</time>
      </trkpt>
      <trkpt lat="42.73726" lon="1.62209">
        <ele>1837.7</ele>
        <time>2014-09-21T08:47:16Z</time>
      </trkpt>
      <trkpt lat="42.73724" lon="1.62211">
        <ele>1837.7</ele>
        <time>2014-09-21T08:47:17Z</time>
      </trkpt>
      <trkpt lat="42.73722" lon="1.62213">
        <ele>1837.7</ele>
        <time>2014-09-21T08:47:18Z</time>
      </trkpt>
      <trkpt lat="42.7372" lon="1.62215">
        <ele>1837.7</ele>
        <time>2014-09-21T08:47:19Z</time>
      </trkpt>
      <trkpt lat="42.73685" lon="1.62254">
        <ele>1836.7</ele>
        <time>2014-09-21T08:47:33Z</time>
      </trkpt>
      <trkpt lat="42.73669" lon="1.62266">
        <ele>1836.3</ele>
        <time>2014-09-21T08:47:38Z</time>
      </trkpt>
      <trkpt lat="42.73657" lon="1.62271">
        <ele>1835.3</ele>
        <time>2014-09-21T08:47:41Z</time>
      </trkpt>
      <trkpt lat="42.73653" lon="1.62272">
        <ele>1835.3</ele>
        <time>2014-09-21T08:47:42Z</time>
      </trkpt>
      <trkpt lat="42.73649" lon="1.62275">
        <ele>1835.3</ele>
        <time>2014-09-21T08:47:43Z</time>
      </trkpt>
      <trkpt lat="42.73646" lon="1.62278">
        <ele>1834.8</ele>
        <time>2014-09-21T08:47:44Z</time>
      </trkpt>
      <trkpt lat="42.73642" lon="1.62282">
        <ele>1834.8</ele>
        <time>2014-09-21T08:47:45Z</time>
      </trkpt>
      <trkpt lat="42.73639" lon="1.62284">
        <ele>1834.8</ele>
        <time>2014-09-21T08:47:46Z</time>
      </trkpt>
      <trkpt lat="42.73598" lon="1.6231">
        <ele>1833.9</ele>
        <time>2014-09-21T08:47:57Z</time>
      </trkpt>
      <trkpt lat="42.73594" lon="1.62312">
        <ele>1833.9</ele>
        <time>2014-09-21T08:47:58Z</time>
      </trkpt>
      <trkpt lat="42.7359" lon="1.62315">
        <ele>1833.9</ele>
        <time>2014-09-21T08:47:59Z</time>
      </trkpt>
      <trkpt lat="42.73582" lon="1.6232">
        <ele>1832.9</ele>
        <time>2014-09-21T08:48:01Z</time>
      </trkpt>
      <trkpt lat="42.73578" lon="1.62322">
        <ele>1832.9</ele>
        <time>2014-09-21T08:48:02Z</time>
      </trkpt>
      <trkpt lat="42.73574" lon="1.62325">
        <ele>1832.9</ele>
        <time>2014-09-21T08:48:03Z</time>
      </trkpt>
      <trkpt lat="42.73571" lon="1.62329">
        <ele>1832.4</ele>
        <time>2014-09-21T08:48:04Z</time>
      </trkpt>
      <trkpt lat="42.73568" lon="1.62334">
        <ele>1832.4</ele>
        <time>2014-09-21T08:48:05Z</time>
      </trkpt>
      <trkpt lat="42.73565" lon="1.62338">
        <ele>1832.4</ele>
        <time>2014-09-21T08:48:06Z</time>
      </trkpt>
      <trkpt lat="42.73561" lon="1.62341">
        <ele>1832.4</ele>
        <time>2014-09-21T08:48:07Z</time>
      </trkpt>
      <trkpt lat="42.73548" lon="1.62357">
        <ele>1831.5</ele>
        <time>2014-09-21T08:48:11Z</time>
      </trkpt>
      <trkpt lat="42.73542" lon="1.62368">
        <ele>1831.5</ele>
        <time>2014-09-21T08:48:13Z</time>
      </trkpt>
      <trkpt lat="42.73539" lon="1.62373">
        <ele>1831.5</ele>
        <time>2014-09-21T08:48:14Z</time>
      </trkpt>
      <trkpt lat="42.73536" lon="1.62377">
        <ele>1831.5</ele>
        <time>2014-09-21T08:48:15Z</time>
      </trkpt>
      <trkpt lat="42.7352" lon="1.62405">
        <ele>1830</ele>
        <time>2014-09-21T08:48:20Z</time>
      </trkpt>
      <trkpt lat="42.73513" lon="1.62415">
        <ele>1830</ele>
        <time>2014-09-21T08:48:22Z</time>
      </trkpt>
      <trkpt lat="42.73496" lon="1.62434">
        <ele>1829.1</ele>
        <time>2014-09-21T08:48:26Z</time>
      </trkpt>
      <trkpt lat="42.73492" lon="1.6244">
        <ele>1828.6</ele>
        <time>2014-09-21T08:48:27Z</time>
      </trkpt>
      <trkpt lat="42.73482" lon="1.62451">
        <ele>1827.6</ele>
        <time>2014-09-21T08:48:29Z</time>
      </trkpt>
      <trkpt lat="42.73478" lon="1.62458">
        <ele>1827.6</ele>
        <time>2014-09-21T08:48:30Z</time>
      </trkpt>
      <trkpt lat="42.73474" lon="1.62465">
        <ele>1826.6</ele>
        <time>2014-09-21T08:48:31Z</time>
      </trkpt>
      <trkpt lat="42.7347" lon="1.62473">
        <ele>1826.2</ele>
        <time>2014-09-21T08:48:32Z</time>
      </trkpt>
      <trkpt lat="42.73466" lon="1.62481">
        <ele>1825.7</ele>
        <time>2014-09-21T08:48:33Z</time>
      </trkpt>
      <trkpt lat="42.73457" lon="1.62496">
        <ele>1825.2</ele>
        <time>2014-09-21T08:48:35Z</time>
      </trkpt>
      <trkpt lat="42.73422" lon="1.62533">
        <ele>1825.7</ele>
        <time>2014-09-21T08:48:44Z</time>
      </trkpt>
      <trkpt lat="42.73413" lon="1.62542">
        <ele>1826.6</ele>
        <time>2014-09-21T08:48:48Z</time>
      </trkpt>
      <trkpt lat="42.73387" lon="1.6256">
        <ele>1828.6</ele>
        <time>2014-09-21T08:49:00Z</time>
      </trkpt>
      <trkpt lat="42.73357" lon="1.62563">
        <ele>1831</ele>
        <time>2014-09-21T08:49:15Z</time>
      </trkpt>
      <trkpt lat="42.73331" lon="1.62556">
        <ele>1832.9</ele>
        <time>2014-09-21T08:49:30Z</time>
      </trkpt>
      <trkpt lat="42.7331" lon="1.62541">
        <ele>1835.3</ele>
        <time>2014-09-21T08:49:45Z</time>
      </trkpt>
      <trkpt lat="42.73307" lon="1.6254">
        <ele>1835.3</ele>
        <time>2014-09-21T08:49:47Z</time>
      </trkpt>
      <trkpt lat="42.73306" lon="1.62539">
        <ele>1835.3</ele>
        <time>2014-09-21T08:49:48Z</time>
      </trkpt>
      <trkpt lat="42.73304" lon="1.62538">
        <ele>1835.3</ele>
        <time>2014-09-21T08:49:49Z</time>
      </trkpt>
      <trkpt lat="42.73303" lon="1.62537">
        <ele>1835.8</ele>
        <time>2014-09-21T08:49:50Z</time>
      </trkpt>
      <trkpt lat="42.73302" lon="1.62535">
        <ele>1836.3</ele>
        <time>2014-09-21T08:49:51Z</time>
      </trkpt>
      <trkpt lat="42.73301" lon="1.62533">
        <ele>1836.3</ele>
        <time>2014-09-21T08:49:52Z</time>
      </trkpt>
      <trkpt lat="42.733" lon="1.62531">
        <ele>1836.3</ele>
        <time>2014-09-21T08:49:53Z</time>
      </trkpt>
      <trkpt lat="42.73298" lon="1.62529">
        <ele>1836.3</ele>
        <time>2014-09-21T08:49:54Z</time>
      </trkpt>
      <trkpt lat="42.73283" lon="1.625">
        <ele>1838.2</ele>
        <time>2014-09-21T08:50:09Z</time>
      </trkpt>
      <trkpt lat="42.73268" lon="1.62469">
        <ele>1839.6</ele>
        <time>2014-09-21T08:50:24Z</time>
      </trkpt>
      <trkpt lat="42.73249" lon="1.62439">
        <ele>1842</ele>
        <time>2014-09-21T08:50:40Z</time>
      </trkpt>
      <trkpt lat="42.73233" lon="1.62414">
        <ele>1843.5</ele>
        <time>2014-09-21T08:50:54Z</time>
      </trkpt>
      <trkpt lat="42.7322" lon="1.62388">
        <ele>1845.4</ele>
        <time>2014-09-21T08:51:07Z</time>
      </trkpt>
      <trkpt lat="42.73208" lon="1.62347">
        <ele>1847.8</ele>
        <time>2014-09-21T08:51:24Z</time>
      </trkpt>
      <trkpt lat="42.73205" lon="1.62322">
        <ele>1848.8</ele>
        <time>2014-09-21T08:51:36Z</time>
      </trkpt>
      <trkpt lat="42.73205" lon="1.62295">
        <ele>1850.2</ele>
        <time>2014-09-21T08:51:51Z</time>
      </trkpt>
      <trkpt lat="42.73206" lon="1.62263">
        <ele>1852.1</ele>
        <time>2014-09-21T08:52:05Z</time>
      </trkpt>
      <trkpt lat="42.73206" lon="1.62258">
        <ele>1852.1</ele>
        <time>2014-09-21T08:52:07Z</time>
      </trkpt>
      <trkpt lat="42.73207" lon="1.62256">
        <ele>1852.1</ele>
        <time>2014-09-21T08:52:08Z</time>
      </trkpt>
      <trkpt lat="42.73208" lon="1.62254">
        <ele>1852.1</ele>
        <time>2014-09-21T08:52:09Z</time>
      </trkpt>
      <trkpt lat="42.73212" lon="1.6222">
        <ele>1854.5</ele>
        <time>2014-09-21T08:52:24Z</time>
      </trkpt>
      <trkpt lat="42.73215" lon="1.62191">
        <ele>1856</ele>
        <time>2014-09-21T08:52:37Z</time>
      </trkpt>
      <trkpt lat="42.73217" lon="1.62157">
        <ele>1857.9</ele>
        <time>2014-09-21T08:52:52Z</time>
      </trkpt>
      <trkpt lat="42.73217" lon="1.62153">
        <ele>1858.4</ele>
        <time>2014-09-21T08:52:54Z</time>
      </trkpt>
      <trkpt lat="42.73218" lon="1.62151">
        <ele>1858.4</ele>
        <time>2014-09-21T08:52:55Z</time>
      </trkpt>
      <trkpt lat="42.73218" lon="1.62148">
        <ele>1858.4</ele>
        <time>2014-09-21T08:52:56Z</time>
      </trkpt>
      <trkpt lat="42.73224" lon="1.62111">
        <ele>1860.3</ele>
        <time>2014-09-21T08:53:11Z</time>
      </trkpt>
      <trkpt lat="42.73227" lon="1.62092">
        <ele>1860.8</ele>
        <time>2014-09-21T08:53:19Z</time>
      </trkpt>
      <trkpt lat="42.73227" lon="1.62089">
        <ele>1861.3</ele>
        <time>2014-09-21T08:53:20Z</time>
      </trkpt>
      <trkpt lat="42.73227" lon="1.62087">
        <ele>1861.3</ele>
        <time>2014-09-21T08:53:21Z</time>
      </trkpt>
      <trkpt lat="42.73225" lon="1.62051">
        <ele>1863.7</ele>
        <time>2014-09-21T08:53:37Z</time>
      </trkpt>
      <trkpt lat="42.73229" lon="1.62021">
        <ele>1866.1</ele>
        <time>2014-09-21T08:53:52Z</time>
      </trkpt>
      <trkpt lat="42.7323" lon="1.62017">
        <ele>1866.1</ele>
        <time>2014-09-21T08:53:54Z</time>
      </trkpt>
      <trkpt lat="42.7323" lon="1.62015">
        <ele>1866.5</ele>
        <time>2014-09-21T08:53:55Z</time>
      </trkpt>
      <trkpt lat="42.73234" lon="1.61976">
        <ele>1868</ele>
        <time>2014-09-21T08:54:11Z</time>
      </trkpt>
      <trkpt lat="42.73238" lon="1.61932">
        <ele>1868.5</ele>
        <time>2014-09-21T08:54:25Z</time>
      </trkpt>
      <trkpt lat="42.73254" lon="1.61887">
        <ele>1868</ele>
        <time>2014-09-21T08:54:38Z</time>
      </trkpt>
      <trkpt lat="42.73256" lon="1.61883">
        <ele>1868</ele>
        <time>2014-09-21T08:54:39Z</time>
      </trkpt>
      <trkpt lat="42.73286" lon="1.61809">
        <ele>1864.6</ele>
        <time>2014-09-21T08:54:53Z</time>
      </trkpt>
      <trkpt lat="42.73288" lon="1.6179">
        <ele>1863.2</ele>
        <time>2014-09-21T08:54:57Z</time>
      </trkpt>
      <trkpt lat="42.73288" lon="1.61784">
        <ele>1863.2</ele>
        <time>2014-09-21T08:54:58Z</time>
      </trkpt>
      <trkpt lat="42.73287" lon="1.61758">
        <ele>1862.2</ele>
        <time>2014-09-21T08:55:02Z</time>
      </trkpt>
      <trkpt lat="42.73288" lon="1.61751">
        <ele>1861.3</ele>
        <time>2014-09-21T08:55:03Z</time>
      </trkpt>
      <trkpt lat="42.73289" lon="1.61732">
        <ele>1860.3</ele>
        <time>2014-09-21T08:55:06Z</time>
      </trkpt>
      <trkpt lat="42.73289" lon="1.61716">
        <ele>1859.8</ele>
        <time>2014-09-21T08:55:09Z</time>
      </trkpt>
      <trkpt lat="42.73288" lon="1.61705">
        <ele>1859.3</ele>
        <time>2014-09-21T08:55:11Z</time>
      </trkpt>
      <trkpt lat="42.73287" lon="1.61699">
        <ele>1858.9</ele>
        <time>2014-09-21T08:55:12Z</time>
      </trkpt>
      <trkpt lat="42.7328" lon="1.61682">
        <ele>1858.4</ele>
        <time>2014-09-21T08:55:15Z</time>
      </trkpt>
      <trkpt lat="42.73277" lon="1.61677">
        <ele>1858.4</ele>
        <time>2014-09-21T08:55:16Z</time>
      </trkpt>
      <trkpt lat="42.7327" lon="1.61667">
        <ele>1857.9</ele>
        <time>2014-09-21T08:55:18Z</time>
      </trkpt>
      <trkpt lat="42.73268" lon="1.61662">
        <ele>1857.4</ele>
        <time>2014-09-21T08:55:19Z</time>
      </trkpt>
      <trkpt lat="42.73265" lon="1.61655">
        <ele>1857.4</ele>
        <time>2014-09-21T08:55:20Z</time>
      </trkpt>
      <trkpt lat="42.73254" lon="1.61618">
        <ele>1855.5</ele>
        <time>2014-09-21T08:55:26Z</time>
      </trkpt>
      <trkpt lat="42.73254" lon="1.61612">
        <ele>1855.5</ele>
        <time>2014-09-21T08:55:27Z</time>
      </trkpt>
      <trkpt lat="42.73254" lon="1.61606">
        <ele>1855.5</ele>
        <time>2014-09-21T08:55:28Z</time>
      </trkpt>
      <trkpt lat="42.73254" lon="1.61594">
        <ele>1854.5</ele>
        <time>2014-09-21T08:55:30Z</time>
      </trkpt>
      <trkpt lat="42.73253" lon="1.61587">
        <ele>1854</ele>
        <time>2014-09-21T08:55:31Z</time>
      </trkpt>
      <trkpt lat="42.73251" lon="1.61581">
        <ele>1854</ele>
        <time>2014-09-21T08:55:32Z</time>
      </trkpt>
      <trkpt lat="42.73249" lon="1.61576">
        <ele>1854</ele>
        <time>2014-09-21T08:55:33Z</time>
      </trkpt>
      <trkpt lat="42.73246" lon="1.6157">
        <ele>1854</ele>
        <time>2014-09-21T08:55:34Z</time>
      </trkpt>
      <trkpt lat="42.73243" lon="1.61565">
        <ele>1854</ele>
        <time>2014-09-21T08:55:35Z</time>
      </trkpt>
      <trkpt lat="42.73241" lon="1.6156">
        <ele>1854</ele>
        <time>2014-09-21T08:55:36Z</time>
      </trkpt>
      <trkpt lat="42.73237" lon="1.61549">
        <ele>1853.6</ele>
        <time>2014-09-21T08:55:38Z</time>
      </trkpt>
      <trkpt lat="42.73235" lon="1.61536">
        <ele>1852.6</ele>
        <time>2014-09-21T08:55:40Z</time>
      </trkpt>
      <trkpt lat="42.73234" lon="1.61524">
        <ele>1852.1</ele>
        <time>2014-09-21T08:55:42Z</time>
      </trkpt>
      <trkpt lat="42.73232" lon="1.61517">
        <ele>1851.6</ele>
        <time>2014-09-21T08:55:43Z</time>
      </trkpt>
      <trkpt lat="42.73229" lon="1.61511">
        <ele>1851.2</ele>
        <time>2014-09-21T08:55:44Z</time>
      </trkpt>
      <trkpt lat="42.73223" lon="1.61498">
        <ele>1850.7</ele>
        <time>2014-09-21T08:55:46Z</time>
      </trkpt>
      <trkpt lat="42.73212" lon="1.61479">
        <ele>1849.2</ele>
        <time>2014-09-21T08:55:49Z</time>
      </trkpt>
      <trkpt lat="42.7321" lon="1.61472">
        <ele>1849.2</ele>
        <time>2014-09-21T08:55:50Z</time>
      </trkpt>
      <trkpt lat="42.73209" lon="1.61466">
        <ele>1848.8</ele>
        <time>2014-09-21T08:55:51Z</time>
      </trkpt>
      <trkpt lat="42.73208" lon="1.61461">
        <ele>1848.8</ele>
        <time>2014-09-21T08:55:52Z</time>
      </trkpt>
      <trkpt lat="42.73206" lon="1.61455">
        <ele>1848.8</ele>
        <time>2014-09-21T08:55:53Z</time>
      </trkpt>
      <trkpt lat="42.73204" lon="1.61451">
        <ele>1847.8</ele>
        <time>2014-09-21T08:55:54Z</time>
      </trkpt>
      <trkpt lat="42.73201" lon="1.61447">
        <ele>1847.8</ele>
        <time>2014-09-21T08:55:55Z</time>
      </trkpt>
      <trkpt lat="42.73197" lon="1.61446">
        <ele>1847.8</ele>
        <time>2014-09-21T08:55:56Z</time>
      </trkpt>
      <trkpt lat="42.73193" lon="1.61446">
        <ele>1847.8</ele>
        <time>2014-09-21T08:55:57Z</time>
      </trkpt>
      <trkpt lat="42.73189" lon="1.61446">
        <ele>1847.8</ele>
        <time>2014-09-21T08:55:58Z</time>
      </trkpt>
      <trkpt lat="42.73186" lon="1.61444">
        <ele>1847.8</ele>
        <time>2014-09-21T08:55:59Z</time>
      </trkpt>
      <trkpt lat="42.73182" lon="1.6144">
        <ele>1847.3</ele>
        <time>2014-09-21T08:56:00Z</time>
      </trkpt>
      <trkpt lat="42.7318" lon="1.61434">
        <ele>1847.3</ele>
        <time>2014-09-21T08:56:01Z</time>
      </trkpt>
      <trkpt lat="42.73179" lon="1.61429">
        <ele>1847.3</ele>
        <time>2014-09-21T08:56:02Z</time>
      </trkpt>
      <trkpt lat="42.73179" lon="1.61424">
        <ele>1846.8</ele>
        <time>2014-09-21T08:56:03Z</time>
      </trkpt>
      <trkpt lat="42.7318" lon="1.6142">
        <ele>1846.4</ele>
        <time>2014-09-21T08:56:04Z</time>
      </trkpt>
      <trkpt lat="42.7318" lon="1.61416">
        <ele>1845.9</ele>
        <time>2014-09-21T08:56:05Z</time>
      </trkpt>
      <trkpt lat="42.73179" lon="1.61411">
        <ele>1845.4</ele>
        <time>2014-09-21T08:56:06Z</time>
      </trkpt>
      <trkpt lat="42.73177" lon="1.61406">
        <ele>1844.9</ele>
        <time>2014-09-21T08:56:07Z</time>
      </trkpt>
      <trkpt lat="42.73174" lon="1.61402">
        <ele>1844.4</ele>
        <time>2014-09-21T08:56:08Z</time>
      </trkpt>
      <trkpt lat="42.7317" lon="1.61397">
        <ele>1844.4</ele>
        <time>2014-09-21T08:56:09Z</time>
      </trkpt>
      <trkpt lat="42.73167" lon="1.61393">
        <ele>1844.4</ele>
        <time>2014-09-21T08:56:10Z</time>
      </trkpt>
      <trkpt lat="42.73163" lon="1.6139">
        <ele>1844</ele>
        <time>2014-09-21T08:56:11Z</time>
      </trkpt>
      <trkpt lat="42.73159" lon="1.61386">
        <ele>1844</ele>
        <time>2014-09-21T08:56:12Z</time>
      </trkpt>
      <trkpt lat="42.73155" lon="1.61384">
        <ele>1844</ele>
        <time>2014-09-21T08:56:13Z</time>
      </trkpt>
      <trkpt lat="42.73151" lon="1.61382">
        <ele>1843.5</ele>
        <time>2014-09-21T08:56:14Z</time>
      </trkpt>
      <trkpt lat="42.73147" lon="1.61379">
        <ele>1843.5</ele>
        <time>2014-09-21T08:56:15Z</time>
      </trkpt>
      <trkpt lat="42.73143" lon="1.61376">
        <ele>1843.5</ele>
        <time>2014-09-21T08:56:16Z</time>
      </trkpt>
      <trkpt lat="42.73094" lon="1.61342">
        <ele>1842</ele>
        <time>2014-09-21T08:56:27Z</time>
      </trkpt>
      <trkpt lat="42.73091" lon="1.6134">
        <ele>1842</ele>
        <time>2014-09-21T08:56:28Z</time>
      </trkpt>
      <trkpt lat="42.73053" lon="1.6133">
        <ele>1844</ele>
        <time>2014-09-21T08:56:42Z</time>
      </trkpt>
      <trkpt lat="42.73024" lon="1.61323">
        <ele>1846.8</ele>
        <time>2014-09-21T08:56:56Z</time>
      </trkpt>
      <trkpt lat="42.72997" lon="1.61302">
        <ele>1848.8</ele>
        <time>2014-09-21T08:57:12Z</time>
      </trkpt>
      <trkpt lat="42.72979" lon="1.61284">
        <ele>1851.2</ele>
        <time>2014-09-21T08:57:25Z</time>
      </trkpt>
      <trkpt lat="42.72953" lon="1.61275">
        <ele>1853.6</ele>
        <time>2014-09-21T08:57:39Z</time>
      </trkpt>
      <trkpt lat="42.72939" lon="1.61272">
        <ele>1854.5</ele>
        <time>2014-09-21T08:57:47Z</time>
      </trkpt>
      <trkpt lat="42.72937" lon="1.61272">
        <ele>1854.5</ele>
        <time>2014-09-21T08:57:48Z</time>
      </trkpt>
      <trkpt lat="42.72936" lon="1.61273">
        <ele>1854.5</ele>
        <time>2014-09-21T08:57:49Z</time>
      </trkpt>
      <trkpt lat="42.72934" lon="1.61273">
        <ele>1855</ele>
        <time>2014-09-21T08:57:51Z</time>
      </trkpt>
      <trkpt lat="42.72932" lon="1.61273">
        <ele>1855</ele>
        <time>2014-09-21T08:57:52Z</time>
      </trkpt>
      <trkpt lat="42.72927" lon="1.61276">
        <ele>1855.5</ele>
        <time>2014-09-21T08:57:56Z</time>
      </trkpt>
      <trkpt lat="42.72922" lon="1.61278">
        <ele>1856</ele>
        <time>2014-09-21T08:58:00Z</time>
      </trkpt>
      <trkpt lat="42.7292" lon="1.61278">
        <ele>1856</ele>
        <time>2014-09-21T08:58:01Z</time>
      </trkpt>
      <trkpt lat="42.72898" lon="1.61285">
        <ele>1857.9</ele>
        <time>2014-09-21T08:58:17Z</time>
      </trkpt>
      <trkpt lat="42.72888" lon="1.61283">
        <ele>1859.3</ele>
        <time>2014-09-21T08:58:30Z</time>
      </trkpt>
      <trkpt lat="42.72888" lon="1.61283">
        <ele>1859.8</ele>
        <time>2014-09-21T08:58:45Z</time>
      </trkpt>
      <trkpt lat="42.72888" lon="1.61282">
        <ele>1859.8</ele>
        <time>2014-09-21T08:59:05Z</time>
      </trkpt>
      <trkpt lat="42.72888" lon="1.61282">
        <ele>1859.8</ele>
        <time>2014-09-21T08:59:47Z</time>
      </trkpt>
      <trkpt lat="42.72888" lon="1.61282">
        <ele>1860.3</ele>
        <time>2014-09-21T09:00:17Z</time>
      </trkpt>
      <trkpt lat="42.7289" lon="1.61285">
        <ele>1860.3</ele>
        <time>2014-09-21T09:00:46Z</time>
      </trkpt>
      <trkpt lat="42.72891" lon="1.61287">
        <ele>1860.3</ele>
        <time>2014-09-21T09:00:47Z</time>
      </trkpt>
      <trkpt lat="42.7289" lon="1.6129">
        <ele>1860.3</ele>
        <time>2014-09-21T09:00:48Z</time>
      </trkpt>
      <trkpt lat="42.72889" lon="1.61293">
        <ele>1860.3</ele>
        <time>2014-09-21T09:00:49Z</time>
      </trkpt>
      <trkpt lat="42.72888" lon="1.61295">
        <ele>1860.3</ele>
        <time>2014-09-21T09:00:50Z</time>
      </trkpt>
      <trkpt lat="42.72887" lon="1.61297">
        <ele>1860.3</ele>
        <time>2014-09-21T09:00:51Z</time>
      </trkpt>
      <trkpt lat="42.72886" lon="1.61299">
        <ele>1860.3</ele>
        <time>2014-09-21T09:00:52Z</time>
      </trkpt>
      <trkpt lat="42.72871" lon="1.61317">
        <ele>1862.7</ele>
        <time>2014-09-21T09:01:06Z</time>
      </trkpt>
      <trkpt lat="42.72854" lon="1.61329">
        <ele>1865.1</ele>
        <time>2014-09-21T09:01:22Z</time>
      </trkpt>
      <trkpt lat="42.72853" lon="1.61331">
        <ele>1865.6</ele>
        <time>2014-09-21T09:01:24Z</time>
      </trkpt>
      <trkpt lat="42.72836" lon="1.61341">
        <ele>1866.5</ele>
        <time>2014-09-21T09:01:39Z</time>
      </trkpt>
      <trkpt lat="42.72824" lon="1.61349">
        <ele>1866.5</ele>
        <time>2014-09-21T09:01:53Z</time>
      </trkpt>
      <trkpt lat="42.72825" lon="1.61348">
        <ele>1866.5</ele>
        <time>2014-09-21T09:02:03Z</time>
      </trkpt>
      <trkpt lat="42.72829" lon="1.61345">
        <ele>1866.5</ele>
        <time>2014-09-21T09:02:10Z</time>
      </trkpt>
      <trkpt lat="42.72831" lon="1.61344">
        <ele>1866.5</ele>
        <time>2014-09-21T09:02:11Z</time>
      </trkpt>
      <trkpt lat="42.72832" lon="1.61344">
        <ele>1866.5</ele>
        <time>2014-09-21T09:02:12Z</time>
      </trkpt>
      <trkpt lat="42.72833" lon="1.61343">
        <ele>1867</ele>
        <time>2014-09-21T09:02:13Z</time>
      </trkpt>
      <trkpt lat="42.72835" lon="1.61343">
        <ele>1867</ele>
        <time>2014-09-21T09:02:14Z</time>
      </trkpt>
      <trkpt lat="42.72862" lon="1.61322">
        <ele>1865.6</ele>
        <time>2014-09-21T09:02:28Z</time>
      </trkpt>
      <trkpt lat="42.72878" lon="1.61308">
        <ele>1862.2</ele>
        <time>2014-09-21T09:02:35Z</time>
      </trkpt>
      <trkpt lat="42.7288" lon="1.61305">
        <ele>1862.2</ele>
        <time>2014-09-21T09:02:36Z</time>
      </trkpt>
      <trkpt lat="42.72885" lon="1.61296">
        <ele>1860.8</ele>
        <time>2014-09-21T09:02:39Z</time>
      </trkpt>
      <trkpt lat="42.72886" lon="1.61293">
        <ele>1860.8</ele>
        <time>2014-09-21T09:02:40Z</time>
      </trkpt>
      <trkpt lat="42.72885" lon="1.61293">
        <ele>1860.8</ele>
        <time>2014-09-21T09:02:51Z</time>
      </trkpt>
      <trkpt lat="42.72886" lon="1.61296">
        <ele>1861.3</ele>
        <time>2014-09-21T09:03:33Z</time>
      </trkpt>
      <trkpt lat="42.72886" lon="1.61299">
        <ele>1861.3</ele>
        <time>2014-09-21T09:04:14Z</time>
      </trkpt>
      <trkpt lat="42.72889" lon="1.61294">
        <ele>1860.8</ele>
        <time>2014-09-21T09:04:52Z</time>
      </trkpt>
      <trkpt lat="42.72889" lon="1.61292">
        <ele>1860.8</ele>
        <time>2014-09-21T09:04:53Z</time>
      </trkpt>
      <trkpt lat="42.72889" lon="1.61291">
        <ele>1860.8</ele>
        <time>2014-09-21T09:04:54Z</time>
      </trkpt>
      <trkpt lat="42.72889" lon="1.61287">
        <ele>1862.2</ele>
        <time>2014-09-21T09:05:02Z</time>
      </trkpt>
      <trkpt lat="42.72886" lon="1.61276">
        <ele>1863.7</ele>
        <time>2014-09-21T09:05:14Z</time>
      </trkpt>
      <trkpt lat="42.72881" lon="1.61273">
        <ele>1864.6</ele>
        <time>2014-09-21T09:05:21Z</time>
      </trkpt>
      <trkpt lat="42.72872" lon="1.61278">
        <ele>1866.1</ele>
        <time>2014-09-21T09:05:35Z</time>
      </trkpt>
      <trkpt lat="42.72864" lon="1.61284">
        <ele>1868.5</ele>
        <time>2014-09-21T09:05:50Z</time>
      </trkpt>
      <trkpt lat="42.72859" lon="1.61289">
        <ele>1870.4</ele>
        <time>2014-09-21T09:06:04Z</time>
      </trkpt>
      <trkpt lat="42.72855" lon="1.61293">
        <ele>1871.8</ele>
        <time>2014-09-21T09:06:16Z</time>
      </trkpt>
      <trkpt lat="42.7285" lon="1.61299">
        <ele>1874.7</ele>
        <time>2014-09-21T09:06:31Z</time>
      </trkpt>
      <trkpt lat="42.72844" lon="1.61301">
        <ele>1875.7</ele>
        <time>2014-09-21T09:06:43Z</time>
      </trkpt>
      <trkpt lat="42.72843" lon="1.61301">
        <ele>1875.7</ele>
        <time>2014-09-21T09:06:44Z</time>
      </trkpt>
      <trkpt lat="42.72839" lon="1.61308">
        <ele>1877.6</ele>
        <time>2014-09-21T09:06:57Z</time>
      </trkpt>
      <trkpt lat="42.72837" lon="1.61314">
        <ele>1879.5</ele>
        <time>2014-09-21T09:07:10Z</time>
      </trkpt>
      <trkpt lat="42.72832" lon="1.61317">
        <ele>1880</ele>
        <time>2014-09-21T09:07:23Z</time>
      </trkpt>
      <trkpt lat="42.72822" lon="1.61316">
        <ele>1881.9</ele>
        <time>2014-09-21T09:07:38Z</time>
      </trkpt>
      <trkpt lat="42.72814" lon="1.61318">
        <ele>1883.8</ele>
        <time>2014-09-21T09:07:50Z</time>
      </trkpt>
      <trkpt lat="42.72802" lon="1.61322">
        <ele>1885.3</ele>
        <time>2014-09-21T09:08:05Z</time>
      </trkpt>
      <trkpt lat="42.72792" lon="1.61327">
        <ele>1886.2</ele>
        <time>2014-09-21T09:08:19Z</time>
      </trkpt>
      <trkpt lat="42.72784" lon="1.6133">
        <ele>1889.1</ele>
        <time>2014-09-21T09:08:34Z</time>
      </trkpt>
      <trkpt lat="42.72776" lon="1.61329">
        <ele>1891.1</ele>
        <time>2014-09-21T09:08:48Z</time>
      </trkpt>
      <trkpt lat="42.72765" lon="1.61329">
        <ele>1893.9</ele>
        <time>2014-09-21T09:09:04Z</time>
      </trkpt>
      <trkpt lat="42.72754" lon="1.61328">
        <ele>1896.3</ele>
        <time>2014-09-21T09:09:20Z</time>
      </trkpt>
      <trkpt lat="42.72746" lon="1.61327">
        <ele>1897.8</ele>
        <time>2014-09-21T09:09:33Z</time>
      </trkpt>
      <trkpt lat="42.72735" lon="1.61325">
        <ele>1900.2</ele>
        <time>2014-09-21T09:09:51Z</time>
      </trkpt>
      <trkpt lat="42.72728" lon="1.61323">
        <ele>1902.6</ele>
        <time>2014-09-21T09:10:05Z</time>
      </trkpt>
      <trkpt lat="42.7272" lon="1.61317">
        <ele>1904.5</ele>
        <time>2014-09-21T09:10:21Z</time>
      </trkpt>
      <trkpt lat="42.72712" lon="1.61319">
        <ele>1906.4</ele>
        <time>2014-09-21T09:10:36Z</time>
      </trkpt>
      <trkpt lat="42.72704" lon="1.61324">
        <ele>1909.3</ele>
        <time>2014-09-21T09:10:51Z</time>
      </trkpt>
      <trkpt lat="42.72696" lon="1.61327">
        <ele>1909.8</ele>
        <time>2014-09-21T09:11:03Z</time>
      </trkpt>
      <trkpt lat="42.72694" lon="1.61327">
        <ele>1911.2</ele>
        <time>2014-09-21T09:11:07Z</time>
      </trkpt>
      <trkpt lat="42.72687" lon="1.61329">
        <ele>1912.7</ele>
        <time>2014-09-21T09:11:21Z</time>
      </trkpt>
      <trkpt lat="42.72679" lon="1.61327">
        <ele>1915.1</ele>
        <time>2014-09-21T09:11:34Z</time>
      </trkpt>
      <trkpt lat="42.72672" lon="1.61323">
        <ele>1916.5</ele>
        <time>2014-09-21T09:11:48Z</time>
      </trkpt>
      <trkpt lat="42.72665" lon="1.61321">
        <ele>1918.5</ele>
        <time>2014-09-21T09:12:01Z</time>
      </trkpt>
      <trkpt lat="42.7266" lon="1.61319">
        <ele>1920.9</ele>
        <time>2014-09-21T09:12:16Z</time>
      </trkpt>
      <trkpt lat="42.72655" lon="1.61315">
        <ele>1923.3</ele>
        <time>2014-09-21T09:12:31Z</time>
      </trkpt>
      <trkpt lat="42.72648" lon="1.61314">
        <ele>1925.2</ele>
        <time>2014-09-21T09:12:45Z</time>
      </trkpt>
      <trkpt lat="42.72643" lon="1.61314">
        <ele>1927.1</ele>
        <time>2014-09-21T09:12:59Z</time>
      </trkpt>
      <trkpt lat="42.7264" lon="1.61313">
        <ele>1929.5</ele>
        <time>2014-09-21T09:13:10Z</time>
      </trkpt>
      <trkpt lat="42.72635" lon="1.61317">
        <ele>1931.4</ele>
        <time>2014-09-21T09:13:25Z</time>
      </trkpt>
      <trkpt lat="42.72631" lon="1.61319">
        <ele>1932.4</ele>
        <time>2014-09-21T09:13:38Z</time>
      </trkpt>
      <trkpt lat="42.72626" lon="1.61316">
        <ele>1934.8</ele>
        <time>2014-09-21T09:13:52Z</time>
      </trkpt>
      <trkpt lat="42.72623" lon="1.61316">
        <ele>1935.8</ele>
        <time>2014-09-21T09:14:02Z</time>
      </trkpt>
      <trkpt lat="42.72617" lon="1.61313">
        <ele>1937.7</ele>
        <time>2014-09-21T09:14:16Z</time>
      </trkpt>
      <trkpt lat="42.72612" lon="1.61311">
        <ele>1939.1</ele>
        <time>2014-09-21T09:14:29Z</time>
      </trkpt>
      <trkpt lat="42.72608" lon="1.61313">
        <ele>1942</ele>
        <time>2014-09-21T09:14:42Z</time>
      </trkpt>
      <trkpt lat="42.72604" lon="1.6131">
        <ele>1943.4</ele>
        <time>2014-09-21T09:14:56Z</time>
      </trkpt>
      <trkpt lat="42.72597" lon="1.61305">
        <ele>1946.3</ele>
        <time>2014-09-21T09:15:11Z</time>
      </trkpt>
      <trkpt lat="42.72591" lon="1.61305">
        <ele>1947.8</ele>
        <time>2014-09-21T09:15:24Z</time>
      </trkpt>
      <trkpt lat="42.72586" lon="1.61303">
        <ele>1949.7</ele>
        <time>2014-09-21T09:15:37Z</time>
      </trkpt>
      <trkpt lat="42.72581" lon="1.61299">
        <ele>1951.1</ele>
        <time>2014-09-21T09:15:50Z</time>
      </trkpt>
      <trkpt lat="42.72575" lon="1.61295">
        <ele>1954</ele>
        <time>2014-09-21T09:16:05Z</time>
      </trkpt>
      <trkpt lat="42.72569" lon="1.61291">
        <ele>1955</ele>
        <time>2014-09-21T09:16:17Z</time>
      </trkpt>
      <trkpt lat="42.72562" lon="1.61287">
        <ele>1957.4</ele>
        <time>2014-09-21T09:16:31Z</time>
      </trkpt>
      <trkpt lat="42.72555" lon="1.61284">
        <ele>1959.8</ele>
        <time>2014-09-21T09:16:46Z</time>
      </trkpt>
      <trkpt lat="42.72549" lon="1.61279">
        <ele>1960.8</ele>
        <time>2014-09-21T09:16:59Z</time>
      </trkpt>
      <trkpt lat="42.72544" lon="1.61277">
        <ele>1962.7</ele>
        <time>2014-09-21T09:17:12Z</time>
      </trkpt>
      <trkpt lat="42.72538" lon="1.61275">
        <ele>1965.1</ele>
        <time>2014-09-21T09:17:27Z</time>
      </trkpt>
      <trkpt lat="42.72533" lon="1.61273">
        <ele>1966</ele>
        <time>2014-09-21T09:17:38Z</time>
      </trkpt>
      <trkpt lat="42.72527" lon="1.61269">
        <ele>1968.4</ele>
        <time>2014-09-21T09:17:53Z</time>
      </trkpt>
      <trkpt lat="42.72521" lon="1.61264">
        <ele>1970.4</ele>
        <time>2014-09-21T09:18:06Z</time>
      </trkpt>
      <trkpt lat="42.72514" lon="1.61262">
        <ele>1972.8</ele>
        <time>2014-09-21T09:18:20Z</time>
      </trkpt>
      <trkpt lat="42.72506" lon="1.61258">
        <ele>1974.7</ele>
        <time>2014-09-21T09:18:36Z</time>
      </trkpt>
      <trkpt lat="42.72498" lon="1.61259">
        <ele>1976.6</ele>
        <time>2014-09-21T09:18:50Z</time>
      </trkpt>
      <trkpt lat="42.72491" lon="1.61259">
        <ele>1979</ele>
        <time>2014-09-21T09:19:05Z</time>
      </trkpt>
      <trkpt lat="42.72485" lon="1.61257">
        <ele>1981.4</ele>
        <time>2014-09-21T09:19:19Z</time>
      </trkpt>
      <trkpt lat="42.72478" lon="1.61256">
        <ele>1983.3</ele>
        <time>2014-09-21T09:19:34Z</time>
      </trkpt>
      <trkpt lat="42.72475" lon="1.61253">
        <ele>1985.3</ele>
        <time>2014-09-21T09:19:49Z</time>
      </trkpt>
      <trkpt lat="42.72472" lon="1.61243">
        <ele>1988.1</ele>
        <time>2014-09-21T09:20:06Z</time>
      </trkpt>
      <trkpt lat="42.72469" lon="1.61239">
        <ele>1990.1</ele>
        <time>2014-09-21T09:20:19Z</time>
      </trkpt>
      <trkpt lat="42.72465" lon="1.61235">
        <ele>1992</ele>
        <time>2014-09-21T09:20:33Z</time>
      </trkpt>
      <trkpt lat="42.72462" lon="1.61231">
        <ele>1993.9</ele>
        <time>2014-09-21T09:20:45Z</time>
      </trkpt>
      <trkpt lat="42.72458" lon="1.6123">
        <ele>1995.8</ele>
        <time>2014-09-21T09:20:59Z</time>
      </trkpt>
      <trkpt lat="42.72453" lon="1.6123">
        <ele>1997.8</ele>
        <time>2014-09-21T09:21:12Z</time>
      </trkpt>
      <trkpt lat="42.72447" lon="1.61233">
        <ele>2000.2</ele>
        <time>2014-09-21T09:21:27Z</time>
      </trkpt>
      <trkpt lat="42.72445" lon="1.61232">
        <ele>2001.6</ele>
        <time>2014-09-21T09:21:39Z</time>
      </trkpt>
      <trkpt lat="42.72443" lon="1.61226">
        <ele>2003.5</ele>
        <time>2014-09-21T09:21:51Z</time>
      </trkpt>
      <trkpt lat="42.72444" lon="1.61219">
        <ele>2005.5</ele>
        <time>2014-09-21T09:22:06Z</time>
      </trkpt>
      <trkpt lat="42.72443" lon="1.61215">
        <ele>2006.9</ele>
        <time>2014-09-21T09:22:18Z</time>
      </trkpt>
      <trkpt lat="42.72444" lon="1.61207">
        <ele>2008.3</ele>
        <time>2014-09-21T09:22:30Z</time>
      </trkpt>
      <trkpt lat="42.7244" lon="1.61204">
        <ele>2010.7</ele>
        <time>2014-09-21T09:22:44Z</time>
      </trkpt>
      <trkpt lat="42.72436" lon="1.61205">
        <ele>2013.1</ele>
        <time>2014-09-21T09:22:57Z</time>
      </trkpt>
      <trkpt lat="42.72432" lon="1.61205">
        <ele>2014.6</ele>
        <time>2014-09-21T09:23:09Z</time>
      </trkpt>
      <trkpt lat="42.72427" lon="1.61204">
        <ele>2016.5</ele>
        <time>2014-09-21T09:23:22Z</time>
      </trkpt>
      <trkpt lat="42.72424" lon="1.61202">
        <ele>2018.4</ele>
        <time>2014-09-21T09:23:33Z</time>
      </trkpt>
      <trkpt lat="42.72419" lon="1.61201">
        <ele>2019.9</ele>
        <time>2014-09-21T09:23:47Z</time>
      </trkpt>
      <trkpt lat="42.72414" lon="1.61198">
        <ele>2021.8</ele>
        <time>2014-09-21T09:24:00Z</time>
      </trkpt>
      <trkpt lat="42.72408" lon="1.61197">
        <ele>2024.2</ele>
        <time>2014-09-21T09:24:15Z</time>
      </trkpt>
      <trkpt lat="42.72402" lon="1.61195">
        <ele>2026.1</ele>
        <time>2014-09-21T09:24:30Z</time>
      </trkpt>
      <trkpt lat="42.72403" lon="1.61196">
        <ele>2027.1</ele>
        <time>2014-09-21T09:24:41Z</time>
      </trkpt>
      <trkpt lat="42.72399" lon="1.61192">
        <ele>2027.6</ele>
        <time>2014-09-21T09:25:06Z</time>
      </trkpt>
      <trkpt lat="42.72393" lon="1.61185">
        <ele>2030</ele>
        <time>2014-09-21T09:25:21Z</time>
      </trkpt>
      <trkpt lat="42.7239" lon="1.61177">
        <ele>2031.4</ele>
        <time>2014-09-21T09:25:35Z</time>
      </trkpt>
      <trkpt lat="42.72387" lon="1.6117">
        <ele>2033.8</ele>
        <time>2014-09-21T09:25:47Z</time>
      </trkpt>
      <trkpt lat="42.72381" lon="1.61167">
        <ele>2036.2</ele>
        <time>2014-09-21T09:26:03Z</time>
      </trkpt>
      <trkpt lat="42.72377" lon="1.61162">
        <ele>2037.2</ele>
        <time>2014-09-21T09:26:15Z</time>
      </trkpt>
      <trkpt lat="42.72374" lon="1.61155">
        <ele>2039.6</ele>
        <time>2014-09-21T09:26:29Z</time>
      </trkpt>
      <trkpt lat="42.72369" lon="1.61148">
        <ele>2041.5</ele>
        <time>2014-09-21T09:26:42Z</time>
      </trkpt>
      <trkpt lat="42.72363" lon="1.61143">
        <ele>2043.4</ele>
        <time>2014-09-21T09:26:55Z</time>
      </trkpt>
      <trkpt lat="42.72359" lon="1.61136">
        <ele>2045.8</ele>
        <time>2014-09-21T09:27:10Z</time>
      </trkpt>
      <trkpt lat="42.72354" lon="1.61128">
        <ele>2047.3</ele>
        <time>2014-09-21T09:27:24Z</time>
      </trkpt>
      <trkpt lat="42.72349" lon="1.6112">
        <ele>2049.2</ele>
        <time>2014-09-21T09:27:38Z</time>
      </trkpt>
      <trkpt lat="42.72343" lon="1.61112">
        <ele>2050.6</ele>
        <time>2014-09-21T09:27:52Z</time>
      </trkpt>
      <trkpt lat="42.72337" lon="1.61102">
        <ele>2052.6</ele>
        <time>2014-09-21T09:28:07Z</time>
      </trkpt>
      <trkpt lat="42.72332" lon="1.61091">
        <ele>2054.5</ele>
        <time>2014-09-21T09:28:22Z</time>
      </trkpt>
      <trkpt lat="42.72326" lon="1.61082">
        <ele>2055.9</ele>
        <time>2014-09-21T09:28:36Z</time>
      </trkpt>
      <trkpt lat="42.72325" lon="1.61081">
        <ele>2055.9</ele>
        <time>2014-09-21T09:28:53Z</time>
      </trkpt>
      <trkpt lat="42.72322" lon="1.61075">
        <ele>2056.4</ele>
        <time>2014-09-21T09:29:07Z</time>
      </trkpt>
      <trkpt lat="42.72321" lon="1.61074">
        <ele>2056.4</ele>
        <time>2014-09-21T09:29:08Z</time>
      </trkpt>
      <trkpt lat="42.72321" lon="1.61072">
        <ele>2056.9</ele>
        <time>2014-09-21T09:29:09Z</time>
      </trkpt>
      <trkpt lat="42.7232" lon="1.61071">
        <ele>2056.9</ele>
        <time>2014-09-21T09:29:10Z</time>
      </trkpt>
      <trkpt lat="42.7232" lon="1.61069">
        <ele>2056.9</ele>
        <time>2014-09-21T09:29:11Z</time>
      </trkpt>
      <trkpt lat="42.72319" lon="1.61068">
        <ele>2056.9</ele>
        <time>2014-09-21T09:29:12Z</time>
      </trkpt>
      <trkpt lat="42.72319" lon="1.61067">
        <ele>2057.4</ele>
        <time>2014-09-21T09:29:13Z</time>
      </trkpt>
      <trkpt lat="42.72318" lon="1.61065">
        <ele>2057.4</ele>
        <time>2014-09-21T09:29:14Z</time>
      </trkpt>
      <trkpt lat="42.72318" lon="1.61064">
        <ele>2057.4</ele>
        <time>2014-09-21T09:29:15Z</time>
      </trkpt>
      <trkpt lat="42.72318" lon="1.61062">
        <ele>2057.4</ele>
        <time>2014-09-21T09:29:16Z</time>
      </trkpt>
      <trkpt lat="42.72318" lon="1.61061">
        <ele>2057.4</ele>
        <time>2014-09-21T09:29:17Z</time>
      </trkpt>
      <trkpt lat="42.72317" lon="1.61059">
        <ele>2057.8</ele>
        <time>2014-09-21T09:29:18Z</time>
      </trkpt>
      <trkpt lat="42.72305" lon="1.61037">
        <ele>2059.8</ele>
        <time>2014-09-21T09:29:35Z</time>
      </trkpt>
      <trkpt lat="42.7229" lon="1.61014">
        <ele>2060.7</ele>
        <time>2014-09-21T09:29:51Z</time>
      </trkpt>
      <trkpt lat="42.72271" lon="1.6098">
        <ele>2061.2</ele>
        <time>2014-09-21T09:30:09Z</time>
      </trkpt>
      <trkpt lat="42.72248" lon="1.60943">
        <ele>2059.8</ele>
        <time>2014-09-21T09:30:25Z</time>
      </trkpt>
      <trkpt lat="42.72231" lon="1.609">
        <ele>2059.3</ele>
        <time>2014-09-21T09:30:41Z</time>
      </trkpt>
      <trkpt lat="42.72214" lon="1.60846">
        <ele>2057.4</ele>
        <time>2014-09-21T09:30:58Z</time>
      </trkpt>
      <trkpt lat="42.72196" lon="1.60802">
        <ele>2055</ele>
        <time>2014-09-21T09:31:12Z</time>
      </trkpt>
      <trkpt lat="42.72173" lon="1.60759">
        <ele>2052.6</ele>
        <time>2014-09-21T09:31:23Z</time>
      </trkpt>
      <trkpt lat="42.72144" lon="1.60716">
        <ele>2050.2</ele>
        <time>2014-09-21T09:31:36Z</time>
      </trkpt>
      <trkpt lat="42.72128" lon="1.60689">
        <ele>2048.2</ele>
        <time>2014-09-21T09:31:47Z</time>
      </trkpt>
      <trkpt lat="42.72122" lon="1.60676">
        <ele>2047.8</ele>
        <time>2014-09-21T09:32:14Z</time>
      </trkpt>
      <trkpt lat="42.72098" lon="1.60631">
        <ele>2044.9</ele>
        <time>2014-09-21T09:32:26Z</time>
      </trkpt>
      <trkpt lat="42.7208" lon="1.60594">
        <ele>2042</ele>
        <time>2014-09-21T09:32:35Z</time>
      </trkpt>
      <trkpt lat="42.72064" lon="1.60555">
        <ele>2039.6</ele>
        <time>2014-09-21T09:32:45Z</time>
      </trkpt>
      <trkpt lat="42.72052" lon="1.60511">
        <ele>2037.2</ele>
        <time>2014-09-21T09:32:56Z</time>
      </trkpt>
      <trkpt lat="42.72046" lon="1.60487">
        <ele>2035.7</ele>
        <time>2014-09-21T09:33:01Z</time>
      </trkpt>
      <trkpt lat="42.72045" lon="1.60482">
        <ele>2035.3</ele>
        <time>2014-09-21T09:33:02Z</time>
      </trkpt>
      <trkpt lat="42.72037" lon="1.60449">
        <ele>2032.4</ele>
        <time>2014-09-21T09:33:11Z</time>
      </trkpt>
      <trkpt lat="42.72032" lon="1.60431">
        <ele>2030.9</ele>
        <time>2014-09-21T09:33:16Z</time>
      </trkpt>
      <trkpt lat="42.72031" lon="1.60429">
        <ele>2030.4</ele>
        <time>2014-09-21T09:33:17Z</time>
      </trkpt>
      <trkpt lat="42.7203" lon="1.60426">
        <ele>2030.4</ele>
        <time>2014-09-21T09:33:18Z</time>
      </trkpt>
      <trkpt lat="42.72028" lon="1.60423">
        <ele>2030.4</ele>
        <time>2014-09-21T09:33:19Z</time>
      </trkpt>
      <trkpt lat="42.72027" lon="1.6042">
        <ele>2030</ele>
        <time>2014-09-21T09:33:20Z</time>
      </trkpt>
      <trkpt lat="42.72026" lon="1.60416">
        <ele>2030</ele>
        <time>2014-09-21T09:33:21Z</time>
      </trkpt>
      <trkpt lat="42.72025" lon="1.60414">
        <ele>2029.5</ele>
        <time>2014-09-21T09:33:22Z</time>
      </trkpt>
      <trkpt lat="42.72025" lon="1.60411">
        <ele>2029.5</ele>
        <time>2014-09-21T09:33:23Z</time>
      </trkpt>
      <trkpt lat="42.7202" lon="1.6037">
        <ele>2027.6</ele>
        <time>2014-09-21T09:33:36Z</time>
      </trkpt>
      <trkpt lat="42.72016" lon="1.60356">
        <ele>2027.1</ele>
        <time>2014-09-21T09:33:40Z</time>
      </trkpt>
      <trkpt lat="42.72016" lon="1.60354">
        <ele>2027.1</ele>
        <time>2014-09-21T09:33:41Z</time>
      </trkpt>
      <trkpt lat="42.72016" lon="1.60352">
        <ele>2026.1</ele>
        <time>2014-09-21T09:33:42Z</time>
      </trkpt>
      <trkpt lat="42.72016" lon="1.60349">
        <ele>2025.6</ele>
        <time>2014-09-21T09:33:43Z</time>
      </trkpt>
      <trkpt lat="42.72015" lon="1.60347">
        <ele>2025.6</ele>
        <time>2014-09-21T09:33:44Z</time>
      </trkpt>
      <trkpt lat="42.72015" lon="1.60345">
        <ele>2025.6</ele>
        <time>2014-09-21T09:33:45Z</time>
      </trkpt>
      <trkpt lat="42.72014" lon="1.60342">
        <ele>2025.6</ele>
        <time>2014-09-21T09:33:46Z</time>
      </trkpt>
      <trkpt lat="42.72016" lon="1.60318">
        <ele>2025.2</ele>
        <time>2014-09-21T09:33:56Z</time>
      </trkpt>
      <trkpt lat="42.72021" lon="1.60266">
        <ele>2022.8</ele>
        <time>2014-09-21T09:34:09Z</time>
      </trkpt>
      <trkpt lat="42.72027" lon="1.60231">
        <ele>2022.8</ele>
        <time>2014-09-21T09:34:21Z</time>
      </trkpt>
      <trkpt lat="42.72033" lon="1.60188">
        <ele>2023.2</ele>
        <time>2014-09-21T09:34:37Z</time>
      </trkpt>
      <trkpt lat="42.72034" lon="1.60179">
        <ele>2023.2</ele>
        <time>2014-09-21T09:34:42Z</time>
      </trkpt>
      <trkpt lat="42.72034" lon="1.60177">
        <ele>2023.2</ele>
        <time>2014-09-21T09:34:43Z</time>
      </trkpt>
      <trkpt lat="42.72034" lon="1.60176">
        <ele>2023.2</ele>
        <time>2014-09-21T09:34:44Z</time>
      </trkpt>
      <trkpt lat="42.72034" lon="1.60174">
        <ele>2023.2</ele>
        <time>2014-09-21T09:34:45Z</time>
      </trkpt>
      <trkpt lat="42.72035" lon="1.60172">
        <ele>2024.2</ele>
        <time>2014-09-21T09:34:46Z</time>
      </trkpt>
      <trkpt lat="42.72035" lon="1.6017">
        <ele>2024.2</ele>
        <time>2014-09-21T09:34:47Z</time>
      </trkpt>
      <trkpt lat="42.72035" lon="1.60168">
        <ele>2024.2</ele>
        <time>2014-09-21T09:34:48Z</time>
      </trkpt>
      <trkpt lat="42.72036" lon="1.60166">
        <ele>2024.2</ele>
        <time>2014-09-21T09:34:49Z</time>
      </trkpt>
      <trkpt lat="42.72039" lon="1.6015">
        <ele>2025.2</ele>
        <time>2014-09-21T09:34:58Z</time>
      </trkpt>
      <trkpt lat="42.7204" lon="1.60148">
        <ele>2025.2</ele>
        <time>2014-09-21T09:34:59Z</time>
      </trkpt>
      <trkpt lat="42.7204" lon="1.60146">
        <ele>2025.2</ele>
        <time>2014-09-21T09:35:00Z</time>
      </trkpt>
      <trkpt lat="42.72041" lon="1.60145">
        <ele>2025.2</ele>
        <time>2014-09-21T09:35:01Z</time>
      </trkpt>
      <trkpt lat="42.72042" lon="1.60143">
        <ele>2025.6</ele>
        <time>2014-09-21T09:35:02Z</time>
      </trkpt>
      <trkpt lat="42.72042" lon="1.60141">
        <ele>2025.6</ele>
        <time>2014-09-21T09:35:03Z</time>
      </trkpt>
      <trkpt lat="42.72053" lon="1.60115">
        <ele>2027.1</ele>
        <time>2014-09-21T09:35:20Z</time>
      </trkpt>
      <trkpt lat="42.72055" lon="1.60104">
        <ele>2027.1</ele>
        <time>2014-09-21T09:35:26Z</time>
      </trkpt>
      <trkpt lat="42.72055" lon="1.60103">
        <ele>2027.1</ele>
        <time>2014-09-21T09:35:27Z</time>
      </trkpt>
      <trkpt lat="42.72056" lon="1.60095">
        <ele>2028</ele>
        <time>2014-09-21T09:35:39Z</time>
      </trkpt>
      <trkpt lat="42.72055" lon="1.60094">
        <ele>2028.5</ele>
        <time>2014-09-21T09:36:16Z</time>
      </trkpt>
      <trkpt lat="42.72058" lon="1.60086">
        <ele>2029.5</ele>
        <time>2014-09-21T09:36:38Z</time>
      </trkpt>
      <trkpt lat="42.72061" lon="1.60069">
        <ele>2031.4</ele>
        <time>2014-09-21T09:36:54Z</time>
      </trkpt>
      <trkpt lat="42.72062" lon="1.60068">
        <ele>2031.4</ele>
        <time>2014-09-21T09:36:55Z</time>
      </trkpt>
      <trkpt lat="42.72062" lon="1.60067">
        <ele>2031.4</ele>
        <time>2014-09-21T09:36:56Z</time>
      </trkpt>
      <trkpt lat="42.72063" lon="1.60066">
        <ele>2031.4</ele>
        <time>2014-09-21T09:36:57Z</time>
      </trkpt>
      <trkpt lat="42.7207" lon="1.60047">
        <ele>2031.9</ele>
        <time>2014-09-21T09:37:12Z</time>
      </trkpt>
      <trkpt lat="42.72076" lon="1.60029">
        <ele>2032.8</ele>
        <time>2014-09-21T09:37:28Z</time>
      </trkpt>
      <trkpt lat="42.72084" lon="1.60018">
        <ele>2033.3</ele>
        <time>2014-09-21T09:37:40Z</time>
      </trkpt>
      <trkpt lat="42.72097" lon="1.59992">
        <ele>2035.3</ele>
        <time>2014-09-21T09:37:57Z</time>
      </trkpt>
      <trkpt lat="42.72104" lon="1.59975">
        <ele>2035.7</ele>
        <time>2014-09-21T09:38:11Z</time>
      </trkpt>
      <trkpt lat="42.7211" lon="1.59974">
        <ele>2036.2</ele>
        <time>2014-09-21T09:38:22Z</time>
      </trkpt>
      <trkpt lat="42.72119" lon="1.59964">
        <ele>2038.6</ele>
        <time>2014-09-21T09:38:38Z</time>
      </trkpt>
      <trkpt lat="42.72132" lon="1.5995">
        <ele>2040.5</ele>
        <time>2014-09-21T09:38:56Z</time>
      </trkpt>
      <trkpt lat="42.72143" lon="1.59938">
        <ele>2042.5</ele>
        <time>2014-09-21T09:39:12Z</time>
      </trkpt>
      <trkpt lat="42.72156" lon="1.59925">
        <ele>2043.9</ele>
        <time>2014-09-21T09:39:30Z</time>
      </trkpt>
      <trkpt lat="42.72165" lon="1.59916">
        <ele>2046.3</ele>
        <time>2014-09-21T09:39:47Z</time>
      </trkpt>
      <trkpt lat="42.72175" lon="1.59905">
        <ele>2047.8</ele>
        <time>2014-09-21T09:40:02Z</time>
      </trkpt>
      <trkpt lat="42.72188" lon="1.59893">
        <ele>2050.2</ele>
        <time>2014-09-21T09:40:22Z</time>
      </trkpt>
      <trkpt lat="42.72198" lon="1.59885">
        <ele>2053</ele>
        <time>2014-09-21T09:40:40Z</time>
      </trkpt>
      <trkpt lat="42.72208" lon="1.59875">
        <ele>2055</ele>
        <time>2014-09-21T09:40:58Z</time>
      </trkpt>
      <trkpt lat="42.72217" lon="1.59864">
        <ele>2057.8</ele>
        <time>2014-09-21T09:41:16Z</time>
      </trkpt>
      <trkpt lat="42.72225" lon="1.59854">
        <ele>2060.7</ele>
        <time>2014-09-21T09:41:35Z</time>
      </trkpt>
      <trkpt lat="42.72231" lon="1.59841">
        <ele>2062.7</ele>
        <time>2014-09-21T09:41:51Z</time>
      </trkpt>
      <trkpt lat="42.72238" lon="1.59827">
        <ele>2064.6</ele>
        <time>2014-09-21T09:42:08Z</time>
      </trkpt>
      <trkpt lat="42.72244" lon="1.5981">
        <ele>2066.5</ele>
        <time>2014-09-21T09:42:26Z</time>
      </trkpt>
      <trkpt lat="42.7225" lon="1.59799">
        <ele>2068.4</ele>
        <time>2014-09-21T09:42:40Z</time>
      </trkpt>
      <trkpt lat="42.72253" lon="1.59783">
        <ele>2070.3</ele>
        <time>2014-09-21T09:42:55Z</time>
      </trkpt>
      <trkpt lat="42.72258" lon="1.59768">
        <ele>2070.8</ele>
        <time>2014-09-21T09:43:11Z</time>
      </trkpt>
      <trkpt lat="42.72262" lon="1.59761">
        <ele>2072.3</ele>
        <time>2014-09-21T09:43:21Z</time>
      </trkpt>
      <trkpt lat="42.72268" lon="1.59749">
        <ele>2073.7</ele>
        <time>2014-09-21T09:43:35Z</time>
      </trkpt>
      <trkpt lat="42.72277" lon="1.59742">
        <ele>2074.7</ele>
        <time>2014-09-21T09:43:48Z</time>
      </trkpt>
      <trkpt lat="42.72282" lon="1.59734">
        <ele>2076.1</ele>
        <time>2014-09-21T09:44:00Z</time>
      </trkpt>
      <trkpt lat="42.72288" lon="1.59729">
        <ele>2077.6</ele>
        <time>2014-09-21T09:44:13Z</time>
      </trkpt>
      <trkpt lat="42.72288" lon="1.59725">
        <ele>2078</ele>
        <time>2014-09-21T09:44:34Z</time>
      </trkpt>
      <trkpt lat="42.72289" lon="1.59717">
        <ele>2079.5</ele>
        <time>2014-09-21T09:44:46Z</time>
      </trkpt>
      <trkpt lat="42.72289" lon="1.59707">
        <ele>2081.9</ele>
        <time>2014-09-21T09:44:59Z</time>
      </trkpt>
      <trkpt lat="42.72292" lon="1.59698">
        <ele>2083.8</ele>
        <time>2014-09-21T09:45:13Z</time>
      </trkpt>
      <trkpt lat="42.72296" lon="1.59691">
        <ele>2085.2</ele>
        <time>2014-09-21T09:45:28Z</time>
      </trkpt>
      <trkpt lat="42.72299" lon="1.59683">
        <ele>2087.6</ele>
        <time>2014-09-21T09:45:43Z</time>
      </trkpt>
      <trkpt lat="42.723" lon="1.59676">
        <ele>2089.1</ele>
        <time>2014-09-21T09:45:55Z</time>
      </trkpt>
      <trkpt lat="42.72301" lon="1.59671">
        <ele>2091</ele>
        <time>2014-09-21T09:46:10Z</time>
      </trkpt>
      <trkpt lat="42.72305" lon="1.59665">
        <ele>2092.9</ele>
        <time>2014-09-21T09:46:24Z</time>
      </trkpt>
      <trkpt lat="42.72308" lon="1.59656">
        <ele>2094.9</ele>
        <time>2014-09-21T09:46:39Z</time>
      </trkpt>
      <trkpt lat="42.72306" lon="1.59654">
        <ele>2095.3</ele>
        <time>2014-09-21T09:46:52Z</time>
      </trkpt>
      <trkpt lat="42.72302" lon="1.59646">
        <ele>2098.2</ele>
        <time>2014-09-21T09:47:08Z</time>
      </trkpt>
      <trkpt lat="42.72303" lon="1.59638">
        <ele>2100.1</ele>
        <time>2014-09-21T09:47:21Z</time>
      </trkpt>
      <trkpt lat="42.72301" lon="1.59632">
        <ele>2102.5</ele>
        <time>2014-09-21T09:47:34Z</time>
      </trkpt>
      <trkpt lat="42.72299" lon="1.59628">
        <ele>2104.5</ele>
        <time>2014-09-21T09:47:48Z</time>
      </trkpt>
      <trkpt lat="42.72296" lon="1.59624">
        <ele>2105.9</ele>
        <time>2014-09-21T09:48:01Z</time>
      </trkpt>
      <trkpt lat="42.7229" lon="1.59618">
        <ele>2107.8</ele>
        <time>2014-09-21T09:48:13Z</time>
      </trkpt>
      <trkpt lat="42.7228" lon="1.59617">
        <ele>2109.3</ele>
        <time>2014-09-21T09:48:27Z</time>
      </trkpt>
      <trkpt lat="42.72275" lon="1.59617">
        <ele>2110.2</ele>
        <time>2014-09-21T09:48:41Z</time>
      </trkpt>
      <trkpt lat="42.72268" lon="1.59615">
        <ele>2111.2</ele>
        <time>2014-09-21T09:48:50Z</time>
      </trkpt>
      <trkpt lat="42.72267" lon="1.59613">
        <ele>2111.2</ele>
        <time>2014-09-21T09:48:52Z</time>
      </trkpt>
      <trkpt lat="42.72259" lon="1.5961">
        <ele>2112.2</ele>
        <time>2014-09-21T09:49:02Z</time>
      </trkpt>
      <trkpt lat="42.72249" lon="1.59606">
        <ele>2114.1</ele>
        <time>2014-09-21T09:49:16Z</time>
      </trkpt>
      <trkpt lat="42.72238" lon="1.59604">
        <ele>2115.5</ele>
        <time>2014-09-21T09:49:30Z</time>
      </trkpt>
      <trkpt lat="42.72226" lon="1.59598">
        <ele>2117.9</ele>
        <time>2014-09-21T09:49:48Z</time>
      </trkpt>
      <trkpt lat="42.72215" lon="1.59593">
        <ele>2120.3</ele>
        <time>2014-09-21T09:50:03Z</time>
      </trkpt>
      <trkpt lat="42.72204" lon="1.5959">
        <ele>2121.8</ele>
        <time>2014-09-21T09:50:16Z</time>
      </trkpt>
      <trkpt lat="42.72194" lon="1.59589">
        <ele>2122.7</ele>
        <time>2014-09-21T09:50:28Z</time>
      </trkpt>
      <trkpt lat="42.72183" lon="1.59589">
        <ele>2124.2</ele>
        <time>2014-09-21T09:50:42Z</time>
      </trkpt>
      <trkpt lat="42.72174" lon="1.59586">
        <ele>2126.1</ele>
        <time>2014-09-21T09:50:56Z</time>
      </trkpt>
      <trkpt lat="42.72165" lon="1.59583">
        <ele>2128</ele>
        <time>2014-09-21T09:51:09Z</time>
      </trkpt>
      <trkpt lat="42.72155" lon="1.59582">
        <ele>2129.9</ele>
        <time>2014-09-21T09:51:22Z</time>
      </trkpt>
      <trkpt lat="42.72145" lon="1.59581">
        <ele>2131.4</ele>
        <time>2014-09-21T09:51:36Z</time>
      </trkpt>
      <trkpt lat="42.72136" lon="1.59581">
        <ele>2132.8</ele>
        <time>2014-09-21T09:51:49Z</time>
      </trkpt>
      <trkpt lat="42.72126" lon="1.59581">
        <ele>2134.7</ele>
        <time>2014-09-21T09:52:02Z</time>
      </trkpt>
      <trkpt lat="42.72118" lon="1.59581">
        <ele>2136.2</ele>
        <time>2014-09-21T09:52:15Z</time>
      </trkpt>
      <trkpt lat="42.72109" lon="1.59577">
        <ele>2138.6</ele>
        <time>2014-09-21T09:52:29Z</time>
      </trkpt>
      <trkpt lat="42.72101" lon="1.59573">
        <ele>2140.5</ele>
        <time>2014-09-21T09:52:42Z</time>
      </trkpt>
      <trkpt lat="42.72092" lon="1.5957">
        <ele>2142.4</ele>
        <time>2014-09-21T09:52:55Z</time>
      </trkpt>
      <trkpt lat="42.72083" lon="1.59565">
        <ele>2144.4</ele>
        <time>2014-09-21T09:53:10Z</time>
      </trkpt>
      <trkpt lat="42.72075" lon="1.59558">
        <ele>2146.3</ele>
        <time>2014-09-21T09:53:25Z</time>
      </trkpt>
      <trkpt lat="42.72067" lon="1.5955">
        <ele>2149.2</ele>
        <time>2014-09-21T09:53:42Z</time>
      </trkpt>
      <trkpt lat="42.72059" lon="1.59541">
        <ele>2151.6</ele>
        <time>2014-09-21T09:53:57Z</time>
      </trkpt>
      <trkpt lat="42.72053" lon="1.59532">
        <ele>2153</ele>
        <time>2014-09-21T09:54:10Z</time>
      </trkpt>
      <trkpt lat="42.72052" lon="1.59531">
        <ele>2153</ele>
        <time>2014-09-21T09:54:11Z</time>
      </trkpt>
      <trkpt lat="42.72048" lon="1.59525">
        <ele>2154</ele>
        <time>2014-09-21T09:54:23Z</time>
      </trkpt>
      <trkpt lat="42.72044" lon="1.59521">
        <ele>2154.9</ele>
        <time>2014-09-21T09:54:38Z</time>
      </trkpt>
      <trkpt lat="42.7203" lon="1.59502">
        <ele>2157.3</ele>
        <time>2014-09-21T09:54:54Z</time>
      </trkpt>
      <trkpt lat="42.72029" lon="1.59501">
        <ele>2157.3</ele>
        <time>2014-09-21T09:54:55Z</time>
      </trkpt>
      <trkpt lat="42.72015" lon="1.59483">
        <ele>2158.8</ele>
        <time>2014-09-21T09:55:11Z</time>
      </trkpt>
      <trkpt lat="42.72008" lon="1.59465">
        <ele>2161.2</ele>
        <time>2014-09-21T09:55:24Z</time>
      </trkpt>
      <trkpt lat="42.72001" lon="1.59441">
        <ele>2162.1</ele>
        <time>2014-09-21T09:55:40Z</time>
      </trkpt>
      <trkpt lat="42.71998" lon="1.59433">
        <ele>2162.6</ele>
        <time>2014-09-21T09:55:51Z</time>
      </trkpt>
      <trkpt lat="42.71996" lon="1.59428">
        <ele>2162.6</ele>
        <time>2014-09-21T09:55:56Z</time>
      </trkpt>
      <trkpt lat="42.71995" lon="1.59427">
        <ele>2162.6</ele>
        <time>2014-09-21T09:55:57Z</time>
      </trkpt>
      <trkpt lat="42.71992" lon="1.59411">
        <ele>2163.6</ele>
        <time>2014-09-21T09:56:10Z</time>
      </trkpt>
      <trkpt lat="42.71989" lon="1.59393">
        <ele>2163.6</ele>
        <time>2014-09-21T09:56:24Z</time>
      </trkpt>
      <trkpt lat="42.71987" lon="1.59381">
        <ele>2164.6</ele>
        <time>2014-09-21T09:56:38Z</time>
      </trkpt>
      <trkpt lat="42.71986" lon="1.59369">
        <ele>2165.5</ele>
        <time>2014-09-21T09:56:51Z</time>
      </trkpt>
      <trkpt lat="42.71986" lon="1.59347">
        <ele>2165.5</ele>
        <time>2014-09-21T09:57:04Z</time>
      </trkpt>
      <trkpt lat="42.71987" lon="1.59346">
        <ele>2166</ele>
        <time>2014-09-21T09:57:29Z</time>
      </trkpt>
      <trkpt lat="42.71986" lon="1.59347">
        <ele>2166</ele>
        <time>2014-09-21T09:57:52Z</time>
      </trkpt>
      <trkpt lat="42.71985" lon="1.59335">
        <ele>2164.6</ele>
        <time>2014-09-21T09:58:03Z</time>
      </trkpt>
      <trkpt lat="42.71984" lon="1.593">
        <ele>2162.6</ele>
        <time>2014-09-21T09:58:14Z</time>
      </trkpt>
      <trkpt lat="42.71983" lon="1.59291">
        <ele>2160.7</ele>
        <time>2014-09-21T09:58:17Z</time>
      </trkpt>
      <trkpt lat="42.71983" lon="1.59281">
        <ele>2158.8</ele>
        <time>2014-09-21T09:58:20Z</time>
      </trkpt>
      <trkpt lat="42.71977" lon="1.59253">
        <ele>2155.4</ele>
        <time>2014-09-21T09:58:30Z</time>
      </trkpt>
      <trkpt lat="42.71972" lon="1.59233">
        <ele>2152.1</ele>
        <time>2014-09-21T09:58:37Z</time>
      </trkpt>
      <trkpt lat="42.7197" lon="1.59216">
        <ele>2149.2</ele>
        <time>2014-09-21T09:58:46Z</time>
      </trkpt>
      <trkpt lat="42.7197" lon="1.59214">
        <ele>2148.7</ele>
        <time>2014-09-21T09:58:47Z</time>
      </trkpt>
      <trkpt lat="42.71967" lon="1.59199">
        <ele>2146.3</ele>
        <time>2014-09-21T09:58:53Z</time>
      </trkpt>
      <trkpt lat="42.71965" lon="1.59184">
        <ele>2142.9</ele>
        <time>2014-09-21T09:59:00Z</time>
      </trkpt>
      <trkpt lat="42.71965" lon="1.59175">
        <ele>2141</ele>
        <time>2014-09-21T09:59:12Z</time>
      </trkpt>
      <trkpt lat="42.71965" lon="1.59161">
        <ele>2137.2</ele>
        <time>2014-09-21T09:59:26Z</time>
      </trkpt>
      <trkpt lat="42.71962" lon="1.59152">
        <ele>2134.7</ele>
        <time>2014-09-21T09:59:38Z</time>
      </trkpt>
      <trkpt lat="42.71957" lon="1.59141">
        <ele>2131.4</ele>
        <time>2014-09-21T09:59:51Z</time>
      </trkpt>
      <trkpt lat="42.71952" lon="1.59134">
        <ele>2129</ele>
        <time>2014-09-21T10:00:03Z</time>
      </trkpt>
      <trkpt lat="42.71951" lon="1.59129">
        <ele>2127.1</ele>
        <time>2014-09-21T10:00:09Z</time>
      </trkpt>
      <trkpt lat="42.71948" lon="1.59119">
        <ele>2124.7</ele>
        <time>2014-09-21T10:00:21Z</time>
      </trkpt>
      <trkpt lat="42.71946" lon="1.59115">
        <ele>2123.7</ele>
        <time>2014-09-21T10:00:25Z</time>
      </trkpt>
      <trkpt lat="42.71937" lon="1.59106">
        <ele>2120.8</ele>
        <time>2014-09-21T10:00:37Z</time>
      </trkpt>
      <trkpt lat="42.71936" lon="1.59104">
        <ele>2120.3</ele>
        <time>2014-09-21T10:00:38Z</time>
      </trkpt>
      <trkpt lat="42.71935" lon="1.59101">
        <ele>2119.4</ele>
        <time>2014-09-21T10:00:39Z</time>
      </trkpt>
      <trkpt lat="42.71934" lon="1.59099">
        <ele>2118.9</ele>
        <time>2014-09-21T10:00:40Z</time>
      </trkpt>
      <trkpt lat="42.71932" lon="1.59096">
        <ele>2118.4</ele>
        <time>2014-09-21T10:00:41Z</time>
      </trkpt>
      <trkpt lat="42.71926" lon="1.59085">
        <ele>2116</ele>
        <time>2014-09-21T10:00:46Z</time>
      </trkpt>
      <trkpt lat="42.71919" lon="1.59076">
        <ele>2114.6</ele>
        <time>2014-09-21T10:00:54Z</time>
      </trkpt>
      <trkpt lat="42.71918" lon="1.59076">
        <ele>2114.6</ele>
        <time>2014-09-21T10:00:55Z</time>
      </trkpt>
      <trkpt lat="42.71916" lon="1.59076">
        <ele>2114.6</ele>
        <time>2014-09-21T10:01:07Z</time>
      </trkpt>
      <trkpt lat="42.71907" lon="1.59073">
        <ele>2114.1</ele>
        <time>2014-09-21T10:01:19Z</time>
      </trkpt>
      <trkpt lat="42.71905" lon="1.59072">
        <ele>2114.1</ele>
        <time>2014-09-21T10:01:26Z</time>
      </trkpt>
      <trkpt lat="42.71899" lon="1.59073">
        <ele>2115.5</ele>
        <time>2014-09-21T10:01:33Z</time>
      </trkpt>
      <trkpt lat="42.71885" lon="1.59064">
        <ele>2116</ele>
        <time>2014-09-21T10:01:49Z</time>
      </trkpt>
      <trkpt lat="42.71871" lon="1.59051">
        <ele>2117</ele>
        <time>2014-09-21T10:02:06Z</time>
      </trkpt>
      <trkpt lat="42.71854" lon="1.59041">
        <ele>2117.9</ele>
        <time>2014-09-21T10:02:24Z</time>
      </trkpt>
      <trkpt lat="42.71841" lon="1.5903">
        <ele>2118.4</ele>
        <time>2014-09-21T10:02:38Z</time>
      </trkpt>
      <trkpt lat="42.7183" lon="1.59018">
        <ele>2118.4</ele>
        <time>2014-09-21T10:02:52Z</time>
      </trkpt>
      <trkpt lat="42.71829" lon="1.59018">
        <ele>2118.4</ele>
        <time>2014-09-21T10:02:53Z</time>
      </trkpt>
      <trkpt lat="42.71809" lon="1.59008">
        <ele>2118.9</ele>
        <time>2014-09-21T10:03:12Z</time>
      </trkpt>
      <trkpt lat="42.71796" lon="1.58997">
        <ele>2119.8</ele>
        <time>2014-09-21T10:03:27Z</time>
      </trkpt>
      <trkpt lat="42.71781" lon="1.58987">
        <ele>2120.8</ele>
        <time>2014-09-21T10:03:44Z</time>
      </trkpt>
      <trkpt lat="42.71779" lon="1.58984">
        <ele>2120.8</ele>
        <time>2014-09-21T10:03:47Z</time>
      </trkpt>
      <trkpt lat="42.71779" lon="1.58983">
        <ele>2120.8</ele>
        <time>2014-09-21T10:03:48Z</time>
      </trkpt>
      <trkpt lat="42.71763" lon="1.58969">
        <ele>2122.3</ele>
        <time>2014-09-21T10:04:05Z</time>
      </trkpt>
      <trkpt lat="42.7174" lon="1.58948">
        <ele>2123.2</ele>
        <time>2014-09-21T10:04:24Z</time>
      </trkpt>
      <trkpt lat="42.71722" lon="1.5893">
        <ele>2124.2</ele>
        <time>2014-09-21T10:04:40Z</time>
      </trkpt>
      <trkpt lat="42.71702" lon="1.58909">
        <ele>2125.6</ele>
        <time>2014-09-21T10:04:59Z</time>
      </trkpt>
      <trkpt lat="42.71685" lon="1.58892">
        <ele>2126.6</ele>
        <time>2014-09-21T10:05:15Z</time>
      </trkpt>
      <trkpt lat="42.71672" lon="1.58873">
        <ele>2128.5</ele>
        <time>2014-09-21T10:05:31Z</time>
      </trkpt>
      <trkpt lat="42.71664" lon="1.58859">
        <ele>2130.4</ele>
        <time>2014-09-21T10:05:46Z</time>
      </trkpt>
      <trkpt lat="42.71661" lon="1.58853">
        <ele>2130.9</ele>
        <time>2014-09-21T10:05:58Z</time>
      </trkpt>
      <trkpt lat="42.71654" lon="1.58838">
        <ele>2132.8</ele>
        <time>2014-09-21T10:06:15Z</time>
      </trkpt>
      <trkpt lat="42.71647" lon="1.58822">
        <ele>2134.7</ele>
        <time>2014-09-21T10:06:33Z</time>
      </trkpt>
      <trkpt lat="42.71644" lon="1.58816">
        <ele>2136.2</ele>
        <time>2014-09-21T10:06:49Z</time>
      </trkpt>
      <trkpt lat="42.71642" lon="1.58813">
        <ele>2136.7</ele>
        <time>2014-09-21T10:07:14Z</time>
      </trkpt>
      <trkpt lat="42.71637" lon="1.58801">
        <ele>2139.1</ele>
        <time>2014-09-21T10:07:29Z</time>
      </trkpt>
      <trkpt lat="42.71634" lon="1.5879">
        <ele>2141</ele>
        <time>2014-09-21T10:07:43Z</time>
      </trkpt>
      <trkpt lat="42.71631" lon="1.58781">
        <ele>2142.9</ele>
        <time>2014-09-21T10:07:57Z</time>
      </trkpt>
      <trkpt lat="42.71628" lon="1.58771">
        <ele>2144.8</ele>
        <time>2014-09-21T10:08:11Z</time>
      </trkpt>
      <trkpt lat="42.71623" lon="1.58763">
        <ele>2146.8</ele>
        <time>2014-09-21T10:08:26Z</time>
      </trkpt>
      <trkpt lat="42.71618" lon="1.58756">
        <ele>2148.7</ele>
        <time>2014-09-21T10:08:40Z</time>
      </trkpt>
      <trkpt lat="42.71612" lon="1.58748">
        <ele>2151.1</ele>
        <time>2014-09-21T10:08:55Z</time>
      </trkpt>
      <trkpt lat="42.71605" lon="1.5874">
        <ele>2152.5</ele>
        <time>2014-09-21T10:09:09Z</time>
      </trkpt>
      <trkpt lat="42.71601" lon="1.58732">
        <ele>2154</ele>
        <time>2014-09-21T10:09:21Z</time>
      </trkpt>
      <trkpt lat="42.71594" lon="1.58725">
        <ele>2155.4</ele>
        <time>2014-09-21T10:09:35Z</time>
      </trkpt>
      <trkpt lat="42.71589" lon="1.58717">
        <ele>2157.3</ele>
        <time>2014-09-21T10:09:48Z</time>
      </trkpt>
      <trkpt lat="42.71583" lon="1.58708">
        <ele>2158.8</ele>
        <time>2014-09-21T10:10:02Z</time>
      </trkpt>
      <trkpt lat="42.71579" lon="1.58699">
        <ele>2160.7</ele>
        <time>2014-09-21T10:10:15Z</time>
      </trkpt>
      <trkpt lat="42.71574" lon="1.58689">
        <ele>2162.1</ele>
        <time>2014-09-21T10:10:28Z</time>
      </trkpt>
      <trkpt lat="42.71569" lon="1.58678">
        <ele>2165</ele>
        <time>2014-09-21T10:10:44Z</time>
      </trkpt>
      <trkpt lat="42.71563" lon="1.58671">
        <ele>2166.5</ele>
        <time>2014-09-21T10:10:57Z</time>
      </trkpt>
      <trkpt lat="42.71558" lon="1.58659">
        <ele>2168.4</ele>
        <time>2014-09-21T10:11:13Z</time>
      </trkpt>
      <trkpt lat="42.71554" lon="1.58652">
        <ele>2170.3</ele>
        <time>2014-09-21T10:11:28Z</time>
      </trkpt>
      <trkpt lat="42.71549" lon="1.58648">
        <ele>2172.7</ele>
        <time>2014-09-21T10:11:44Z</time>
      </trkpt>
      <trkpt lat="42.71542" lon="1.58647">
        <ele>2175.1</ele>
        <time>2014-09-21T10:11:59Z</time>
      </trkpt>
      <trkpt lat="42.71537" lon="1.58646">
        <ele>2176.6</ele>
        <time>2014-09-21T10:12:11Z</time>
      </trkpt>
      <trkpt lat="42.7153" lon="1.58644">
        <ele>2179</ele>
        <time>2014-09-21T10:12:26Z</time>
      </trkpt>
      <trkpt lat="42.71525" lon="1.58641">
        <ele>2180.4</ele>
        <time>2014-09-21T10:12:41Z</time>
      </trkpt>
      <trkpt lat="42.71522" lon="1.58637">
        <ele>2182.3</ele>
        <time>2014-09-21T10:12:52Z</time>
      </trkpt>
      <trkpt lat="42.71518" lon="1.58639">
        <ele>2183.8</ele>
        <time>2014-09-21T10:13:04Z</time>
      </trkpt>
      <trkpt lat="42.71514" lon="1.58635">
        <ele>2186.2</ele>
        <time>2014-09-21T10:13:16Z</time>
      </trkpt>
      <trkpt lat="42.71506" lon="1.58632">
        <ele>2188.1</ele>
        <time>2014-09-21T10:13:31Z</time>
      </trkpt>
      <trkpt lat="42.71504" lon="1.58624">
        <ele>2189.5</ele>
        <time>2014-09-21T10:13:43Z</time>
      </trkpt>
      <trkpt lat="42.71499" lon="1.58619">
        <ele>2191.5</ele>
        <time>2014-09-21T10:13:57Z</time>
      </trkpt>
      <trkpt lat="42.7149" lon="1.58615">
        <ele>2192.4</ele>
        <time>2014-09-21T10:14:10Z</time>
      </trkpt>
      <trkpt lat="42.71484" lon="1.58611">
        <ele>2192.9</ele>
        <time>2014-09-21T10:14:20Z</time>
      </trkpt>
      <trkpt lat="42.71476" lon="1.58607">
        <ele>2193.9</ele>
        <time>2014-09-21T10:14:34Z</time>
      </trkpt>
      <trkpt lat="42.71468" lon="1.58611">
        <ele>2195.8</ele>
        <time>2014-09-21T10:14:48Z</time>
      </trkpt>
      <trkpt lat="42.71461" lon="1.58613">
        <ele>2197.2</ele>
        <time>2014-09-21T10:15:02Z</time>
      </trkpt>
      <trkpt lat="42.71459" lon="1.58612">
        <ele>2198.2</ele>
        <time>2014-09-21T10:15:17Z</time>
      </trkpt>
      <trkpt lat="42.71459" lon="1.58608">
        <ele>2200.1</ele>
        <time>2014-09-21T10:15:29Z</time>
      </trkpt>
      <trkpt lat="42.7146" lon="1.58604">
        <ele>2201.1</ele>
        <time>2014-09-21T10:15:46Z</time>
      </trkpt>
      <trkpt lat="42.71457" lon="1.58598">
        <ele>2202</ele>
        <time>2014-09-21T10:15:59Z</time>
      </trkpt>
      <trkpt lat="42.71458" lon="1.58598">
        <ele>2202.5</ele>
        <time>2014-09-21T10:16:10Z</time>
      </trkpt>
      <trkpt lat="42.71458" lon="1.58597">
        <ele>2203</ele>
        <time>2014-09-21T10:16:32Z</time>
      </trkpt>
      <trkpt lat="42.71459" lon="1.58589">
        <ele>2204.9</ele>
        <time>2014-09-21T10:16:43Z</time>
      </trkpt>
      <trkpt lat="42.71456" lon="1.58577">
        <ele>2207.8</ele>
        <time>2014-09-21T10:17:00Z</time>
      </trkpt>
      <trkpt lat="42.7145" lon="1.5857">
        <ele>2209.3</ele>
        <time>2014-09-21T10:17:14Z</time>
      </trkpt>
      <trkpt lat="42.71444" lon="1.58565">
        <ele>2211.2</ele>
        <time>2014-09-21T10:17:29Z</time>
      </trkpt>
      <trkpt lat="42.7144" lon="1.58558">
        <ele>2213.1</ele>
        <time>2014-09-21T10:17:44Z</time>
      </trkpt>
      <trkpt lat="42.71437" lon="1.58553">
        <ele>2215</ele>
        <time>2014-09-21T10:17:59Z</time>
      </trkpt>
      <trkpt lat="42.71434" lon="1.58546">
        <ele>2217.4</ele>
        <time>2014-09-21T10:18:16Z</time>
      </trkpt>
      <trkpt lat="42.71434" lon="1.58541">
        <ele>2218.9</ele>
        <time>2014-09-21T10:18:28Z</time>
      </trkpt>
      <trkpt lat="42.71431" lon="1.58536">
        <ele>2221.3</ele>
        <time>2014-09-21T10:18:42Z</time>
      </trkpt>
      <trkpt lat="42.71428" lon="1.5853">
        <ele>2222.2</ele>
        <time>2014-09-21T10:18:55Z</time>
      </trkpt>
      <trkpt lat="42.71424" lon="1.58525">
        <ele>2224.2</ele>
        <time>2014-09-21T10:19:10Z</time>
      </trkpt>
      <trkpt lat="42.71422" lon="1.58521">
        <ele>2226.6</ele>
        <time>2014-09-21T10:19:23Z</time>
      </trkpt>
      <trkpt lat="42.71419" lon="1.58516">
        <ele>2228</ele>
        <time>2014-09-21T10:19:37Z</time>
      </trkpt>
      <trkpt lat="42.71416" lon="1.5851">
        <ele>2230.9</ele>
        <time>2014-09-21T10:19:52Z</time>
      </trkpt>
      <trkpt lat="42.71412" lon="1.58507">
        <ele>2232.3</ele>
        <time>2014-09-21T10:20:07Z</time>
      </trkpt>
      <trkpt lat="42.71411" lon="1.58504">
        <ele>2233.8</ele>
        <time>2014-09-21T10:20:20Z</time>
      </trkpt>
      <trkpt lat="42.71408" lon="1.585">
        <ele>2235.7</ele>
        <time>2014-09-21T10:20:34Z</time>
      </trkpt>
      <trkpt lat="42.71406" lon="1.58497">
        <ele>2237.1</ele>
        <time>2014-09-21T10:20:48Z</time>
      </trkpt>
      <trkpt lat="42.71401" lon="1.58494">
        <ele>2238.6</ele>
        <time>2014-09-21T10:21:01Z</time>
      </trkpt>
      <trkpt lat="42.71399" lon="1.58493">
        <ele>2241</ele>
        <time>2014-09-21T10:21:15Z</time>
      </trkpt>
      <trkpt lat="42.71398" lon="1.58492">
        <ele>2241</ele>
        <time>2014-09-21T10:21:27Z</time>
      </trkpt>
      <trkpt lat="42.71396" lon="1.58491">
        <ele>2242.4</ele>
        <time>2014-09-21T10:21:43Z</time>
      </trkpt>
      <trkpt lat="42.71391" lon="1.58484">
        <ele>2244.8</ele>
        <time>2014-09-21T10:21:57Z</time>
      </trkpt>
      <trkpt lat="42.71391" lon="1.58483">
        <ele>2245.8</ele>
        <time>2014-09-21T10:22:10Z</time>
      </trkpt>
      <trkpt lat="42.71386" lon="1.5848">
        <ele>2246.7</ele>
        <time>2014-09-21T10:22:21Z</time>
      </trkpt>
      <trkpt lat="42.71385" lon="1.58479">
        <ele>2247.2</ele>
        <time>2014-09-21T10:22:40Z</time>
      </trkpt>
      <trkpt lat="42.71385" lon="1.58476">
        <ele>2249.1</ele>
        <time>2014-09-21T10:22:52Z</time>
      </trkpt>
      <trkpt lat="42.71382" lon="1.58472">
        <ele>2250.6</ele>
        <time>2014-09-21T10:23:05Z</time>
      </trkpt>
      <trkpt lat="42.71381" lon="1.58469">
        <ele>2252.5</ele>
        <time>2014-09-21T10:23:16Z</time>
      </trkpt>
      <trkpt lat="42.71379" lon="1.58464">
        <ele>2254.4</ele>
        <time>2014-09-21T10:23:30Z</time>
      </trkpt>
      <trkpt lat="42.71378" lon="1.5846">
        <ele>2256.8</ele>
        <time>2014-09-21T10:23:45Z</time>
      </trkpt>
      <trkpt lat="42.71377" lon="1.58458">
        <ele>2258.3</ele>
        <time>2014-09-21T10:23:57Z</time>
      </trkpt>
      <trkpt lat="42.71375" lon="1.58455">
        <ele>2259.7</ele>
        <time>2014-09-21T10:24:09Z</time>
      </trkpt>
      <trkpt lat="42.71372" lon="1.58452">
        <ele>2261.2</ele>
        <time>2014-09-21T10:24:25Z</time>
      </trkpt>
      <trkpt lat="42.71368" lon="1.58447">
        <ele>2263.1</ele>
        <time>2014-09-21T10:24:40Z</time>
      </trkpt>
      <trkpt lat="42.71365" lon="1.58443">
        <ele>2265.5</ele>
        <time>2014-09-21T10:24:53Z</time>
      </trkpt>
      <trkpt lat="42.71361" lon="1.58439">
        <ele>2266.9</ele>
        <time>2014-09-21T10:25:07Z</time>
      </trkpt>
      <trkpt lat="42.71362" lon="1.58436">
        <ele>2268.4</ele>
        <time>2014-09-21T10:25:24Z</time>
      </trkpt>
      <trkpt lat="42.7136" lon="1.58431">
        <ele>2270.3</ele>
        <time>2014-09-21T10:25:36Z</time>
      </trkpt>
      <trkpt lat="42.71361" lon="1.58424">
        <ele>2271.7</ele>
        <time>2014-09-21T10:25:48Z</time>
      </trkpt>
      <trkpt lat="42.7136" lon="1.58414">
        <ele>2273.2</ele>
        <time>2014-09-21T10:26:03Z</time>
      </trkpt>
      <trkpt lat="42.7135" lon="1.58407">
        <ele>2274.6</ele>
        <time>2014-09-21T10:26:19Z</time>
      </trkpt>
      <trkpt lat="42.71342" lon="1.58403">
        <ele>2276.1</ele>
        <time>2014-09-21T10:26:33Z</time>
      </trkpt>
      <trkpt lat="42.71335" lon="1.58397">
        <ele>2277</ele>
        <time>2014-09-21T10:26:46Z</time>
      </trkpt>
      <trkpt lat="42.71325" lon="1.58391">
        <ele>2278.5</ele>
        <time>2014-09-21T10:27:01Z</time>
      </trkpt>
      <trkpt lat="42.71314" lon="1.58385">
        <ele>2279.9</ele>
        <time>2014-09-21T10:27:17Z</time>
      </trkpt>
      <trkpt lat="42.71303" lon="1.5838">
        <ele>2280.9</ele>
        <time>2014-09-21T10:27:31Z</time>
      </trkpt>
      <trkpt lat="42.71302" lon="1.5838">
        <ele>2281.4</ele>
        <time>2014-09-21T10:27:32Z</time>
      </trkpt>
      <trkpt lat="42.71289" lon="1.58373">
        <ele>2282.3</ele>
        <time>2014-09-21T10:27:48Z</time>
      </trkpt>
      <trkpt lat="42.71277" lon="1.58366">
        <ele>2282.8</ele>
        <time>2014-09-21T10:28:03Z</time>
      </trkpt>
      <trkpt lat="42.71265" lon="1.58361">
        <ele>2284.7</ele>
        <time>2014-09-21T10:28:19Z</time>
      </trkpt>
      <trkpt lat="42.71259" lon="1.5836">
        <ele>2285.2</ele>
        <time>2014-09-21T10:28:27Z</time>
      </trkpt>
      <trkpt lat="42.71248" lon="1.58362">
        <ele>2285.2</ele>
        <time>2014-09-21T10:28:41Z</time>
      </trkpt>
      <trkpt lat="42.71238" lon="1.58365">
        <ele>2287.1</ele>
        <time>2014-09-21T10:28:55Z</time>
      </trkpt>
      <trkpt lat="42.71229" lon="1.58364">
        <ele>2288.6</ele>
        <time>2014-09-21T10:29:08Z</time>
      </trkpt>
      <trkpt lat="42.71222" lon="1.58362">
        <ele>2290</ele>
        <time>2014-09-21T10:29:22Z</time>
      </trkpt>
      <trkpt lat="42.71214" lon="1.58361">
        <ele>2292.4</ele>
        <time>2014-09-21T10:29:36Z</time>
      </trkpt>
      <trkpt lat="42.71209" lon="1.58356">
        <ele>2293.8</ele>
        <time>2014-09-21T10:29:49Z</time>
      </trkpt>
      <trkpt lat="42.71202" lon="1.58355">
        <ele>2295.3</ele>
        <time>2014-09-21T10:30:03Z</time>
      </trkpt>
      <trkpt lat="42.71197" lon="1.5835">
        <ele>2296.7</ele>
        <time>2014-09-21T10:30:15Z</time>
      </trkpt>
      <trkpt lat="42.71191" lon="1.58342">
        <ele>2298.7</ele>
        <time>2014-09-21T10:30:31Z</time>
      </trkpt>
      <trkpt lat="42.71185" lon="1.58339">
        <ele>2299.6</ele>
        <time>2014-09-21T10:30:47Z</time>
      </trkpt>
      <trkpt lat="42.71179" lon="1.58339">
        <ele>2300.6</ele>
        <time>2014-09-21T10:31:03Z</time>
      </trkpt>
      <trkpt lat="42.71172" lon="1.58341">
        <ele>2302</ele>
        <time>2014-09-21T10:31:14Z</time>
      </trkpt>
      <trkpt lat="42.71165" lon="1.58343">
        <ele>2303.5</ele>
        <time>2014-09-21T10:31:28Z</time>
      </trkpt>
      <trkpt lat="42.71164" lon="1.58347">
        <ele>2303.5</ele>
        <time>2014-09-21T10:31:49Z</time>
      </trkpt>
      <trkpt lat="42.71157" lon="1.58346">
        <ele>2301.1</ele>
        <time>2014-09-21T10:32:03Z</time>
      </trkpt>
      <trkpt lat="42.71148" lon="1.58343">
        <ele>2300.1</ele>
        <time>2014-09-21T10:32:14Z</time>
      </trkpt>
      <trkpt lat="42.71145" lon="1.5834">
        <ele>2299.6</ele>
        <time>2014-09-21T10:32:18Z</time>
      </trkpt>
      <trkpt lat="42.71138" lon="1.58343">
        <ele>2297.7</ele>
        <time>2014-09-21T10:32:32Z</time>
      </trkpt>
      <trkpt lat="42.71138" lon="1.58344">
        <ele>2297.2</ele>
        <time>2014-09-21T10:32:33Z</time>
      </trkpt>
      <trkpt lat="42.71137" lon="1.58349">
        <ele>2296.7</ele>
        <time>2014-09-21T10:32:37Z</time>
      </trkpt>
      <trkpt lat="42.71136" lon="1.5835">
        <ele>2296.7</ele>
        <time>2014-09-21T10:32:38Z</time>
      </trkpt>
      <trkpt lat="42.71126" lon="1.5836">
        <ele>2297.7</ele>
        <time>2014-09-21T10:32:53Z</time>
      </trkpt>
      <trkpt lat="42.71125" lon="1.5836">
        <ele>2298.2</ele>
        <time>2014-09-21T10:32:54Z</time>
      </trkpt>
      <trkpt lat="42.71125" lon="1.58366">
        <ele>2299.6</ele>
        <time>2014-09-21T10:33:02Z</time>
      </trkpt>
      <trkpt lat="42.71119" lon="1.58371">
        <ele>2300.1</ele>
        <time>2014-09-21T10:33:14Z</time>
      </trkpt>
      <trkpt lat="42.71121" lon="1.58377">
        <ele>2301.1</ele>
        <time>2014-09-21T10:33:28Z</time>
      </trkpt>
      <trkpt lat="42.71117" lon="1.58382">
        <ele>2299.6</ele>
        <time>2014-09-21T10:33:41Z</time>
      </trkpt>
      <trkpt lat="42.71114" lon="1.58385">
        <ele>2298.2</ele>
        <time>2014-09-21T10:33:48Z</time>
      </trkpt>
      <trkpt lat="42.71105" lon="1.58387">
        <ele>2297.7</ele>
        <time>2014-09-21T10:34:01Z</time>
      </trkpt>
      <trkpt lat="42.71102" lon="1.58388">
        <ele>2299.1</ele>
        <time>2014-09-21T10:34:04Z</time>
      </trkpt>
      <trkpt lat="42.71093" lon="1.58389">
        <ele>2301.1</ele>
        <time>2014-09-21T10:34:16Z</time>
      </trkpt>
      <trkpt lat="42.71087" lon="1.58391">
        <ele>2301.5</ele>
        <time>2014-09-21T10:34:27Z</time>
      </trkpt>
      <trkpt lat="42.71073" lon="1.58385">
        <ele>2301.5</ele>
        <time>2014-09-21T10:34:44Z</time>
      </trkpt>
      <trkpt lat="42.71064" lon="1.58381">
        <ele>2303</ele>
        <time>2014-09-21T10:34:56Z</time>
      </trkpt>
      <trkpt lat="42.71054" lon="1.58381">
        <ele>2303</ele>
        <time>2014-09-21T10:35:09Z</time>
      </trkpt>
      <trkpt lat="42.71053" lon="1.58382">
        <ele>2301.5</ele>
        <time>2014-09-21T10:35:12Z</time>
      </trkpt>
      <trkpt lat="42.71045" lon="1.58379">
        <ele>2299.1</ele>
        <time>2014-09-21T10:35:25Z</time>
      </trkpt>
      <trkpt lat="42.71039" lon="1.58374">
        <ele>2299.1</ele>
        <time>2014-09-21T10:35:40Z</time>
      </trkpt>
      <trkpt lat="42.71039" lon="1.58375">
        <ele>2299.1</ele>
        <time>2014-09-21T10:36:03Z</time>
      </trkpt>
      <trkpt lat="42.71037" lon="1.5837">
        <ele>2298.2</ele>
        <time>2014-09-21T10:36:16Z</time>
      </trkpt>
      <trkpt lat="42.71031" lon="1.58366">
        <ele>2296.3</ele>
        <time>2014-09-21T10:36:29Z</time>
      </trkpt>
      <trkpt lat="42.71026" lon="1.58367">
        <ele>2295.3</ele>
        <time>2014-09-21T10:36:38Z</time>
      </trkpt>
      <trkpt lat="42.71025" lon="1.58367">
        <ele>2294.8</ele>
        <time>2014-09-21T10:36:39Z</time>
      </trkpt>
      <trkpt lat="42.71024" lon="1.58368">
        <ele>2294.8</ele>
        <time>2014-09-21T10:36:40Z</time>
      </trkpt>
      <trkpt lat="42.71023" lon="1.58376">
        <ele>2293.8</ele>
        <time>2014-09-21T10:36:52Z</time>
      </trkpt>
      <trkpt lat="42.71023" lon="1.58375">
        <ele>2293.4</ele>
        <time>2014-09-21T10:37:09Z</time>
      </trkpt>
      <trkpt lat="42.71024" lon="1.58375">
        <ele>2293.8</ele>
        <time>2014-09-21T10:37:45Z</time>
      </trkpt>
      <trkpt lat="42.71023" lon="1.58374">
        <ele>2293.8</ele>
        <time>2014-09-21T10:38:40Z</time>
      </trkpt>
      <trkpt lat="42.71023" lon="1.58374">
        <ele>2293.8</ele>
        <time>2014-09-21T10:39:13Z</time>
      </trkpt>
      <trkpt lat="42.71023" lon="1.58375">
        <ele>2293.4</ele>
        <time>2014-09-21T10:39:45Z</time>
      </trkpt>
      <trkpt lat="42.71023" lon="1.58375">
        <ele>2293.4</ele>
        <time>2014-09-21T10:40:30Z</time>
      </trkpt>
      <trkpt lat="42.71023" lon="1.58374">
        <ele>2293.4</ele>
        <time>2014-09-21T10:41:15Z</time>
      </trkpt>
      <trkpt lat="42.71023" lon="1.58375">
        <ele>2293.8</ele>
        <time>2014-09-21T10:41:53Z</time>
      </trkpt>
      <trkpt lat="42.7102" lon="1.5838">
        <ele>2293.8</ele>
        <time>2014-09-21T10:42:07Z</time>
      </trkpt>
      <trkpt lat="42.71013" lon="1.58387">
        <ele>2291</ele>
        <time>2014-09-21T10:42:18Z</time>
      </trkpt>
      <trkpt lat="42.71007" lon="1.58389">
        <ele>2290</ele>
        <time>2014-09-21T10:42:35Z</time>
      </trkpt>
      <trkpt lat="42.70997" lon="1.58395">
        <ele>2286.2</ele>
        <time>2014-09-21T10:42:48Z</time>
      </trkpt>
      <trkpt lat="42.70997" lon="1.584">
        <ele>2283.8</ele>
        <time>2014-09-21T10:43:00Z</time>
      </trkpt>
      <trkpt lat="42.70992" lon="1.58402">
        <ele>2281.4</ele>
        <time>2014-09-21T10:43:09Z</time>
      </trkpt>
      <trkpt lat="42.70983" lon="1.58403">
        <ele>2278.5</ele>
        <time>2014-09-21T10:43:23Z</time>
      </trkpt>
      <trkpt lat="42.70976" lon="1.58408">
        <ele>2277</ele>
        <time>2014-09-21T10:43:33Z</time>
      </trkpt>
      <trkpt lat="42.70955" lon="1.58419">
        <ele>2275.1</ele>
        <time>2014-09-21T10:43:44Z</time>
      </trkpt>
      <trkpt lat="42.70952" lon="1.58419">
        <ele>2275.1</ele>
        <time>2014-09-21T10:43:57Z</time>
      </trkpt>
      <trkpt lat="42.70949" lon="1.58422">
        <ele>2275.1</ele>
        <time>2014-09-21T10:44:03Z</time>
      </trkpt>
      <trkpt lat="42.70947" lon="1.58423">
        <ele>2275.1</ele>
        <time>2014-09-21T10:44:04Z</time>
      </trkpt>
      <trkpt lat="42.70933" lon="1.58434">
        <ele>2275.6</ele>
        <time>2014-09-21T10:44:17Z</time>
      </trkpt>
      <trkpt lat="42.70933" lon="1.58436">
        <ele>2275.6</ele>
        <time>2014-09-21T10:44:18Z</time>
      </trkpt>
      <trkpt lat="42.70932" lon="1.58437">
        <ele>2275.6</ele>
        <time>2014-09-21T10:44:19Z</time>
      </trkpt>
      <trkpt lat="42.70931" lon="1.58438">
        <ele>2275.6</ele>
        <time>2014-09-21T10:44:20Z</time>
      </trkpt>
      <trkpt lat="42.7093" lon="1.58439">
        <ele>2275.6</ele>
        <time>2014-09-21T10:44:21Z</time>
      </trkpt>
      <trkpt lat="42.70929" lon="1.5844">
        <ele>2275.6</ele>
        <time>2014-09-21T10:44:22Z</time>
      </trkpt>
      <trkpt lat="42.70925" lon="1.58445">
        <ele>2277</ele>
        <time>2014-09-21T10:44:26Z</time>
      </trkpt>
      <trkpt lat="42.70911" lon="1.58464">
        <ele>2277</ele>
        <time>2014-09-21T10:44:42Z</time>
      </trkpt>
      <trkpt lat="42.70895" lon="1.58477">
        <ele>2277</ele>
        <time>2014-09-21T10:44:54Z</time>
      </trkpt>
      <trkpt lat="42.70873" lon="1.58495">
        <ele>2274.1</ele>
        <time>2014-09-21T10:45:06Z</time>
      </trkpt>
      <trkpt lat="42.70846" lon="1.58508">
        <ele>2270.8</ele>
        <time>2014-09-21T10:45:16Z</time>
      </trkpt>
      <trkpt lat="42.70829" lon="1.58512">
        <ele>2268.9</ele>
        <time>2014-09-21T10:45:25Z</time>
      </trkpt>
      <trkpt lat="42.70813" lon="1.58515">
        <ele>2266.5</ele>
        <time>2014-09-21T10:45:33Z</time>
      </trkpt>
      <trkpt lat="42.70812" lon="1.58516">
        <ele>2266.5</ele>
        <time>2014-09-21T10:45:34Z</time>
      </trkpt>
      <trkpt lat="42.70798" lon="1.58526">
        <ele>2263.6</ele>
        <time>2014-09-21T10:45:44Z</time>
      </trkpt>
      <trkpt lat="42.70776" lon="1.58543">
        <ele>2261.2</ele>
        <time>2014-09-21T10:45:56Z</time>
      </trkpt>
      <trkpt lat="42.7076" lon="1.58558">
        <ele>2259.7</ele>
        <time>2014-09-21T10:46:07Z</time>
      </trkpt>
      <trkpt lat="42.70739" lon="1.58582">
        <ele>2259.2</ele>
        <time>2014-09-21T10:46:21Z</time>
      </trkpt>
      <trkpt lat="42.70721" lon="1.58601">
        <ele>2257.8</ele>
        <time>2014-09-21T10:46:31Z</time>
      </trkpt>
      <trkpt lat="42.70708" lon="1.58625">
        <ele>2257.8</ele>
        <time>2014-09-21T10:46:42Z</time>
      </trkpt>
      <trkpt lat="42.70692" lon="1.58652">
        <ele>2259.2</ele>
        <time>2014-09-21T10:46:56Z</time>
      </trkpt>
      <trkpt lat="42.70682" lon="1.58666">
        <ele>2260.7</ele>
        <time>2014-09-21T10:47:06Z</time>
      </trkpt>
      <trkpt lat="42.70669" lon="1.58689">
        <ele>2262.1</ele>
        <time>2014-09-21T10:47:22Z</time>
      </trkpt>
      <trkpt lat="42.70661" lon="1.58702">
        <ele>2263.1</ele>
        <time>2014-09-21T10:47:34Z</time>
      </trkpt>
      <trkpt lat="42.7066" lon="1.58703">
        <ele>2263.1</ele>
        <time>2014-09-21T10:47:44Z</time>
      </trkpt>
      <trkpt lat="42.70655" lon="1.58706">
        <ele>2263.6</ele>
        <time>2014-09-21T10:47:57Z</time>
      </trkpt>
      <trkpt lat="42.70655" lon="1.58707">
        <ele>2263.6</ele>
        <time>2014-09-21T10:47:58Z</time>
      </trkpt>
      <trkpt lat="42.7065" lon="1.58717">
        <ele>2264</ele>
        <time>2014-09-21T10:48:05Z</time>
      </trkpt>
      <trkpt lat="42.70649" lon="1.58718">
        <ele>2264</ele>
        <time>2014-09-21T10:48:06Z</time>
      </trkpt>
      <trkpt lat="42.70648" lon="1.58719">
        <ele>2264</ele>
        <time>2014-09-21T10:48:07Z</time>
      </trkpt>
      <trkpt lat="42.70647" lon="1.58721">
        <ele>2264.5</ele>
        <time>2014-09-21T10:48:08Z</time>
      </trkpt>
      <trkpt lat="42.70646" lon="1.58722">
        <ele>2264.5</ele>
        <time>2014-09-21T10:48:09Z</time>
      </trkpt>
      <trkpt lat="42.70645" lon="1.58724">
        <ele>2264.5</ele>
        <time>2014-09-21T10:48:10Z</time>
      </trkpt>
      <trkpt lat="42.70632" lon="1.58737">
        <ele>2266.5</ele>
        <time>2014-09-21T10:48:25Z</time>
      </trkpt>
      <trkpt lat="42.70631" lon="1.58739">
        <ele>2266.5</ele>
        <time>2014-09-21T10:48:29Z</time>
      </trkpt>
      <trkpt lat="42.7063" lon="1.58739">
        <ele>2266.5</ele>
        <time>2014-09-21T10:48:30Z</time>
      </trkpt>
      <trkpt lat="42.70629" lon="1.5874">
        <ele>2266.5</ele>
        <time>2014-09-21T10:48:31Z</time>
      </trkpt>
      <trkpt lat="42.70628" lon="1.58741">
        <ele>2266.5</ele>
        <time>2014-09-21T10:48:32Z</time>
      </trkpt>
      <trkpt lat="42.70626" lon="1.58741">
        <ele>2266.9</ele>
        <time>2014-09-21T10:48:33Z</time>
      </trkpt>
      <trkpt lat="42.70625" lon="1.58742">
        <ele>2266.9</ele>
        <time>2014-09-21T10:48:34Z</time>
      </trkpt>
      <trkpt lat="42.70624" lon="1.58743">
        <ele>2267.4</ele>
        <time>2014-09-21T10:48:35Z</time>
      </trkpt>
      <trkpt lat="42.7061" lon="1.58757">
        <ele>2269.3</ele>
        <time>2014-09-21T10:48:50Z</time>
      </trkpt>
      <trkpt lat="42.70597" lon="1.58777">
        <ele>2270.8</ele>
        <time>2014-09-21T10:49:07Z</time>
      </trkpt>
      <trkpt lat="42.70596" lon="1.58779">
        <ele>2270.8</ele>
        <time>2014-09-21T10:49:08Z</time>
      </trkpt>
      <trkpt lat="42.70595" lon="1.58779">
        <ele>2271.3</ele>
        <time>2014-09-21T10:49:09Z</time>
      </trkpt>
      <trkpt lat="42.70594" lon="1.5878">
        <ele>2271.3</ele>
        <time>2014-09-21T10:49:10Z</time>
      </trkpt>
      <trkpt lat="42.70588" lon="1.58789">
        <ele>2271.7</ele>
        <time>2014-09-21T10:49:23Z</time>
      </trkpt>
      <trkpt lat="42.70577" lon="1.58809">
        <ele>2272.2</ele>
        <time>2014-09-21T10:49:37Z</time>
      </trkpt>
      <trkpt lat="42.70564" lon="1.58836">
        <ele>2274.1</ele>
        <time>2014-09-21T10:49:53Z</time>
      </trkpt>
      <trkpt lat="42.70558" lon="1.58862">
        <ele>2275.6</ele>
        <time>2014-09-21T10:50:07Z</time>
      </trkpt>
      <trkpt lat="42.70556" lon="1.58866">
        <ele>2275.6</ele>
        <time>2014-09-21T10:50:10Z</time>
      </trkpt>
      <trkpt lat="42.70547" lon="1.58887">
        <ele>2276.5</ele>
        <time>2014-09-21T10:50:23Z</time>
      </trkpt>
      <trkpt lat="42.70545" lon="1.58893">
        <ele>2277</ele>
        <time>2014-09-21T10:50:33Z</time>
      </trkpt>
      <trkpt lat="42.70544" lon="1.58894">
        <ele>2277</ele>
        <time>2014-09-21T10:50:34Z</time>
      </trkpt>
      <trkpt lat="42.70544" lon="1.58896">
        <ele>2277</ele>
        <time>2014-09-21T10:50:35Z</time>
      </trkpt>
      <trkpt lat="42.70543" lon="1.58897">
        <ele>2277.5</ele>
        <time>2014-09-21T10:50:36Z</time>
      </trkpt>
      <trkpt lat="42.70542" lon="1.58898">
        <ele>2278</ele>
        <time>2014-09-21T10:50:37Z</time>
      </trkpt>
      <trkpt lat="42.70541" lon="1.58899">
        <ele>2278</ele>
        <time>2014-09-21T10:50:38Z</time>
      </trkpt>
      <trkpt lat="42.70537" lon="1.58911">
        <ele>2278.9</ele>
        <time>2014-09-21T10:50:47Z</time>
      </trkpt>
      <trkpt lat="42.7053" lon="1.58939">
        <ele>2279.9</ele>
        <time>2014-09-21T10:51:01Z</time>
      </trkpt>
      <trkpt lat="42.70528" lon="1.58942">
        <ele>2280.4</ele>
        <time>2014-09-21T10:51:04Z</time>
      </trkpt>
      <trkpt lat="42.70526" lon="1.58945">
        <ele>2280.9</ele>
        <time>2014-09-21T10:51:13Z</time>
      </trkpt>
      <trkpt lat="42.70519" lon="1.58963">
        <ele>2281.8</ele>
        <time>2014-09-21T10:51:23Z</time>
      </trkpt>
      <trkpt lat="42.70519" lon="1.58964">
        <ele>2281.8</ele>
        <time>2014-09-21T10:51:24Z</time>
      </trkpt>
      <trkpt lat="42.70514" lon="1.5897">
        <ele>2282.8</ele>
        <time>2014-09-21T10:51:35Z</time>
      </trkpt>
      <trkpt lat="42.70506" lon="1.58984">
        <ele>2283.8</ele>
        <time>2014-09-21T10:51:52Z</time>
      </trkpt>
      <trkpt lat="42.705" lon="1.59001">
        <ele>2284.7</ele>
        <time>2014-09-21T10:52:06Z</time>
      </trkpt>
      <trkpt lat="42.70499" lon="1.59006">
        <ele>2285.2</ele>
        <time>2014-09-21T10:52:14Z</time>
      </trkpt>
      <trkpt lat="42.70499" lon="1.59008">
        <ele>2285.2</ele>
        <time>2014-09-21T10:52:15Z</time>
      </trkpt>
      <trkpt lat="42.70498" lon="1.5901">
        <ele>2285.2</ele>
        <time>2014-09-21T10:52:16Z</time>
      </trkpt>
      <trkpt lat="42.70497" lon="1.59013">
        <ele>2285.2</ele>
        <time>2014-09-21T10:52:17Z</time>
      </trkpt>
      <trkpt lat="42.70496" lon="1.59015">
        <ele>2285.2</ele>
        <time>2014-09-21T10:52:18Z</time>
      </trkpt>
      <trkpt lat="42.70496" lon="1.59017">
        <ele>2285.2</ele>
        <time>2014-09-21T10:52:19Z</time>
      </trkpt>
      <trkpt lat="42.70491" lon="1.59031">
        <ele>2286.6</ele>
        <time>2014-09-21T10:52:33Z</time>
      </trkpt>
      <trkpt lat="42.7049" lon="1.59033">
        <ele>2286.6</ele>
        <time>2014-09-21T10:52:38Z</time>
      </trkpt>
      <trkpt lat="42.70489" lon="1.59035">
        <ele>2286.6</ele>
        <time>2014-09-21T10:52:39Z</time>
      </trkpt>
      <trkpt lat="42.70488" lon="1.59038">
        <ele>2287.1</ele>
        <time>2014-09-21T10:52:40Z</time>
      </trkpt>
      <trkpt lat="42.70487" lon="1.5904">
        <ele>2287.1</ele>
        <time>2014-09-21T10:52:41Z</time>
      </trkpt>
      <trkpt lat="42.70486" lon="1.59041">
        <ele>2287.1</ele>
        <time>2014-09-21T10:52:42Z</time>
      </trkpt>
      <trkpt lat="42.70479" lon="1.5906">
        <ele>2288.6</ele>
        <time>2014-09-21T10:52:54Z</time>
      </trkpt>
      <trkpt lat="42.7047" lon="1.59082">
        <ele>2289</ele>
        <time>2014-09-21T10:53:08Z</time>
      </trkpt>
      <trkpt lat="42.70463" lon="1.59098">
        <ele>2291</ele>
        <time>2014-09-21T10:53:21Z</time>
      </trkpt>
      <trkpt lat="42.70463" lon="1.59099">
        <ele>2291</ele>
        <time>2014-09-21T10:53:24Z</time>
      </trkpt>
      <trkpt lat="42.70459" lon="1.59107">
        <ele>2291.4</ele>
        <time>2014-09-21T10:53:38Z</time>
      </trkpt>
      <trkpt lat="42.70455" lon="1.59124">
        <ele>2292.4</ele>
        <time>2014-09-21T10:53:51Z</time>
      </trkpt>
      <trkpt lat="42.7045" lon="1.59142">
        <ele>2293.4</ele>
        <time>2014-09-21T10:54:07Z</time>
      </trkpt>
      <trkpt lat="42.70443" lon="1.59164">
        <ele>2295.3</ele>
        <time>2014-09-21T10:54:21Z</time>
      </trkpt>
      <trkpt lat="42.70443" lon="1.5917">
        <ele>2295.8</ele>
        <time>2014-09-21T10:54:24Z</time>
      </trkpt>
      <trkpt lat="42.70439" lon="1.59181">
        <ele>2295.8</ele>
        <time>2014-09-21T10:54:30Z</time>
      </trkpt>
      <trkpt lat="42.70439" lon="1.59183">
        <ele>2296.3</ele>
        <time>2014-09-21T10:54:31Z</time>
      </trkpt>
      <trkpt lat="42.70438" lon="1.59185">
        <ele>2296.3</ele>
        <time>2014-09-21T10:54:32Z</time>
      </trkpt>
      <trkpt lat="42.70438" lon="1.59187">
        <ele>2296.3</ele>
        <time>2014-09-21T10:54:33Z</time>
      </trkpt>
      <trkpt lat="42.70438" lon="1.59189">
        <ele>2296.3</ele>
        <time>2014-09-21T10:54:34Z</time>
      </trkpt>
      <trkpt lat="42.70437" lon="1.5919">
        <ele>2296.7</ele>
        <time>2014-09-21T10:54:35Z</time>
      </trkpt>
      <trkpt lat="42.70437" lon="1.59192">
        <ele>2296.7</ele>
        <time>2014-09-21T10:54:36Z</time>
      </trkpt>
      <trkpt lat="42.70436" lon="1.59194">
        <ele>2296.7</ele>
        <time>2014-09-21T10:54:37Z</time>
      </trkpt>
      <trkpt lat="42.70435" lon="1.59196">
        <ele>2296.7</ele>
        <time>2014-09-21T10:54:38Z</time>
      </trkpt>
      <trkpt lat="42.70434" lon="1.59198">
        <ele>2296.7</ele>
        <time>2014-09-21T10:54:39Z</time>
      </trkpt>
      <trkpt lat="42.70434" lon="1.59199">
        <ele>2296.7</ele>
        <time>2014-09-21T10:54:40Z</time>
      </trkpt>
      <trkpt lat="42.70433" lon="1.59201">
        <ele>2297.2</ele>
        <time>2014-09-21T10:54:41Z</time>
      </trkpt>
      <trkpt lat="42.70433" lon="1.59203">
        <ele>2297.2</ele>
        <time>2014-09-21T10:54:42Z</time>
      </trkpt>
      <trkpt lat="42.70432" lon="1.59204">
        <ele>2297.2</ele>
        <time>2014-09-21T10:54:43Z</time>
      </trkpt>
      <trkpt lat="42.70429" lon="1.59213">
        <ele>2298.2</ele>
        <time>2014-09-21T10:54:49Z</time>
      </trkpt>
      <trkpt lat="42.70428" lon="1.59214">
        <ele>2298.2</ele>
        <time>2014-09-21T10:54:50Z</time>
      </trkpt>
      <trkpt lat="42.7042" lon="1.59238">
        <ele>2299.6</ele>
        <time>2014-09-21T10:55:06Z</time>
      </trkpt>
      <trkpt lat="42.70419" lon="1.59244">
        <ele>2300.6</ele>
        <time>2014-09-21T10:55:17Z</time>
      </trkpt>
      <trkpt lat="42.70413" lon="1.59257">
        <ele>2301.5</ele>
        <time>2014-09-21T10:55:33Z</time>
      </trkpt>
      <trkpt lat="42.70411" lon="1.59258">
        <ele>2302</ele>
        <time>2014-09-21T10:55:51Z</time>
      </trkpt>
      <trkpt lat="42.70409" lon="1.5927">
        <ele>2302.5</ele>
        <time>2014-09-21T10:56:07Z</time>
      </trkpt>
      <trkpt lat="42.70409" lon="1.59271">
        <ele>2302.5</ele>
        <time>2014-09-21T10:56:09Z</time>
      </trkpt>
      <trkpt lat="42.70409" lon="1.59272">
        <ele>2302.5</ele>
        <time>2014-09-21T10:56:10Z</time>
      </trkpt>
      <trkpt lat="42.70408" lon="1.59274">
        <ele>2302.5</ele>
        <time>2014-09-21T10:56:11Z</time>
      </trkpt>
      <trkpt lat="42.70407" lon="1.59275">
        <ele>2302.5</ele>
        <time>2014-09-21T10:56:12Z</time>
      </trkpt>
      <trkpt lat="42.70406" lon="1.59277">
        <ele>2302.5</ele>
        <time>2014-09-21T10:56:13Z</time>
      </trkpt>
      <trkpt lat="42.70405" lon="1.59279">
        <ele>2303</ele>
        <time>2014-09-21T10:56:14Z</time>
      </trkpt>
      <trkpt lat="42.70392" lon="1.59316">
        <ele>2304.4</ele>
        <time>2014-09-21T10:56:32Z</time>
      </trkpt>
      <trkpt lat="42.70387" lon="1.59333">
        <ele>2306.3</ele>
        <time>2014-09-21T10:56:47Z</time>
      </trkpt>
      <trkpt lat="42.70383" lon="1.59344">
        <ele>2308.3</ele>
        <time>2014-09-21T10:57:01Z</time>
      </trkpt>
      <trkpt lat="42.70374" lon="1.59357">
        <ele>2309.7</ele>
        <time>2014-09-21T10:57:19Z</time>
      </trkpt>
      <trkpt lat="42.70372" lon="1.59361">
        <ele>2310.2</ele>
        <time>2014-09-21T10:57:28Z</time>
      </trkpt>
      <trkpt lat="42.70371" lon="1.59365">
        <ele>2310.2</ele>
        <time>2014-09-21T10:57:31Z</time>
      </trkpt>
      <trkpt lat="42.7037" lon="1.59367">
        <ele>2310.7</ele>
        <time>2014-09-21T10:57:32Z</time>
      </trkpt>
      <trkpt lat="42.70364" lon="1.59383">
        <ele>2311.6</ele>
        <time>2014-09-21T10:57:44Z</time>
      </trkpt>
      <trkpt lat="42.70363" lon="1.59385">
        <ele>2311.6</ele>
        <time>2014-09-21T10:57:45Z</time>
      </trkpt>
      <trkpt lat="42.7036" lon="1.59396">
        <ele>2313.1</ele>
        <time>2014-09-21T10:57:54Z</time>
      </trkpt>
      <trkpt lat="42.70358" lon="1.59405">
        <ele>2314.5</ele>
        <time>2014-09-21T10:58:05Z</time>
      </trkpt>
      <trkpt lat="42.70356" lon="1.59423">
        <ele>2316</ele>
        <time>2014-09-21T10:58:22Z</time>
      </trkpt>
      <trkpt lat="42.70355" lon="1.59428">
        <ele>2316.9</ele>
        <time>2014-09-21T10:58:38Z</time>
      </trkpt>
      <trkpt lat="42.70352" lon="1.59446">
        <ele>2317.9</ele>
        <time>2014-09-21T10:58:51Z</time>
      </trkpt>
      <trkpt lat="42.70349" lon="1.59459">
        <ele>2318.8</ele>
        <time>2014-09-21T10:59:04Z</time>
      </trkpt>
      <trkpt lat="42.70348" lon="1.59469">
        <ele>2319.8</ele>
        <time>2014-09-21T10:59:14Z</time>
      </trkpt>
      <trkpt lat="42.70345" lon="1.59476">
        <ele>2320.3</ele>
        <time>2014-09-21T10:59:19Z</time>
      </trkpt>
      <trkpt lat="42.70345" lon="1.59479">
        <ele>2320.8</ele>
        <time>2014-09-21T10:59:21Z</time>
      </trkpt>
      <trkpt lat="42.70339" lon="1.59497">
        <ele>2321.7</ele>
        <time>2014-09-21T10:59:33Z</time>
      </trkpt>
      <trkpt lat="42.70331" lon="1.59519">
        <ele>2323.2</ele>
        <time>2014-09-21T10:59:48Z</time>
      </trkpt>
      <trkpt lat="42.7032" lon="1.59538">
        <ele>2324.1</ele>
        <time>2014-09-21T11:00:03Z</time>
      </trkpt>
      <trkpt lat="42.70305" lon="1.59554">
        <ele>2325.1</ele>
        <time>2014-09-21T11:00:19Z</time>
      </trkpt>
      <trkpt lat="42.70294" lon="1.59564">
        <ele>2325.6</ele>
        <time>2014-09-21T11:00:30Z</time>
      </trkpt>
      <trkpt lat="42.70293" lon="1.59565">
        <ele>2325.6</ele>
        <time>2014-09-21T11:00:31Z</time>
      </trkpt>
      <trkpt lat="42.70273" lon="1.59577">
        <ele>2326.5</ele>
        <time>2014-09-21T11:00:47Z</time>
      </trkpt>
      <trkpt lat="42.70255" lon="1.59587">
        <ele>2327</ele>
        <time>2014-09-21T11:01:00Z</time>
      </trkpt>
      <trkpt lat="42.70244" lon="1.59595">
        <ele>2327</ele>
        <time>2014-09-21T11:01:09Z</time>
      </trkpt>
      <trkpt lat="42.70224" lon="1.59603">
        <ele>2327.5</ele>
        <time>2014-09-21T11:01:22Z</time>
      </trkpt>
      <trkpt lat="42.70222" lon="1.59603">
        <ele>2327.5</ele>
        <time>2014-09-21T11:01:23Z</time>
      </trkpt>
      <trkpt lat="42.70221" lon="1.59603">
        <ele>2327.5</ele>
        <time>2014-09-21T11:01:24Z</time>
      </trkpt>
      <trkpt lat="42.70219" lon="1.59604">
        <ele>2327.5</ele>
        <time>2014-09-21T11:01:25Z</time>
      </trkpt>
      <trkpt lat="42.70218" lon="1.59604">
        <ele>2327.5</ele>
        <time>2014-09-21T11:01:26Z</time>
      </trkpt>
      <trkpt lat="42.70216" lon="1.59605">
        <ele>2328</ele>
        <time>2014-09-21T11:01:27Z</time>
      </trkpt>
      <trkpt lat="42.70215" lon="1.59605">
        <ele>2328</ele>
        <time>2014-09-21T11:01:28Z</time>
      </trkpt>
      <trkpt lat="42.70213" lon="1.59605">
        <ele>2328</ele>
        <time>2014-09-21T11:01:29Z</time>
      </trkpt>
      <trkpt lat="42.70211" lon="1.59605">
        <ele>2328</ele>
        <time>2014-09-21T11:01:30Z</time>
      </trkpt>
      <trkpt lat="42.7021" lon="1.59605">
        <ele>2328</ele>
        <time>2014-09-21T11:01:31Z</time>
      </trkpt>
      <trkpt lat="42.70208" lon="1.59606">
        <ele>2328</ele>
        <time>2014-09-21T11:01:32Z</time>
      </trkpt>
      <trkpt lat="42.70207" lon="1.59606">
        <ele>2328</ele>
        <time>2014-09-21T11:01:33Z</time>
      </trkpt>
      <trkpt lat="42.70206" lon="1.59606">
        <ele>2328</ele>
        <time>2014-09-21T11:01:34Z</time>
      </trkpt>
      <trkpt lat="42.70205" lon="1.59607">
        <ele>2328</ele>
        <time>2014-09-21T11:01:35Z</time>
      </trkpt>
      <trkpt lat="42.70201" lon="1.59608">
        <ele>2328.5</ele>
        <time>2014-09-21T11:01:47Z</time>
      </trkpt>
      <trkpt lat="42.70189" lon="1.59611">
        <ele>2328.5</ele>
        <time>2014-09-21T11:02:11Z</time>
      </trkpt>
      <trkpt lat="42.70164" lon="1.59622">
        <ele>2328.5</ele>
        <time>2014-09-21T11:02:23Z</time>
      </trkpt>
      <trkpt lat="42.70136" lon="1.59631">
        <ele>2327</ele>
        <time>2014-09-21T11:02:35Z</time>
      </trkpt>
      <trkpt lat="42.70117" lon="1.59631">
        <ele>2327</ele>
        <time>2014-09-21T11:02:45Z</time>
      </trkpt>
      <trkpt lat="42.7009" lon="1.59637">
        <ele>2326.5</ele>
        <time>2014-09-21T11:02:58Z</time>
      </trkpt>
      <trkpt lat="42.70068" lon="1.59642">
        <ele>2326.5</ele>
        <time>2014-09-21T11:03:09Z</time>
      </trkpt>
      <trkpt lat="42.70045" lon="1.59653">
        <ele>2326.5</ele>
        <time>2014-09-21T11:03:22Z</time>
      </trkpt>
      <trkpt lat="42.70025" lon="1.5966">
        <ele>2326.5</ele>
        <time>2014-09-21T11:03:34Z</time>
      </trkpt>
      <trkpt lat="42.70003" lon="1.5966">
        <ele>2326.5</ele>
        <time>2014-09-21T11:03:46Z</time>
      </trkpt>
      <trkpt lat="42.69992" lon="1.59657">
        <ele>2326.5</ele>
        <time>2014-09-21T11:03:54Z</time>
      </trkpt>
      <trkpt lat="42.6999" lon="1.59656">
        <ele>2326.5</ele>
        <time>2014-09-21T11:03:55Z</time>
      </trkpt>
      <trkpt lat="42.69989" lon="1.59656">
        <ele>2326.5</ele>
        <time>2014-09-21T11:03:56Z</time>
      </trkpt>
      <trkpt lat="42.69987" lon="1.59655">
        <ele>2326.5</ele>
        <time>2014-09-21T11:03:57Z</time>
      </trkpt>
      <trkpt lat="42.69985" lon="1.59655">
        <ele>2326.5</ele>
        <time>2014-09-21T11:03:58Z</time>
      </trkpt>
      <trkpt lat="42.69983" lon="1.59654">
        <ele>2326.5</ele>
        <time>2014-09-21T11:03:59Z</time>
      </trkpt>
      <trkpt lat="42.69961" lon="1.5964">
        <ele>2326.5</ele>
        <time>2014-09-21T11:04:13Z</time>
      </trkpt>
      <trkpt lat="42.69944" lon="1.59626">
        <ele>2326.5</ele>
        <time>2014-09-21T11:04:24Z</time>
      </trkpt>
      <trkpt lat="42.69933" lon="1.59612">
        <ele>2325.6</ele>
        <time>2014-09-21T11:04:36Z</time>
      </trkpt>
      <trkpt lat="42.69927" lon="1.59606">
        <ele>2325.1</ele>
        <time>2014-09-21T11:04:58Z</time>
      </trkpt>
      <trkpt lat="42.69927" lon="1.59605">
        <ele>2325.1</ele>
        <time>2014-09-21T11:04:59Z</time>
      </trkpt>
      <trkpt lat="42.69919" lon="1.59594">
        <ele>2323.6</ele>
        <time>2014-09-21T11:05:09Z</time>
      </trkpt>
      <trkpt lat="42.69914" lon="1.5959">
        <ele>2322.7</ele>
        <time>2014-09-21T11:05:20Z</time>
      </trkpt>
      <trkpt lat="42.69907" lon="1.59584">
        <ele>2321.7</ele>
        <time>2014-09-21T11:05:30Z</time>
      </trkpt>
      <trkpt lat="42.69904" lon="1.59583">
        <ele>2320.3</ele>
        <time>2014-09-21T11:05:33Z</time>
      </trkpt>
      <trkpt lat="42.69903" lon="1.59582">
        <ele>2320.3</ele>
        <time>2014-09-21T11:05:34Z</time>
      </trkpt>
      <trkpt lat="42.69894" lon="1.59568">
        <ele>2319.3</ele>
        <time>2014-09-21T11:05:45Z</time>
      </trkpt>
      <trkpt lat="42.69893" lon="1.59567">
        <ele>2319.3</ele>
        <time>2014-09-21T11:05:46Z</time>
      </trkpt>
      <trkpt lat="42.69892" lon="1.59567">
        <ele>2319.3</ele>
        <time>2014-09-21T11:05:47Z</time>
      </trkpt>
      <trkpt lat="42.6989" lon="1.59565">
        <ele>2318.8</ele>
        <time>2014-09-21T11:05:48Z</time>
      </trkpt>
      <trkpt lat="42.69888" lon="1.59563">
        <ele>2318.8</ele>
        <time>2014-09-21T11:05:49Z</time>
      </trkpt>
      <trkpt lat="42.69886" lon="1.59562">
        <ele>2318.8</ele>
        <time>2014-09-21T11:05:50Z</time>
      </trkpt>
      <trkpt lat="42.69884" lon="1.5956">
        <ele>2318.4</ele>
        <time>2014-09-21T11:05:51Z</time>
      </trkpt>
      <trkpt lat="42.69882" lon="1.59559">
        <ele>2317.4</ele>
        <time>2014-09-21T11:05:52Z</time>
      </trkpt>
      <trkpt lat="42.69881" lon="1.59557">
        <ele>2317.4</ele>
        <time>2014-09-21T11:05:53Z</time>
      </trkpt>
      <trkpt lat="42.69878" lon="1.59554">
        <ele>2316.9</ele>
        <time>2014-09-21T11:06:02Z</time>
      </trkpt>
      <trkpt lat="42.69876" lon="1.59552">
        <ele>2316</ele>
        <time>2014-09-21T11:06:06Z</time>
      </trkpt>
      <trkpt lat="42.69874" lon="1.5955">
        <ele>2315.5</ele>
        <time>2014-09-21T11:06:07Z</time>
      </trkpt>
      <trkpt lat="42.69873" lon="1.59549">
        <ele>2315.5</ele>
        <time>2014-09-21T11:06:08Z</time>
      </trkpt>
      <trkpt lat="42.69871" lon="1.59548">
        <ele>2315.5</ele>
        <time>2014-09-21T11:06:09Z</time>
      </trkpt>
      <trkpt lat="42.69869" lon="1.59548">
        <ele>2315</ele>
        <time>2014-09-21T11:06:10Z</time>
      </trkpt>
      <trkpt lat="42.69867" lon="1.59547">
        <ele>2314</ele>
        <time>2014-09-21T11:06:11Z</time>
      </trkpt>
      <trkpt lat="42.69865" lon="1.59545">
        <ele>2313.6</ele>
        <time>2014-09-21T11:06:12Z</time>
      </trkpt>
      <trkpt lat="42.69863" lon="1.59543">
        <ele>2313.1</ele>
        <time>2014-09-21T11:06:13Z</time>
      </trkpt>
      <trkpt lat="42.69863" lon="1.59541">
        <ele>2313.1</ele>
        <time>2014-09-21T11:06:14Z</time>
      </trkpt>
      <trkpt lat="42.69863" lon="1.59539">
        <ele>2313.1</ele>
        <time>2014-09-21T11:06:15Z</time>
      </trkpt>
      <trkpt lat="42.69862" lon="1.59537">
        <ele>2314.5</ele>
        <time>2014-09-21T11:06:16Z</time>
      </trkpt>
      <trkpt lat="42.69862" lon="1.59535">
        <ele>2314.5</ele>
        <time>2014-09-21T11:06:17Z</time>
      </trkpt>
      <trkpt lat="42.69862" lon="1.59534">
        <ele>2314.5</ele>
        <time>2014-09-21T11:06:18Z</time>
      </trkpt>
      <trkpt lat="42.69857" lon="1.59532">
        <ele>2313.1</ele>
        <time>2014-09-21T11:06:28Z</time>
      </trkpt>
      <trkpt lat="42.6985" lon="1.59528">
        <ele>2310.7</ele>
        <time>2014-09-21T11:06:38Z</time>
      </trkpt>
      <trkpt lat="42.69849" lon="1.59528">
        <ele>2310.2</ele>
        <time>2014-09-21T11:06:39Z</time>
      </trkpt>
      <trkpt lat="42.69848" lon="1.59527">
        <ele>2310.2</ele>
        <time>2014-09-21T11:06:40Z</time>
      </trkpt>
      <trkpt lat="42.69846" lon="1.59526">
        <ele>2309.7</ele>
        <time>2014-09-21T11:06:41Z</time>
      </trkpt>
      <trkpt lat="42.69843" lon="1.59524">
        <ele>2309.7</ele>
        <time>2014-09-21T11:06:42Z</time>
      </trkpt>
      <trkpt lat="42.69834" lon="1.59517">
        <ele>2308.3</ele>
        <time>2014-09-21T11:06:46Z</time>
      </trkpt>
      <trkpt lat="42.6983" lon="1.59515">
        <ele>2307.8</ele>
        <time>2014-09-21T11:06:48Z</time>
      </trkpt>
      <trkpt lat="42.69824" lon="1.59506">
        <ele>2306.3</ele>
        <time>2014-09-21T11:06:52Z</time>
      </trkpt>
      <trkpt lat="42.69822" lon="1.59502">
        <ele>2305.9</ele>
        <time>2014-09-21T11:06:53Z</time>
      </trkpt>
      <trkpt lat="42.6982" lon="1.59499">
        <ele>2305.4</ele>
        <time>2014-09-21T11:06:54Z</time>
      </trkpt>
      <trkpt lat="42.69818" lon="1.59496">
        <ele>2304.9</ele>
        <time>2014-09-21T11:06:55Z</time>
      </trkpt>
      <trkpt lat="42.69815" lon="1.59494">
        <ele>2304.9</ele>
        <time>2014-09-21T11:06:56Z</time>
      </trkpt>
      <trkpt lat="42.69812" lon="1.59493">
        <ele>2303.9</ele>
        <time>2014-09-21T11:06:57Z</time>
      </trkpt>
      <trkpt lat="42.6981" lon="1.59491">
        <ele>2303.9</ele>
        <time>2014-09-21T11:06:58Z</time>
      </trkpt>
      <trkpt lat="42.69808" lon="1.59489">
        <ele>2303.9</ele>
        <time>2014-09-21T11:06:59Z</time>
      </trkpt>
      <trkpt lat="42.69806" lon="1.59487">
        <ele>2303.9</ele>
        <time>2014-09-21T11:07:00Z</time>
      </trkpt>
      <trkpt lat="42.69805" lon="1.59485">
        <ele>2303.9</ele>
        <time>2014-09-21T11:07:01Z</time>
      </trkpt>
      <trkpt lat="42.69804" lon="1.59484">
        <ele>2303.9</ele>
        <time>2014-09-21T11:07:02Z</time>
      </trkpt>
      <trkpt lat="42.69798" lon="1.59478">
        <ele>2304.4</ele>
        <time>2014-09-21T11:07:07Z</time>
      </trkpt>
      <trkpt lat="42.69797" lon="1.59477">
        <ele>2304.4</ele>
        <time>2014-09-21T11:07:08Z</time>
      </trkpt>
      <trkpt lat="42.69796" lon="1.59476">
        <ele>2304.4</ele>
        <time>2014-09-21T11:07:09Z</time>
      </trkpt>
      <trkpt lat="42.6979" lon="1.59474">
        <ele>2304.4</ele>
        <time>2014-09-21T11:07:19Z</time>
      </trkpt>
      <trkpt lat="42.69786" lon="1.59473">
        <ele>2303.9</ele>
        <time>2014-09-21T11:07:25Z</time>
      </trkpt>
      <trkpt lat="42.69784" lon="1.59474">
        <ele>2303.9</ele>
        <time>2014-09-21T11:07:26Z</time>
      </trkpt>
      <trkpt lat="42.69761" lon="1.59465">
        <ele>2300.6</ele>
        <time>2014-09-21T11:07:36Z</time>
      </trkpt>
      <trkpt lat="42.69757" lon="1.59461">
        <ele>2300.6</ele>
        <time>2014-09-21T11:07:40Z</time>
      </trkpt>
      <trkpt lat="42.69756" lon="1.5946">
        <ele>2300.6</ele>
        <time>2014-09-21T11:07:41Z</time>
      </trkpt>
      <trkpt lat="42.69755" lon="1.59459">
        <ele>2300.6</ele>
        <time>2014-09-21T11:07:42Z</time>
      </trkpt>
      <trkpt lat="42.69755" lon="1.59456">
        <ele>2300.6</ele>
        <time>2014-09-21T11:07:43Z</time>
      </trkpt>
      <trkpt lat="42.69755" lon="1.59454">
        <ele>2300.6</ele>
        <time>2014-09-21T11:07:44Z</time>
      </trkpt>
      <trkpt lat="42.69755" lon="1.59452">
        <ele>2300.6</ele>
        <time>2014-09-21T11:07:45Z</time>
      </trkpt>
      <trkpt lat="42.69755" lon="1.59451">
        <ele>2300.6</ele>
        <time>2014-09-21T11:07:46Z</time>
      </trkpt>
      <trkpt lat="42.69754" lon="1.5945">
        <ele>2300.1</ele>
        <time>2014-09-21T11:07:47Z</time>
      </trkpt>
      <trkpt lat="42.69753" lon="1.59448">
        <ele>2300.6</ele>
        <time>2014-09-21T11:07:48Z</time>
      </trkpt>
      <trkpt lat="42.69749" lon="1.59447">
        <ele>2300.6</ele>
        <time>2014-09-21T11:07:59Z</time>
      </trkpt>
      <trkpt lat="42.69748" lon="1.59448">
        <ele>2299.6</ele>
        <time>2014-09-21T11:08:00Z</time>
      </trkpt>
      <trkpt lat="42.69743" lon="1.59449">
        <ele>2298.2</ele>
        <time>2014-09-21T11:08:03Z</time>
      </trkpt>
      <trkpt lat="42.6974" lon="1.59448">
        <ele>2296.7</ele>
        <time>2014-09-21T11:08:07Z</time>
      </trkpt>
      <trkpt lat="42.69739" lon="1.59449">
        <ele>2296.3</ele>
        <time>2014-09-21T11:08:08Z</time>
      </trkpt>
      <trkpt lat="42.69737" lon="1.59449">
        <ele>2296.3</ele>
        <time>2014-09-21T11:08:09Z</time>
      </trkpt>
      <trkpt lat="42.69736" lon="1.59449">
        <ele>2295.3</ele>
        <time>2014-09-21T11:08:10Z</time>
      </trkpt>
      <trkpt lat="42.69734" lon="1.59448">
        <ele>2294.8</ele>
        <time>2014-09-21T11:08:11Z</time>
      </trkpt>
      <trkpt lat="42.69733" lon="1.59447">
        <ele>2294.3</ele>
        <time>2014-09-21T11:08:12Z</time>
      </trkpt>
      <trkpt lat="42.6972" lon="1.59444">
        <ele>2291.4</ele>
        <time>2014-09-21T11:08:19Z</time>
      </trkpt>
      <trkpt lat="42.69715" lon="1.59444">
        <ele>2290.5</ele>
        <time>2014-09-21T11:08:21Z</time>
      </trkpt>
      <trkpt lat="42.69694" lon="1.59446">
        <ele>2287.1</ele>
        <time>2014-09-21T11:08:31Z</time>
      </trkpt>
      <trkpt lat="42.69668" lon="1.59451">
        <ele>2283.3</ele>
        <time>2014-09-21T11:08:40Z</time>
      </trkpt>
      <trkpt lat="42.69662" lon="1.59452">
        <ele>2282.3</ele>
        <time>2014-09-21T11:08:42Z</time>
      </trkpt>
      <trkpt lat="42.69644" lon="1.59453">
        <ele>2280.4</ele>
        <time>2014-09-21T11:08:48Z</time>
      </trkpt>
      <trkpt lat="42.6963" lon="1.59456">
        <ele>2278</ele>
        <time>2014-09-21T11:08:54Z</time>
      </trkpt>
      <trkpt lat="42.69621" lon="1.59458">
        <ele>2277</ele>
        <time>2014-09-21T11:08:57Z</time>
      </trkpt>
      <trkpt lat="42.69612" lon="1.59462">
        <ele>2275.6</ele>
        <time>2014-09-21T11:09:01Z</time>
      </trkpt>
      <trkpt lat="42.69595" lon="1.59464">
        <ele>2273.2</ele>
        <time>2014-09-21T11:09:12Z</time>
      </trkpt>
      <trkpt lat="42.69596" lon="1.59466">
        <ele>2273.2</ele>
        <time>2014-09-21T11:09:20Z</time>
      </trkpt>
      <trkpt lat="42.69589" lon="1.59469">
        <ele>2271.7</ele>
        <time>2014-09-21T11:09:26Z</time>
      </trkpt>
      <trkpt lat="42.69577" lon="1.59474">
        <ele>2268.4</ele>
        <time>2014-09-21T11:09:32Z</time>
      </trkpt>
      <trkpt lat="42.69575" lon="1.59475">
        <ele>2268.4</ele>
        <time>2014-09-21T11:09:33Z</time>
      </trkpt>
      <trkpt lat="42.69561" lon="1.5948">
        <ele>2264.5</ele>
        <time>2014-09-21T11:09:40Z</time>
      </trkpt>
      <trkpt lat="42.69534" lon="1.59482">
        <ele>2260.7</ele>
        <time>2014-09-21T11:09:48Z</time>
      </trkpt>
      <trkpt lat="42.69504" lon="1.59487">
        <ele>2257.3</ele>
        <time>2014-09-21T11:09:59Z</time>
      </trkpt>
      <trkpt lat="42.6948" lon="1.59493">
        <ele>2254.4</ele>
        <time>2014-09-21T11:10:10Z</time>
      </trkpt>
      <trkpt lat="42.6948" lon="1.59492">
        <ele>2254.4</ele>
        <time>2014-09-21T11:10:26Z</time>
      </trkpt>
      <trkpt lat="42.69462" lon="1.59506">
        <ele>2251.1</ele>
        <time>2014-09-21T11:10:36Z</time>
      </trkpt>
      <trkpt lat="42.69454" lon="1.59513">
        <ele>2248.2</ele>
        <time>2014-09-21T11:10:41Z</time>
      </trkpt>
      <trkpt lat="42.69441" lon="1.59513">
        <ele>2243.9</ele>
        <time>2014-09-21T11:10:48Z</time>
      </trkpt>
      <trkpt lat="42.6943" lon="1.59514">
        <ele>2241</ele>
        <time>2014-09-21T11:10:53Z</time>
      </trkpt>
      <trkpt lat="42.69415" lon="1.59527">
        <ele>2237.6</ele>
        <time>2014-09-21T11:11:00Z</time>
      </trkpt>
      <trkpt lat="42.69396" lon="1.59548">
        <ele>2234.2</ele>
        <time>2014-09-21T11:11:09Z</time>
      </trkpt>
      <trkpt lat="42.69372" lon="1.59577">
        <ele>2230.9</ele>
        <time>2014-09-21T11:11:23Z</time>
      </trkpt>
      <trkpt lat="42.69359" lon="1.59595">
        <ele>2230.4</ele>
        <time>2014-09-21T11:11:34Z</time>
      </trkpt>
      <trkpt lat="42.69355" lon="1.59621">
        <ele>2229.4</ele>
        <time>2014-09-21T11:11:47Z</time>
      </trkpt>
      <trkpt lat="42.69354" lon="1.59647">
        <ele>2229.4</ele>
        <time>2014-09-21T11:11:58Z</time>
      </trkpt>
      <trkpt lat="42.69344" lon="1.59672">
        <ele>2229.4</ele>
        <time>2014-09-21T11:12:12Z</time>
      </trkpt>
      <trkpt lat="42.69343" lon="1.59673">
        <ele>2229.4</ele>
        <time>2014-09-21T11:12:13Z</time>
      </trkpt>
      <trkpt lat="42.69336" lon="1.59671">
        <ele>2229.4</ele>
        <time>2014-09-21T11:12:26Z</time>
      </trkpt>
      <trkpt lat="42.69336" lon="1.59673">
        <ele>2229.4</ele>
        <time>2014-09-21T11:12:48Z</time>
      </trkpt>
      <trkpt lat="42.69319" lon="1.59682">
        <ele>2230.9</ele>
        <time>2014-09-21T11:13:06Z</time>
      </trkpt>
      <trkpt lat="42.69301" lon="1.59688">
        <ele>2232.8</ele>
        <time>2014-09-21T11:13:26Z</time>
      </trkpt>
      <trkpt lat="42.69301" lon="1.59687">
        <ele>2233.3</ele>
        <time>2014-09-21T11:13:43Z</time>
      </trkpt>
      <trkpt lat="42.69297" lon="1.59689">
        <ele>2233.3</ele>
        <time>2014-09-21T11:14:14Z</time>
      </trkpt>
      <trkpt lat="42.69283" lon="1.59696">
        <ele>2234.7</ele>
        <time>2014-09-21T11:14:29Z</time>
      </trkpt>
      <trkpt lat="42.69271" lon="1.59702">
        <ele>2236.2</ele>
        <time>2014-09-21T11:14:43Z</time>
      </trkpt>
      <trkpt lat="42.69259" lon="1.59706">
        <ele>2237.6</ele>
        <time>2014-09-21T11:14:58Z</time>
      </trkpt>
      <trkpt lat="42.69258" lon="1.59709">
        <ele>2238.6</ele>
        <time>2014-09-21T11:15:17Z</time>
      </trkpt>
      <trkpt lat="42.69254" lon="1.59714">
        <ele>2239.5</ele>
        <time>2014-09-21T11:15:30Z</time>
      </trkpt>
      <trkpt lat="42.69251" lon="1.59716">
        <ele>2239.5</ele>
        <time>2014-09-21T11:15:33Z</time>
      </trkpt>
      <trkpt lat="42.69246" lon="1.59718">
        <ele>2240</ele>
        <time>2014-09-21T11:15:38Z</time>
      </trkpt>
      <trkpt lat="42.69235" lon="1.59723">
        <ele>2243.4</ele>
        <time>2014-09-21T11:15:55Z</time>
      </trkpt>
      <trkpt lat="42.6923" lon="1.59728">
        <ele>2244.3</ele>
        <time>2014-09-21T11:16:02Z</time>
      </trkpt>
      <trkpt lat="42.69226" lon="1.59733">
        <ele>2245.8</ele>
        <time>2014-09-21T11:16:10Z</time>
      </trkpt>
      <trkpt lat="42.69228" lon="1.5973">
        <ele>2244.8</ele>
        <time>2014-09-21T11:16:30Z</time>
      </trkpt>
      <trkpt lat="42.69237" lon="1.5973">
        <ele>2243.4</ele>
        <time>2014-09-21T11:16:38Z</time>
      </trkpt>
      <trkpt lat="42.69242" lon="1.59724">
        <ele>2242.4</ele>
        <time>2014-09-21T11:16:42Z</time>
      </trkpt>
      <trkpt lat="42.69248" lon="1.59722">
        <ele>2240.5</ele>
        <time>2014-09-21T11:16:50Z</time>
      </trkpt>
      <trkpt lat="42.69255" lon="1.59713">
        <ele>2239.1</ele>
        <time>2014-09-21T11:16:59Z</time>
      </trkpt>
      <trkpt lat="42.69259" lon="1.59707">
        <ele>2239.1</ele>
        <time>2014-09-21T11:17:09Z</time>
      </trkpt>
      <trkpt lat="42.69258" lon="1.59707">
        <ele>2239.1</ele>
        <time>2014-09-21T11:17:28Z</time>
      </trkpt>
      <trkpt lat="42.69255" lon="1.59714">
        <ele>2239.1</ele>
        <time>2014-09-21T11:17:47Z</time>
      </trkpt>
      <trkpt lat="42.69243" lon="1.59718">
        <ele>2241.5</ele>
        <time>2014-09-21T11:18:02Z</time>
      </trkpt>
      <trkpt lat="42.6923" lon="1.59719">
        <ele>2243.9</ele>
        <time>2014-09-21T11:18:18Z</time>
      </trkpt>
      <trkpt lat="42.69229" lon="1.59718">
        <ele>2243.9</ele>
        <time>2014-09-21T11:18:19Z</time>
      </trkpt>
      <trkpt lat="42.6922" lon="1.59726">
        <ele>2245.3</ele>
        <time>2014-09-21T11:18:35Z</time>
      </trkpt>
      <trkpt lat="42.69219" lon="1.59737">
        <ele>2247.2</ele>
        <time>2014-09-21T11:18:50Z</time>
      </trkpt>
      <trkpt lat="42.69218" lon="1.59747">
        <ele>2249.1</ele>
        <time>2014-09-21T11:19:05Z</time>
      </trkpt>
      <trkpt lat="42.69213" lon="1.59756">
        <ele>2251.1</ele>
        <time>2014-09-21T11:19:21Z</time>
      </trkpt>
      <trkpt lat="42.69205" lon="1.59761">
        <ele>2252</ele>
        <time>2014-09-21T11:19:35Z</time>
      </trkpt>
      <trkpt lat="42.69206" lon="1.59773">
        <ele>2253.5</ele>
        <time>2014-09-21T11:19:49Z</time>
      </trkpt>
      <trkpt lat="42.69206" lon="1.59784">
        <ele>2255.9</ele>
        <time>2014-09-21T11:20:03Z</time>
      </trkpt>
      <trkpt lat="42.69201" lon="1.59795">
        <ele>2257.8</ele>
        <time>2014-09-21T11:20:20Z</time>
      </trkpt>
      <trkpt lat="42.69196" lon="1.59805">
        <ele>2259.7</ele>
        <time>2014-09-21T11:20:35Z</time>
      </trkpt>
      <trkpt lat="42.69192" lon="1.59812">
        <ele>2261.6</ele>
        <time>2014-09-21T11:20:50Z</time>
      </trkpt>
      <trkpt lat="42.69183" lon="1.59814">
        <ele>2263.6</ele>
        <time>2014-09-21T11:21:04Z</time>
      </trkpt>
      <trkpt lat="42.69181" lon="1.59825">
        <ele>2265.5</ele>
        <time>2014-09-21T11:21:18Z</time>
      </trkpt>
      <trkpt lat="42.69179" lon="1.59836">
        <ele>2266.9</ele>
        <time>2014-09-21T11:21:33Z</time>
      </trkpt>
      <trkpt lat="42.69171" lon="1.59839">
        <ele>2268.4</ele>
        <time>2014-09-21T11:21:47Z</time>
      </trkpt>
      <trkpt lat="42.69163" lon="1.59837">
        <ele>2270.3</ele>
        <time>2014-09-21T11:22:00Z</time>
      </trkpt>
      <trkpt lat="42.69155" lon="1.59837">
        <ele>2272.2</ele>
        <time>2014-09-21T11:22:12Z</time>
      </trkpt>
      <trkpt lat="42.69153" lon="1.59849">
        <ele>2273.7</ele>
        <time>2014-09-21T11:22:24Z</time>
      </trkpt>
      <trkpt lat="42.69148" lon="1.59853">
        <ele>2275.1</ele>
        <time>2014-09-21T11:22:38Z</time>
      </trkpt>
      <trkpt lat="42.6914" lon="1.59851">
        <ele>2276.5</ele>
        <time>2014-09-21T11:22:51Z</time>
      </trkpt>
      <trkpt lat="42.69132" lon="1.5985">
        <ele>2278.5</ele>
        <time>2014-09-21T11:23:06Z</time>
      </trkpt>
      <trkpt lat="42.69129" lon="1.59861">
        <ele>2279.9</ele>
        <time>2014-09-21T11:23:20Z</time>
      </trkpt>
      <trkpt lat="42.69127" lon="1.59873">
        <ele>2282.3</ele>
        <time>2014-09-21T11:23:36Z</time>
      </trkpt>
      <trkpt lat="42.69121" lon="1.59869">
        <ele>2284.2</ele>
        <time>2014-09-21T11:23:49Z</time>
      </trkpt>
      <trkpt lat="42.69111" lon="1.59864">
        <ele>2285.2</ele>
        <time>2014-09-21T11:24:05Z</time>
      </trkpt>
      <trkpt lat="42.69104" lon="1.59864">
        <ele>2286.6</ele>
        <time>2014-09-21T11:24:18Z</time>
      </trkpt>
      <trkpt lat="42.69101" lon="1.59875">
        <ele>2288.6</ele>
        <time>2014-09-21T11:24:32Z</time>
      </trkpt>
      <trkpt lat="42.69098" lon="1.59886">
        <ele>2290.5</ele>
        <time>2014-09-21T11:24:47Z</time>
      </trkpt>
      <trkpt lat="42.69093" lon="1.59888">
        <ele>2291.9</ele>
        <time>2014-09-21T11:25:01Z</time>
      </trkpt>
      <trkpt lat="42.69087" lon="1.59881">
        <ele>2293.4</ele>
        <time>2014-09-21T11:25:15Z</time>
      </trkpt>
      <trkpt lat="42.69079" lon="1.59876">
        <ele>2294.8</ele>
        <time>2014-09-21T11:25:28Z</time>
      </trkpt>
      <trkpt lat="42.69068" lon="1.59872">
        <ele>2297.2</ele>
        <time>2014-09-21T11:25:43Z</time>
      </trkpt>
      <trkpt lat="42.69068" lon="1.59884">
        <ele>2298.7</ele>
        <time>2014-09-21T11:25:55Z</time>
      </trkpt>
      <trkpt lat="42.69065" lon="1.59897">
        <ele>2300.6</ele>
        <time>2014-09-21T11:26:12Z</time>
      </trkpt>
      <trkpt lat="42.69062" lon="1.59906">
        <ele>2302.5</ele>
        <time>2014-09-21T11:26:25Z</time>
      </trkpt>
      <trkpt lat="42.69057" lon="1.59901">
        <ele>2303.9</ele>
        <time>2014-09-21T11:26:37Z</time>
      </trkpt>
      <trkpt lat="42.6905" lon="1.59896">
        <ele>2304.9</ele>
        <time>2014-09-21T11:26:50Z</time>
      </trkpt>
      <trkpt lat="42.69043" lon="1.5989">
        <ele>2306.3</ele>
        <time>2014-09-21T11:27:04Z</time>
      </trkpt>
      <trkpt lat="42.69042" lon="1.59901">
        <ele>2307.8</ele>
        <time>2014-09-21T11:27:16Z</time>
      </trkpt>
      <trkpt lat="42.6904" lon="1.59914">
        <ele>2309.7</ele>
        <time>2014-09-21T11:27:32Z</time>
      </trkpt>
      <trkpt lat="42.69038" lon="1.59926">
        <ele>2311.6</ele>
        <time>2014-09-21T11:27:47Z</time>
      </trkpt>
      <trkpt lat="42.69036" lon="1.59936">
        <ele>2313.6</ele>
        <time>2014-09-21T11:28:01Z</time>
      </trkpt>
      <trkpt lat="42.69033" lon="1.59943">
        <ele>2315</ele>
        <time>2014-09-21T11:28:15Z</time>
      </trkpt>
      <trkpt lat="42.69027" lon="1.59938">
        <ele>2316.4</ele>
        <time>2014-09-21T11:28:29Z</time>
      </trkpt>
      <trkpt lat="42.69022" lon="1.59941">
        <ele>2318.8</ele>
        <time>2014-09-21T11:28:42Z</time>
      </trkpt>
      <trkpt lat="42.69019" lon="1.5995">
        <ele>2320.3</ele>
        <time>2014-09-21T11:28:56Z</time>
      </trkpt>
      <trkpt lat="42.69015" lon="1.59952">
        <ele>2321.7</ele>
        <time>2014-09-21T11:29:09Z</time>
      </trkpt>
      <trkpt lat="42.6901" lon="1.59958">
        <ele>2323.6</ele>
        <time>2014-09-21T11:29:23Z</time>
      </trkpt>
      <trkpt lat="42.69008" lon="1.59968">
        <ele>2325.1</ele>
        <time>2014-09-21T11:29:38Z</time>
      </trkpt>
      <trkpt lat="42.69005" lon="1.59978">
        <ele>2327</ele>
        <time>2014-09-21T11:29:52Z</time>
      </trkpt>
      <trkpt lat="42.69" lon="1.59976">
        <ele>2329.4</ele>
        <time>2014-09-21T11:30:06Z</time>
      </trkpt>
      <trkpt lat="42.68994" lon="1.59969">
        <ele>2330.9</ele>
        <time>2014-09-21T11:30:20Z</time>
      </trkpt>
      <trkpt lat="42.68992" lon="1.59974">
        <ele>2332.3</ele>
        <time>2014-09-21T11:30:33Z</time>
      </trkpt>
      <trkpt lat="42.68988" lon="1.59982">
        <ele>2333.7</ele>
        <time>2014-09-21T11:30:45Z</time>
      </trkpt>
      <trkpt lat="42.68986" lon="1.59994">
        <ele>2336.1</ele>
        <time>2014-09-21T11:31:00Z</time>
      </trkpt>
      <trkpt lat="42.68983" lon="1.60005">
        <ele>2337.6</ele>
        <time>2014-09-21T11:31:15Z</time>
      </trkpt>
      <trkpt lat="42.6898" lon="1.60014">
        <ele>2339</ele>
        <time>2014-09-21T11:31:28Z</time>
      </trkpt>
      <trkpt lat="42.68975" lon="1.60014">
        <ele>2341</ele>
        <time>2014-09-21T11:31:41Z</time>
      </trkpt>
      <trkpt lat="42.68969" lon="1.60004">
        <ele>2342.9</ele>
        <time>2014-09-21T11:31:55Z</time>
      </trkpt>
      <trkpt lat="42.68964" lon="1.59997">
        <ele>2344.8</ele>
        <time>2014-09-21T11:32:09Z</time>
      </trkpt>
      <trkpt lat="42.6896" lon="1.59988">
        <ele>2345.8</ele>
        <time>2014-09-21T11:32:22Z</time>
      </trkpt>
      <trkpt lat="42.6896" lon="1.59984">
        <ele>2345.8</ele>
        <time>2014-09-21T11:32:41Z</time>
      </trkpt>
      <trkpt lat="42.68954" lon="1.59978">
        <ele>2347.7</ele>
        <time>2014-09-21T11:32:53Z</time>
      </trkpt>
      <trkpt lat="42.68952" lon="1.5999">
        <ele>2350.1</ele>
        <time>2014-09-21T11:33:05Z</time>
      </trkpt>
      <trkpt lat="42.68949" lon="1.59999">
        <ele>2352</ele>
        <time>2014-09-21T11:33:19Z</time>
      </trkpt>
      <trkpt lat="42.68943" lon="1.59993">
        <ele>2354.4</ele>
        <time>2014-09-21T11:33:34Z</time>
      </trkpt>
      <trkpt lat="42.68939" lon="1.59989">
        <ele>2356.3</ele>
        <time>2014-09-21T11:33:46Z</time>
      </trkpt>
      <trkpt lat="42.68932" lon="1.59984">
        <ele>2357.8</ele>
        <time>2014-09-21T11:34:02Z</time>
      </trkpt>
      <trkpt lat="42.68927" lon="1.5998">
        <ele>2359.7</ele>
        <time>2014-09-21T11:34:14Z</time>
      </trkpt>
      <trkpt lat="42.68923" lon="1.59978">
        <ele>2361.1</ele>
        <time>2014-09-21T11:34:27Z</time>
      </trkpt>
      <trkpt lat="42.68919" lon="1.59973">
        <ele>2363.1</ele>
        <time>2014-09-21T11:34:40Z</time>
      </trkpt>
      <trkpt lat="42.68916" lon="1.59968">
        <ele>2365</ele>
        <time>2014-09-21T11:34:52Z</time>
      </trkpt>
      <trkpt lat="42.68912" lon="1.59964">
        <ele>2366.4</ele>
        <time>2014-09-21T11:35:06Z</time>
      </trkpt>
      <trkpt lat="42.68908" lon="1.59956">
        <ele>2367.4</ele>
        <time>2014-09-21T11:35:18Z</time>
      </trkpt>
      <trkpt lat="42.68905" lon="1.59953">
        <ele>2368.8</ele>
        <time>2014-09-21T11:35:30Z</time>
      </trkpt>
      <trkpt lat="42.68904" lon="1.59963">
        <ele>2370.3</ele>
        <time>2014-09-21T11:35:43Z</time>
      </trkpt>
      <trkpt lat="42.689" lon="1.59958">
        <ele>2372.7</ele>
        <time>2014-09-21T11:35:56Z</time>
      </trkpt>
      <trkpt lat="42.68896" lon="1.59964">
        <ele>2374.1</ele>
        <time>2014-09-21T11:36:09Z</time>
      </trkpt>
      <trkpt lat="42.68894" lon="1.59973">
        <ele>2375.6</ele>
        <time>2014-09-21T11:36:23Z</time>
      </trkpt>
      <trkpt lat="42.68889" lon="1.59972">
        <ele>2378</ele>
        <time>2014-09-21T11:36:35Z</time>
      </trkpt>
      <trkpt lat="42.68886" lon="1.5998">
        <ele>2379.4</ele>
        <time>2014-09-21T11:36:51Z</time>
      </trkpt>
      <trkpt lat="42.68884" lon="1.59989">
        <ele>2381.3</ele>
        <time>2014-09-21T11:37:05Z</time>
      </trkpt>
      <trkpt lat="42.68881" lon="1.59998">
        <ele>2383.3</ele>
        <time>2014-09-21T11:37:20Z</time>
      </trkpt>
      <trkpt lat="42.68877" lon="1.59996">
        <ele>2385.2</ele>
        <time>2014-09-21T11:37:33Z</time>
      </trkpt>
      <trkpt lat="42.68871" lon="1.59988">
        <ele>2386.1</ele>
        <time>2014-09-21T11:37:47Z</time>
      </trkpt>
      <trkpt lat="42.68866" lon="1.59982">
        <ele>2388.1</ele>
        <time>2014-09-21T11:38:00Z</time>
      </trkpt>
      <trkpt lat="42.68862" lon="1.59975">
        <ele>2389.5</ele>
        <time>2014-09-21T11:38:13Z</time>
      </trkpt>
      <trkpt lat="42.68857" lon="1.59978">
        <ele>2390.9</ele>
        <time>2014-09-21T11:38:27Z</time>
      </trkpt>
      <trkpt lat="42.68854" lon="1.59988">
        <ele>2392.9</ele>
        <time>2014-09-21T11:38:43Z</time>
      </trkpt>
      <trkpt lat="42.68849" lon="1.59988">
        <ele>2394.8</ele>
        <time>2014-09-21T11:38:58Z</time>
      </trkpt>
      <trkpt lat="42.68846" lon="1.59985">
        <ele>2395.7</ele>
        <time>2014-09-21T11:39:11Z</time>
      </trkpt>
      <trkpt lat="42.68841" lon="1.59977">
        <ele>2397.2</ele>
        <time>2014-09-21T11:39:23Z</time>
      </trkpt>
      <trkpt lat="42.68836" lon="1.59968">
        <ele>2398.6</ele>
        <time>2014-09-21T11:39:37Z</time>
      </trkpt>
      <trkpt lat="42.68832" lon="1.59963">
        <ele>2400.1</ele>
        <time>2014-09-21T11:39:51Z</time>
      </trkpt>
      <trkpt lat="42.68827" lon="1.59958">
        <ele>2402</ele>
        <time>2014-09-21T11:40:05Z</time>
      </trkpt>
      <trkpt lat="42.68823" lon="1.59953">
        <ele>2403.9</ele>
        <time>2014-09-21T11:40:19Z</time>
      </trkpt>
      <trkpt lat="42.68821" lon="1.59947">
        <ele>2405.8</ele>
        <time>2014-09-21T11:40:31Z</time>
      </trkpt>
      <trkpt lat="42.68819" lon="1.59954">
        <ele>2406.3</ele>
        <time>2014-09-21T11:40:41Z</time>
      </trkpt>
      <trkpt lat="42.68817" lon="1.5996">
        <ele>2408.2</ele>
        <time>2014-09-21T11:40:56Z</time>
      </trkpt>
      <trkpt lat="42.68812" lon="1.59953">
        <ele>2410.2</ele>
        <time>2014-09-21T11:41:09Z</time>
      </trkpt>
      <trkpt lat="42.68806" lon="1.59948">
        <ele>2411.6</ele>
        <time>2014-09-21T11:41:23Z</time>
      </trkpt>
      <trkpt lat="42.68802" lon="1.59955">
        <ele>2413.5</ele>
        <time>2014-09-21T11:41:36Z</time>
      </trkpt>
      <trkpt lat="42.68798" lon="1.59952">
        <ele>2415.5</ele>
        <time>2014-09-21T11:41:49Z</time>
      </trkpt>
      <trkpt lat="42.68793" lon="1.59946">
        <ele>2416.4</ele>
        <time>2014-09-21T11:42:01Z</time>
      </trkpt>
      <trkpt lat="42.6879" lon="1.5994">
        <ele>2418.3</ele>
        <time>2014-09-21T11:42:14Z</time>
      </trkpt>
      <trkpt lat="42.68783" lon="1.59934">
        <ele>2420.3</ele>
        <time>2014-09-21T11:42:27Z</time>
      </trkpt>
      <trkpt lat="42.68779" lon="1.5993">
        <ele>2421.7</ele>
        <time>2014-09-21T11:42:38Z</time>
      </trkpt>
      <trkpt lat="42.68773" lon="1.59926">
        <ele>2422.7</ele>
        <time>2014-09-21T11:42:49Z</time>
      </trkpt>
      <trkpt lat="42.6877" lon="1.59931">
        <ele>2424.1</ele>
        <time>2014-09-21T11:43:02Z</time>
      </trkpt>
      <trkpt lat="42.68768" lon="1.59941">
        <ele>2425.5</ele>
        <time>2014-09-21T11:43:15Z</time>
      </trkpt>
      <trkpt lat="42.68767" lon="1.59941">
        <ele>2426.5</ele>
        <time>2014-09-21T11:43:28Z</time>
      </trkpt>
      <trkpt lat="42.68765" lon="1.59939">
        <ele>2427</ele>
        <time>2014-09-21T11:43:32Z</time>
      </trkpt>
      <trkpt lat="42.68758" lon="1.59932">
        <ele>2428.9</ele>
        <time>2014-09-21T11:43:45Z</time>
      </trkpt>
      <trkpt lat="42.68754" lon="1.59926">
        <ele>2430.4</ele>
        <time>2014-09-21T11:43:57Z</time>
      </trkpt>
      <trkpt lat="42.68747" lon="1.59921">
        <ele>2431.8</ele>
        <time>2014-09-21T11:44:11Z</time>
      </trkpt>
      <trkpt lat="42.68742" lon="1.59928">
        <ele>2434.2</ele>
        <time>2014-09-21T11:44:26Z</time>
      </trkpt>
      <trkpt lat="42.68738" lon="1.59937">
        <ele>2435.6</ele>
        <time>2014-09-21T11:44:40Z</time>
      </trkpt>
      <trkpt lat="42.68733" lon="1.59937">
        <ele>2437.1</ele>
        <time>2014-09-21T11:44:52Z</time>
      </trkpt>
      <trkpt lat="42.68727" lon="1.59928">
        <ele>2438.5</ele>
        <time>2014-09-21T11:45:06Z</time>
      </trkpt>
      <trkpt lat="42.6872" lon="1.5992">
        <ele>2440</ele>
        <time>2014-09-21T11:45:20Z</time>
      </trkpt>
      <trkpt lat="42.68717" lon="1.59916">
        <ele>2440.9</ele>
        <time>2014-09-21T11:45:27Z</time>
      </trkpt>
      <trkpt lat="42.68711" lon="1.59906">
        <ele>2442.4</ele>
        <time>2014-09-21T11:45:40Z</time>
      </trkpt>
      <trkpt lat="42.68704" lon="1.59895">
        <ele>2443.3</ele>
        <time>2014-09-21T11:45:54Z</time>
      </trkpt>
      <trkpt lat="42.687" lon="1.59884">
        <ele>2444.3</ele>
        <time>2014-09-21T11:46:06Z</time>
      </trkpt>
      <trkpt lat="42.68694" lon="1.59875">
        <ele>2445.3</ele>
        <time>2014-09-21T11:46:17Z</time>
      </trkpt>
      <trkpt lat="42.6869" lon="1.59869">
        <ele>2445.7</ele>
        <time>2014-09-21T11:46:25Z</time>
      </trkpt>
      <trkpt lat="42.68687" lon="1.59864">
        <ele>2446.2</ele>
        <time>2014-09-21T11:46:31Z</time>
      </trkpt>
      <trkpt lat="42.68681" lon="1.59852">
        <ele>2447.7</ele>
        <time>2014-09-21T11:46:45Z</time>
      </trkpt>
      <trkpt lat="42.68678" lon="1.59844">
        <ele>2448.1</ele>
        <time>2014-09-21T11:46:53Z</time>
      </trkpt>
      <trkpt lat="42.68671" lon="1.59833">
        <ele>2449.6</ele>
        <time>2014-09-21T11:47:08Z</time>
      </trkpt>
      <trkpt lat="42.68668" lon="1.5983">
        <ele>2450.1</ele>
        <time>2014-09-21T11:47:19Z</time>
      </trkpt>
      <trkpt lat="42.68668" lon="1.59829">
        <ele>2450.1</ele>
        <time>2014-09-21T11:47:39Z</time>
      </trkpt>
      <trkpt lat="42.68663" lon="1.59818">
        <ele>2450.5</ele>
        <time>2014-09-21T11:47:55Z</time>
      </trkpt>
      <trkpt lat="42.68656" lon="1.59801">
        <ele>2451.5</ele>
        <time>2014-09-21T11:48:11Z</time>
      </trkpt>
      <trkpt lat="42.68652" lon="1.59791">
        <ele>2452.5</ele>
        <time>2014-09-21T11:48:26Z</time>
      </trkpt>
      <trkpt lat="42.68643" lon="1.59774">
        <ele>2453.9</ele>
        <time>2014-09-21T11:48:42Z</time>
      </trkpt>
      <trkpt lat="42.68631" lon="1.59761">
        <ele>2454.9</ele>
        <time>2014-09-21T11:48:58Z</time>
      </trkpt>
      <trkpt lat="42.68622" lon="1.59748">
        <ele>2454.9</ele>
        <time>2014-09-21T11:49:12Z</time>
      </trkpt>
      <trkpt lat="42.68613" lon="1.59737">
        <ele>2456.8</ele>
        <time>2014-09-21T11:49:27Z</time>
      </trkpt>
      <trkpt lat="42.68603" lon="1.59726">
        <ele>2456.8</ele>
        <time>2014-09-21T11:49:42Z</time>
      </trkpt>
      <trkpt lat="42.68592" lon="1.59715">
        <ele>2457.8</ele>
        <time>2014-09-21T11:49:58Z</time>
      </trkpt>
      <trkpt lat="42.68582" lon="1.59705">
        <ele>2459.7</ele>
        <time>2014-09-21T11:50:15Z</time>
      </trkpt>
      <trkpt lat="42.68583" lon="1.59704">
        <ele>2459.7</ele>
        <time>2014-09-21T11:50:32Z</time>
      </trkpt>
      <trkpt lat="42.68582" lon="1.59701">
        <ele>2460.2</ele>
        <time>2014-09-21T11:50:36Z</time>
      </trkpt>
      <trkpt lat="42.68582" lon="1.59695">
        <ele>2460.6</ele>
        <time>2014-09-21T11:50:47Z</time>
      </trkpt>
      <trkpt lat="42.68576" lon="1.59683">
        <ele>2462.6</ele>
        <time>2014-09-21T11:51:00Z</time>
      </trkpt>
      <trkpt lat="42.68571" lon="1.59674">
        <ele>2465.9</ele>
        <time>2014-09-21T11:51:12Z</time>
      </trkpt>
      <trkpt lat="42.6857" lon="1.59673">
        <ele>2465.4</ele>
        <time>2014-09-21T11:51:14Z</time>
      </trkpt>
      <trkpt lat="42.68568" lon="1.59659">
        <ele>2466.4</ele>
        <time>2014-09-21T11:51:27Z</time>
      </trkpt>
      <trkpt lat="42.68565" lon="1.59653">
        <ele>2467.4</ele>
        <time>2014-09-21T11:51:34Z</time>
      </trkpt>
      <trkpt lat="42.68558" lon="1.59648">
        <ele>2469.3</ele>
        <time>2014-09-21T11:51:47Z</time>
      </trkpt>
      <trkpt lat="42.6855" lon="1.59642">
        <ele>2471.7</ele>
        <time>2014-09-21T11:52:03Z</time>
      </trkpt>
      <trkpt lat="42.68547" lon="1.59639">
        <ele>2472.2</ele>
        <time>2014-09-21T11:52:10Z</time>
      </trkpt>
      <trkpt lat="42.6854" lon="1.59633">
        <ele>2474.1</ele>
        <time>2014-09-21T11:52:23Z</time>
      </trkpt>
      <trkpt lat="42.68536" lon="1.59633">
        <ele>2475.5</ele>
        <time>2014-09-21T11:52:30Z</time>
      </trkpt>
      <trkpt lat="42.68529" lon="1.59633">
        <ele>2477</ele>
        <time>2014-09-21T11:52:43Z</time>
      </trkpt>
      <trkpt lat="42.68522" lon="1.59625">
        <ele>2479.4</ele>
        <time>2014-09-21T11:52:56Z</time>
      </trkpt>
      <trkpt lat="42.68515" lon="1.5962">
        <ele>2480.8</ele>
        <time>2014-09-21T11:53:09Z</time>
      </trkpt>
      <trkpt lat="42.68512" lon="1.59623">
        <ele>2482.7</ele>
        <time>2014-09-21T11:53:15Z</time>
      </trkpt>
      <trkpt lat="42.68506" lon="1.59629">
        <ele>2484.2</ele>
        <time>2014-09-21T11:53:29Z</time>
      </trkpt>
      <trkpt lat="42.68503" lon="1.59636">
        <ele>2485.6</ele>
        <time>2014-09-21T11:53:40Z</time>
      </trkpt>
      <trkpt lat="42.685" lon="1.59633">
        <ele>2487.1</ele>
        <time>2014-09-21T11:53:53Z</time>
      </trkpt>
      <trkpt lat="42.68503" lon="1.59634">
        <ele>2487.1</ele>
        <time>2014-09-21T11:54:18Z</time>
      </trkpt>
      <trkpt lat="42.68504" lon="1.59633">
        <ele>2485.6</ele>
        <time>2014-09-21T11:54:20Z</time>
      </trkpt>
      <trkpt lat="42.68504" lon="1.59632">
        <ele>2485.2</ele>
        <time>2014-09-21T11:54:22Z</time>
      </trkpt>
      <trkpt lat="42.68508" lon="1.59628">
        <ele>2484.7</ele>
        <time>2014-09-21T11:54:29Z</time>
      </trkpt>
      <trkpt lat="42.6851" lon="1.59629">
        <ele>2483.7</ele>
        <time>2014-09-21T11:54:31Z</time>
      </trkpt>
      <trkpt lat="42.68515" lon="1.59631">
        <ele>2482.7</ele>
        <time>2014-09-21T11:54:37Z</time>
      </trkpt>
      <trkpt lat="42.68521" lon="1.59626">
        <ele>2480.3</ele>
        <time>2014-09-21T11:54:45Z</time>
      </trkpt>
      <trkpt lat="42.68528" lon="1.59632">
        <ele>2479.4</ele>
        <time>2014-09-21T11:54:51Z</time>
      </trkpt>
      <trkpt lat="42.68536" lon="1.59635">
        <ele>2477</ele>
        <time>2014-09-21T11:55:01Z</time>
      </trkpt>
      <trkpt lat="42.68544" lon="1.59631">
        <ele>2474.1</ele>
        <time>2014-09-21T11:55:11Z</time>
      </trkpt>
      <trkpt lat="42.68551" lon="1.59644">
        <ele>2473.1</ele>
        <time>2014-09-21T11:55:23Z</time>
      </trkpt>
      <trkpt lat="42.68559" lon="1.59655">
        <ele>2470.7</ele>
        <time>2014-09-21T11:55:35Z</time>
      </trkpt>
      <trkpt lat="42.68561" lon="1.5966">
        <ele>2469.8</ele>
        <time>2014-09-21T11:55:39Z</time>
      </trkpt>
      <trkpt lat="42.68566" lon="1.59673">
        <ele>2467.4</ele>
        <time>2014-09-21T11:55:52Z</time>
      </trkpt>
      <trkpt lat="42.6857" lon="1.59676">
        <ele>2466.4</ele>
        <time>2014-09-21T11:55:59Z</time>
      </trkpt>
      <trkpt lat="42.6858" lon="1.59681">
        <ele>2463.5</ele>
        <time>2014-09-21T11:56:07Z</time>
      </trkpt>
      <trkpt lat="42.68581" lon="1.59697">
        <ele>2462.1</ele>
        <time>2014-09-21T11:56:18Z</time>
      </trkpt>
      <trkpt lat="42.68582" lon="1.59706">
        <ele>2461.1</ele>
        <time>2014-09-21T11:56:33Z</time>
      </trkpt>
      <trkpt lat="42.68583" lon="1.59704">
        <ele>2461.6</ele>
        <time>2014-09-21T11:56:53Z</time>
      </trkpt>
      <trkpt lat="42.68584" lon="1.59704">
        <ele>2461.6</ele>
        <time>2014-09-21T11:57:24Z</time>
      </trkpt>
      <trkpt lat="42.68584" lon="1.59703">
        <ele>2460.6</ele>
        <time>2014-09-21T11:57:51Z</time>
      </trkpt>
      <trkpt lat="42.68584" lon="1.59702">
        <ele>2460.6</ele>
        <time>2014-09-21T11:58:23Z</time>
      </trkpt>
      <trkpt lat="42.68584" lon="1.59704">
        <ele>2460.6</ele>
        <time>2014-09-21T11:58:51Z</time>
      </trkpt>
      <trkpt lat="42.68585" lon="1.59703">
        <ele>2460.6</ele>
        <time>2014-09-21T11:59:16Z</time>
      </trkpt>
      <trkpt lat="42.68584" lon="1.59703">
        <ele>2460.6</ele>
        <time>2014-09-21T11:59:46Z</time>
      </trkpt>
      <trkpt lat="42.68584" lon="1.59703">
        <ele>2460.6</ele>
        <time>2014-09-21T12:00:03Z</time>
      </trkpt>
      <trkpt lat="42.68585" lon="1.59706">
        <ele>2461.1</ele>
        <time>2014-09-21T12:00:17Z</time>
      </trkpt>
      <trkpt lat="42.68601" lon="1.59727">
        <ele>2458.2</ele>
        <time>2014-09-21T12:00:27Z</time>
      </trkpt>
      <trkpt lat="42.68619" lon="1.59738">
        <ele>2456.8</ele>
        <time>2014-09-21T12:00:35Z</time>
      </trkpt>
      <trkpt lat="42.68628" lon="1.59746">
        <ele>2455.8</ele>
        <time>2014-09-21T12:00:40Z</time>
      </trkpt>
      <trkpt lat="42.68641" lon="1.59758">
        <ele>2455.3</ele>
        <time>2014-09-21T12:00:50Z</time>
      </trkpt>
      <trkpt lat="42.68655" lon="1.59795">
        <ele>2454.4</ele>
        <time>2014-09-21T12:01:06Z</time>
      </trkpt>
      <trkpt lat="42.68669" lon="1.59823">
        <ele>2452.9</ele>
        <time>2014-09-21T12:01:18Z</time>
      </trkpt>
      <trkpt lat="42.68681" lon="1.5985">
        <ele>2451</ele>
        <time>2014-09-21T12:01:31Z</time>
      </trkpt>
      <trkpt lat="42.68695" lon="1.59869">
        <ele>2448.1</ele>
        <time>2014-09-21T12:01:42Z</time>
      </trkpt>
      <trkpt lat="42.68709" lon="1.59885">
        <ele>2445.3</ele>
        <time>2014-09-21T12:01:51Z</time>
      </trkpt>
      <trkpt lat="42.68724" lon="1.59892">
        <ele>2441.9</ele>
        <time>2014-09-21T12:01:59Z</time>
      </trkpt>
      <trkpt lat="42.68736" lon="1.59898">
        <ele>2438.5</ele>
        <time>2014-09-21T12:02:07Z</time>
      </trkpt>
      <trkpt lat="42.68737" lon="1.59899">
        <ele>2437.6</ele>
        <time>2014-09-21T12:02:08Z</time>
      </trkpt>
      <trkpt lat="42.68739" lon="1.59901">
        <ele>2437.1</ele>
        <time>2014-09-21T12:02:10Z</time>
      </trkpt>
      <trkpt lat="42.68739" lon="1.59905">
        <ele>2437.1</ele>
        <time>2014-09-21T12:02:14Z</time>
      </trkpt>
      <trkpt lat="42.68742" lon="1.59908">
        <ele>2436.6</ele>
        <time>2014-09-21T12:02:23Z</time>
      </trkpt>
      <trkpt lat="42.68746" lon="1.59909">
        <ele>2435.2</ele>
        <time>2014-09-21T12:02:26Z</time>
      </trkpt>
      <trkpt lat="42.68753" lon="1.59914">
        <ele>2433.7</ele>
        <time>2014-09-21T12:02:30Z</time>
      </trkpt>
      <trkpt lat="42.68755" lon="1.59915">
        <ele>2433.2</ele>
        <time>2014-09-21T12:02:31Z</time>
      </trkpt>
      <trkpt lat="42.68768" lon="1.59925">
        <ele>2428.9</ele>
        <time>2014-09-21T12:02:40Z</time>
      </trkpt>
      <trkpt lat="42.68779" lon="1.59932">
        <ele>2425.5</ele>
        <time>2014-09-21T12:02:48Z</time>
      </trkpt>
      <trkpt lat="42.68789" lon="1.59927">
        <ele>2422.2</ele>
        <time>2014-09-21T12:02:55Z</time>
      </trkpt>
      <trkpt lat="42.68794" lon="1.59926">
        <ele>2420.3</ele>
        <time>2014-09-21T12:02:59Z</time>
      </trkpt>
      <trkpt lat="42.68799" lon="1.59929">
        <ele>2418.3</ele>
        <time>2014-09-21T12:03:03Z</time>
      </trkpt>
      <trkpt lat="42.68803" lon="1.59931">
        <ele>2416.4</ele>
        <time>2014-09-21T12:03:07Z</time>
      </trkpt>
      <trkpt lat="42.68805" lon="1.59932">
        <ele>2415.5</ele>
        <time>2014-09-21T12:03:10Z</time>
      </trkpt>
      <trkpt lat="42.68811" lon="1.59936">
        <ele>2413.5</ele>
        <time>2014-09-21T12:03:15Z</time>
      </trkpt>
      <trkpt lat="42.68822" lon="1.59947">
        <ele>2409.7</ele>
        <time>2014-09-21T12:03:24Z</time>
      </trkpt>
      <trkpt lat="42.68822" lon="1.59946">
        <ele>2409.7</ele>
        <time>2014-09-21T12:03:25Z</time>
      </trkpt>
      <trkpt lat="42.68825" lon="1.59942">
        <ele>2408.2</ele>
        <time>2014-09-21T12:03:31Z</time>
      </trkpt>
      <trkpt lat="42.68828" lon="1.59938">
        <ele>2406.3</ele>
        <time>2014-09-21T12:03:36Z</time>
      </trkpt>
      <trkpt lat="42.6883" lon="1.5994">
        <ele>2405.4</ele>
        <time>2014-09-21T12:03:42Z</time>
      </trkpt>
      <trkpt lat="42.68832" lon="1.59945">
        <ele>2403.9</ele>
        <time>2014-09-21T12:03:47Z</time>
      </trkpt>
      <trkpt lat="42.68838" lon="1.59951">
        <ele>2402</ele>
        <time>2014-09-21T12:03:59Z</time>
      </trkpt>
      <trkpt lat="42.68841" lon="1.59953">
        <ele>2400.6</ele>
        <time>2014-09-21T12:04:05Z</time>
      </trkpt>
      <trkpt lat="42.68842" lon="1.59956">
        <ele>2400.1</ele>
        <time>2014-09-21T12:04:07Z</time>
      </trkpt>
      <trkpt lat="42.68847" lon="1.59958">
        <ele>2398.6</ele>
        <time>2014-09-21T12:04:11Z</time>
      </trkpt>
      <trkpt lat="42.6885" lon="1.5996">
        <ele>2398.2</ele>
        <time>2014-09-21T12:04:13Z</time>
      </trkpt>
      <trkpt lat="42.68854" lon="1.5996">
        <ele>2396.7</ele>
        <time>2014-09-21T12:04:15Z</time>
      </trkpt>
      <trkpt lat="42.68859" lon="1.59962">
        <ele>2394.3</ele>
        <time>2014-09-21T12:04:19Z</time>
      </trkpt>
      <trkpt lat="42.68869" lon="1.59975">
        <ele>2390.9</ele>
        <time>2014-09-21T12:04:29Z</time>
      </trkpt>
      <trkpt lat="42.68879" lon="1.59989">
        <ele>2388.5</ele>
        <time>2014-09-21T12:04:42Z</time>
      </trkpt>
      <trkpt lat="42.68883" lon="1.59992">
        <ele>2387.1</ele>
        <time>2014-09-21T12:04:45Z</time>
      </trkpt>
      <trkpt lat="42.68884" lon="1.59995">
        <ele>2386.1</ele>
        <time>2014-09-21T12:04:47Z</time>
      </trkpt>
      <trkpt lat="42.68888" lon="1.59998">
        <ele>2384.7</ele>
        <time>2014-09-21T12:04:50Z</time>
      </trkpt>
      <trkpt lat="42.68891" lon="1.6">
        <ele>2383.7</ele>
        <time>2014-09-21T12:04:53Z</time>
      </trkpt>
      <trkpt lat="42.68901" lon="1.59996">
        <ele>2378.9</ele>
        <time>2014-09-21T12:05:01Z</time>
      </trkpt>
      <trkpt lat="42.68903" lon="1.59994">
        <ele>2378</ele>
        <time>2014-09-21T12:05:03Z</time>
      </trkpt>
      <trkpt lat="42.68912" lon="1.59987">
        <ele>2374.1</ele>
        <time>2014-09-21T12:05:10Z</time>
      </trkpt>
      <trkpt lat="42.68913" lon="1.59985">
        <ele>2373.2</ele>
        <time>2014-09-21T12:05:12Z</time>
      </trkpt>
      <trkpt lat="42.68917" lon="1.59979">
        <ele>2370.3</ele>
        <time>2014-09-21T12:05:17Z</time>
      </trkpt>
      <trkpt lat="42.6892" lon="1.59973">
        <ele>2367.9</ele>
        <time>2014-09-21T12:05:22Z</time>
      </trkpt>
      <trkpt lat="42.68924" lon="1.59977">
        <ele>2365.9</ele>
        <time>2014-09-21T12:05:34Z</time>
      </trkpt>
      <trkpt lat="42.68927" lon="1.59979">
        <ele>2365.5</ele>
        <time>2014-09-21T12:05:38Z</time>
      </trkpt>
      <trkpt lat="42.68936" lon="1.59985">
        <ele>2362.1</ele>
        <time>2014-09-21T12:05:52Z</time>
      </trkpt>
      <trkpt lat="42.68936" lon="1.59986">
        <ele>2361.6</ele>
        <time>2014-09-21T12:06:01Z</time>
      </trkpt>
      <trkpt lat="42.68938" lon="1.59986">
        <ele>2361.6</ele>
        <time>2014-09-21T12:06:03Z</time>
      </trkpt>
      <trkpt lat="42.68945" lon="1.59988">
        <ele>2359.2</ele>
        <time>2014-09-21T12:06:11Z</time>
      </trkpt>
      <trkpt lat="42.68953" lon="1.59994">
        <ele>2355.9</ele>
        <time>2014-09-21T12:06:18Z</time>
      </trkpt>
      <trkpt lat="42.68961" lon="1.59991">
        <ele>2352</ele>
        <time>2014-09-21T12:06:25Z</time>
      </trkpt>
      <trkpt lat="42.68968" lon="1.59991">
        <ele>2349.1</ele>
        <time>2014-09-21T12:06:30Z</time>
      </trkpt>
      <trkpt lat="42.68976" lon="1.59991">
        <ele>2345.3</ele>
        <time>2014-09-21T12:06:35Z</time>
      </trkpt>
      <trkpt lat="42.68981" lon="1.59993">
        <ele>2343.8</ele>
        <time>2014-09-21T12:06:38Z</time>
      </trkpt>
      <trkpt lat="42.68986" lon="1.59993">
        <ele>2341.9</ele>
        <time>2014-09-21T12:06:42Z</time>
      </trkpt>
      <trkpt lat="42.68991" lon="1.59979">
        <ele>2338.1</ele>
        <time>2014-09-21T12:06:50Z</time>
      </trkpt>
      <trkpt lat="42.68993" lon="1.59974">
        <ele>2337.6</ele>
        <time>2014-09-21T12:07:02Z</time>
      </trkpt>
      <trkpt lat="42.68995" lon="1.59966">
        <ele>2336.1</ele>
        <time>2014-09-21T12:07:15Z</time>
      </trkpt>
      <trkpt lat="42.68995" lon="1.59964">
        <ele>2335.7</ele>
        <time>2014-09-21T12:07:16Z</time>
      </trkpt>
      <trkpt lat="42.69005" lon="1.59966">
        <ele>2332.8</ele>
        <time>2014-09-21T12:07:23Z</time>
      </trkpt>
      <trkpt lat="42.69012" lon="1.5996">
        <ele>2329.4</ele>
        <time>2014-09-21T12:07:29Z</time>
      </trkpt>
      <trkpt lat="42.69018" lon="1.59958">
        <ele>2327</ele>
        <time>2014-09-21T12:07:34Z</time>
      </trkpt>
      <trkpt lat="42.69025" lon="1.59956">
        <ele>2324.1</ele>
        <time>2014-09-21T12:07:39Z</time>
      </trkpt>
      <trkpt lat="42.69027" lon="1.59954">
        <ele>2323.6</ele>
        <time>2014-09-21T12:07:41Z</time>
      </trkpt>
      <trkpt lat="42.69038" lon="1.59954">
        <ele>2319.8</ele>
        <time>2014-09-21T12:07:49Z</time>
      </trkpt>
      <trkpt lat="42.69047" lon="1.59946">
        <ele>2316.9</ele>
        <time>2014-09-21T12:07:56Z</time>
      </trkpt>
      <trkpt lat="42.69053" lon="1.59935">
        <ele>2313.6</ele>
        <time>2014-09-21T12:08:02Z</time>
      </trkpt>
      <trkpt lat="42.69055" lon="1.59928">
        <ele>2312.1</ele>
        <time>2014-09-21T12:08:06Z</time>
      </trkpt>
      <trkpt lat="42.69057" lon="1.59924">
        <ele>2311.6</ele>
        <time>2014-09-21T12:08:08Z</time>
      </trkpt>
      <trkpt lat="42.69062" lon="1.59913">
        <ele>2308.3</ele>
        <time>2014-09-21T12:08:14Z</time>
      </trkpt>
      <trkpt lat="42.69071" lon="1.59898">
        <ele>2304.9</ele>
        <time>2014-09-21T12:08:22Z</time>
      </trkpt>
      <trkpt lat="42.69072" lon="1.59895">
        <ele>2304.9</ele>
        <time>2014-09-21T12:08:23Z</time>
      </trkpt>
      <trkpt lat="42.69073" lon="1.59891">
        <ele>2303.9</ele>
        <time>2014-09-21T12:08:25Z</time>
      </trkpt>
      <trkpt lat="42.69087" lon="1.59891">
        <ele>2300.1</ele>
        <time>2014-09-21T12:08:33Z</time>
      </trkpt>
      <trkpt lat="42.69095" lon="1.59884">
        <ele>2297.2</ele>
        <time>2014-09-21T12:08:39Z</time>
      </trkpt>
      <trkpt lat="42.69098" lon="1.5988">
        <ele>2295.8</ele>
        <time>2014-09-21T12:08:41Z</time>
      </trkpt>
      <trkpt lat="42.69099" lon="1.59876">
        <ele>2295.3</ele>
        <time>2014-09-21T12:08:43Z</time>
      </trkpt>
      <trkpt lat="42.69108" lon="1.5987">
        <ele>2292.9</ele>
        <time>2014-09-21T12:08:48Z</time>
      </trkpt>
      <trkpt lat="42.69118" lon="1.59862">
        <ele>2289</ele>
        <time>2014-09-21T12:08:54Z</time>
      </trkpt>
      <trkpt lat="42.69132" lon="1.59857">
        <ele>2284.7</ele>
        <time>2014-09-21T12:09:01Z</time>
      </trkpt>
      <trkpt lat="42.69136" lon="1.59855">
        <ele>2284.2</ele>
        <time>2014-09-21T12:09:03Z</time>
      </trkpt>
      <trkpt lat="42.69149" lon="1.5985">
        <ele>2279.9</ele>
        <time>2014-09-21T12:09:10Z</time>
      </trkpt>
      <trkpt lat="42.6916" lon="1.59841">
        <ele>2277</ele>
        <time>2014-09-21T12:09:16Z</time>
      </trkpt>
      <trkpt lat="42.6917" lon="1.59829">
        <ele>2273.7</ele>
        <time>2014-09-21T12:09:23Z</time>
      </trkpt>
      <trkpt lat="42.69175" lon="1.59808">
        <ele>2269.8</ele>
        <time>2014-09-21T12:09:31Z</time>
      </trkpt>
      <trkpt lat="42.69178" lon="1.59798">
        <ele>2268.4</ele>
        <time>2014-09-21T12:09:35Z</time>
      </trkpt>
      <trkpt lat="42.69179" lon="1.59791">
        <ele>2266.5</ele>
        <time>2014-09-21T12:09:38Z</time>
      </trkpt>
      <trkpt lat="42.69181" lon="1.59787">
        <ele>2266</ele>
        <time>2014-09-21T12:09:40Z</time>
      </trkpt>
      <trkpt lat="42.69187" lon="1.59785">
        <ele>2264</ele>
        <time>2014-09-21T12:09:44Z</time>
      </trkpt>
      <trkpt lat="42.69201" lon="1.59772">
        <ele>2260.2</ele>
        <time>2014-09-21T12:09:53Z</time>
      </trkpt>
      <trkpt lat="42.69213" lon="1.59752">
        <ele>2256.4</ele>
        <time>2014-09-21T12:10:02Z</time>
      </trkpt>
      <trkpt lat="42.69215" lon="1.59742">
        <ele>2254.4</ele>
        <time>2014-09-21T12:10:05Z</time>
      </trkpt>
      <trkpt lat="42.69224" lon="1.59732">
        <ele>2252</ele>
        <time>2014-09-21T12:10:11Z</time>
      </trkpt>
      <trkpt lat="42.69235" lon="1.59712">
        <ele>2248.2</ele>
        <time>2014-09-21T12:10:19Z</time>
      </trkpt>
      <trkpt lat="42.69246" lon="1.59697">
        <ele>2244.8</ele>
        <time>2014-09-21T12:10:26Z</time>
      </trkpt>
      <trkpt lat="42.69258" lon="1.59678">
        <ele>2241.5</ele>
        <time>2014-09-21T12:10:34Z</time>
      </trkpt>
      <trkpt lat="42.69285" lon="1.59649">
        <ele>2238.1</ele>
        <time>2014-09-21T12:10:45Z</time>
      </trkpt>
      <trkpt lat="42.6931" lon="1.59632">
        <ele>2236.6</ele>
        <time>2014-09-21T12:10:56Z</time>
      </trkpt>
      <trkpt lat="42.69311" lon="1.59631">
        <ele>2236.6</ele>
        <time>2014-09-21T12:11:08Z</time>
      </trkpt>
      <trkpt lat="42.69322" lon="1.59613">
        <ele>2236.2</ele>
        <time>2014-09-21T12:11:18Z</time>
      </trkpt>
      <trkpt lat="42.69334" lon="1.59591">
        <ele>2236.2</ele>
        <time>2014-09-21T12:11:33Z</time>
      </trkpt>
      <trkpt lat="42.69335" lon="1.5959">
        <ele>2235.7</ele>
        <time>2014-09-21T12:11:36Z</time>
      </trkpt>
      <trkpt lat="42.69351" lon="1.59574">
        <ele>2235.7</ele>
        <time>2014-09-21T12:11:54Z</time>
      </trkpt>
      <trkpt lat="42.69357" lon="1.59561">
        <ele>2235.7</ele>
        <time>2014-09-21T12:12:04Z</time>
      </trkpt>
      <trkpt lat="42.69362" lon="1.59557">
        <ele>2236.6</ele>
        <time>2014-09-21T12:12:11Z</time>
      </trkpt>
      <trkpt lat="42.69377" lon="1.59547">
        <ele>2238.1</ele>
        <time>2014-09-21T12:12:28Z</time>
      </trkpt>
      <trkpt lat="42.69387" lon="1.59538">
        <ele>2239.5</ele>
        <time>2014-09-21T12:12:43Z</time>
      </trkpt>
      <trkpt lat="42.6939" lon="1.59538">
        <ele>2239.5</ele>
        <time>2014-09-21T12:12:47Z</time>
      </trkpt>
      <trkpt lat="42.69403" lon="1.59534">
        <ele>2241</ele>
        <time>2014-09-21T12:13:03Z</time>
      </trkpt>
      <trkpt lat="42.69417" lon="1.5953">
        <ele>2243.4</ele>
        <time>2014-09-21T12:13:23Z</time>
      </trkpt>
      <trkpt lat="42.69427" lon="1.59529">
        <ele>2244.3</ele>
        <time>2014-09-21T12:13:39Z</time>
      </trkpt>
      <trkpt lat="42.69429" lon="1.59526">
        <ele>2244.8</ele>
        <time>2014-09-21T12:13:48Z</time>
      </trkpt>
      <trkpt lat="42.69432" lon="1.59514">
        <ele>2247.2</ele>
        <time>2014-09-21T12:14:03Z</time>
      </trkpt>
      <trkpt lat="42.69434" lon="1.59513">
        <ele>2247.7</ele>
        <time>2014-09-21T12:14:07Z</time>
      </trkpt>
      <trkpt lat="42.69441" lon="1.59517">
        <ele>2249.6</ele>
        <time>2014-09-21T12:14:22Z</time>
      </trkpt>
      <trkpt lat="42.69449" lon="1.5952">
        <ele>2251.5</ele>
        <time>2014-09-21T12:14:37Z</time>
      </trkpt>
      <trkpt lat="42.69459" lon="1.59522">
        <ele>2253.5</ele>
        <time>2014-09-21T12:14:53Z</time>
      </trkpt>
      <trkpt lat="42.69463" lon="1.59517">
        <ele>2254.9</ele>
        <time>2014-09-21T12:15:06Z</time>
      </trkpt>
      <trkpt lat="42.69467" lon="1.59507">
        <ele>2256.8</ele>
        <time>2014-09-21T12:15:20Z</time>
      </trkpt>
      <trkpt lat="42.69472" lon="1.59501">
        <ele>2257.8</ele>
        <time>2014-09-21T12:15:32Z</time>
      </trkpt>
      <trkpt lat="42.6948" lon="1.59499">
        <ele>2259.2</ele>
        <time>2014-09-21T12:15:45Z</time>
      </trkpt>
      <trkpt lat="42.69491" lon="1.59498">
        <ele>2260.7</ele>
        <time>2014-09-21T12:16:00Z</time>
      </trkpt>
      <trkpt lat="42.695" lon="1.59493">
        <ele>2262.1</ele>
        <time>2014-09-21T12:16:14Z</time>
      </trkpt>
      <trkpt lat="42.6951" lon="1.59487">
        <ele>2263.6</ele>
        <time>2014-09-21T12:16:29Z</time>
      </trkpt>
      <trkpt lat="42.69521" lon="1.59483">
        <ele>2265.5</ele>
        <time>2014-09-21T12:16:44Z</time>
      </trkpt>
      <trkpt lat="42.69521" lon="1.59483">
        <ele>2265.5</ele>
        <time>2014-09-21T12:16:45Z</time>
      </trkpt>
      <trkpt lat="42.69533" lon="1.59481">
        <ele>2266.5</ele>
        <time>2014-09-21T12:17:00Z</time>
      </trkpt>
      <trkpt lat="42.69534" lon="1.59481">
        <ele>2266.5</ele>
        <time>2014-09-21T12:17:01Z</time>
      </trkpt>
      <trkpt lat="42.69534" lon="1.59468">
        <ele>2268.4</ele>
        <time>2014-09-21T12:17:15Z</time>
      </trkpt>
      <trkpt lat="42.69532" lon="1.59456">
        <ele>2270.3</ele>
        <time>2014-09-21T12:17:29Z</time>
      </trkpt>
      <trkpt lat="42.69536" lon="1.5945">
        <ele>2271.7</ele>
        <time>2014-09-21T12:17:42Z</time>
      </trkpt>
      <trkpt lat="42.69545" lon="1.5945">
        <ele>2273.7</ele>
        <time>2014-09-21T12:17:58Z</time>
      </trkpt>
      <trkpt lat="42.69547" lon="1.59444">
        <ele>2274.6</ele>
        <time>2014-09-21T12:18:09Z</time>
      </trkpt>
      <trkpt lat="42.69546" lon="1.59435">
        <ele>2276.1</ele>
        <time>2014-09-21T12:18:20Z</time>
      </trkpt>
      <trkpt lat="42.69552" lon="1.59432">
        <ele>2277.5</ele>
        <time>2014-09-21T12:18:33Z</time>
      </trkpt>
      <trkpt lat="42.69561" lon="1.59436">
        <ele>2278.9</ele>
        <time>2014-09-21T12:18:47Z</time>
      </trkpt>
      <trkpt lat="42.69568" lon="1.59433">
        <ele>2280.4</ele>
        <time>2014-09-21T12:19:03Z</time>
      </trkpt>
      <trkpt lat="42.6957" lon="1.59423">
        <ele>2282.3</ele>
        <time>2014-09-21T12:19:17Z</time>
      </trkpt>
      <trkpt lat="42.69582" lon="1.59421">
        <ele>2284.2</ele>
        <time>2014-09-21T12:19:34Z</time>
      </trkpt>
      <trkpt lat="42.69586" lon="1.59421">
        <ele>2284.7</ele>
        <time>2014-09-21T12:19:40Z</time>
      </trkpt>
      <trkpt lat="42.69592" lon="1.59417">
        <ele>2286.6</ele>
        <time>2014-09-21T12:19:55Z</time>
      </trkpt>
      <trkpt lat="42.69591" lon="1.59407">
        <ele>2288.1</ele>
        <time>2014-09-21T12:20:08Z</time>
      </trkpt>
      <trkpt lat="42.69591" lon="1.59398">
        <ele>2290</ele>
        <time>2014-09-21T12:20:21Z</time>
      </trkpt>
      <trkpt lat="42.69601" lon="1.59399">
        <ele>2291.4</ele>
        <time>2014-09-21T12:20:35Z</time>
      </trkpt>
      <trkpt lat="42.69608" lon="1.59399">
        <ele>2292.4</ele>
        <time>2014-09-21T12:20:47Z</time>
      </trkpt>
      <trkpt lat="42.69612" lon="1.59397">
        <ele>2294.3</ele>
        <time>2014-09-21T12:20:59Z</time>
      </trkpt>
      <trkpt lat="42.6962" lon="1.59399">
        <ele>2295.8</ele>
        <time>2014-09-21T12:21:13Z</time>
      </trkpt>
      <trkpt lat="42.69632" lon="1.59405">
        <ele>2296.3</ele>
        <time>2014-09-21T12:21:27Z</time>
      </trkpt>
      <trkpt lat="42.69648" lon="1.59409">
        <ele>2298.2</ele>
        <time>2014-09-21T12:21:45Z</time>
      </trkpt>
      <trkpt lat="42.69659" lon="1.5941">
        <ele>2299.1</ele>
        <time>2014-09-21T12:21:58Z</time>
      </trkpt>
      <trkpt lat="42.69662" lon="1.59411">
        <ele>2299.6</ele>
        <time>2014-09-21T12:22:03Z</time>
      </trkpt>
      <trkpt lat="42.69677" lon="1.59417">
        <ele>2300.6</ele>
        <time>2014-09-21T12:22:19Z</time>
      </trkpt>
      <trkpt lat="42.6969" lon="1.59418">
        <ele>2302.5</ele>
        <time>2014-09-21T12:22:34Z</time>
      </trkpt>
      <trkpt lat="42.69692" lon="1.5942">
        <ele>2303</ele>
        <time>2014-09-21T12:22:37Z</time>
      </trkpt>
      <trkpt lat="42.69703" lon="1.59425">
        <ele>2303</ele>
        <time>2014-09-21T12:22:49Z</time>
      </trkpt>
      <trkpt lat="42.69708" lon="1.59427">
        <ele>2303</ele>
        <time>2014-09-21T12:22:54Z</time>
      </trkpt>
      <trkpt lat="42.6972" lon="1.59426">
        <ele>2304.4</ele>
        <time>2014-09-21T12:23:09Z</time>
      </trkpt>
      <trkpt lat="42.69722" lon="1.59426">
        <ele>2304.9</ele>
        <time>2014-09-21T12:23:12Z</time>
      </trkpt>
      <trkpt lat="42.69729" lon="1.5943">
        <ele>2305.9</ele>
        <time>2014-09-21T12:23:21Z</time>
      </trkpt>
      <trkpt lat="42.6974" lon="1.59441">
        <ele>2305.9</ele>
        <time>2014-09-21T12:23:35Z</time>
      </trkpt>
      <trkpt lat="42.69747" lon="1.59449">
        <ele>2306.8</ele>
        <time>2014-09-21T12:23:49Z</time>
      </trkpt>
      <trkpt lat="42.69755" lon="1.59458">
        <ele>2307.8</ele>
        <time>2014-09-21T12:24:00Z</time>
      </trkpt>
      <trkpt lat="42.69757" lon="1.59459">
        <ele>2307.8</ele>
        <time>2014-09-21T12:24:02Z</time>
      </trkpt>
      <trkpt lat="42.69765" lon="1.59462">
        <ele>2308.7</ele>
        <time>2014-09-21T12:24:12Z</time>
      </trkpt>
      <trkpt lat="42.69778" lon="1.59467">
        <ele>2310.7</ele>
        <time>2014-09-21T12:24:29Z</time>
      </trkpt>
      <trkpt lat="42.69786" lon="1.59471">
        <ele>2311.2</ele>
        <time>2014-09-21T12:24:40Z</time>
      </trkpt>
      <trkpt lat="42.69795" lon="1.59477">
        <ele>2311.6</ele>
        <time>2014-09-21T12:24:51Z</time>
      </trkpt>
      <trkpt lat="42.69797" lon="1.59481">
        <ele>2311.6</ele>
        <time>2014-09-21T12:24:54Z</time>
      </trkpt>
      <trkpt lat="42.6981" lon="1.59492">
        <ele>2310.7</ele>
        <time>2014-09-21T12:25:09Z</time>
      </trkpt>
      <trkpt lat="42.69812" lon="1.59493">
        <ele>2310.7</ele>
        <time>2014-09-21T12:25:11Z</time>
      </trkpt>
      <trkpt lat="42.69823" lon="1.59509">
        <ele>2312.1</ele>
        <time>2014-09-21T12:25:27Z</time>
      </trkpt>
      <trkpt lat="42.6983" lon="1.59516">
        <ele>2313.6</ele>
        <time>2014-09-21T12:25:37Z</time>
      </trkpt>
      <trkpt lat="42.69836" lon="1.59519">
        <ele>2314.5</ele>
        <time>2014-09-21T12:25:44Z</time>
      </trkpt>
      <trkpt lat="42.69849" lon="1.5953">
        <ele>2316.4</ele>
        <time>2014-09-21T12:26:02Z</time>
      </trkpt>
      <trkpt lat="42.69857" lon="1.59533">
        <ele>2318.4</ele>
        <time>2014-09-21T12:26:16Z</time>
      </trkpt>
      <trkpt lat="42.69861" lon="1.5954">
        <ele>2319.8</ele>
        <time>2014-09-21T12:26:29Z</time>
      </trkpt>
      <trkpt lat="42.69871" lon="1.5955">
        <ele>2321.2</ele>
        <time>2014-09-21T12:26:44Z</time>
      </trkpt>
      <trkpt lat="42.69878" lon="1.59562">
        <ele>2322.7</ele>
        <time>2014-09-21T12:27:00Z</time>
      </trkpt>
      <trkpt lat="42.69885" lon="1.59564">
        <ele>2324.1</ele>
        <time>2014-09-21T12:27:12Z</time>
      </trkpt>
      <trkpt lat="42.69893" lon="1.59574">
        <ele>2325.1</ele>
        <time>2014-09-21T12:27:26Z</time>
      </trkpt>
      <trkpt lat="42.69895" lon="1.59577">
        <ele>2325.1</ele>
        <time>2014-09-21T12:27:29Z</time>
      </trkpt>
      <trkpt lat="42.69899" lon="1.59581">
        <ele>2325.6</ele>
        <time>2014-09-21T12:27:35Z</time>
      </trkpt>
      <trkpt lat="42.69908" lon="1.59587">
        <ele>2328</ele>
        <time>2014-09-21T12:27:50Z</time>
      </trkpt>
      <trkpt lat="42.69916" lon="1.59596">
        <ele>2328.5</ele>
        <time>2014-09-21T12:28:03Z</time>
      </trkpt>
      <trkpt lat="42.6992" lon="1.59599">
        <ele>2328.9</ele>
        <time>2014-09-21T12:28:09Z</time>
      </trkpt>
      <trkpt lat="42.69922" lon="1.59602">
        <ele>2329.4</ele>
        <time>2014-09-21T12:28:13Z</time>
      </trkpt>
      <trkpt lat="42.69927" lon="1.59608">
        <ele>2329.9</ele>
        <time>2014-09-21T12:28:20Z</time>
      </trkpt>
      <trkpt lat="42.69932" lon="1.59613">
        <ele>2330.4</ele>
        <time>2014-09-21T12:28:27Z</time>
      </trkpt>
      <trkpt lat="42.69935" lon="1.59616">
        <ele>2330.4</ele>
        <time>2014-09-21T12:28:31Z</time>
      </trkpt>
      <trkpt lat="42.6994" lon="1.59622">
        <ele>2331.3</ele>
        <time>2014-09-21T12:28:41Z</time>
      </trkpt>
      <trkpt lat="42.6994" lon="1.59622">
        <ele>2330.9</ele>
        <time>2014-09-21T12:28:53Z</time>
      </trkpt>
      <trkpt lat="42.69946" lon="1.59628">
        <ele>2330.9</ele>
        <time>2014-09-21T12:28:59Z</time>
      </trkpt>
      <trkpt lat="42.69967" lon="1.59644">
        <ele>2331.8</ele>
        <time>2014-09-21T12:29:14Z</time>
      </trkpt>
      <trkpt lat="42.69988" lon="1.59654">
        <ele>2331.8</ele>
        <time>2014-09-21T12:29:28Z</time>
      </trkpt>
      <trkpt lat="42.70005" lon="1.5966">
        <ele>2331.8</ele>
        <time>2014-09-21T12:29:40Z</time>
      </trkpt>
      <trkpt lat="42.70026" lon="1.59659">
        <ele>2331.8</ele>
        <time>2014-09-21T12:29:52Z</time>
      </trkpt>
      <trkpt lat="42.70051" lon="1.59649">
        <ele>2331.8</ele>
        <time>2014-09-21T12:30:06Z</time>
      </trkpt>
      <trkpt lat="42.70073" lon="1.59643">
        <ele>2331.8</ele>
        <time>2014-09-21T12:30:18Z</time>
      </trkpt>
      <trkpt lat="42.70091" lon="1.59639">
        <ele>2331.8</ele>
        <time>2014-09-21T12:30:28Z</time>
      </trkpt>
      <trkpt lat="42.70092" lon="1.59638">
        <ele>2331.8</ele>
        <time>2014-09-21T12:30:29Z</time>
      </trkpt>
      <trkpt lat="42.70094" lon="1.59637">
        <ele>2331.8</ele>
        <time>2014-09-21T12:30:30Z</time>
      </trkpt>
      <trkpt lat="42.70096" lon="1.59637">
        <ele>2331.8</ele>
        <time>2014-09-21T12:30:31Z</time>
      </trkpt>
      <trkpt lat="42.70098" lon="1.59637">
        <ele>2331.8</ele>
        <time>2014-09-21T12:30:32Z</time>
      </trkpt>
      <trkpt lat="42.701" lon="1.59636">
        <ele>2331.8</ele>
        <time>2014-09-21T12:30:33Z</time>
      </trkpt>
      <trkpt lat="42.70102" lon="1.59636">
        <ele>2331.8</ele>
        <time>2014-09-21T12:30:34Z</time>
      </trkpt>
      <trkpt lat="42.70104" lon="1.59636">
        <ele>2331.8</ele>
        <time>2014-09-21T12:30:35Z</time>
      </trkpt>
      <trkpt lat="42.70106" lon="1.59635">
        <ele>2331.8</ele>
        <time>2014-09-21T12:30:36Z</time>
      </trkpt>
      <trkpt lat="42.70108" lon="1.59635">
        <ele>2331.8</ele>
        <time>2014-09-21T12:30:37Z</time>
      </trkpt>
      <trkpt lat="42.70109" lon="1.59634">
        <ele>2331.8</ele>
        <time>2014-09-21T12:30:38Z</time>
      </trkpt>
      <trkpt lat="42.70111" lon="1.59633">
        <ele>2331.8</ele>
        <time>2014-09-21T12:30:39Z</time>
      </trkpt>
      <trkpt lat="42.70113" lon="1.59633">
        <ele>2331.8</ele>
        <time>2014-09-21T12:30:40Z</time>
      </trkpt>
      <trkpt lat="42.70114" lon="1.59632">
        <ele>2331.8</ele>
        <time>2014-09-21T12:30:41Z</time>
      </trkpt>
      <trkpt lat="42.70135" lon="1.59631">
        <ele>2332.3</ele>
        <time>2014-09-21T12:30:53Z</time>
      </trkpt>
      <trkpt lat="42.7016" lon="1.59624">
        <ele>2333.3</ele>
        <time>2014-09-21T12:31:05Z</time>
      </trkpt>
      <trkpt lat="42.70181" lon="1.59615">
        <ele>2333.3</ele>
        <time>2014-09-21T12:31:14Z</time>
      </trkpt>
      <trkpt lat="42.70183" lon="1.59614">
        <ele>2333.3</ele>
        <time>2014-09-21T12:31:15Z</time>
      </trkpt>
      <trkpt lat="42.70186" lon="1.59614">
        <ele>2333.3</ele>
        <time>2014-09-21T12:31:16Z</time>
      </trkpt>
      <trkpt lat="42.70211" lon="1.59607">
        <ele>2333.7</ele>
        <time>2014-09-21T12:31:27Z</time>
      </trkpt>
      <trkpt lat="42.70212" lon="1.59607">
        <ele>2333.7</ele>
        <time>2014-09-21T12:31:28Z</time>
      </trkpt>
      <trkpt lat="42.70225" lon="1.59605">
        <ele>2333.7</ele>
        <time>2014-09-21T12:31:35Z</time>
      </trkpt>
      <trkpt lat="42.70227" lon="1.59604">
        <ele>2333.7</ele>
        <time>2014-09-21T12:31:36Z</time>
      </trkpt>
      <trkpt lat="42.70229" lon="1.59603">
        <ele>2333.7</ele>
        <time>2014-09-21T12:31:37Z</time>
      </trkpt>
      <trkpt lat="42.70233" lon="1.59601">
        <ele>2333.7</ele>
        <time>2014-09-21T12:31:39Z</time>
      </trkpt>
      <trkpt lat="42.70234" lon="1.596">
        <ele>2333.7</ele>
        <time>2014-09-21T12:31:40Z</time>
      </trkpt>
      <trkpt lat="42.70236" lon="1.59599">
        <ele>2333.7</ele>
        <time>2014-09-21T12:31:41Z</time>
      </trkpt>
      <trkpt lat="42.70238" lon="1.59599">
        <ele>2333.7</ele>
        <time>2014-09-21T12:31:42Z</time>
      </trkpt>
      <trkpt lat="42.7024" lon="1.59598">
        <ele>2333.7</ele>
        <time>2014-09-21T12:31:43Z</time>
      </trkpt>
      <trkpt lat="42.70242" lon="1.59597">
        <ele>2333.7</ele>
        <time>2014-09-21T12:31:44Z</time>
      </trkpt>
      <trkpt lat="42.70244" lon="1.59596">
        <ele>2333.7</ele>
        <time>2014-09-21T12:31:45Z</time>
      </trkpt>
      <trkpt lat="42.70246" lon="1.59595">
        <ele>2333.7</ele>
        <time>2014-09-21T12:31:46Z</time>
      </trkpt>
      <trkpt lat="42.70274" lon="1.59577">
        <ele>2332.8</ele>
        <time>2014-09-21T12:31:58Z</time>
      </trkpt>
      <trkpt lat="42.70282" lon="1.59573">
        <ele>2332.3</ele>
        <time>2014-09-21T12:32:02Z</time>
      </trkpt>
      <trkpt lat="42.70283" lon="1.59572">
        <ele>2332.3</ele>
        <time>2014-09-21T12:32:03Z</time>
      </trkpt>
      <trkpt lat="42.70285" lon="1.59571">
        <ele>2332.3</ele>
        <time>2014-09-21T12:32:04Z</time>
      </trkpt>
      <trkpt lat="42.70287" lon="1.5957">
        <ele>2332.3</ele>
        <time>2014-09-21T12:32:05Z</time>
      </trkpt>
      <trkpt lat="42.70288" lon="1.5957">
        <ele>2332.3</ele>
        <time>2014-09-21T12:32:06Z</time>
      </trkpt>
      <trkpt lat="42.7029" lon="1.59568">
        <ele>2331.8</ele>
        <time>2014-09-21T12:32:07Z</time>
      </trkpt>
      <trkpt lat="42.70292" lon="1.59567">
        <ele>2331.8</ele>
        <time>2014-09-21T12:32:08Z</time>
      </trkpt>
      <trkpt lat="42.70294" lon="1.59565">
        <ele>2331.8</ele>
        <time>2014-09-21T12:32:09Z</time>
      </trkpt>
      <trkpt lat="42.70296" lon="1.59565">
        <ele>2331.3</ele>
        <time>2014-09-21T12:32:10Z</time>
      </trkpt>
      <trkpt lat="42.70298" lon="1.59563">
        <ele>2331.3</ele>
        <time>2014-09-21T12:32:11Z</time>
      </trkpt>
      <trkpt lat="42.70299" lon="1.59561">
        <ele>2331.3</ele>
        <time>2014-09-21T12:32:12Z</time>
      </trkpt>
      <trkpt lat="42.70301" lon="1.5956">
        <ele>2331.3</ele>
        <time>2014-09-21T12:32:13Z</time>
      </trkpt>
      <trkpt lat="42.70303" lon="1.59558">
        <ele>2331.3</ele>
        <time>2014-09-21T12:32:14Z</time>
      </trkpt>
      <trkpt lat="42.70304" lon="1.59557">
        <ele>2331.3</ele>
        <time>2014-09-21T12:32:15Z</time>
      </trkpt>
      <trkpt lat="42.70327" lon="1.59528">
        <ele>2329.9</ele>
        <time>2014-09-21T12:32:27Z</time>
      </trkpt>
      <trkpt lat="42.70344" lon="1.59485">
        <ele>2327.5</ele>
        <time>2014-09-21T12:32:41Z</time>
      </trkpt>
      <trkpt lat="42.70351" lon="1.59452">
        <ele>2324.6</ele>
        <time>2014-09-21T12:32:52Z</time>
      </trkpt>
      <trkpt lat="42.70355" lon="1.59417">
        <ele>2322.2</ele>
        <time>2014-09-21T12:33:01Z</time>
      </trkpt>
      <trkpt lat="42.70356" lon="1.59413">
        <ele>2321.7</ele>
        <time>2014-09-21T12:33:02Z</time>
      </trkpt>
      <trkpt lat="42.70357" lon="1.5941">
        <ele>2321.7</ele>
        <time>2014-09-21T12:33:03Z</time>
      </trkpt>
      <trkpt lat="42.70358" lon="1.59407">
        <ele>2321.2</ele>
        <time>2014-09-21T12:33:04Z</time>
      </trkpt>
      <trkpt lat="42.70359" lon="1.59404">
        <ele>2321.2</ele>
        <time>2014-09-21T12:33:05Z</time>
      </trkpt>
      <trkpt lat="42.7036" lon="1.59402">
        <ele>2320.8</ele>
        <time>2014-09-21T12:33:06Z</time>
      </trkpt>
      <trkpt lat="42.70361" lon="1.594">
        <ele>2320.8</ele>
        <time>2014-09-21T12:33:07Z</time>
      </trkpt>
      <trkpt lat="42.70361" lon="1.59397">
        <ele>2319.8</ele>
        <time>2014-09-21T12:33:08Z</time>
      </trkpt>
      <trkpt lat="42.70362" lon="1.59394">
        <ele>2319.8</ele>
        <time>2014-09-21T12:33:09Z</time>
      </trkpt>
      <trkpt lat="42.70362" lon="1.59391">
        <ele>2319.3</ele>
        <time>2014-09-21T12:33:10Z</time>
      </trkpt>
      <trkpt lat="42.70377" lon="1.59351">
        <ele>2316.4</ele>
        <time>2014-09-21T12:33:22Z</time>
      </trkpt>
      <trkpt lat="42.70379" lon="1.59348">
        <ele>2316</ele>
        <time>2014-09-21T12:33:23Z</time>
      </trkpt>
      <trkpt lat="42.7038" lon="1.59345">
        <ele>2315.5</ele>
        <time>2014-09-21T12:33:24Z</time>
      </trkpt>
      <trkpt lat="42.70381" lon="1.59343">
        <ele>2315.5</ele>
        <time>2014-09-21T12:33:25Z</time>
      </trkpt>
      <trkpt lat="42.70383" lon="1.5934">
        <ele>2315</ele>
        <time>2014-09-21T12:33:26Z</time>
      </trkpt>
      <trkpt lat="42.70384" lon="1.59338">
        <ele>2314.5</ele>
        <time>2014-09-21T12:33:27Z</time>
      </trkpt>
      <trkpt lat="42.70385" lon="1.59336">
        <ele>2313.6</ele>
        <time>2014-09-21T12:33:28Z</time>
      </trkpt>
      <trkpt lat="42.70386" lon="1.59334">
        <ele>2313.6</ele>
        <time>2014-09-21T12:33:29Z</time>
      </trkpt>
      <trkpt lat="42.70387" lon="1.59332">
        <ele>2313.1</ele>
        <time>2014-09-21T12:33:30Z</time>
      </trkpt>
      <trkpt lat="42.70388" lon="1.59329">
        <ele>2313.1</ele>
        <time>2014-09-21T12:33:31Z</time>
      </trkpt>
      <trkpt lat="42.70389" lon="1.59327">
        <ele>2312.6</ele>
        <time>2014-09-21T12:33:32Z</time>
      </trkpt>
      <trkpt lat="42.7039" lon="1.59324">
        <ele>2312.1</ele>
        <time>2014-09-21T12:33:33Z</time>
      </trkpt>
      <trkpt lat="42.70391" lon="1.59322">
        <ele>2311.6</ele>
        <time>2014-09-21T12:33:34Z</time>
      </trkpt>
      <trkpt lat="42.70391" lon="1.5932">
        <ele>2311.6</ele>
        <time>2014-09-21T12:33:35Z</time>
      </trkpt>
      <trkpt lat="42.70392" lon="1.59317">
        <ele>2311.6</ele>
        <time>2014-09-21T12:33:36Z</time>
      </trkpt>
      <trkpt lat="42.70393" lon="1.59313">
        <ele>2311.2</ele>
        <time>2014-09-21T12:33:37Z</time>
      </trkpt>
      <trkpt lat="42.70395" lon="1.5931">
        <ele>2311.2</ele>
        <time>2014-09-21T12:33:38Z</time>
      </trkpt>
      <trkpt lat="42.70414" lon="1.59261">
        <ele>2309.2</ele>
        <time>2014-09-21T12:33:51Z</time>
      </trkpt>
      <trkpt lat="42.70425" lon="1.59224">
        <ele>2306.3</ele>
        <time>2014-09-21T12:34:03Z</time>
      </trkpt>
      <trkpt lat="42.70441" lon="1.59179">
        <ele>2303.5</ele>
        <time>2014-09-21T12:34:15Z</time>
      </trkpt>
      <trkpt lat="42.70452" lon="1.5914">
        <ele>2300.1</ele>
        <time>2014-09-21T12:34:25Z</time>
      </trkpt>
      <trkpt lat="42.70461" lon="1.59105">
        <ele>2298.2</ele>
        <time>2014-09-21T12:34:35Z</time>
      </trkpt>
      <trkpt lat="42.70476" lon="1.59074">
        <ele>2296.3</ele>
        <time>2014-09-21T12:34:45Z</time>
      </trkpt>
      <trkpt lat="42.70493" lon="1.5903">
        <ele>2293.8</ele>
        <time>2014-09-21T12:34:57Z</time>
      </trkpt>
      <trkpt lat="42.70494" lon="1.59026">
        <ele>2293.8</ele>
        <time>2014-09-21T12:34:58Z</time>
      </trkpt>
      <trkpt lat="42.70496" lon="1.59023">
        <ele>2293.4</ele>
        <time>2014-09-21T12:34:59Z</time>
      </trkpt>
      <trkpt lat="42.70497" lon="1.59019">
        <ele>2292.9</ele>
        <time>2014-09-21T12:35:00Z</time>
      </trkpt>
      <trkpt lat="42.70499" lon="1.59015">
        <ele>2292.9</ele>
        <time>2014-09-21T12:35:01Z</time>
      </trkpt>
      <trkpt lat="42.705" lon="1.5901">
        <ele>2292.4</ele>
        <time>2014-09-21T12:35:02Z</time>
      </trkpt>
      <trkpt lat="42.70501" lon="1.59006">
        <ele>2292.4</ele>
        <time>2014-09-21T12:35:03Z</time>
      </trkpt>
      <trkpt lat="42.70513" lon="1.58974">
        <ele>2290.5</ele>
        <time>2014-09-21T12:35:12Z</time>
      </trkpt>
      <trkpt lat="42.70521" lon="1.58962">
        <ele>2289</ele>
        <time>2014-09-21T12:35:17Z</time>
      </trkpt>
      <trkpt lat="42.70522" lon="1.5896">
        <ele>2289</ele>
        <time>2014-09-21T12:35:18Z</time>
      </trkpt>
      <trkpt lat="42.70524" lon="1.58957">
        <ele>2288.6</ele>
        <time>2014-09-21T12:35:19Z</time>
      </trkpt>
      <trkpt lat="42.70525" lon="1.58953">
        <ele>2288.6</ele>
        <time>2014-09-21T12:35:20Z</time>
      </trkpt>
      <trkpt lat="42.70527" lon="1.5895">
        <ele>2288.1</ele>
        <time>2014-09-21T12:35:21Z</time>
      </trkpt>
      <trkpt lat="42.70528" lon="1.58947">
        <ele>2288.1</ele>
        <time>2014-09-21T12:35:22Z</time>
      </trkpt>
      <trkpt lat="42.7053" lon="1.58944">
        <ele>2287.6</ele>
        <time>2014-09-21T12:35:23Z</time>
      </trkpt>
      <trkpt lat="42.70531" lon="1.58941">
        <ele>2287.6</ele>
        <time>2014-09-21T12:35:24Z</time>
      </trkpt>
      <trkpt lat="42.70546" lon="1.58897">
        <ele>2285.2</ele>
        <time>2014-09-21T12:35:36Z</time>
      </trkpt>
      <trkpt lat="42.7056" lon="1.58864">
        <ele>2283.3</ele>
        <time>2014-09-21T12:35:46Z</time>
      </trkpt>
      <trkpt lat="42.70561" lon="1.58861">
        <ele>2283.3</ele>
        <time>2014-09-21T12:35:47Z</time>
      </trkpt>
      <trkpt lat="42.70562" lon="1.58858">
        <ele>2283.3</ele>
        <time>2014-09-21T12:35:48Z</time>
      </trkpt>
      <trkpt lat="42.70562" lon="1.58854">
        <ele>2283.3</ele>
        <time>2014-09-21T12:35:49Z</time>
      </trkpt>
      <trkpt lat="42.70563" lon="1.58851">
        <ele>2282.8</ele>
        <time>2014-09-21T12:35:50Z</time>
      </trkpt>
      <trkpt lat="42.70564" lon="1.58847">
        <ele>2282.8</ele>
        <time>2014-09-21T12:35:51Z</time>
      </trkpt>
      <trkpt lat="42.70565" lon="1.58843">
        <ele>2282.8</ele>
        <time>2014-09-21T12:35:52Z</time>
      </trkpt>
      <trkpt lat="42.70584" lon="1.58803">
        <ele>2279.9</ele>
        <time>2014-09-21T12:36:03Z</time>
      </trkpt>
      <trkpt lat="42.70601" lon="1.58775">
        <ele>2278.5</ele>
        <time>2014-09-21T12:36:12Z</time>
      </trkpt>
      <trkpt lat="42.70618" lon="1.58752">
        <ele>2276.5</ele>
        <time>2014-09-21T12:36:20Z</time>
      </trkpt>
      <trkpt lat="42.70639" lon="1.58732">
        <ele>2273.2</ele>
        <time>2014-09-21T12:36:29Z</time>
      </trkpt>
      <trkpt lat="42.7066" lon="1.58702">
        <ele>2270.8</ele>
        <time>2014-09-21T12:36:39Z</time>
      </trkpt>
      <trkpt lat="42.70681" lon="1.58672">
        <ele>2267.9</ele>
        <time>2014-09-21T12:36:49Z</time>
      </trkpt>
      <trkpt lat="42.70703" lon="1.58636">
        <ele>2266.5</ele>
        <time>2014-09-21T12:37:00Z</time>
      </trkpt>
      <trkpt lat="42.70722" lon="1.58602">
        <ele>2264.5</ele>
        <time>2014-09-21T12:37:13Z</time>
      </trkpt>
      <trkpt lat="42.70741" lon="1.58583">
        <ele>2265</ele>
        <time>2014-09-21T12:37:27Z</time>
      </trkpt>
      <trkpt lat="42.7076" lon="1.58559">
        <ele>2266.5</ele>
        <time>2014-09-21T12:37:43Z</time>
      </trkpt>
      <trkpt lat="42.70771" lon="1.58548">
        <ele>2267.4</ele>
        <time>2014-09-21T12:37:56Z</time>
      </trkpt>
      <trkpt lat="42.7078" lon="1.58541">
        <ele>2267.9</ele>
        <time>2014-09-21T12:38:08Z</time>
      </trkpt>
      <trkpt lat="42.70781" lon="1.5854">
        <ele>2267.9</ele>
        <time>2014-09-21T12:38:09Z</time>
      </trkpt>
      <trkpt lat="42.70791" lon="1.58531">
        <ele>2269.8</ele>
        <time>2014-09-21T12:38:24Z</time>
      </trkpt>
      <trkpt lat="42.70801" lon="1.58524">
        <ele>2270.8</ele>
        <time>2014-09-21T12:38:38Z</time>
      </trkpt>
      <trkpt lat="42.7081" lon="1.58517">
        <ele>2271.7</ele>
        <time>2014-09-21T12:38:54Z</time>
      </trkpt>
      <trkpt lat="42.70817" lon="1.58513">
        <ele>2273.7</ele>
        <time>2014-09-21T12:39:06Z</time>
      </trkpt>
      <trkpt lat="42.70823" lon="1.58513">
        <ele>2274.6</ele>
        <time>2014-09-21T12:39:14Z</time>
      </trkpt>
      <trkpt lat="42.70829" lon="1.58513">
        <ele>2275.6</ele>
        <time>2014-09-21T12:39:22Z</time>
      </trkpt>
      <trkpt lat="42.70834" lon="1.58514">
        <ele>2276.1</ele>
        <time>2014-09-21T12:39:28Z</time>
      </trkpt>
      <trkpt lat="42.70844" lon="1.58511">
        <ele>2277.5</ele>
        <time>2014-09-21T12:39:41Z</time>
      </trkpt>
      <trkpt lat="42.70856" lon="1.58506">
        <ele>2278.9</ele>
        <time>2014-09-21T12:39:54Z</time>
      </trkpt>
      <trkpt lat="42.70867" lon="1.58499">
        <ele>2280.4</ele>
        <time>2014-09-21T12:40:07Z</time>
      </trkpt>
      <trkpt lat="42.70876" lon="1.58495">
        <ele>2281.4</ele>
        <time>2014-09-21T12:40:17Z</time>
      </trkpt>
      <trkpt lat="42.70888" lon="1.58485">
        <ele>2282.8</ele>
        <time>2014-09-21T12:40:32Z</time>
      </trkpt>
      <trkpt lat="42.70891" lon="1.58483">
        <ele>2282.8</ele>
        <time>2014-09-21T12:40:35Z</time>
      </trkpt>
      <trkpt lat="42.70894" lon="1.5848">
        <ele>2282.8</ele>
        <time>2014-09-21T12:40:38Z</time>
      </trkpt>
      <trkpt lat="42.70895" lon="1.58479">
        <ele>2282.8</ele>
        <time>2014-09-21T12:40:40Z</time>
      </trkpt>
      <trkpt lat="42.70896" lon="1.58478">
        <ele>2283.3</ele>
        <time>2014-09-21T12:40:41Z</time>
      </trkpt>
      <trkpt lat="42.7091" lon="1.58467">
        <ele>2283.8</ele>
        <time>2014-09-21T12:40:56Z</time>
      </trkpt>
      <trkpt lat="42.70918" lon="1.58452">
        <ele>2284.7</ele>
        <time>2014-09-21T12:41:09Z</time>
      </trkpt>
      <trkpt lat="42.70932" lon="1.58433">
        <ele>2284.2</ele>
        <time>2014-09-21T12:41:26Z</time>
      </trkpt>
      <trkpt lat="42.70937" lon="1.5843">
        <ele>2283.3</ele>
        <time>2014-09-21T12:41:30Z</time>
      </trkpt>
      <trkpt lat="42.70951" lon="1.5842">
        <ele>2282.3</ele>
        <time>2014-09-21T12:41:43Z</time>
      </trkpt>
      <trkpt lat="42.70952" lon="1.58419">
        <ele>2282.3</ele>
        <time>2014-09-21T12:41:44Z</time>
      </trkpt>
      <trkpt lat="42.70953" lon="1.58419">
        <ele>2282.3</ele>
        <time>2014-09-21T12:41:45Z</time>
      </trkpt>
      <trkpt lat="42.70954" lon="1.58418">
        <ele>2282.3</ele>
        <time>2014-09-21T12:41:46Z</time>
      </trkpt>
      <trkpt lat="42.70955" lon="1.58418">
        <ele>2282.3</ele>
        <time>2014-09-21T12:41:47Z</time>
      </trkpt>
      <trkpt lat="42.70957" lon="1.58418">
        <ele>2282.3</ele>
        <time>2014-09-21T12:41:48Z</time>
      </trkpt>
      <trkpt lat="42.70958" lon="1.58417">
        <ele>2282.3</ele>
        <time>2014-09-21T12:41:49Z</time>
      </trkpt>
      <trkpt lat="42.70959" lon="1.58417">
        <ele>2282.3</ele>
        <time>2014-09-21T12:41:50Z</time>
      </trkpt>
      <trkpt lat="42.70975" lon="1.58409">
        <ele>2283.8</ele>
        <time>2014-09-21T12:42:07Z</time>
      </trkpt>
      <trkpt lat="42.70979" lon="1.58406">
        <ele>2284.2</ele>
        <time>2014-09-21T12:42:11Z</time>
      </trkpt>
      <trkpt lat="42.70985" lon="1.58404">
        <ele>2286.6</ele>
        <time>2014-09-21T12:42:22Z</time>
      </trkpt>
      <trkpt lat="42.70993" lon="1.58405">
        <ele>2288.6</ele>
        <time>2014-09-21T12:42:35Z</time>
      </trkpt>
      <trkpt lat="42.71" lon="1.58405">
        <ele>2290.5</ele>
        <time>2014-09-21T12:42:47Z</time>
      </trkpt>
      <trkpt lat="42.71005" lon="1.58401">
        <ele>2291.9</ele>
        <time>2014-09-21T12:43:00Z</time>
      </trkpt>
      <trkpt lat="42.71011" lon="1.58397">
        <ele>2294.3</ele>
        <time>2014-09-21T12:43:16Z</time>
      </trkpt>
      <trkpt lat="42.71017" lon="1.58392">
        <ele>2296.7</ele>
        <time>2014-09-21T12:43:29Z</time>
      </trkpt>
      <trkpt lat="42.71021" lon="1.58383">
        <ele>2298.7</ele>
        <time>2014-09-21T12:43:45Z</time>
      </trkpt>
      <trkpt lat="42.71023" lon="1.58374">
        <ele>2301.5</ele>
        <time>2014-09-21T12:43:59Z</time>
      </trkpt>
      <trkpt lat="42.71028" lon="1.58366">
        <ele>2302</ele>
        <time>2014-09-21T12:44:11Z</time>
      </trkpt>
      <trkpt lat="42.71034" lon="1.58371">
        <ele>2303.9</ele>
        <time>2014-09-21T12:44:23Z</time>
      </trkpt>
      <trkpt lat="42.71038" lon="1.58372">
        <ele>2304.9</ele>
        <time>2014-09-21T12:44:33Z</time>
      </trkpt>
      <trkpt lat="42.71044" lon="1.58381">
        <ele>2306.3</ele>
        <time>2014-09-21T12:44:46Z</time>
      </trkpt>
      <trkpt lat="42.71046" lon="1.58383">
        <ele>2306.8</ele>
        <time>2014-09-21T12:44:48Z</time>
      </trkpt>
      <trkpt lat="42.71054" lon="1.58384">
        <ele>2308.7</ele>
        <time>2014-09-21T12:45:01Z</time>
      </trkpt>
      <trkpt lat="42.71063" lon="1.58383">
        <ele>2310.7</ele>
        <time>2014-09-21T12:45:14Z</time>
      </trkpt>
      <trkpt lat="42.71069" lon="1.58385">
        <ele>2310.7</ele>
        <time>2014-09-21T12:45:20Z</time>
      </trkpt>
      <trkpt lat="42.7107" lon="1.58385">
        <ele>2310.7</ele>
        <time>2014-09-21T12:45:21Z</time>
      </trkpt>
      <trkpt lat="42.71073" lon="1.58388">
        <ele>2310.7</ele>
        <time>2014-09-21T12:45:26Z</time>
      </trkpt>
      <trkpt lat="42.71075" lon="1.58389">
        <ele>2309.2</ele>
        <time>2014-09-21T12:45:28Z</time>
      </trkpt>
      <trkpt lat="42.71077" lon="1.58391">
        <ele>2308.7</ele>
        <time>2014-09-21T12:45:30Z</time>
      </trkpt>
      <trkpt lat="42.71078" lon="1.58392">
        <ele>2308.7</ele>
        <time>2014-09-21T12:45:31Z</time>
      </trkpt>
      <trkpt lat="42.71079" lon="1.58392">
        <ele>2308.7</ele>
        <time>2014-09-21T12:45:32Z</time>
      </trkpt>
      <trkpt lat="42.71081" lon="1.58393">
        <ele>2308.7</ele>
        <time>2014-09-21T12:45:33Z</time>
      </trkpt>
      <trkpt lat="42.71082" lon="1.58393">
        <ele>2308.7</ele>
        <time>2014-09-21T12:45:34Z</time>
      </trkpt>
      <trkpt lat="42.7109" lon="1.58392">
        <ele>2308.3</ele>
        <time>2014-09-21T12:45:42Z</time>
      </trkpt>
      <trkpt lat="42.71097" lon="1.5839">
        <ele>2308.3</ele>
        <time>2014-09-21T12:45:52Z</time>
      </trkpt>
      <trkpt lat="42.71098" lon="1.5839">
        <ele>2307.8</ele>
        <time>2014-09-21T12:45:53Z</time>
      </trkpt>
      <trkpt lat="42.71103" lon="1.58388">
        <ele>2307.3</ele>
        <time>2014-09-21T12:45:58Z</time>
      </trkpt>
      <trkpt lat="42.71106" lon="1.58389">
        <ele>2306.8</ele>
        <time>2014-09-21T12:46:01Z</time>
      </trkpt>
      <trkpt lat="42.71118" lon="1.58379">
        <ele>2307.8</ele>
        <time>2014-09-21T12:46:17Z</time>
      </trkpt>
      <trkpt lat="42.71121" lon="1.58372">
        <ele>2308.7</ele>
        <time>2014-09-21T12:46:26Z</time>
      </trkpt>
      <trkpt lat="42.71125" lon="1.58361">
        <ele>2307.3</ele>
        <time>2014-09-21T12:46:38Z</time>
      </trkpt>
      <trkpt lat="42.7113" lon="1.58354">
        <ele>2305.4</ele>
        <time>2014-09-21T12:46:48Z</time>
      </trkpt>
      <trkpt lat="42.71139" lon="1.58344">
        <ele>2304.4</ele>
        <time>2014-09-21T12:46:59Z</time>
      </trkpt>
      <trkpt lat="42.71141" lon="1.58339">
        <ele>2305.9</ele>
        <time>2014-09-21T12:47:06Z</time>
      </trkpt>
      <trkpt lat="42.71148" lon="1.58344">
        <ele>2307.3</ele>
        <time>2014-09-21T12:47:17Z</time>
      </trkpt>
      <trkpt lat="42.71157" lon="1.58349">
        <ele>2308.7</ele>
        <time>2014-09-21T12:47:28Z</time>
      </trkpt>
      <trkpt lat="42.71164" lon="1.58347">
        <ele>2311.2</ele>
        <time>2014-09-21T12:47:40Z</time>
      </trkpt>
      <trkpt lat="42.71169" lon="1.58345">
        <ele>2311.2</ele>
        <time>2014-09-21T12:47:47Z</time>
      </trkpt>
      <trkpt lat="42.7117" lon="1.58344">
        <ele>2311.2</ele>
        <time>2014-09-21T12:47:48Z</time>
      </trkpt>
      <trkpt lat="42.7118" lon="1.58341">
        <ele>2309.7</ele>
        <time>2014-09-21T12:48:00Z</time>
      </trkpt>
      <trkpt lat="42.71181" lon="1.58341">
        <ele>2308.7</ele>
        <time>2014-09-21T12:48:01Z</time>
      </trkpt>
      <trkpt lat="42.71184" lon="1.58342">
        <ele>2307.8</ele>
        <time>2014-09-21T12:48:07Z</time>
      </trkpt>
      <trkpt lat="42.71183" lon="1.58341">
        <ele>2307.8</ele>
        <time>2014-09-21T12:48:35Z</time>
      </trkpt>
      <trkpt lat="42.71185" lon="1.58341">
        <ele>2307.8</ele>
        <time>2014-09-21T12:49:05Z</time>
      </trkpt>
      <trkpt lat="42.71186" lon="1.58341">
        <ele>2307.8</ele>
        <time>2014-09-21T12:49:06Z</time>
      </trkpt>
      <trkpt lat="42.71187" lon="1.58341">
        <ele>2307.3</ele>
        <time>2014-09-21T12:49:07Z</time>
      </trkpt>
      <trkpt lat="42.71189" lon="1.58341">
        <ele>2307.3</ele>
        <time>2014-09-21T12:49:08Z</time>
      </trkpt>
      <trkpt lat="42.7119" lon="1.58341">
        <ele>2307.3</ele>
        <time>2014-09-21T12:49:09Z</time>
      </trkpt>
      <trkpt lat="42.71191" lon="1.58342">
        <ele>2307.3</ele>
        <time>2014-09-21T12:49:10Z</time>
      </trkpt>
      <trkpt lat="42.71192" lon="1.58343">
        <ele>2307.3</ele>
        <time>2014-09-21T12:49:11Z</time>
      </trkpt>
      <trkpt lat="42.71194" lon="1.58343">
        <ele>2307.3</ele>
        <time>2014-09-21T12:49:12Z</time>
      </trkpt>
      <trkpt lat="42.71195" lon="1.58343">
        <ele>2307.3</ele>
        <time>2014-09-21T12:49:13Z</time>
      </trkpt>
      <trkpt lat="42.71196" lon="1.58343">
        <ele>2307.3</ele>
        <time>2014-09-21T12:49:14Z</time>
      </trkpt>
      <trkpt lat="42.71212" lon="1.58342">
        <ele>2305.4</ele>
        <time>2014-09-21T12:49:27Z</time>
      </trkpt>
      <trkpt lat="42.71221" lon="1.58343">
        <ele>2304.9</ele>
        <time>2014-09-21T12:49:35Z</time>
      </trkpt>
      <trkpt lat="42.71222" lon="1.58342">
        <ele>2304.4</ele>
        <time>2014-09-21T12:49:36Z</time>
      </trkpt>
      <trkpt lat="42.71223" lon="1.58342">
        <ele>2304.4</ele>
        <time>2014-09-21T12:49:37Z</time>
      </trkpt>
      <trkpt lat="42.71234" lon="1.58336">
        <ele>2303.9</ele>
        <time>2014-09-21T12:49:48Z</time>
      </trkpt>
      <trkpt lat="42.71237" lon="1.58339">
        <ele>2302.5</ele>
        <time>2014-09-21T12:49:59Z</time>
      </trkpt>
      <trkpt lat="42.71239" lon="1.5834">
        <ele>2302</ele>
        <time>2014-09-21T12:50:01Z</time>
      </trkpt>
      <trkpt lat="42.71248" lon="1.58344">
        <ele>2299.6</ele>
        <time>2014-09-21T12:50:13Z</time>
      </trkpt>
      <trkpt lat="42.71253" lon="1.58345">
        <ele>2299.1</ele>
        <time>2014-09-21T12:50:17Z</time>
      </trkpt>
      <trkpt lat="42.71272" lon="1.58338">
        <ele>2296.7</ele>
        <time>2014-09-21T12:50:32Z</time>
      </trkpt>
      <trkpt lat="42.71273" lon="1.58338">
        <ele>2296.7</ele>
        <time>2014-09-21T12:50:33Z</time>
      </trkpt>
      <trkpt lat="42.71289" lon="1.58334">
        <ele>2298.2</ele>
        <time>2014-09-21T12:50:48Z</time>
      </trkpt>
      <trkpt lat="42.71299" lon="1.58326">
        <ele>2299.1</ele>
        <time>2014-09-21T12:51:01Z</time>
      </trkpt>
      <trkpt lat="42.71299" lon="1.58326">
        <ele>2299.1</ele>
        <time>2014-09-21T12:51:10Z</time>
      </trkpt>
      <trkpt lat="42.71306" lon="1.58318">
        <ele>2299.1</ele>
        <time>2014-09-21T12:51:22Z</time>
      </trkpt>
      <trkpt lat="42.71322" lon="1.58295">
        <ele>2295.8</ele>
        <time>2014-09-21T12:51:34Z</time>
      </trkpt>
      <trkpt lat="42.71334" lon="1.58276">
        <ele>2291.9</ele>
        <time>2014-09-21T12:51:43Z</time>
      </trkpt>
      <trkpt lat="42.71339" lon="1.5826">
        <ele>2290</ele>
        <time>2014-09-21T12:51:48Z</time>
      </trkpt>
      <trkpt lat="42.71345" lon="1.58232">
        <ele>2289</ele>
        <time>2014-09-21T12:51:58Z</time>
      </trkpt>
      <trkpt lat="42.7135" lon="1.58201">
        <ele>2289</ele>
        <time>2014-09-21T12:52:09Z</time>
      </trkpt>
      <trkpt lat="42.7135" lon="1.58196">
        <ele>2289</ele>
        <time>2014-09-21T12:52:13Z</time>
      </trkpt>
      <trkpt lat="42.7135" lon="1.58187">
        <ele>2289</ele>
        <time>2014-09-21T12:52:21Z</time>
      </trkpt>
      <trkpt lat="42.71358" lon="1.58165">
        <ele>2290.5</ele>
        <time>2014-09-21T12:52:37Z</time>
      </trkpt>
      <trkpt lat="42.71364" lon="1.58142">
        <ele>2288.6</ele>
        <time>2014-09-21T12:52:52Z</time>
      </trkpt>
      <trkpt lat="42.71369" lon="1.58118">
        <ele>2287.6</ele>
        <time>2014-09-21T12:53:06Z</time>
      </trkpt>
      <trkpt lat="42.71372" lon="1.58092">
        <ele>2286.6</ele>
        <time>2014-09-21T12:53:21Z</time>
      </trkpt>
      <trkpt lat="42.7138" lon="1.58067">
        <ele>2286.2</ele>
        <time>2014-09-21T12:53:36Z</time>
      </trkpt>
      <trkpt lat="42.71392" lon="1.58044">
        <ele>2284.2</ele>
        <time>2014-09-21T12:53:48Z</time>
      </trkpt>
      <trkpt lat="42.71403" lon="1.5803">
        <ele>2282.3</ele>
        <time>2014-09-21T12:53:54Z</time>
      </trkpt>
      <trkpt lat="42.71422" lon="1.58005">
        <ele>2279.4</ele>
        <time>2014-09-21T12:54:04Z</time>
      </trkpt>
      <trkpt lat="42.71436" lon="1.57985">
        <ele>2275.6</ele>
        <time>2014-09-21T12:54:13Z</time>
      </trkpt>
      <trkpt lat="42.71437" lon="1.57982">
        <ele>2274.6</ele>
        <time>2014-09-21T12:54:15Z</time>
      </trkpt>
      <trkpt lat="42.71443" lon="1.57974">
        <ele>2272.2</ele>
        <time>2014-09-21T12:54:25Z</time>
      </trkpt>
      <trkpt lat="42.71448" lon="1.57962">
        <ele>2270.8</ele>
        <time>2014-09-21T12:54:48Z</time>
      </trkpt>
      <trkpt lat="42.7145" lon="1.57959">
        <ele>2270.3</ele>
        <time>2014-09-21T12:54:51Z</time>
      </trkpt>
      <trkpt lat="42.71455" lon="1.57954">
        <ele>2268.9</ele>
        <time>2014-09-21T12:54:57Z</time>
      </trkpt>
      <trkpt lat="42.71459" lon="1.57952">
        <ele>2266.5</ele>
        <time>2014-09-21T12:55:02Z</time>
      </trkpt>
      <trkpt lat="42.71463" lon="1.57951">
        <ele>2265</ele>
        <time>2014-09-21T12:55:07Z</time>
      </trkpt>
      <trkpt lat="42.71471" lon="1.57946">
        <ele>2262.6</ele>
        <time>2014-09-21T12:55:13Z</time>
      </trkpt>
      <trkpt lat="42.71479" lon="1.57941">
        <ele>2259.2</ele>
        <time>2014-09-21T12:55:18Z</time>
      </trkpt>
      <trkpt lat="42.71481" lon="1.57939">
        <ele>2258.8</ele>
        <time>2014-09-21T12:55:20Z</time>
      </trkpt>
      <trkpt lat="42.71486" lon="1.57936">
        <ele>2257.3</ele>
        <time>2014-09-21T12:55:23Z</time>
      </trkpt>
      <trkpt lat="42.71493" lon="1.57926">
        <ele>2254</ele>
        <time>2014-09-21T12:55:28Z</time>
      </trkpt>
      <trkpt lat="42.71498" lon="1.57919">
        <ele>2252</ele>
        <time>2014-09-21T12:55:32Z</time>
      </trkpt>
      <trkpt lat="42.71502" lon="1.57896">
        <ele>2249.6</ele>
        <time>2014-09-21T12:55:42Z</time>
      </trkpt>
      <trkpt lat="42.71507" lon="1.57882">
        <ele>2246.7</ele>
        <time>2014-09-21T12:55:49Z</time>
      </trkpt>
      <trkpt lat="42.71507" lon="1.57879">
        <ele>2245.8</ele>
        <time>2014-09-21T12:56:03Z</time>
      </trkpt>
      <trkpt lat="42.71507" lon="1.57879">
        <ele>2245.8</ele>
        <time>2014-09-21T12:56:35Z</time>
      </trkpt>
      <trkpt lat="42.7151" lon="1.57864">
        <ele>2243.9</ele>
        <time>2014-09-21T12:56:52Z</time>
      </trkpt>
      <trkpt lat="42.71512" lon="1.57847">
        <ele>2240</ele>
        <time>2014-09-21T12:57:01Z</time>
      </trkpt>
      <trkpt lat="42.71512" lon="1.57836">
        <ele>2237.1</ele>
        <time>2014-09-21T12:57:08Z</time>
      </trkpt>
      <trkpt lat="42.71509" lon="1.57822">
        <ele>2234.2</ele>
        <time>2014-09-21T12:57:21Z</time>
      </trkpt>
      <trkpt lat="42.71507" lon="1.57816">
        <ele>2233.3</ele>
        <time>2014-09-21T12:57:31Z</time>
      </trkpt>
      <trkpt lat="42.71502" lon="1.57802">
        <ele>2232.8</ele>
        <time>2014-09-21T12:57:42Z</time>
      </trkpt>
      <trkpt lat="42.71493" lon="1.57789">
        <ele>2231.4</ele>
        <time>2014-09-21T12:57:55Z</time>
      </trkpt>
      <trkpt lat="42.71486" lon="1.57773">
        <ele>2229.9</ele>
        <time>2014-09-21T12:58:08Z</time>
      </trkpt>
      <trkpt lat="42.71483" lon="1.5777">
        <ele>2229.4</ele>
        <time>2014-09-21T12:58:13Z</time>
      </trkpt>
      <trkpt lat="42.71477" lon="1.57755">
        <ele>2226.6</ele>
        <time>2014-09-21T12:58:24Z</time>
      </trkpt>
      <trkpt lat="42.71467" lon="1.57735">
        <ele>2223.7</ele>
        <time>2014-09-21T12:58:35Z</time>
      </trkpt>
      <trkpt lat="42.71464" lon="1.57728">
        <ele>2222.2</ele>
        <time>2014-09-21T12:58:40Z</time>
      </trkpt>
      <trkpt lat="42.71464" lon="1.57718">
        <ele>2220.3</ele>
        <time>2014-09-21T12:58:47Z</time>
      </trkpt>
      <trkpt lat="42.7146" lon="1.57705">
        <ele>2218.9</ele>
        <time>2014-09-21T12:58:55Z</time>
      </trkpt>
      <trkpt lat="42.71458" lon="1.57694">
        <ele>2216.9</ele>
        <time>2014-09-21T12:59:00Z</time>
      </trkpt>
      <trkpt lat="42.71456" lon="1.5769">
        <ele>2216</ele>
        <time>2014-09-21T12:59:03Z</time>
      </trkpt>
      <trkpt lat="42.71453" lon="1.57675">
        <ele>2214.5</ele>
        <time>2014-09-21T12:59:10Z</time>
      </trkpt>
      <trkpt lat="42.71456" lon="1.57666">
        <ele>2211.2</ele>
        <time>2014-09-21T12:59:19Z</time>
      </trkpt>
      <trkpt lat="42.71459" lon="1.57657">
        <ele>2207.8</ele>
        <time>2014-09-21T12:59:30Z</time>
      </trkpt>
      <trkpt lat="42.71457" lon="1.57652">
        <ele>2207.3</ele>
        <time>2014-09-21T12:59:34Z</time>
      </trkpt>
      <trkpt lat="42.71456" lon="1.57648">
        <ele>2207.3</ele>
        <time>2014-09-21T12:59:37Z</time>
      </trkpt>
      <trkpt lat="42.71453" lon="1.57642">
        <ele>2206.4</ele>
        <time>2014-09-21T12:59:41Z</time>
      </trkpt>
      <trkpt lat="42.71452" lon="1.57635">
        <ele>2205.4</ele>
        <time>2014-09-21T12:59:45Z</time>
      </trkpt>
      <trkpt lat="42.7145" lon="1.57632">
        <ele>2205.4</ele>
        <time>2014-09-21T12:59:46Z</time>
      </trkpt>
      <trkpt lat="42.71449" lon="1.57629">
        <ele>2205.4</ele>
        <time>2014-09-21T12:59:47Z</time>
      </trkpt>
      <trkpt lat="42.71436" lon="1.57604">
        <ele>2204.9</ele>
        <time>2014-09-21T13:00:00Z</time>
      </trkpt>
      <trkpt lat="42.71432" lon="1.57592">
        <ele>2204.9</ele>
        <time>2014-09-21T13:00:12Z</time>
      </trkpt>
      <trkpt lat="42.71432" lon="1.57591">
        <ele>2204.9</ele>
        <time>2014-09-21T13:00:14Z</time>
      </trkpt>
      <trkpt lat="42.71431" lon="1.57589">
        <ele>2204.9</ele>
        <time>2014-09-21T13:00:16Z</time>
      </trkpt>
      <trkpt lat="42.71428" lon="1.57576">
        <ele>2204.9</ele>
        <time>2014-09-21T13:00:25Z</time>
      </trkpt>
      <trkpt lat="42.71426" lon="1.57566">
        <ele>2204.9</ele>
        <time>2014-09-21T13:00:31Z</time>
      </trkpt>
      <trkpt lat="42.71425" lon="1.57565">
        <ele>2204.9</ele>
        <time>2014-09-21T13:00:32Z</time>
      </trkpt>
      <trkpt lat="42.71422" lon="1.57537">
        <ele>2204.9</ele>
        <time>2014-09-21T13:00:49Z</time>
      </trkpt>
      <trkpt lat="42.71423" lon="1.57514">
        <ele>2204.9</ele>
        <time>2014-09-21T13:01:04Z</time>
      </trkpt>
      <trkpt lat="42.71422" lon="1.57494">
        <ele>2204.4</ele>
        <time>2014-09-21T13:01:16Z</time>
      </trkpt>
      <trkpt lat="42.71421" lon="1.57491">
        <ele>2204.4</ele>
        <time>2014-09-21T13:01:31Z</time>
      </trkpt>
      <trkpt lat="42.71422" lon="1.57489">
        <ele>2204.4</ele>
        <time>2014-09-21T13:01:32Z</time>
      </trkpt>
      <trkpt lat="42.71421" lon="1.57486">
        <ele>2204.4</ele>
        <time>2014-09-21T13:01:33Z</time>
      </trkpt>
      <trkpt lat="42.71419" lon="1.5746">
        <ele>2201.1</ele>
        <time>2014-09-21T13:01:43Z</time>
      </trkpt>
      <trkpt lat="42.71419" lon="1.57441">
        <ele>2198.7</ele>
        <time>2014-09-21T13:01:49Z</time>
      </trkpt>
      <trkpt lat="42.71421" lon="1.57431">
        <ele>2196.8</ele>
        <time>2014-09-21T13:01:54Z</time>
      </trkpt>
      <trkpt lat="42.71422" lon="1.57418">
        <ele>2194.8</ele>
        <time>2014-09-21T13:02:00Z</time>
      </trkpt>
      <trkpt lat="42.71423" lon="1.57415">
        <ele>2194.8</ele>
        <time>2014-09-21T13:02:01Z</time>
      </trkpt>
      <trkpt lat="42.71423" lon="1.57413">
        <ele>2193.9</ele>
        <time>2014-09-21T13:02:02Z</time>
      </trkpt>
      <trkpt lat="42.7143" lon="1.57396">
        <ele>2191</ele>
        <time>2014-09-21T13:02:09Z</time>
      </trkpt>
      <trkpt lat="42.71438" lon="1.57376">
        <ele>2187.1</ele>
        <time>2014-09-21T13:02:17Z</time>
      </trkpt>
      <trkpt lat="42.71439" lon="1.57374">
        <ele>2187.1</ele>
        <time>2014-09-21T13:02:18Z</time>
      </trkpt>
      <trkpt lat="42.71447" lon="1.57362">
        <ele>2183.8</ele>
        <time>2014-09-21T13:02:23Z</time>
      </trkpt>
      <trkpt lat="42.71448" lon="1.5736">
        <ele>2183.8</ele>
        <time>2014-09-21T13:02:24Z</time>
      </trkpt>
      <trkpt lat="42.71452" lon="1.57356">
        <ele>2182.3</ele>
        <time>2014-09-21T13:02:27Z</time>
      </trkpt>
      <trkpt lat="42.71453" lon="1.57355">
        <ele>2181.4</ele>
        <time>2014-09-21T13:02:28Z</time>
      </trkpt>
      <trkpt lat="42.71454" lon="1.57353">
        <ele>2181.9</ele>
        <time>2014-09-21T13:02:29Z</time>
      </trkpt>
      <trkpt lat="42.71455" lon="1.5735">
        <ele>2180.9</ele>
        <time>2014-09-21T13:02:30Z</time>
      </trkpt>
      <trkpt lat="42.71456" lon="1.57348">
        <ele>2180.9</ele>
        <time>2014-09-21T13:02:31Z</time>
      </trkpt>
      <trkpt lat="42.71459" lon="1.57342">
        <ele>2179.9</ele>
        <time>2014-09-21T13:02:34Z</time>
      </trkpt>
      <trkpt lat="42.7146" lon="1.5734">
        <ele>2179</ele>
        <time>2014-09-21T13:02:35Z</time>
      </trkpt>
      <trkpt lat="42.71462" lon="1.57338">
        <ele>2178.5</ele>
        <time>2014-09-21T13:02:36Z</time>
      </trkpt>
      <trkpt lat="42.71465" lon="1.57334">
        <ele>2177.5</ele>
        <time>2014-09-21T13:02:38Z</time>
      </trkpt>
      <trkpt lat="42.71469" lon="1.57329">
        <ele>2176.1</ele>
        <time>2014-09-21T13:02:41Z</time>
      </trkpt>
      <trkpt lat="42.71478" lon="1.57318">
        <ele>2172.2</ele>
        <time>2014-09-21T13:02:48Z</time>
      </trkpt>
      <trkpt lat="42.71481" lon="1.57313">
        <ele>2171.3</ele>
        <time>2014-09-21T13:02:51Z</time>
      </trkpt>
      <trkpt lat="42.71493" lon="1.57294">
        <ele>2167.9</ele>
        <time>2014-09-21T13:02:58Z</time>
      </trkpt>
      <trkpt lat="42.71503" lon="1.57282">
        <ele>2165.5</ele>
        <time>2014-09-21T13:03:02Z</time>
      </trkpt>
      <trkpt lat="42.71518" lon="1.57264">
        <ele>2161.7</ele>
        <time>2014-09-21T13:03:09Z</time>
      </trkpt>
      <trkpt lat="42.71526" lon="1.57256">
        <ele>2160.2</ele>
        <time>2014-09-21T13:03:12Z</time>
      </trkpt>
      <trkpt lat="42.71534" lon="1.57244">
        <ele>2158.3</ele>
        <time>2014-09-21T13:03:16Z</time>
      </trkpt>
      <trkpt lat="42.71541" lon="1.57234">
        <ele>2155.9</ele>
        <time>2014-09-21T13:03:19Z</time>
      </trkpt>
      <trkpt lat="42.7155" lon="1.57222">
        <ele>2154</ele>
        <time>2014-09-21T13:03:23Z</time>
      </trkpt>
      <trkpt lat="42.71556" lon="1.57215">
        <ele>2152.1</ele>
        <time>2014-09-21T13:03:26Z</time>
      </trkpt>
      <trkpt lat="42.71564" lon="1.57202">
        <ele>2150.6</ele>
        <time>2014-09-21T13:03:30Z</time>
      </trkpt>
      <trkpt lat="42.71577" lon="1.57179">
        <ele>2147.2</ele>
        <time>2014-09-21T13:03:36Z</time>
      </trkpt>
      <trkpt lat="42.71581" lon="1.57173">
        <ele>2146.3</ele>
        <time>2014-09-21T13:03:38Z</time>
      </trkpt>
      <trkpt lat="42.71589" lon="1.57156">
        <ele>2143.4</ele>
        <time>2014-09-21T13:03:43Z</time>
      </trkpt>
      <trkpt lat="42.71601" lon="1.57135">
        <ele>2140.5</ele>
        <time>2014-09-21T13:03:49Z</time>
      </trkpt>
      <trkpt lat="42.71603" lon="1.57131">
        <ele>2140.5</ele>
        <time>2014-09-21T13:03:50Z</time>
      </trkpt>
      <trkpt lat="42.7161" lon="1.5712">
        <ele>2138.6</ele>
        <time>2014-09-21T13:03:53Z</time>
      </trkpt>
      <trkpt lat="42.71618" lon="1.57107">
        <ele>2135.2</ele>
        <time>2014-09-21T13:03:57Z</time>
      </trkpt>
      <trkpt lat="42.71621" lon="1.57103">
        <ele>2135.2</ele>
        <time>2014-09-21T13:03:58Z</time>
      </trkpt>
      <trkpt lat="42.7163" lon="1.57091">
        <ele>2133.3</ele>
        <time>2014-09-21T13:04:02Z</time>
      </trkpt>
      <trkpt lat="42.71643" lon="1.57072">
        <ele>2129.9</ele>
        <time>2014-09-21T13:04:08Z</time>
      </trkpt>
      <trkpt lat="42.71647" lon="1.57065">
        <ele>2129</ele>
        <time>2014-09-21T13:04:10Z</time>
      </trkpt>
      <trkpt lat="42.71659" lon="1.57044">
        <ele>2125.6</ele>
        <time>2014-09-21T13:04:16Z</time>
      </trkpt>
      <trkpt lat="42.71672" lon="1.5702">
        <ele>2122.3</ele>
        <time>2014-09-21T13:04:23Z</time>
      </trkpt>
      <trkpt lat="42.71679" lon="1.57008">
        <ele>2120.3</ele>
        <time>2014-09-21T13:04:27Z</time>
      </trkpt>
      <trkpt lat="42.71687" lon="1.56989">
        <ele>2117.4</ele>
        <time>2014-09-21T13:04:33Z</time>
      </trkpt>
      <trkpt lat="42.71702" lon="1.56963">
        <ele>2114.1</ele>
        <time>2014-09-21T13:04:41Z</time>
      </trkpt>
      <trkpt lat="42.71718" lon="1.56933">
        <ele>2112.2</ele>
        <time>2014-09-21T13:04:51Z</time>
      </trkpt>
      <trkpt lat="42.71729" lon="1.56913">
        <ele>2109.8</ele>
        <time>2014-09-21T13:05:02Z</time>
      </trkpt>
      <trkpt lat="42.71737" lon="1.56907">
        <ele>2109.8</ele>
        <time>2014-09-21T13:05:11Z</time>
      </trkpt>
      <trkpt lat="42.71745" lon="1.56907">
        <ele>2109.8</ele>
        <time>2014-09-21T13:05:20Z</time>
      </trkpt>
      <trkpt lat="42.71754" lon="1.56905">
        <ele>2108.3</ele>
        <time>2014-09-21T13:05:31Z</time>
      </trkpt>
      <trkpt lat="42.71754" lon="1.56905">
        <ele>2108.3</ele>
        <time>2014-09-21T13:05:50Z</time>
      </trkpt>
      <trkpt lat="42.71754" lon="1.56905">
        <ele>2108.3</ele>
        <time>2014-09-21T13:06:19Z</time>
      </trkpt>
      <trkpt lat="42.71754" lon="1.56905">
        <ele>2107.8</ele>
        <time>2014-09-21T13:06:33Z</time>
      </trkpt>
      <trkpt lat="42.71757" lon="1.56896">
        <ele>2107.8</ele>
        <time>2014-09-21T13:06:40Z</time>
      </trkpt>
      <trkpt lat="42.71762" lon="1.56884">
        <ele>2107.4</ele>
        <time>2014-09-21T13:06:45Z</time>
      </trkpt>
      <trkpt lat="42.71767" lon="1.56874">
        <ele>2107.4</ele>
        <time>2014-09-21T13:06:49Z</time>
      </trkpt>
      <trkpt lat="42.71768" lon="1.56869">
        <ele>2106.9</ele>
        <time>2014-09-21T13:06:51Z</time>
      </trkpt>
      <trkpt lat="42.71773" lon="1.56847">
        <ele>2103.5</ele>
        <time>2014-09-21T13:07:01Z</time>
      </trkpt>
      <trkpt lat="42.71786" lon="1.56834">
        <ele>2101.6</ele>
        <time>2014-09-21T13:07:08Z</time>
      </trkpt>
      <trkpt lat="42.71796" lon="1.56829">
        <ele>2101.1</ele>
        <time>2014-09-21T13:07:13Z</time>
      </trkpt>
      <trkpt lat="42.71809" lon="1.56835">
        <ele>2098.7</ele>
        <time>2014-09-21T13:07:20Z</time>
      </trkpt>
      <trkpt lat="42.71818" lon="1.56829">
        <ele>2097.7</ele>
        <time>2014-09-21T13:07:28Z</time>
      </trkpt>
      <trkpt lat="42.71822" lon="1.56824">
        <ele>2095.3</ele>
        <time>2014-09-21T13:07:39Z</time>
      </trkpt>
      <trkpt lat="42.71826" lon="1.56824">
        <ele>2093.9</ele>
        <time>2014-09-21T13:07:44Z</time>
      </trkpt>
      <trkpt lat="42.71828" lon="1.56824">
        <ele>2092.9</ele>
        <time>2014-09-21T13:08:00Z</time>
      </trkpt>
      <trkpt lat="42.71828" lon="1.56823">
        <ele>2092.9</ele>
        <time>2014-09-21T13:08:02Z</time>
      </trkpt>
      <trkpt lat="42.7184" lon="1.56815">
        <ele>2090.5</ele>
        <time>2014-09-21T13:08:15Z</time>
      </trkpt>
      <trkpt lat="42.71843" lon="1.56814">
        <ele>2089.1</ele>
        <time>2014-09-21T13:08:21Z</time>
      </trkpt>
      <trkpt lat="42.71851" lon="1.56804">
        <ele>2087.6</ele>
        <time>2014-09-21T13:08:32Z</time>
      </trkpt>
      <trkpt lat="42.71856" lon="1.56798">
        <ele>2087.2</ele>
        <time>2014-09-21T13:08:47Z</time>
      </trkpt>
      <trkpt lat="42.71858" lon="1.56796">
        <ele>2086.7</ele>
        <time>2014-09-21T13:08:51Z</time>
      </trkpt>
      <trkpt lat="42.71864" lon="1.56801">
        <ele>2082.8</ele>
        <time>2014-09-21T13:09:04Z</time>
      </trkpt>
      <trkpt lat="42.71865" lon="1.56802">
        <ele>2081.9</ele>
        <time>2014-09-21T13:09:06Z</time>
      </trkpt>
      <trkpt lat="42.7187" lon="1.56804">
        <ele>2078.5</ele>
        <time>2014-09-21T13:09:15Z</time>
      </trkpt>
      <trkpt lat="42.7188" lon="1.56803">
        <ele>2077.6</ele>
        <time>2014-09-21T13:09:25Z</time>
      </trkpt>
      <trkpt lat="42.71881" lon="1.56803">
        <ele>2077.1</ele>
        <time>2014-09-21T13:09:26Z</time>
      </trkpt>
      <trkpt lat="42.71897" lon="1.56801">
        <ele>2075.6</ele>
        <time>2014-09-21T13:09:38Z</time>
      </trkpt>
      <trkpt lat="42.71902" lon="1.56799">
        <ele>2075.1</ele>
        <time>2014-09-21T13:09:47Z</time>
      </trkpt>
      <trkpt lat="42.71909" lon="1.56799">
        <ele>2074.2</ele>
        <time>2014-09-21T13:09:57Z</time>
      </trkpt>
      <trkpt lat="42.7192" lon="1.56799">
        <ele>2071.8</ele>
        <time>2014-09-21T13:10:10Z</time>
      </trkpt>
      <trkpt lat="42.7193" lon="1.56799">
        <ele>2069.9</ele>
        <time>2014-09-21T13:10:20Z</time>
      </trkpt>
      <trkpt lat="42.71941" lon="1.56798">
        <ele>2067</ele>
        <time>2014-09-21T13:10:27Z</time>
      </trkpt>
      <trkpt lat="42.7195" lon="1.56798">
        <ele>2065.5</ele>
        <time>2014-09-21T13:10:30Z</time>
      </trkpt>
      <trkpt lat="42.71963" lon="1.56799">
        <ele>2065.5</ele>
        <time>2014-09-21T13:10:39Z</time>
      </trkpt>
      <trkpt lat="42.71968" lon="1.56801">
        <ele>2065.1</ele>
        <time>2014-09-21T13:10:45Z</time>
      </trkpt>
      <trkpt lat="42.71969" lon="1.56802">
        <ele>2064.6</ele>
        <time>2014-09-21T13:10:47Z</time>
      </trkpt>
      <trkpt lat="42.71976" lon="1.56801">
        <ele>2064.1</ele>
        <time>2014-09-21T13:11:00Z</time>
      </trkpt>
      <trkpt lat="42.71983" lon="1.56801">
        <ele>2064.1</ele>
        <time>2014-09-21T13:11:11Z</time>
      </trkpt>
      <trkpt lat="42.71991" lon="1.56801">
        <ele>2062.2</ele>
        <time>2014-09-21T13:11:22Z</time>
      </trkpt>
      <trkpt lat="42.71998" lon="1.56804">
        <ele>2058.8</ele>
        <time>2014-09-21T13:11:34Z</time>
      </trkpt>
      <trkpt lat="42.71999" lon="1.56805">
        <ele>2058.8</ele>
        <time>2014-09-21T13:11:36Z</time>
      </trkpt>
      <trkpt lat="42.72006" lon="1.56808">
        <ele>2056.4</ele>
        <time>2014-09-21T13:11:48Z</time>
      </trkpt>
      <trkpt lat="42.7201" lon="1.5681">
        <ele>2054.5</ele>
        <time>2014-09-21T13:11:53Z</time>
      </trkpt>
      <trkpt lat="42.72016" lon="1.5681">
        <ele>2053.5</ele>
        <time>2014-09-21T13:12:01Z</time>
      </trkpt>
      <trkpt lat="42.72021" lon="1.56811">
        <ele>2053</ele>
        <time>2014-09-21T13:12:07Z</time>
      </trkpt>
      <trkpt lat="42.72026" lon="1.56814">
        <ele>2052.1</ele>
        <time>2014-09-21T13:12:13Z</time>
      </trkpt>
      <trkpt lat="42.72037" lon="1.56813">
        <ele>2049.7</ele>
        <time>2014-09-21T13:12:26Z</time>
      </trkpt>
      <trkpt lat="42.72037" lon="1.56813">
        <ele>2049.7</ele>
        <time>2014-09-21T13:12:27Z</time>
      </trkpt>
      <trkpt lat="42.72049" lon="1.56811">
        <ele>2046.8</ele>
        <time>2014-09-21T13:12:41Z</time>
      </trkpt>
      <trkpt lat="42.72058" lon="1.5681">
        <ele>2044.9</ele>
        <time>2014-09-21T13:12:54Z</time>
      </trkpt>
      <trkpt lat="42.72062" lon="1.56813">
        <ele>2043.4</ele>
        <time>2014-09-21T13:13:02Z</time>
      </trkpt>
      <trkpt lat="42.7207" lon="1.56811">
        <ele>2042</ele>
        <time>2014-09-21T13:13:13Z</time>
      </trkpt>
      <trkpt lat="42.72072" lon="1.56811">
        <ele>2040.5</ele>
        <time>2014-09-21T13:13:16Z</time>
      </trkpt>
      <trkpt lat="42.72079" lon="1.56812">
        <ele>2039.6</ele>
        <time>2014-09-21T13:13:26Z</time>
      </trkpt>
      <trkpt lat="42.72083" lon="1.56812">
        <ele>2038.1</ele>
        <time>2014-09-21T13:13:30Z</time>
      </trkpt>
      <trkpt lat="42.72087" lon="1.56807">
        <ele>2037.7</ele>
        <time>2014-09-21T13:13:43Z</time>
      </trkpt>
      <trkpt lat="42.7209" lon="1.56805">
        <ele>2037.7</ele>
        <time>2014-09-21T13:13:53Z</time>
      </trkpt>
      <trkpt lat="42.72096" lon="1.56808">
        <ele>2034.8</ele>
        <time>2014-09-21T13:14:04Z</time>
      </trkpt>
      <trkpt lat="42.72103" lon="1.56807">
        <ele>2032.4</ele>
        <time>2014-09-21T13:14:16Z</time>
      </trkpt>
      <trkpt lat="42.72109" lon="1.56808">
        <ele>2030.9</ele>
        <time>2014-09-21T13:14:24Z</time>
      </trkpt>
      <trkpt lat="42.72116" lon="1.56806">
        <ele>2028.5</ele>
        <time>2014-09-21T13:14:36Z</time>
      </trkpt>
      <trkpt lat="42.72122" lon="1.56801">
        <ele>2028</ele>
        <time>2014-09-21T13:14:46Z</time>
      </trkpt>
      <trkpt lat="42.72128" lon="1.56799">
        <ele>2029.5</ele>
        <time>2014-09-21T13:14:53Z</time>
      </trkpt>
      <trkpt lat="42.72132" lon="1.56797">
        <ele>2028</ele>
        <time>2014-09-21T13:14:57Z</time>
      </trkpt>
      <trkpt lat="42.72141" lon="1.5679">
        <ele>2029.5</ele>
        <time>2014-09-21T13:15:07Z</time>
      </trkpt>
      <trkpt lat="42.72145" lon="1.56785">
        <ele>2029.5</ele>
        <time>2014-09-21T13:15:13Z</time>
      </trkpt>
      <trkpt lat="42.72149" lon="1.56784">
        <ele>2028</ele>
        <time>2014-09-21T13:15:17Z</time>
      </trkpt>
      <trkpt lat="42.72163" lon="1.56778">
        <ele>2027.6</ele>
        <time>2014-09-21T13:15:30Z</time>
      </trkpt>
      <trkpt lat="42.72164" lon="1.56778">
        <ele>2027.6</ele>
        <time>2014-09-21T13:15:32Z</time>
      </trkpt>
      <trkpt lat="42.72176" lon="1.56772">
        <ele>2026.6</ele>
        <time>2014-09-21T13:15:45Z</time>
      </trkpt>
      <trkpt lat="42.72178" lon="1.56768">
        <ele>2025.2</ele>
        <time>2014-09-21T13:15:56Z</time>
      </trkpt>
      <trkpt lat="42.72185" lon="1.56766">
        <ele>2024.2</ele>
        <time>2014-09-21T13:16:02Z</time>
      </trkpt>
      <trkpt lat="42.72194" lon="1.56759">
        <ele>2024.2</ele>
        <time>2014-09-21T13:16:07Z</time>
      </trkpt>
      <trkpt lat="42.72203" lon="1.56753">
        <ele>2022.3</ele>
        <time>2014-09-21T13:16:11Z</time>
      </trkpt>
      <trkpt lat="42.72206" lon="1.56749">
        <ele>2022.3</ele>
        <time>2014-09-21T13:16:13Z</time>
      </trkpt>
      <trkpt lat="42.72223" lon="1.56738">
        <ele>2021.8</ele>
        <time>2014-09-21T13:16:20Z</time>
      </trkpt>
      <trkpt lat="42.72243" lon="1.56727">
        <ele>2020.4</ele>
        <time>2014-09-21T13:16:30Z</time>
      </trkpt>
      <trkpt lat="42.72266" lon="1.56728">
        <ele>2017.9</ele>
        <time>2014-09-21T13:16:41Z</time>
      </trkpt>
      <trkpt lat="42.72285" lon="1.56723">
        <ele>2015.1</ele>
        <time>2014-09-21T13:16:52Z</time>
      </trkpt>
      <trkpt lat="42.72286" lon="1.56723">
        <ele>2015.5</ele>
        <time>2014-09-21T13:16:53Z</time>
      </trkpt>
      <trkpt lat="42.72295" lon="1.56717">
        <ele>2014.6</ele>
        <time>2014-09-21T13:16:58Z</time>
      </trkpt>
      <trkpt lat="42.72298" lon="1.56716">
        <ele>2013.6</ele>
        <time>2014-09-21T13:17:00Z</time>
      </trkpt>
      <trkpt lat="42.72303" lon="1.56715">
        <ele>2013.1</ele>
        <time>2014-09-21T13:17:02Z</time>
      </trkpt>
      <trkpt lat="42.72313" lon="1.56715">
        <ele>2011.7</ele>
        <time>2014-09-21T13:17:06Z</time>
      </trkpt>
      <trkpt lat="42.72318" lon="1.56713">
        <ele>2010.7</ele>
        <time>2014-09-21T13:17:08Z</time>
      </trkpt>
      <trkpt lat="42.72324" lon="1.56711">
        <ele>2010.3</ele>
        <time>2014-09-21T13:17:10Z</time>
      </trkpt>
      <trkpt lat="42.72341" lon="1.56706">
        <ele>2006.9</ele>
        <time>2014-09-21T13:17:18Z</time>
      </trkpt>
      <trkpt lat="42.72347" lon="1.56703">
        <ele>2006.4</ele>
        <time>2014-09-21T13:17:22Z</time>
      </trkpt>
      <trkpt lat="42.72353" lon="1.56699">
        <ele>2004.5</ele>
        <time>2014-09-21T13:17:25Z</time>
      </trkpt>
      <trkpt lat="42.72374" lon="1.56695">
        <ele>2000.6</ele>
        <time>2014-09-21T13:17:31Z</time>
      </trkpt>
      <trkpt lat="42.72378" lon="1.56694">
        <ele>1999.7</ele>
        <time>2014-09-21T13:17:32Z</time>
      </trkpt>
      <trkpt lat="42.72393" lon="1.567">
        <ele>1997.8</ele>
        <time>2014-09-21T13:17:37Z</time>
      </trkpt>
      <trkpt lat="42.72397" lon="1.56702">
        <ele>1997.8</ele>
        <time>2014-09-21T13:17:40Z</time>
      </trkpt>
      <trkpt lat="42.72403" lon="1.56702">
        <ele>1996.3</ele>
        <time>2014-09-21T13:17:43Z</time>
      </trkpt>
      <trkpt lat="42.72406" lon="1.56704">
        <ele>1995.8</ele>
        <time>2014-09-21T13:17:45Z</time>
      </trkpt>
      <trkpt lat="42.7241" lon="1.56705">
        <ele>1994.9</ele>
        <time>2014-09-21T13:17:48Z</time>
      </trkpt>
      <trkpt lat="42.72412" lon="1.56703">
        <ele>1993.9</ele>
        <time>2014-09-21T13:17:50Z</time>
      </trkpt>
      <trkpt lat="42.72416" lon="1.56703">
        <ele>1992.5</ele>
        <time>2014-09-21T13:17:54Z</time>
      </trkpt>
      <trkpt lat="42.7242" lon="1.56696">
        <ele>1992.5</ele>
        <time>2014-09-21T13:17:59Z</time>
      </trkpt>
      <trkpt lat="42.72431" lon="1.56687">
        <ele>1989.1</ele>
        <time>2014-09-21T13:18:05Z</time>
      </trkpt>
      <trkpt lat="42.72443" lon="1.56679">
        <ele>1985.7</ele>
        <time>2014-09-21T13:18:12Z</time>
      </trkpt>
      <trkpt lat="42.72451" lon="1.56673">
        <ele>1983.3</ele>
        <time>2014-09-21T13:18:18Z</time>
      </trkpt>
      <trkpt lat="42.72454" lon="1.56675">
        <ele>1981.9</ele>
        <time>2014-09-21T13:18:20Z</time>
      </trkpt>
      <trkpt lat="42.72456" lon="1.56681">
        <ele>1980.5</ele>
        <time>2014-09-21T13:18:22Z</time>
      </trkpt>
      <trkpt lat="42.72455" lon="1.56694">
        <ele>1978.5</ele>
        <time>2014-09-21T13:18:26Z</time>
      </trkpt>
      <trkpt lat="42.72455" lon="1.56696">
        <ele>1978.5</ele>
        <time>2014-09-21T13:18:27Z</time>
      </trkpt>
      <trkpt lat="42.72452" lon="1.56702">
        <ele>1977.1</ele>
        <time>2014-09-21T13:18:29Z</time>
      </trkpt>
      <trkpt lat="42.72452" lon="1.56705">
        <ele>1977.6</ele>
        <time>2014-09-21T13:18:31Z</time>
      </trkpt>
      <trkpt lat="42.72453" lon="1.56728">
        <ele>1974.2</ele>
        <time>2014-09-21T13:18:39Z</time>
      </trkpt>
      <trkpt lat="42.72455" lon="1.56739">
        <ele>1970.8</ele>
        <time>2014-09-21T13:18:44Z</time>
      </trkpt>
      <trkpt lat="42.72455" lon="1.56742">
        <ele>1969.9</ele>
        <time>2014-09-21T13:18:46Z</time>
      </trkpt>
      <trkpt lat="42.72455" lon="1.56749">
        <ele>1967.5</ele>
        <time>2014-09-21T13:18:57Z</time>
      </trkpt>
      <trkpt lat="42.72455" lon="1.56748">
        <ele>1966.5</ele>
        <time>2014-09-21T13:19:14Z</time>
      </trkpt>
      <trkpt lat="42.72455" lon="1.56749">
        <ele>1966.5</ele>
        <time>2014-09-21T13:19:48Z</time>
      </trkpt>
      <trkpt lat="42.72456" lon="1.56748">
        <ele>1967.5</ele>
        <time>2014-09-21T13:20:01Z</time>
      </trkpt>
      <trkpt lat="42.72455" lon="1.56749">
        <ele>1966.5</ele>
        <time>2014-09-21T13:20:03Z</time>
      </trkpt>
      <trkpt lat="42.72456" lon="1.56749">
        <ele>1967.5</ele>
        <time>2014-09-21T13:20:11Z</time>
      </trkpt>
      <trkpt lat="42.72457" lon="1.5675">
        <ele>1967.5</ele>
        <time>2014-09-21T13:20:13Z</time>
      </trkpt>
      <trkpt lat="42.72462" lon="1.56756">
        <ele>1965.1</ele>
        <time>2014-09-21T13:20:18Z</time>
      </trkpt>
      <trkpt lat="42.72468" lon="1.56758">
        <ele>1962.7</ele>
        <time>2014-09-21T13:20:22Z</time>
      </trkpt>
      <trkpt lat="42.72471" lon="1.56759">
        <ele>1960.3</ele>
        <time>2014-09-21T13:20:25Z</time>
      </trkpt>
      <trkpt lat="42.72473" lon="1.56762">
        <ele>1959.8</ele>
        <time>2014-09-21T13:20:30Z</time>
      </trkpt>
      <trkpt lat="42.72471" lon="1.56768">
        <ele>1958.3</ele>
        <time>2014-09-21T13:20:34Z</time>
      </trkpt>
      <trkpt lat="42.72471" lon="1.56773">
        <ele>1956.9</ele>
        <time>2014-09-21T13:20:37Z</time>
      </trkpt>
      <trkpt lat="42.72472" lon="1.5678">
        <ele>1955</ele>
        <time>2014-09-21T13:20:41Z</time>
      </trkpt>
      <trkpt lat="42.72477" lon="1.56791">
        <ele>1953.1</ele>
        <time>2014-09-21T13:20:46Z</time>
      </trkpt>
      <trkpt lat="42.72478" lon="1.568">
        <ele>1949.7</ele>
        <time>2014-09-21T13:20:50Z</time>
      </trkpt>
      <trkpt lat="42.72479" lon="1.56802">
        <ele>1950.2</ele>
        <time>2014-09-21T13:20:51Z</time>
      </trkpt>
      <trkpt lat="42.72481" lon="1.56804">
        <ele>1949.2</ele>
        <time>2014-09-21T13:20:52Z</time>
      </trkpt>
      <trkpt lat="42.72484" lon="1.56809">
        <ele>1947.8</ele>
        <time>2014-09-21T13:20:54Z</time>
      </trkpt>
      <trkpt lat="42.72487" lon="1.56813">
        <ele>1946.3</ele>
        <time>2014-09-21T13:20:56Z</time>
      </trkpt>
      <trkpt lat="42.72489" lon="1.56817">
        <ele>1945.4</ele>
        <time>2014-09-21T13:20:58Z</time>
      </trkpt>
      <trkpt lat="42.72493" lon="1.56821">
        <ele>1943.9</ele>
        <time>2014-09-21T13:21:01Z</time>
      </trkpt>
      <trkpt lat="42.72496" lon="1.56829">
        <ele>1940.6</ele>
        <time>2014-09-21T13:21:06Z</time>
      </trkpt>
      <trkpt lat="42.725" lon="1.56838">
        <ele>1936.2</ele>
        <time>2014-09-21T13:21:12Z</time>
      </trkpt>
      <trkpt lat="42.72504" lon="1.56845">
        <ele>1933.8</ele>
        <time>2014-09-21T13:21:16Z</time>
      </trkpt>
      <trkpt lat="42.72511" lon="1.56854">
        <ele>1931</ele>
        <time>2014-09-21T13:21:20Z</time>
      </trkpt>
      <trkpt lat="42.72513" lon="1.56869">
        <ele>1928.5</ele>
        <time>2014-09-21T13:21:25Z</time>
      </trkpt>
      <trkpt lat="42.72514" lon="1.56876">
        <ele>1927.6</ele>
        <time>2014-09-21T13:21:28Z</time>
      </trkpt>
      <trkpt lat="42.72521" lon="1.56893">
        <ele>1924.2</ele>
        <time>2014-09-21T13:21:36Z</time>
      </trkpt>
      <trkpt lat="42.72532" lon="1.56916">
        <ele>1920.9</ele>
        <time>2014-09-21T13:21:45Z</time>
      </trkpt>
      <trkpt lat="42.72539" lon="1.56932">
        <ele>1918</ele>
        <time>2014-09-21T13:21:52Z</time>
      </trkpt>
      <trkpt lat="42.72544" lon="1.5695">
        <ele>1915.1</ele>
        <time>2014-09-21T13:21:57Z</time>
      </trkpt>
      <trkpt lat="42.72545" lon="1.56955">
        <ele>1913.6</ele>
        <time>2014-09-21T13:21:59Z</time>
      </trkpt>
      <trkpt lat="42.72543" lon="1.56957">
        <ele>1913.2</ele>
        <time>2014-09-21T13:22:09Z</time>
      </trkpt>
      <trkpt lat="42.72531" lon="1.56943">
        <ele>1909.8</ele>
        <time>2014-09-21T13:22:16Z</time>
      </trkpt>
      <trkpt lat="42.72525" lon="1.5694">
        <ele>1908.4</ele>
        <time>2014-09-21T13:22:27Z</time>
      </trkpt>
      <trkpt lat="42.7252" lon="1.56935">
        <ele>1907.9</ele>
        <time>2014-09-21T13:22:42Z</time>
      </trkpt>
      <trkpt lat="42.72514" lon="1.56928">
        <ele>1907.4</ele>
        <time>2014-09-21T13:22:52Z</time>
      </trkpt>
      <trkpt lat="42.72506" lon="1.56923">
        <ele>1904.5</ele>
        <time>2014-09-21T13:23:01Z</time>
      </trkpt>
      <trkpt lat="42.72504" lon="1.56922">
        <ele>1904.5</ele>
        <time>2014-09-21T13:23:02Z</time>
      </trkpt>
      <trkpt lat="42.72487" lon="1.56904">
        <ele>1901.6</ele>
        <time>2014-09-21T13:23:12Z</time>
      </trkpt>
      <trkpt lat="42.72475" lon="1.56897">
        <ele>1901.1</ele>
        <time>2014-09-21T13:23:17Z</time>
      </trkpt>
      <trkpt lat="42.72465" lon="1.56904">
        <ele>1896.3</ele>
        <time>2014-09-21T13:23:23Z</time>
      </trkpt>
      <trkpt lat="42.72459" lon="1.56915">
        <ele>1893</ele>
        <time>2014-09-21T13:23:32Z</time>
      </trkpt>
      <trkpt lat="42.72457" lon="1.56919">
        <ele>1893</ele>
        <time>2014-09-21T13:23:36Z</time>
      </trkpt>
      <trkpt lat="42.72462" lon="1.56943">
        <ele>1889.1</ele>
        <time>2014-09-21T13:23:43Z</time>
      </trkpt>
      <trkpt lat="42.72463" lon="1.56947">
        <ele>1889.1</ele>
        <time>2014-09-21T13:23:44Z</time>
      </trkpt>
      <trkpt lat="42.72468" lon="1.56971">
        <ele>1885.8</ele>
        <time>2014-09-21T13:23:52Z</time>
      </trkpt>
      <trkpt lat="42.72468" lon="1.56982">
        <ele>1883.8</ele>
        <time>2014-09-21T13:23:56Z</time>
      </trkpt>
      <trkpt lat="42.72474" lon="1.56997">
        <ele>1881</ele>
        <time>2014-09-21T13:24:00Z</time>
      </trkpt>
      <trkpt lat="42.72475" lon="1.57005">
        <ele>1879</ele>
        <time>2014-09-21T13:24:02Z</time>
      </trkpt>
      <trkpt lat="42.72475" lon="1.57015">
        <ele>1878.1</ele>
        <time>2014-09-21T13:24:04Z</time>
      </trkpt>
      <trkpt lat="42.72467" lon="1.57039">
        <ele>1874.7</ele>
        <time>2014-09-21T13:24:14Z</time>
      </trkpt>
      <trkpt lat="42.72466" lon="1.5705">
        <ele>1873.8</ele>
        <time>2014-09-21T13:24:20Z</time>
      </trkpt>
      <trkpt lat="42.72464" lon="1.57055">
        <ele>1872.3</ele>
        <time>2014-09-21T13:24:22Z</time>
      </trkpt>
      <trkpt lat="42.72461" lon="1.57073">
        <ele>1868</ele>
        <time>2014-09-21T13:24:28Z</time>
      </trkpt>
      <trkpt lat="42.7246" lon="1.57079">
        <ele>1867.5</ele>
        <time>2014-09-21T13:24:30Z</time>
      </trkpt>
      <trkpt lat="42.72461" lon="1.57082">
        <ele>1867</ele>
        <time>2014-09-21T13:24:31Z</time>
      </trkpt>
      <trkpt lat="42.72459" lon="1.57102">
        <ele>1864.1</ele>
        <time>2014-09-21T13:24:39Z</time>
      </trkpt>
      <trkpt lat="42.72454" lon="1.57122">
        <ele>1859.3</ele>
        <time>2014-09-21T13:24:46Z</time>
      </trkpt>
      <trkpt lat="42.72453" lon="1.57127">
        <ele>1859.3</ele>
        <time>2014-09-21T13:24:47Z</time>
      </trkpt>
      <trkpt lat="42.7245" lon="1.57136">
        <ele>1858.9</ele>
        <time>2014-09-21T13:24:49Z</time>
      </trkpt>
      <trkpt lat="42.7243" lon="1.57149">
        <ele>1856.4</ele>
        <time>2014-09-21T13:25:01Z</time>
      </trkpt>
      <trkpt lat="42.7243" lon="1.57148">
        <ele>1857.4</ele>
        <time>2014-09-21T13:25:22Z</time>
      </trkpt>
      <trkpt lat="42.7243" lon="1.57148">
        <ele>1856</ele>
        <time>2014-09-21T13:25:29Z</time>
      </trkpt>
      <trkpt lat="42.7243" lon="1.57148">
        <ele>1856</ele>
        <time>2014-09-21T13:26:01Z</time>
      </trkpt>
      <trkpt lat="42.72427" lon="1.57159">
        <ele>1852.6</ele>
        <time>2014-09-21T13:26:06Z</time>
      </trkpt>
      <trkpt lat="42.72426" lon="1.57161">
        <ele>1852.6</ele>
        <time>2014-09-21T13:26:07Z</time>
      </trkpt>
      <trkpt lat="42.72426" lon="1.57168">
        <ele>1850.7</ele>
        <time>2014-09-21T13:26:10Z</time>
      </trkpt>
      <trkpt lat="42.72426" lon="1.57174">
        <ele>1847.8</ele>
        <time>2014-09-21T13:26:13Z</time>
      </trkpt>
      <trkpt lat="42.72426" lon="1.57187">
        <ele>1844.4</ele>
        <time>2014-09-21T13:26:19Z</time>
      </trkpt>
      <trkpt lat="42.72426" lon="1.57189">
        <ele>1844.4</ele>
        <time>2014-09-21T13:26:20Z</time>
      </trkpt>
      <trkpt lat="42.72425" lon="1.57194">
        <ele>1843.5</ele>
        <time>2014-09-21T13:26:23Z</time>
      </trkpt>
      <trkpt lat="42.72425" lon="1.57197">
        <ele>1842.5</ele>
        <time>2014-09-21T13:26:25Z</time>
      </trkpt>
      <trkpt lat="42.72429" lon="1.57207">
        <ele>1840.6</ele>
        <time>2014-09-21T13:26:35Z</time>
      </trkpt>
      <trkpt lat="42.72433" lon="1.57215">
        <ele>1839.6</ele>
        <time>2014-09-21T13:26:48Z</time>
      </trkpt>
      <trkpt lat="42.72433" lon="1.57218">
        <ele>1839.1</ele>
        <time>2014-09-21T13:27:01Z</time>
      </trkpt>
      <trkpt lat="42.72436" lon="1.57223">
        <ele>1838.2</ele>
        <time>2014-09-21T13:27:04Z</time>
      </trkpt>
      <trkpt lat="42.72437" lon="1.57234">
        <ele>1834.8</ele>
        <time>2014-09-21T13:27:11Z</time>
      </trkpt>
      <trkpt lat="42.72434" lon="1.57242">
        <ele>1831.9</ele>
        <time>2014-09-21T13:27:16Z</time>
      </trkpt>
      <trkpt lat="42.72428" lon="1.57243">
        <ele>1830.5</ele>
        <time>2014-09-21T13:27:26Z</time>
      </trkpt>
      <trkpt lat="42.7242" lon="1.57243">
        <ele>1829.1</ele>
        <time>2014-09-21T13:27:35Z</time>
      </trkpt>
      <trkpt lat="42.72414" lon="1.57241">
        <ele>1828.1</ele>
        <time>2014-09-21T13:27:41Z</time>
      </trkpt>
      <trkpt lat="42.72406" lon="1.57251">
        <ele>1824.2</ele>
        <time>2014-09-21T13:27:47Z</time>
      </trkpt>
      <trkpt lat="42.72404" lon="1.57253">
        <ele>1823.3</ele>
        <time>2014-09-21T13:27:48Z</time>
      </trkpt>
      <trkpt lat="42.72397" lon="1.57261">
        <ele>1820.4</ele>
        <time>2014-09-21T13:27:52Z</time>
      </trkpt>
      <trkpt lat="42.7239" lon="1.5728">
        <ele>1816.6</ele>
        <time>2014-09-21T13:27:59Z</time>
      </trkpt>
      <trkpt lat="42.72389" lon="1.57282">
        <ele>1816.6</ele>
        <time>2014-09-21T13:28:00Z</time>
      </trkpt>
      <trkpt lat="42.72389" lon="1.57291">
        <ele>1814.6</ele>
        <time>2014-09-21T13:28:04Z</time>
      </trkpt>
      <trkpt lat="42.72388" lon="1.57295">
        <ele>1813.7</ele>
        <time>2014-09-21T13:28:06Z</time>
      </trkpt>
      <trkpt lat="42.72388" lon="1.573">
        <ele>1812.7</ele>
        <time>2014-09-21T13:28:08Z</time>
      </trkpt>
      <trkpt lat="42.7239" lon="1.57305">
        <ele>1810.8</ele>
        <time>2014-09-21T13:28:11Z</time>
      </trkpt>
      <trkpt lat="42.72396" lon="1.5731">
        <ele>1809.8</ele>
        <time>2014-09-21T13:28:17Z</time>
      </trkpt>
      <trkpt lat="42.72408" lon="1.57319">
        <ele>1806.5</ele>
        <time>2014-09-21T13:28:26Z</time>
      </trkpt>
      <trkpt lat="42.72414" lon="1.57324">
        <ele>1804.5</ele>
        <time>2014-09-21T13:28:29Z</time>
      </trkpt>
      <trkpt lat="42.72423" lon="1.57334">
        <ele>1801.2</ele>
        <time>2014-09-21T13:28:34Z</time>
      </trkpt>
      <trkpt lat="42.72431" lon="1.57339">
        <ele>1798.3</ele>
        <time>2014-09-21T13:28:38Z</time>
      </trkpt>
      <trkpt lat="42.72434" lon="1.5734">
        <ele>1797.8</ele>
        <time>2014-09-21T13:28:39Z</time>
      </trkpt>
      <trkpt lat="42.72435" lon="1.5735">
        <ele>1795.9</ele>
        <time>2014-09-21T13:28:43Z</time>
      </trkpt>
      <trkpt lat="42.72441" lon="1.57367">
        <ele>1791.6</ele>
        <time>2014-09-21T13:28:52Z</time>
      </trkpt>
      <trkpt lat="42.72444" lon="1.57378">
        <ele>1788.7</ele>
        <time>2014-09-21T13:29:02Z</time>
      </trkpt>
      <trkpt lat="42.72439" lon="1.57391">
        <ele>1784.8</ele>
        <time>2014-09-21T13:29:08Z</time>
      </trkpt>
      <trkpt lat="42.72434" lon="1.57402">
        <ele>1781</ele>
        <time>2014-09-21T13:29:13Z</time>
      </trkpt>
      <trkpt lat="42.72431" lon="1.57414">
        <ele>1777.6</ele>
        <time>2014-09-21T13:29:18Z</time>
      </trkpt>
      <trkpt lat="42.7243" lon="1.57417">
        <ele>1777.1</ele>
        <time>2014-09-21T13:29:19Z</time>
      </trkpt>
      <trkpt lat="42.7243" lon="1.57424">
        <ele>1776.2</ele>
        <time>2014-09-21T13:29:21Z</time>
      </trkpt>
      <trkpt lat="42.72448" lon="1.57434">
        <ele>1775.7</ele>
        <time>2014-09-21T13:29:31Z</time>
      </trkpt>
      <trkpt lat="42.7245" lon="1.57436">
        <ele>1775.2</ele>
        <time>2014-09-21T13:29:32Z</time>
      </trkpt>
      <trkpt lat="42.7245" lon="1.57451">
        <ele>1774.3</ele>
        <time>2014-09-21T13:29:40Z</time>
      </trkpt>
      <trkpt lat="42.72458" lon="1.5746">
        <ele>1772.3</ele>
        <time>2014-09-21T13:29:46Z</time>
      </trkpt>
      <trkpt lat="42.72473" lon="1.57477">
        <ele>1768.5</ele>
        <time>2014-09-21T13:29:57Z</time>
      </trkpt>
      <trkpt lat="42.72478" lon="1.57481">
        <ele>1767.5</ele>
        <time>2014-09-21T13:30:00Z</time>
      </trkpt>
      <trkpt lat="42.72479" lon="1.57484">
        <ele>1767</ele>
        <time>2014-09-21T13:30:02Z</time>
      </trkpt>
      <trkpt lat="42.72483" lon="1.57492">
        <ele>1764.6</ele>
        <time>2014-09-21T13:30:12Z</time>
      </trkpt>
      <trkpt lat="42.72485" lon="1.57492">
        <ele>1764.6</ele>
        <time>2014-09-21T13:30:28Z</time>
      </trkpt>
      <trkpt lat="42.72483" lon="1.57493">
        <ele>1764.2</ele>
        <time>2014-09-21T13:30:55Z</time>
      </trkpt>
      <trkpt lat="42.72483" lon="1.57493">
        <ele>1764.2</ele>
        <time>2014-09-21T13:30:57Z</time>
      </trkpt>
      <trkpt lat="42.72482" lon="1.57494">
        <ele>1764.2</ele>
        <time>2014-09-21T13:30:59Z</time>
      </trkpt>
      <trkpt lat="42.72482" lon="1.57502">
        <ele>1762.2</ele>
        <time>2014-09-21T13:31:11Z</time>
      </trkpt>
      <trkpt lat="42.72491" lon="1.57517">
        <ele>1759.8</ele>
        <time>2014-09-21T13:31:21Z</time>
      </trkpt>
      <trkpt lat="42.72494" lon="1.57525">
        <ele>1759.4</ele>
        <time>2014-09-21T13:31:27Z</time>
      </trkpt>
      <trkpt lat="42.72483" lon="1.57544">
        <ele>1757</ele>
        <time>2014-09-21T13:31:39Z</time>
      </trkpt>
      <trkpt lat="42.72478" lon="1.57551">
        <ele>1756.5</ele>
        <time>2014-09-21T13:31:42Z</time>
      </trkpt>
      <trkpt lat="42.7247" lon="1.57559">
        <ele>1756</ele>
        <time>2014-09-21T13:31:48Z</time>
      </trkpt>
      <trkpt lat="42.72464" lon="1.57563">
        <ele>1755</ele>
        <time>2014-09-21T13:31:56Z</time>
      </trkpt>
      <trkpt lat="42.72463" lon="1.57574">
        <ele>1754.5</ele>
        <time>2014-09-21T13:32:06Z</time>
      </trkpt>
      <trkpt lat="42.72462" lon="1.5758">
        <ele>1753.1</ele>
        <time>2014-09-21T13:32:16Z</time>
      </trkpt>
      <trkpt lat="42.72462" lon="1.57583">
        <ele>1751.7</ele>
        <time>2014-09-21T13:32:19Z</time>
      </trkpt>
      <trkpt lat="42.72465" lon="1.5759">
        <ele>1750.7</ele>
        <time>2014-09-21T13:32:26Z</time>
      </trkpt>
      <trkpt lat="42.72467" lon="1.57606">
        <ele>1749.3</ele>
        <time>2014-09-21T13:32:31Z</time>
      </trkpt>
      <trkpt lat="42.72463" lon="1.57622">
        <ele>1746.4</ele>
        <time>2014-09-21T13:32:38Z</time>
      </trkpt>
      <trkpt lat="42.72463" lon="1.57624">
        <ele>1745.9</ele>
        <time>2014-09-21T13:32:39Z</time>
      </trkpt>
      <trkpt lat="42.72463" lon="1.57628">
        <ele>1745.4</ele>
        <time>2014-09-21T13:32:41Z</time>
      </trkpt>
      <trkpt lat="42.72464" lon="1.57632">
        <ele>1744.5</ele>
        <time>2014-09-21T13:32:43Z</time>
      </trkpt>
      <trkpt lat="42.72473" lon="1.57649">
        <ele>1740.1</ele>
        <time>2014-09-21T13:32:52Z</time>
      </trkpt>
      <trkpt lat="42.72481" lon="1.57655">
        <ele>1738.2</ele>
        <time>2014-09-21T13:33:03Z</time>
      </trkpt>
      <trkpt lat="42.72485" lon="1.57657">
        <ele>1737.2</ele>
        <time>2014-09-21T13:33:10Z</time>
      </trkpt>
      <trkpt lat="42.72487" lon="1.5766">
        <ele>1736.3</ele>
        <time>2014-09-21T13:33:13Z</time>
      </trkpt>
      <trkpt lat="42.72491" lon="1.57667">
        <ele>1734.8</ele>
        <time>2014-09-21T13:33:17Z</time>
      </trkpt>
      <trkpt lat="42.72499" lon="1.57671">
        <ele>1732</ele>
        <time>2014-09-21T13:33:24Z</time>
      </trkpt>
      <trkpt lat="42.72501" lon="1.57674">
        <ele>1731</ele>
        <time>2014-09-21T13:33:29Z</time>
      </trkpt>
      <trkpt lat="42.7251" lon="1.57687">
        <ele>1728.6</ele>
        <time>2014-09-21T13:33:39Z</time>
      </trkpt>
      <trkpt lat="42.72516" lon="1.57694">
        <ele>1726.7</ele>
        <time>2014-09-21T13:33:47Z</time>
      </trkpt>
      <trkpt lat="42.7252" lon="1.57694">
        <ele>1724.7</ele>
        <time>2014-09-21T13:33:57Z</time>
      </trkpt>
      <trkpt lat="42.72521" lon="1.57691">
        <ele>1724.7</ele>
        <time>2014-09-21T13:34:00Z</time>
      </trkpt>
      <trkpt lat="42.72527" lon="1.57692">
        <ele>1722.8</ele>
        <time>2014-09-21T13:34:13Z</time>
      </trkpt>
      <trkpt lat="42.72534" lon="1.57699">
        <ele>1719.9</ele>
        <time>2014-09-21T13:34:27Z</time>
      </trkpt>
      <trkpt lat="42.72536" lon="1.57703">
        <ele>1718</ele>
        <time>2014-09-21T13:34:39Z</time>
      </trkpt>
      <trkpt lat="42.72542" lon="1.57704">
        <ele>1717.5</ele>
        <time>2014-09-21T13:34:47Z</time>
      </trkpt>
      <trkpt lat="42.72547" lon="1.57708">
        <ele>1715.6</ele>
        <time>2014-09-21T13:34:53Z</time>
      </trkpt>
      <trkpt lat="42.7255" lon="1.57715">
        <ele>1714.2</ele>
        <time>2014-09-21T13:35:05Z</time>
      </trkpt>
      <trkpt lat="42.72558" lon="1.5772">
        <ele>1712.3</ele>
        <time>2014-09-21T13:35:15Z</time>
      </trkpt>
      <trkpt lat="42.72562" lon="1.57725">
        <ele>1711.3</ele>
        <time>2014-09-21T13:35:18Z</time>
      </trkpt>
      <trkpt lat="42.72573" lon="1.57727">
        <ele>1708.9</ele>
        <time>2014-09-21T13:35:25Z</time>
      </trkpt>
      <trkpt lat="42.72589" lon="1.57739">
        <ele>1705.5</ele>
        <time>2014-09-21T13:35:35Z</time>
      </trkpt>
      <trkpt lat="42.72605" lon="1.5774">
        <ele>1703.6</ele>
        <time>2014-09-21T13:35:43Z</time>
      </trkpt>
      <trkpt lat="42.72613" lon="1.57733">
        <ele>1702.6</ele>
        <time>2014-09-21T13:35:54Z</time>
      </trkpt>
      <trkpt lat="42.72614" lon="1.57733">
        <ele>1701.7</ele>
        <time>2014-09-21T13:35:56Z</time>
      </trkpt>
      <trkpt lat="42.72615" lon="1.57726">
        <ele>1701.2</ele>
        <time>2014-09-21T13:36:00Z</time>
      </trkpt>
      <trkpt lat="42.72617" lon="1.57722">
        <ele>1699.8</ele>
        <time>2014-09-21T13:36:13Z</time>
      </trkpt>
      <trkpt lat="42.72618" lon="1.57719">
        <ele>1698.8</ele>
        <time>2014-09-21T13:36:29Z</time>
      </trkpt>
      <trkpt lat="42.72618" lon="1.57713">
        <ele>1697.8</ele>
        <time>2014-09-21T13:36:42Z</time>
      </trkpt>
      <trkpt lat="42.72617" lon="1.57714">
        <ele>1697.3</ele>
        <time>2014-09-21T13:37:05Z</time>
      </trkpt>
      <trkpt lat="42.72617" lon="1.57715">
        <ele>1697.3</ele>
        <time>2014-09-21T13:37:26Z</time>
      </trkpt>
      <trkpt lat="42.72614" lon="1.57711">
        <ele>1697.3</ele>
        <time>2014-09-21T13:37:58Z</time>
      </trkpt>
      <trkpt lat="42.72616" lon="1.57713">
        <ele>1697.3</ele>
        <time>2014-09-21T13:38:21Z</time>
      </trkpt>
      <trkpt lat="42.72619" lon="1.57703">
        <ele>1694.9</ele>
        <time>2014-09-21T13:38:34Z</time>
      </trkpt>
      <trkpt lat="42.72625" lon="1.57691">
        <ele>1692.1</ele>
        <time>2014-09-21T13:38:46Z</time>
      </trkpt>
      <trkpt lat="42.72628" lon="1.57684">
        <ele>1690.1</ele>
        <time>2014-09-21T13:38:57Z</time>
      </trkpt>
      <trkpt lat="42.72632" lon="1.57684">
        <ele>1688.2</ele>
        <time>2014-09-21T13:39:08Z</time>
      </trkpt>
      <trkpt lat="42.72639" lon="1.57686">
        <ele>1685.3</ele>
        <time>2014-09-21T13:39:20Z</time>
      </trkpt>
      <trkpt lat="42.72644" lon="1.57691">
        <ele>1682.9</ele>
        <time>2014-09-21T13:39:34Z</time>
      </trkpt>
      <trkpt lat="42.72647" lon="1.57693">
        <ele>1682.9</ele>
        <time>2014-09-21T13:39:41Z</time>
      </trkpt>
      <trkpt lat="42.72659" lon="1.577">
        <ele>1680</ele>
        <time>2014-09-21T13:39:56Z</time>
      </trkpt>
      <trkpt lat="42.72664" lon="1.57709">
        <ele>1677.2</ele>
        <time>2014-09-21T13:40:09Z</time>
      </trkpt>
      <trkpt lat="42.72668" lon="1.57701">
        <ele>1674.8</ele>
        <time>2014-09-21T13:40:20Z</time>
      </trkpt>
      <trkpt lat="42.72671" lon="1.57696">
        <ele>1672.8</ele>
        <time>2014-09-21T13:40:31Z</time>
      </trkpt>
      <trkpt lat="42.72673" lon="1.57696">
        <ele>1672.4</ele>
        <time>2014-09-21T13:40:37Z</time>
      </trkpt>
      <trkpt lat="42.72675" lon="1.577">
        <ele>1670.4</ele>
        <time>2014-09-21T13:40:40Z</time>
      </trkpt>
      <trkpt lat="42.7268" lon="1.57711">
        <ele>1667.5</ele>
        <time>2014-09-21T13:40:48Z</time>
      </trkpt>
      <trkpt lat="42.72682" lon="1.57723">
        <ele>1665.6</ele>
        <time>2014-09-21T13:40:59Z</time>
      </trkpt>
      <trkpt lat="42.72684" lon="1.57733">
        <ele>1664.2</ele>
        <time>2014-09-21T13:41:10Z</time>
      </trkpt>
      <trkpt lat="42.72688" lon="1.57738">
        <ele>1662.3</ele>
        <time>2014-09-21T13:41:22Z</time>
      </trkpt>
      <trkpt lat="42.72695" lon="1.57744">
        <ele>1660.3</ele>
        <time>2014-09-21T13:41:33Z</time>
      </trkpt>
      <trkpt lat="42.72696" lon="1.57748">
        <ele>1658.4</ele>
        <time>2014-09-21T13:41:45Z</time>
      </trkpt>
      <trkpt lat="42.727" lon="1.57749">
        <ele>1656.5</ele>
        <time>2014-09-21T13:41:56Z</time>
      </trkpt>
      <trkpt lat="42.72705" lon="1.57753">
        <ele>1653.6</ele>
        <time>2014-09-21T13:42:09Z</time>
      </trkpt>
      <trkpt lat="42.72708" lon="1.57758">
        <ele>1652.2</ele>
        <time>2014-09-21T13:42:20Z</time>
      </trkpt>
      <trkpt lat="42.7271" lon="1.57761">
        <ele>1651.7</ele>
        <time>2014-09-21T13:42:23Z</time>
      </trkpt>
      <trkpt lat="42.72716" lon="1.57762">
        <ele>1649.3</ele>
        <time>2014-09-21T13:42:34Z</time>
      </trkpt>
      <trkpt lat="42.72718" lon="1.57765">
        <ele>1648.3</ele>
        <time>2014-09-21T13:42:39Z</time>
      </trkpt>
      <trkpt lat="42.72721" lon="1.57775">
        <ele>1645</ele>
        <time>2014-09-21T13:42:51Z</time>
      </trkpt>
      <trkpt lat="42.72722" lon="1.57776">
        <ele>1645</ele>
        <time>2014-09-21T13:42:52Z</time>
      </trkpt>
      <trkpt lat="42.72729" lon="1.5778">
        <ele>1643.5</ele>
        <time>2014-09-21T13:43:05Z</time>
      </trkpt>
      <trkpt lat="42.72725" lon="1.57779">
        <ele>1643</ele>
        <time>2014-09-21T13:43:20Z</time>
      </trkpt>
      <trkpt lat="42.72728" lon="1.57772">
        <ele>1642.6</ele>
        <time>2014-09-21T13:43:50Z</time>
      </trkpt>
      <trkpt lat="42.72733" lon="1.57778">
        <ele>1641.6</ele>
        <time>2014-09-21T13:44:24Z</time>
      </trkpt>
      <trkpt lat="42.7273" lon="1.57776">
        <ele>1642.1</ele>
        <time>2014-09-21T13:45:25Z</time>
      </trkpt>
      <trkpt lat="42.7273" lon="1.57781">
        <ele>1642.1</ele>
        <time>2014-09-21T13:46:05Z</time>
      </trkpt>
      <trkpt lat="42.72735" lon="1.5779">
        <ele>1640.2</ele>
        <time>2014-09-21T13:46:17Z</time>
      </trkpt>
      <trkpt lat="42.72742" lon="1.57803">
        <ele>1638.7</ele>
        <time>2014-09-21T13:46:22Z</time>
      </trkpt>
      <trkpt lat="42.7275" lon="1.57809">
        <ele>1638.2</ele>
        <time>2014-09-21T13:46:26Z</time>
      </trkpt>
      <trkpt lat="42.72766" lon="1.57815">
        <ele>1634.4</ele>
        <time>2014-09-21T13:46:35Z</time>
      </trkpt>
      <trkpt lat="42.72776" lon="1.57812">
        <ele>1633.4</ele>
        <time>2014-09-21T13:46:45Z</time>
      </trkpt>
      <trkpt lat="42.72775" lon="1.57811">
        <ele>1633.4</ele>
        <time>2014-09-21T13:46:48Z</time>
      </trkpt>
      <trkpt lat="42.7279" lon="1.57805">
        <ele>1632.5</ele>
        <time>2014-09-21T13:46:59Z</time>
      </trkpt>
      <trkpt lat="42.72804" lon="1.57803">
        <ele>1630.5</ele>
        <time>2014-09-21T13:47:08Z</time>
      </trkpt>
      <trkpt lat="42.72818" lon="1.57811">
        <ele>1630.5</ele>
        <time>2014-09-21T13:47:17Z</time>
      </trkpt>
      <trkpt lat="42.72824" lon="1.57819">
        <ele>1630.1</ele>
        <time>2014-09-21T13:47:24Z</time>
      </trkpt>
      <trkpt lat="42.72832" lon="1.57833">
        <ele>1629.6</ele>
        <time>2014-09-21T13:47:37Z</time>
      </trkpt>
      <trkpt lat="42.72846" lon="1.57846">
        <ele>1629.6</ele>
        <time>2014-09-21T13:47:46Z</time>
      </trkpt>
      <trkpt lat="42.7285" lon="1.57847">
        <ele>1629.6</ele>
        <time>2014-09-21T13:47:48Z</time>
      </trkpt>
      <trkpt lat="42.72865" lon="1.57853">
        <ele>1628.6</ele>
        <time>2014-09-21T13:47:56Z</time>
      </trkpt>
      <trkpt lat="42.72874" lon="1.57858">
        <ele>1629.1</ele>
        <time>2014-09-21T13:48:02Z</time>
      </trkpt>
      <trkpt lat="42.72878" lon="1.57863">
        <ele>1627.7</ele>
        <time>2014-09-21T13:48:10Z</time>
      </trkpt>
      <trkpt lat="42.72883" lon="1.57873">
        <ele>1625.7</ele>
        <time>2014-09-21T13:48:19Z</time>
      </trkpt>
      <trkpt lat="42.72883" lon="1.57877">
        <ele>1624.8</ele>
        <time>2014-09-21T13:48:22Z</time>
      </trkpt>
      <trkpt lat="42.72881" lon="1.57891">
        <ele>1623.3</ele>
        <time>2014-09-21T13:48:32Z</time>
      </trkpt>
      <trkpt lat="42.72884" lon="1.57894">
        <ele>1622.8</ele>
        <time>2014-09-21T13:48:46Z</time>
      </trkpt>
      <trkpt lat="42.72884" lon="1.57894">
        <ele>1623.8</ele>
        <time>2014-09-21T13:48:48Z</time>
      </trkpt>
      <trkpt lat="42.72887" lon="1.57895">
        <ele>1622.8</ele>
        <time>2014-09-21T13:49:11Z</time>
      </trkpt>
      <trkpt lat="42.72897" lon="1.57894">
        <ele>1620.9</ele>
        <time>2014-09-21T13:49:17Z</time>
      </trkpt>
      <trkpt lat="42.72903" lon="1.57897">
        <ele>1622.4</ele>
        <time>2014-09-21T13:49:20Z</time>
      </trkpt>
      <trkpt lat="42.7291" lon="1.57907">
        <ele>1620.9</ele>
        <time>2014-09-21T13:49:24Z</time>
      </trkpt>
      <trkpt lat="42.72931" lon="1.57924">
        <ele>1619.5</ele>
        <time>2014-09-21T13:49:34Z</time>
      </trkpt>
      <trkpt lat="42.72934" lon="1.57936">
        <ele>1618</ele>
        <time>2014-09-21T13:49:38Z</time>
      </trkpt>
      <trkpt lat="42.7294" lon="1.57943">
        <ele>1618</ele>
        <time>2014-09-21T13:49:43Z</time>
      </trkpt>
      <trkpt lat="42.72955" lon="1.57954">
        <ele>1615.2</ele>
        <time>2014-09-21T13:49:51Z</time>
      </trkpt>
      <trkpt lat="42.72965" lon="1.57974">
        <ele>1615.2</ele>
        <time>2014-09-21T13:49:58Z</time>
      </trkpt>
      <trkpt lat="42.7297" lon="1.57996">
        <ele>1612.8</ele>
        <time>2014-09-21T13:50:04Z</time>
      </trkpt>
      <trkpt lat="42.7297" lon="1.58026">
        <ele>1611.3</ele>
        <time>2014-09-21T13:50:13Z</time>
      </trkpt>
      <trkpt lat="42.72972" lon="1.58035">
        <ele>1611.3</ele>
        <time>2014-09-21T13:50:21Z</time>
      </trkpt>
      <trkpt lat="42.72984" lon="1.58043">
        <ele>1611.3</ele>
        <time>2014-09-21T13:50:35Z</time>
      </trkpt>
      <trkpt lat="42.72994" lon="1.58056">
        <ele>1611.3</ele>
        <time>2014-09-21T13:50:42Z</time>
      </trkpt>
      <trkpt lat="42.72997" lon="1.58061">
        <ele>1611.3</ele>
        <time>2014-09-21T13:50:46Z</time>
      </trkpt>
      <trkpt lat="42.73003" lon="1.58069">
        <ele>1610.8</ele>
        <time>2014-09-21T13:50:57Z</time>
      </trkpt>
      <trkpt lat="42.73008" lon="1.58074">
        <ele>1611.8</ele>
        <time>2014-09-21T13:51:08Z</time>
      </trkpt>
      <trkpt lat="42.73013" lon="1.58078">
        <ele>1611.3</ele>
        <time>2014-09-21T13:51:21Z</time>
      </trkpt>
      <trkpt lat="42.73015" lon="1.58079">
        <ele>1612.3</ele>
        <time>2014-09-21T13:51:24Z</time>
      </trkpt>
      <trkpt lat="42.73023" lon="1.58082">
        <ele>1611.3</ele>
        <time>2014-09-21T13:51:30Z</time>
      </trkpt>
      <trkpt lat="42.7303" lon="1.5809">
        <ele>1610.4</ele>
        <time>2014-09-21T13:51:35Z</time>
      </trkpt>
      <trkpt lat="42.73035" lon="1.58095">
        <ele>1610.4</ele>
        <time>2014-09-21T13:51:39Z</time>
      </trkpt>
      <trkpt lat="42.73038" lon="1.58097">
        <ele>1609.9</ele>
        <time>2014-09-21T13:51:41Z</time>
      </trkpt>
      <trkpt lat="42.73046" lon="1.58105">
        <ele>1608.4</ele>
        <time>2014-09-21T13:51:46Z</time>
      </trkpt>
      <trkpt lat="42.73053" lon="1.58117">
        <ele>1606</ele>
        <time>2014-09-21T13:51:53Z</time>
      </trkpt>
      <trkpt lat="42.73058" lon="1.58123">
        <ele>1605.1</ele>
        <time>2014-09-21T13:51:57Z</time>
      </trkpt>
      <trkpt lat="42.73067" lon="1.58131">
        <ele>1601.7</ele>
        <time>2014-09-21T13:52:04Z</time>
      </trkpt>
      <trkpt lat="42.73071" lon="1.58138">
        <ele>1601.2</ele>
        <time>2014-09-21T13:52:07Z</time>
      </trkpt>
      <trkpt lat="42.73077" lon="1.58139">
        <ele>1599.3</ele>
        <time>2014-09-21T13:52:11Z</time>
      </trkpt>
      <trkpt lat="42.7308" lon="1.58139">
        <ele>1599.3</ele>
        <time>2014-09-21T13:52:13Z</time>
      </trkpt>
      <trkpt lat="42.73082" lon="1.58137">
        <ele>1599.8</ele>
        <time>2014-09-21T13:52:18Z</time>
      </trkpt>
      <trkpt lat="42.73083" lon="1.58137">
        <ele>1598.3</ele>
        <time>2014-09-21T13:52:24Z</time>
      </trkpt>
      <trkpt lat="42.73088" lon="1.58133">
        <ele>1598.3</ele>
        <time>2014-09-21T13:52:41Z</time>
      </trkpt>
      <trkpt lat="42.73089" lon="1.58133">
        <ele>1598.3</ele>
        <time>2014-09-21T13:52:42Z</time>
      </trkpt>
      <trkpt lat="42.73091" lon="1.58132">
        <ele>1596.9</ele>
        <time>2014-09-21T13:52:47Z</time>
      </trkpt>
      <trkpt lat="42.73095" lon="1.58134">
        <ele>1595.9</ele>
        <time>2014-09-21T13:52:54Z</time>
      </trkpt>
      <trkpt lat="42.731" lon="1.58137">
        <ele>1594</ele>
        <time>2014-09-21T13:53:07Z</time>
      </trkpt>
      <trkpt lat="42.73107" lon="1.58144">
        <ele>1591.6</ele>
        <time>2014-09-21T13:53:19Z</time>
      </trkpt>
      <trkpt lat="42.73109" lon="1.58146">
        <ele>1591.1</ele>
        <time>2014-09-21T13:53:21Z</time>
      </trkpt>
      <trkpt lat="42.73116" lon="1.58147">
        <ele>1589.2</ele>
        <time>2014-09-21T13:53:31Z</time>
      </trkpt>
      <trkpt lat="42.73124" lon="1.58152">
        <ele>1588.2</ele>
        <time>2014-09-21T13:53:45Z</time>
      </trkpt>
      <trkpt lat="42.73133" lon="1.58155">
        <ele>1586.3</ele>
        <time>2014-09-21T13:53:59Z</time>
      </trkpt>
      <trkpt lat="42.73142" lon="1.58157">
        <ele>1583.9</ele>
        <time>2014-09-21T13:54:11Z</time>
      </trkpt>
      <trkpt lat="42.73156" lon="1.5817">
        <ele>1582</ele>
        <time>2014-09-21T13:54:22Z</time>
      </trkpt>
      <trkpt lat="42.73157" lon="1.58173">
        <ele>1581.5</ele>
        <time>2014-09-21T13:54:24Z</time>
      </trkpt>
      <trkpt lat="42.73163" lon="1.58182">
        <ele>1580.5</ele>
        <time>2014-09-21T13:54:35Z</time>
      </trkpt>
      <trkpt lat="42.73171" lon="1.58189">
        <ele>1579.6</ele>
        <time>2014-09-21T13:54:48Z</time>
      </trkpt>
      <trkpt lat="42.7318" lon="1.58196">
        <ele>1578.1</ele>
        <time>2014-09-21T13:55:00Z</time>
      </trkpt>
      <trkpt lat="42.73186" lon="1.58197">
        <ele>1576.2</ele>
        <time>2014-09-21T13:55:11Z</time>
      </trkpt>
      <trkpt lat="42.73187" lon="1.58198">
        <ele>1576.2</ele>
        <time>2014-09-21T13:55:12Z</time>
      </trkpt>
      <trkpt lat="42.73191" lon="1.58206">
        <ele>1577.2</ele>
        <time>2014-09-21T13:55:25Z</time>
      </trkpt>
      <trkpt lat="42.73191" lon="1.58206">
        <ele>1577.2</ele>
        <time>2014-09-21T13:55:26Z</time>
      </trkpt>
      <trkpt lat="42.73193" lon="1.58205">
        <ele>1577.2</ele>
        <time>2014-09-21T13:55:40Z</time>
      </trkpt>
      <trkpt lat="42.73194" lon="1.58206">
        <ele>1577.2</ele>
        <time>2014-09-21T13:55:56Z</time>
      </trkpt>
      <trkpt lat="42.73196" lon="1.58208">
        <ele>1577.2</ele>
        <time>2014-09-21T13:56:10Z</time>
      </trkpt>
      <trkpt lat="42.73198" lon="1.58213">
        <ele>1577.2</ele>
        <time>2014-09-21T13:56:21Z</time>
      </trkpt>
      <trkpt lat="42.73204" lon="1.58218">
        <ele>1577.7</ele>
        <time>2014-09-21T13:56:34Z</time>
      </trkpt>
      <trkpt lat="42.73206" lon="1.5822">
        <ele>1577.7</ele>
        <time>2014-09-21T13:56:51Z</time>
      </trkpt>
      <trkpt lat="42.73208" lon="1.58221">
        <ele>1577.7</ele>
        <time>2014-09-21T13:56:55Z</time>
      </trkpt>
      <trkpt lat="42.73216" lon="1.58231">
        <ele>1578.6</ele>
        <time>2014-09-21T13:57:09Z</time>
      </trkpt>
      <trkpt lat="42.7322" lon="1.58232">
        <ele>1577.2</ele>
        <time>2014-09-21T13:57:16Z</time>
      </trkpt>
      <trkpt lat="42.73229" lon="1.58231">
        <ele>1575.3</ele>
        <time>2014-09-21T13:57:28Z</time>
      </trkpt>
      <trkpt lat="42.73236" lon="1.58233">
        <ele>1574.3</ele>
        <time>2014-09-21T13:57:37Z</time>
      </trkpt>
      <trkpt lat="42.7324" lon="1.58235">
        <ele>1573.8</ele>
        <time>2014-09-21T13:57:44Z</time>
      </trkpt>
      <trkpt lat="42.73246" lon="1.58237">
        <ele>1573.3</ele>
        <time>2014-09-21T13:57:55Z</time>
      </trkpt>
      <trkpt lat="42.73252" lon="1.58241">
        <ele>1572.4</ele>
        <time>2014-09-21T13:58:08Z</time>
      </trkpt>
      <trkpt lat="42.73259" lon="1.58241">
        <ele>1571.4</ele>
        <time>2014-09-21T13:58:21Z</time>
      </trkpt>
      <trkpt lat="42.73268" lon="1.58239">
        <ele>1569</ele>
        <time>2014-09-21T13:58:36Z</time>
      </trkpt>
      <trkpt lat="42.73269" lon="1.58239">
        <ele>1568.5</ele>
        <time>2014-09-21T13:58:42Z</time>
      </trkpt>
      <trkpt lat="42.73274" lon="1.58242">
        <ele>1567.1</ele>
        <time>2014-09-21T13:58:47Z</time>
      </trkpt>
      <trkpt lat="42.73283" lon="1.58244">
        <ele>1566.1</ele>
        <time>2014-09-21T13:58:52Z</time>
      </trkpt>
      <trkpt lat="42.73289" lon="1.58245">
        <ele>1564.7</ele>
        <time>2014-09-21T13:58:55Z</time>
      </trkpt>
      <trkpt lat="42.73298" lon="1.58243">
        <ele>1562.8</ele>
        <time>2014-09-21T13:58:59Z</time>
      </trkpt>
      <trkpt lat="42.73302" lon="1.58243">
        <ele>1561.8</ele>
        <time>2014-09-21T13:59:01Z</time>
      </trkpt>
      <trkpt lat="42.73309" lon="1.58241">
        <ele>1559.9</ele>
        <time>2014-09-21T13:59:05Z</time>
      </trkpt>
      <trkpt lat="42.73316" lon="1.58241">
        <ele>1559.9</ele>
        <time>2014-09-21T13:59:14Z</time>
      </trkpt>
      <trkpt lat="42.73323" lon="1.58239">
        <ele>1558</ele>
        <time>2014-09-21T13:59:26Z</time>
      </trkpt>
      <trkpt lat="42.73327" lon="1.5824">
        <ele>1557.5</ele>
        <time>2014-09-21T13:59:38Z</time>
      </trkpt>
      <trkpt lat="42.73328" lon="1.5824">
        <ele>1557.5</ele>
        <time>2014-09-21T13:59:44Z</time>
      </trkpt>
      <trkpt lat="42.73341" lon="1.58235">
        <ele>1553.6</ele>
        <time>2014-09-21T13:59:54Z</time>
      </trkpt>
      <trkpt lat="42.73347" lon="1.58234">
        <ele>1552.7</ele>
        <time>2014-09-21T14:00:05Z</time>
      </trkpt>
      <trkpt lat="42.7335" lon="1.58233">
        <ele>1552.7</ele>
        <time>2014-09-21T14:00:10Z</time>
      </trkpt>
      <trkpt lat="42.73364" lon="1.58227">
        <ele>1550.7</ele>
        <time>2014-09-21T14:00:20Z</time>
      </trkpt>
      <trkpt lat="42.73366" lon="1.58226">
        <ele>1550.7</ele>
        <time>2014-09-21T14:00:22Z</time>
      </trkpt>
      <trkpt lat="42.73369" lon="1.58224">
        <ele>1549.8</ele>
        <time>2014-09-21T14:00:26Z</time>
      </trkpt>
      <trkpt lat="42.73371" lon="1.58223">
        <ele>1548.8</ele>
        <time>2014-09-21T14:00:28Z</time>
      </trkpt>
      <trkpt lat="42.73393" lon="1.58201">
        <ele>1545.5</ele>
        <time>2014-09-21T14:00:39Z</time>
      </trkpt>
      <trkpt lat="42.73395" lon="1.58199">
        <ele>1545.5</ele>
        <time>2014-09-21T14:00:40Z</time>
      </trkpt>
      <trkpt lat="42.73397" lon="1.58197">
        <ele>1544.5</ele>
        <time>2014-09-21T14:00:41Z</time>
      </trkpt>
      <trkpt lat="42.73396" lon="1.58193">
        <ele>1543.5</ele>
        <time>2014-09-21T14:00:45Z</time>
      </trkpt>
      <trkpt lat="42.73383" lon="1.58196">
        <ele>1540.7</ele>
        <time>2014-09-21T14:00:52Z</time>
      </trkpt>
      <trkpt lat="42.73367" lon="1.58197">
        <ele>1537.3</ele>
        <time>2014-09-21T14:00:59Z</time>
      </trkpt>
      <trkpt lat="42.73363" lon="1.582">
        <ele>1536.8</ele>
        <time>2014-09-21T14:01:08Z</time>
      </trkpt>
      <trkpt lat="42.73344" lon="1.58194">
        <ele>1534.4</ele>
        <time>2014-09-21T14:01:20Z</time>
      </trkpt>
      <trkpt lat="42.73342" lon="1.58192">
        <ele>1534.4</ele>
        <time>2014-09-21T14:01:24Z</time>
      </trkpt>
      <trkpt lat="42.73339" lon="1.58188">
        <ele>1533</ele>
        <time>2014-09-21T14:01:27Z</time>
      </trkpt>
      <trkpt lat="42.73338" lon="1.58188">
        <ele>1533</ele>
        <time>2014-09-21T14:01:28Z</time>
      </trkpt>
      <trkpt lat="42.73333" lon="1.58179">
        <ele>1530.6</ele>
        <time>2014-09-21T14:01:34Z</time>
      </trkpt>
      <trkpt lat="42.73326" lon="1.58167">
        <ele>1527.7</ele>
        <time>2014-09-21T14:01:42Z</time>
      </trkpt>
      <trkpt lat="42.7331" lon="1.58156">
        <ele>1524.8</ele>
        <time>2014-09-21T14:01:53Z</time>
      </trkpt>
      <trkpt lat="42.73308" lon="1.58156">
        <ele>1524.8</ele>
        <time>2014-09-21T14:01:56Z</time>
      </trkpt>
      <trkpt lat="42.73305" lon="1.58153">
        <ele>1524.8</ele>
        <time>2014-09-21T14:02:02Z</time>
      </trkpt>
      <trkpt lat="42.733" lon="1.58147">
        <ele>1524.3</ele>
        <time>2014-09-21T14:02:12Z</time>
      </trkpt>
      <trkpt lat="42.73302" lon="1.58147">
        <ele>1523.4</ele>
        <time>2014-09-21T14:02:14Z</time>
      </trkpt>
      <trkpt lat="42.73303" lon="1.58144">
        <ele>1522.9</ele>
        <time>2014-09-21T14:02:16Z</time>
      </trkpt>
      <trkpt lat="42.7331" lon="1.58136">
        <ele>1519</ele>
        <time>2014-09-21T14:02:23Z</time>
      </trkpt>
      <trkpt lat="42.73311" lon="1.58134">
        <ele>1518.5</ele>
        <time>2014-09-21T14:02:24Z</time>
      </trkpt>
      <trkpt lat="42.73321" lon="1.58131">
        <ele>1515.2</ele>
        <time>2014-09-21T14:02:31Z</time>
      </trkpt>
      <trkpt lat="42.73327" lon="1.58131">
        <ele>1514.7</ele>
        <time>2014-09-21T14:02:36Z</time>
      </trkpt>
      <trkpt lat="42.73338" lon="1.58128">
        <ele>1512.8</ele>
        <time>2014-09-21T14:02:43Z</time>
      </trkpt>
      <trkpt lat="42.73348" lon="1.5812">
        <ele>1508.9</ele>
        <time>2014-09-21T14:02:50Z</time>
      </trkpt>
      <trkpt lat="42.73353" lon="1.58115">
        <ele>1505.6</ele>
        <time>2014-09-21T14:02:54Z</time>
      </trkpt>
      <trkpt lat="42.73356" lon="1.58112">
        <ele>1504.6</ele>
        <time>2014-09-21T14:02:57Z</time>
      </trkpt>
      <trkpt lat="42.73366" lon="1.58109">
        <ele>1502.7</ele>
        <time>2014-09-21T14:03:08Z</time>
      </trkpt>
      <trkpt lat="42.73375" lon="1.58106">
        <ele>1499.3</ele>
        <time>2014-09-21T14:03:18Z</time>
      </trkpt>
      <trkpt lat="42.73376" lon="1.58105">
        <ele>1499.3</ele>
        <time>2014-09-21T14:03:19Z</time>
      </trkpt>
      <trkpt lat="42.73381" lon="1.58102">
        <ele>1497.9</ele>
        <time>2014-09-21T14:03:23Z</time>
      </trkpt>
      <trkpt lat="42.73384" lon="1.581">
        <ele>1496.9</ele>
        <time>2014-09-21T14:03:26Z</time>
      </trkpt>
      <trkpt lat="42.73391" lon="1.58098">
        <ele>1495.5</ele>
        <time>2014-09-21T14:03:37Z</time>
      </trkpt>
      <trkpt lat="42.73395" lon="1.58094">
        <ele>1494</ele>
        <time>2014-09-21T14:03:53Z</time>
      </trkpt>
      <trkpt lat="42.734" lon="1.58092">
        <ele>1491.6</ele>
        <time>2014-09-21T14:04:06Z</time>
      </trkpt>
      <trkpt lat="42.73401" lon="1.5809">
        <ele>1490.7</ele>
        <time>2014-09-21T14:04:17Z</time>
      </trkpt>
      <trkpt lat="42.73407" lon="1.58084">
        <ele>1488.7</ele>
        <time>2014-09-21T14:04:29Z</time>
      </trkpt>
      <trkpt lat="42.73411" lon="1.58083">
        <ele>1487.3</ele>
        <time>2014-09-21T14:04:38Z</time>
      </trkpt>
      <trkpt lat="42.73419" lon="1.58079">
        <ele>1486.8</ele>
        <time>2014-09-21T14:04:51Z</time>
      </trkpt>
      <trkpt lat="42.73424" lon="1.58077">
        <ele>1485.4</ele>
        <time>2014-09-21T14:05:05Z</time>
      </trkpt>
      <trkpt lat="42.73431" lon="1.58074">
        <ele>1484.9</ele>
        <time>2014-09-21T14:05:17Z</time>
      </trkpt>
      <trkpt lat="42.73435" lon="1.58072">
        <ele>1484.9</ele>
        <time>2014-09-21T14:05:28Z</time>
      </trkpt>
      <trkpt lat="42.73443" lon="1.58066">
        <ele>1483.5</ele>
        <time>2014-09-21T14:05:43Z</time>
      </trkpt>
      <trkpt lat="42.73444" lon="1.58063">
        <ele>1482.5</ele>
        <time>2014-09-21T14:05:45Z</time>
      </trkpt>
      <trkpt lat="42.7345" lon="1.58061">
        <ele>1480.6</ele>
        <time>2014-09-21T14:05:49Z</time>
      </trkpt>
      <trkpt lat="42.73457" lon="1.58058">
        <ele>1479.6</ele>
        <time>2014-09-21T14:06:01Z</time>
      </trkpt>
      <trkpt lat="42.73464" lon="1.58056">
        <ele>1477.2</ele>
        <time>2014-09-21T14:06:12Z</time>
      </trkpt>
      <trkpt lat="42.73469" lon="1.58054">
        <ele>1475.3</ele>
        <time>2014-09-21T14:06:20Z</time>
      </trkpt>
      <trkpt lat="42.73478" lon="1.58047">
        <ele>1471.4</ele>
        <time>2014-09-21T14:06:31Z</time>
      </trkpt>
      <trkpt lat="42.73479" lon="1.58037">
        <ele>1470</ele>
        <time>2014-09-21T14:06:42Z</time>
      </trkpt>
      <trkpt lat="42.73478" lon="1.58032">
        <ele>1469.5</ele>
        <time>2014-09-21T14:07:06Z</time>
      </trkpt>
      <trkpt lat="42.73482" lon="1.58026">
        <ele>1469</ele>
        <time>2014-09-21T14:07:19Z</time>
      </trkpt>
      <trkpt lat="42.73483" lon="1.58025">
        <ele>1469</ele>
        <time>2014-09-21T14:07:21Z</time>
      </trkpt>
      <trkpt lat="42.73494" lon="1.58016">
        <ele>1467.1</ele>
        <time>2014-09-21T14:07:32Z</time>
      </trkpt>
      <trkpt lat="42.73506" lon="1.58005">
        <ele>1464.2</ele>
        <time>2014-09-21T14:07:40Z</time>
      </trkpt>
      <trkpt lat="42.73521" lon="1.57997">
        <ele>1463.3</ele>
        <time>2014-09-21T14:07:52Z</time>
      </trkpt>
      <trkpt lat="42.73521" lon="1.57995">
        <ele>1463.3</ele>
        <time>2014-09-21T14:07:54Z</time>
      </trkpt>
      <trkpt lat="42.73529" lon="1.57992">
        <ele>1461.8</ele>
        <time>2014-09-21T14:07:58Z</time>
      </trkpt>
      <trkpt lat="42.73547" lon="1.57974">
        <ele>1459.4</ele>
        <time>2014-09-21T14:08:05Z</time>
      </trkpt>
      <trkpt lat="42.73555" lon="1.57967">
        <ele>1458</ele>
        <time>2014-09-21T14:08:09Z</time>
      </trkpt>
      <trkpt lat="42.73558" lon="1.57962">
        <ele>1457.5</ele>
        <time>2014-09-21T14:08:12Z</time>
      </trkpt>
      <trkpt lat="42.73562" lon="1.57961">
        <ele>1457</ele>
        <time>2014-09-21T14:08:14Z</time>
      </trkpt>
      <trkpt lat="42.73568" lon="1.57963">
        <ele>1455.1</ele>
        <time>2014-09-21T14:08:18Z</time>
      </trkpt>
      <trkpt lat="42.73574" lon="1.57962">
        <ele>1453.7</ele>
        <time>2014-09-21T14:08:22Z</time>
      </trkpt>
      <trkpt lat="42.73578" lon="1.57962">
        <ele>1452.2</ele>
        <time>2014-09-21T14:08:25Z</time>
      </trkpt>
      <trkpt lat="42.73582" lon="1.5796">
        <ele>1451.7</ele>
        <time>2014-09-21T14:08:28Z</time>
      </trkpt>
      <trkpt lat="42.73588" lon="1.57959">
        <ele>1448.4</ele>
        <time>2014-09-21T14:08:33Z</time>
      </trkpt>
      <trkpt lat="42.73594" lon="1.57957">
        <ele>1446.9</ele>
        <time>2014-09-21T14:08:38Z</time>
      </trkpt>
      <trkpt lat="42.73598" lon="1.57956">
        <ele>1445.5</ele>
        <time>2014-09-21T14:08:41Z</time>
      </trkpt>
      <trkpt lat="42.73613" lon="1.5795">
        <ele>1441.6</ele>
        <time>2014-09-21T14:08:50Z</time>
      </trkpt>
      <trkpt lat="42.73619" lon="1.57948">
        <ele>1439.7</ele>
        <time>2014-09-21T14:08:53Z</time>
      </trkpt>
      <trkpt lat="42.7363" lon="1.57937">
        <ele>1436.4</ele>
        <time>2014-09-21T14:08:59Z</time>
      </trkpt>
      <trkpt lat="42.73642" lon="1.57931">
        <ele>1433</ele>
        <time>2014-09-21T14:09:05Z</time>
      </trkpt>
      <trkpt lat="42.73647" lon="1.57929">
        <ele>1432</ele>
        <time>2014-09-21T14:09:07Z</time>
      </trkpt>
      <trkpt lat="42.73662" lon="1.57921">
        <ele>1430.1</ele>
        <time>2014-09-21T14:09:19Z</time>
      </trkpt>
      <trkpt lat="42.73668" lon="1.5792">
        <ele>1427.7</ele>
        <time>2014-09-21T14:09:24Z</time>
      </trkpt>
      <trkpt lat="42.7367" lon="1.57918">
        <ele>1426.7</ele>
        <time>2014-09-21T14:09:27Z</time>
      </trkpt>
      <trkpt lat="42.73673" lon="1.57917">
        <ele>1423.9</ele>
        <time>2014-09-21T14:09:31Z</time>
      </trkpt>
      <trkpt lat="42.7368" lon="1.57909">
        <ele>1422.4</ele>
        <time>2014-09-21T14:09:35Z</time>
      </trkpt>
      <trkpt lat="42.73689" lon="1.57904">
        <ele>1420</ele>
        <time>2014-09-21T14:09:39Z</time>
      </trkpt>
      <trkpt lat="42.73699" lon="1.57893">
        <ele>1418.6</ele>
        <time>2014-09-21T14:09:43Z</time>
      </trkpt>
      <trkpt lat="42.73701" lon="1.57894">
        <ele>1417.6</ele>
        <time>2014-09-21T14:09:44Z</time>
      </trkpt>
      <trkpt lat="42.7371" lon="1.57888">
        <ele>1416.2</ele>
        <time>2014-09-21T14:09:49Z</time>
      </trkpt>
      <trkpt lat="42.73714" lon="1.57888">
        <ele>1414.7</ele>
        <time>2014-09-21T14:09:52Z</time>
      </trkpt>
      <trkpt lat="42.73721" lon="1.5789">
        <ele>1413.3</ele>
        <time>2014-09-21T14:09:54Z</time>
      </trkpt>
      <trkpt lat="42.73728" lon="1.57894">
        <ele>1410.4</ele>
        <time>2014-09-21T14:10:00Z</time>
      </trkpt>
      <trkpt lat="42.73731" lon="1.57897">
        <ele>1407.5</ele>
        <time>2014-09-21T14:10:03Z</time>
      </trkpt>
      <trkpt lat="42.73735" lon="1.57897">
        <ele>1406.1</ele>
        <time>2014-09-21T14:10:14Z</time>
      </trkpt>
      <trkpt lat="42.73742" lon="1.57896">
        <ele>1404.1</ele>
        <time>2014-09-21T14:10:24Z</time>
      </trkpt>
      <trkpt lat="42.73753" lon="1.57897">
        <ele>1403.2</ele>
        <time>2014-09-21T14:10:35Z</time>
      </trkpt>
      <trkpt lat="42.73759" lon="1.57896">
        <ele>1401.7</ele>
        <time>2014-09-21T14:10:47Z</time>
      </trkpt>
      <trkpt lat="42.73763" lon="1.57894">
        <ele>1400.3</ele>
        <time>2014-09-21T14:10:58Z</time>
      </trkpt>
      <trkpt lat="42.73769" lon="1.57897">
        <ele>1398.4</ele>
        <time>2014-09-21T14:11:10Z</time>
      </trkpt>
      <trkpt lat="42.73771" lon="1.5789">
        <ele>1396.5</ele>
        <time>2014-09-21T14:11:22Z</time>
      </trkpt>
      <trkpt lat="42.73778" lon="1.57873">
        <ele>1395</ele>
        <time>2014-09-21T14:11:34Z</time>
      </trkpt>
      <trkpt lat="42.73783" lon="1.57871">
        <ele>1392.6</ele>
        <time>2014-09-21T14:11:45Z</time>
      </trkpt>
      <trkpt lat="42.73784" lon="1.57868">
        <ele>1392.6</ele>
        <time>2014-09-21T14:11:48Z</time>
      </trkpt>
      <trkpt lat="42.73786" lon="1.57868">
        <ele>1392.1</ele>
        <time>2014-09-21T14:11:50Z</time>
      </trkpt>
      <trkpt lat="42.73792" lon="1.57866">
        <ele>1390.2</ele>
        <time>2014-09-21T14:11:54Z</time>
      </trkpt>
      <trkpt lat="42.73807" lon="1.5786">
        <ele>1387.3</ele>
        <time>2014-09-21T14:12:04Z</time>
      </trkpt>
      <trkpt lat="42.73812" lon="1.57861">
        <ele>1386.8</ele>
        <time>2014-09-21T14:12:12Z</time>
      </trkpt>
      <trkpt lat="42.73819" lon="1.57862">
        <ele>1384.9</ele>
        <time>2014-09-21T14:12:24Z</time>
      </trkpt>
      <trkpt lat="42.73825" lon="1.57861">
        <ele>1383</ele>
        <time>2014-09-21T14:12:31Z</time>
      </trkpt>
      <trkpt lat="42.73827" lon="1.57863">
        <ele>1381.6</ele>
        <time>2014-09-21T14:12:35Z</time>
      </trkpt>
      <trkpt lat="42.73827" lon="1.57868">
        <ele>1380.1</ele>
        <time>2014-09-21T14:12:37Z</time>
      </trkpt>
      <trkpt lat="42.73827" lon="1.57869">
        <ele>1380.1</ele>
        <time>2014-09-21T14:12:38Z</time>
      </trkpt>
      <trkpt lat="42.73837" lon="1.57873">
        <ele>1376.8</ele>
        <time>2014-09-21T14:12:44Z</time>
      </trkpt>
      <trkpt lat="42.73838" lon="1.57874">
        <ele>1376.3</ele>
        <time>2014-09-21T14:12:45Z</time>
      </trkpt>
      <trkpt lat="42.73844" lon="1.57876">
        <ele>1373.9</ele>
        <time>2014-09-21T14:12:48Z</time>
      </trkpt>
      <trkpt lat="42.73848" lon="1.57878">
        <ele>1370.5</ele>
        <time>2014-09-21T14:12:53Z</time>
      </trkpt>
      <trkpt lat="42.73853" lon="1.57882">
        <ele>1369.1</ele>
        <time>2014-09-21T14:12:56Z</time>
      </trkpt>
      <trkpt lat="42.73868" lon="1.57879">
        <ele>1365.7</ele>
        <time>2014-09-21T14:13:00Z</time>
      </trkpt>
      <trkpt lat="42.73891" lon="1.57874">
        <ele>1363.8</ele>
        <time>2014-09-21T14:13:10Z</time>
      </trkpt>
      <trkpt lat="42.73893" lon="1.57874">
        <ele>1362.8</ele>
        <time>2014-09-21T14:13:12Z</time>
      </trkpt>
      <trkpt lat="42.73894" lon="1.57873">
        <ele>1362.8</ele>
        <time>2014-09-21T14:13:13Z</time>
      </trkpt>
      <trkpt lat="42.73902" lon="1.57871">
        <ele>1361.4</ele>
        <time>2014-09-21T14:13:17Z</time>
      </trkpt>
      <trkpt lat="42.7392" lon="1.57879">
        <ele>1359</ele>
        <time>2014-09-21T14:13:26Z</time>
      </trkpt>
      <trkpt lat="42.73924" lon="1.57879">
        <ele>1358</ele>
        <time>2014-09-21T14:13:29Z</time>
      </trkpt>
      <trkpt lat="42.73925" lon="1.5788">
        <ele>1358</ele>
        <time>2014-09-21T14:13:30Z</time>
      </trkpt>
      <trkpt lat="42.73929" lon="1.57883">
        <ele>1356.1</ele>
        <time>2014-09-21T14:13:35Z</time>
      </trkpt>
      <trkpt lat="42.73931" lon="1.57883">
        <ele>1356.1</ele>
        <time>2014-09-21T14:13:36Z</time>
      </trkpt>
      <trkpt lat="42.73933" lon="1.57883">
        <ele>1355.6</ele>
        <time>2014-09-21T14:13:37Z</time>
      </trkpt>
      <trkpt lat="42.73935" lon="1.57884">
        <ele>1355.1</ele>
        <time>2014-09-21T14:13:39Z</time>
      </trkpt>
      <trkpt lat="42.73939" lon="1.57885">
        <ele>1354.2</ele>
        <time>2014-09-21T14:13:42Z</time>
      </trkpt>
      <trkpt lat="42.73952" lon="1.57888">
        <ele>1353.2</ele>
        <time>2014-09-21T14:13:47Z</time>
      </trkpt>
      <trkpt lat="42.73955" lon="1.57873">
        <ele>1350.8</ele>
        <time>2014-09-21T14:13:53Z</time>
      </trkpt>
      <trkpt lat="42.73963" lon="1.57874">
        <ele>1348.9</ele>
        <time>2014-09-21T14:13:58Z</time>
      </trkpt>
      <trkpt lat="42.73966" lon="1.57877">
        <ele>1346.9</ele>
        <time>2014-09-21T14:14:03Z</time>
      </trkpt>
      <trkpt lat="42.73971" lon="1.5788">
        <ele>1345.5</ele>
        <time>2014-09-21T14:14:07Z</time>
      </trkpt>
      <trkpt lat="42.73973" lon="1.57881">
        <ele>1343.6</ele>
        <time>2014-09-21T14:14:17Z</time>
      </trkpt>
      <trkpt lat="42.73973" lon="1.57882">
        <ele>1343.6</ele>
        <time>2014-09-21T14:14:18Z</time>
      </trkpt>
      <trkpt lat="42.73976" lon="1.57887">
        <ele>1340.7</ele>
        <time>2014-09-21T14:14:26Z</time>
      </trkpt>
      <trkpt lat="42.73978" lon="1.5789">
        <ele>1338.8</ele>
        <time>2014-09-21T14:14:30Z</time>
      </trkpt>
      <trkpt lat="42.73979" lon="1.57891">
        <ele>1338.3</ele>
        <time>2014-09-21T14:14:32Z</time>
      </trkpt>
      <trkpt lat="42.73986" lon="1.57899">
        <ele>1335.4</ele>
        <time>2014-09-21T14:14:38Z</time>
      </trkpt>
      <trkpt lat="42.7399" lon="1.57901">
        <ele>1334.5</ele>
        <time>2014-09-21T14:14:40Z</time>
      </trkpt>
      <trkpt lat="42.73992" lon="1.57903">
        <ele>1333.5</ele>
        <time>2014-09-21T14:14:41Z</time>
      </trkpt>
      <trkpt lat="42.73996" lon="1.57908">
        <ele>1332</ele>
        <time>2014-09-21T14:14:43Z</time>
      </trkpt>
      <trkpt lat="42.73997" lon="1.5791">
        <ele>1331.1</ele>
        <time>2014-09-21T14:14:44Z</time>
      </trkpt>
      <trkpt lat="42.73999" lon="1.57912">
        <ele>1330.6</ele>
        <time>2014-09-21T14:14:45Z</time>
      </trkpt>
      <trkpt lat="42.74003" lon="1.57916">
        <ele>1329.6</ele>
        <time>2014-09-21T14:14:49Z</time>
      </trkpt>
      <trkpt lat="42.74006" lon="1.57918">
        <ele>1328.2</ele>
        <time>2014-09-21T14:14:51Z</time>
      </trkpt>
      <trkpt lat="42.74012" lon="1.57927">
        <ele>1324.8</ele>
        <time>2014-09-21T14:14:56Z</time>
      </trkpt>
      <trkpt lat="42.74021" lon="1.57939">
        <ele>1322</ele>
        <time>2014-09-21T14:15:03Z</time>
      </trkpt>
      <trkpt lat="42.74022" lon="1.57942">
        <ele>1320.5</ele>
        <time>2014-09-21T14:15:04Z</time>
      </trkpt>
      <trkpt lat="42.74029" lon="1.57949">
        <ele>1318.1</ele>
        <time>2014-09-21T14:15:10Z</time>
      </trkpt>
      <trkpt lat="42.7403" lon="1.5796">
        <ele>1315.7</ele>
        <time>2014-09-21T14:15:14Z</time>
      </trkpt>
      <trkpt lat="42.74032" lon="1.57963">
        <ele>1315.2</ele>
        <time>2014-09-21T14:15:16Z</time>
      </trkpt>
      <trkpt lat="42.74036" lon="1.57964">
        <ele>1314.3</ele>
        <time>2014-09-21T14:15:19Z</time>
      </trkpt>
      <trkpt lat="42.7405" lon="1.57973">
        <ele>1311.4</ele>
        <time>2014-09-21T14:15:26Z</time>
      </trkpt>
      <trkpt lat="42.74063" lon="1.57993">
        <ele>1308</ele>
        <time>2014-09-21T14:15:32Z</time>
      </trkpt>
      <trkpt lat="42.74077" lon="1.5801">
        <ele>1306.1</ele>
        <time>2014-09-21T14:15:38Z</time>
      </trkpt>
      <trkpt lat="42.74082" lon="1.58012">
        <ele>1306.1</ele>
        <time>2014-09-21T14:15:41Z</time>
      </trkpt>
      <trkpt lat="42.74086" lon="1.58014">
        <ele>1305.6</ele>
        <time>2014-09-21T14:15:44Z</time>
      </trkpt>
      <trkpt lat="42.74105" lon="1.58028">
        <ele>1302.7</ele>
        <time>2014-09-21T14:15:53Z</time>
      </trkpt>
      <trkpt lat="42.74111" lon="1.58032">
        <ele>1302.2</ele>
        <time>2014-09-21T14:16:05Z</time>
      </trkpt>
      <trkpt lat="42.74115" lon="1.58039">
        <ele>1300.3</ele>
        <time>2014-09-21T14:16:14Z</time>
      </trkpt>
      <trkpt lat="42.7412" lon="1.58048">
        <ele>1298.4</ele>
        <time>2014-09-21T14:16:25Z</time>
      </trkpt>
      <trkpt lat="42.74124" lon="1.58059">
        <ele>1295</ele>
        <time>2014-09-21T14:16:32Z</time>
      </trkpt>
      <trkpt lat="42.74126" lon="1.58062">
        <ele>1294.1</ele>
        <time>2014-09-21T14:16:35Z</time>
      </trkpt>
      <trkpt lat="42.74128" lon="1.58066">
        <ele>1292.6</ele>
        <time>2014-09-21T14:16:37Z</time>
      </trkpt>
      <trkpt lat="42.74138" lon="1.58075">
        <ele>1289.8</ele>
        <time>2014-09-21T14:16:43Z</time>
      </trkpt>
      <trkpt lat="42.74148" lon="1.58085">
        <ele>1286.4</ele>
        <time>2014-09-21T14:16:48Z</time>
      </trkpt>
      <trkpt lat="42.74155" lon="1.58091">
        <ele>1284.5</ele>
        <time>2014-09-21T14:16:50Z</time>
      </trkpt>
      <trkpt lat="42.7416" lon="1.58098">
        <ele>1282.5</ele>
        <time>2014-09-21T14:16:53Z</time>
      </trkpt>
      <trkpt lat="42.74167" lon="1.58102">
        <ele>1279.2</ele>
        <time>2014-09-21T14:17:00Z</time>
      </trkpt>
      <trkpt lat="42.7418" lon="1.58115">
        <ele>1276.8</ele>
        <time>2014-09-21T14:17:10Z</time>
      </trkpt>
      <trkpt lat="42.74182" lon="1.58117">
        <ele>1275.3</ele>
        <time>2014-09-21T14:17:12Z</time>
      </trkpt>
      <trkpt lat="42.74191" lon="1.58122">
        <ele>1274.9</ele>
        <time>2014-09-21T14:17:26Z</time>
      </trkpt>
      <trkpt lat="42.74193" lon="1.58129">
        <ele>1273.4</ele>
        <time>2014-09-21T14:17:36Z</time>
      </trkpt>
      <trkpt lat="42.74199" lon="1.58135">
        <ele>1271.5</ele>
        <time>2014-09-21T14:17:45Z</time>
      </trkpt>
      <trkpt lat="42.74203" lon="1.58137">
        <ele>1270.5</ele>
        <time>2014-09-21T14:17:48Z</time>
      </trkpt>
      <trkpt lat="42.7421" lon="1.58141">
        <ele>1269.1</ele>
        <time>2014-09-21T14:17:52Z</time>
      </trkpt>
      <trkpt lat="42.74219" lon="1.58145">
        <ele>1267.2</ele>
        <time>2014-09-21T14:17:56Z</time>
      </trkpt>
      <trkpt lat="42.74224" lon="1.58146">
        <ele>1266.2</ele>
        <time>2014-09-21T14:18:07Z</time>
      </trkpt>
      <trkpt lat="42.74224" lon="1.58146">
        <ele>1265.2</ele>
        <time>2014-09-21T14:18:22Z</time>
      </trkpt>
      <trkpt lat="42.74221" lon="1.58144">
        <ele>1265.2</ele>
        <time>2014-09-21T14:18:56Z</time>
      </trkpt>
      <trkpt lat="42.74224" lon="1.58144">
        <ele>1265.2</ele>
        <time>2014-09-21T14:19:15Z</time>
      </trkpt>
      <trkpt lat="42.74207" lon="1.58165">
        <ele>1263.8</ele>
        <time>2014-09-21T14:19:26Z</time>
      </trkpt>
      <trkpt lat="42.74204" lon="1.58168">
        <ele>1263.8</ele>
        <time>2014-09-21T14:19:27Z</time>
      </trkpt>
      <trkpt lat="42.74202" lon="1.58173">
        <ele>1263.8</ele>
        <time>2014-09-21T14:19:28Z</time>
      </trkpt>
      <trkpt lat="42.742" lon="1.58179">
        <ele>1262.8</ele>
        <time>2014-09-21T14:19:29Z</time>
      </trkpt>
      <trkpt lat="42.742" lon="1.58184">
        <ele>1262.8</ele>
        <time>2014-09-21T14:19:30Z</time>
      </trkpt>
      <trkpt lat="42.742" lon="1.58188">
        <ele>1262.8</ele>
        <time>2014-09-21T14:19:31Z</time>
      </trkpt>
      <trkpt lat="42.742" lon="1.58192">
        <ele>1262.8</ele>
        <time>2014-09-21T14:19:32Z</time>
      </trkpt>
      <trkpt lat="42.742" lon="1.58196">
        <ele>1262.8</ele>
        <time>2014-09-21T14:19:33Z</time>
      </trkpt>
      <trkpt lat="42.74192" lon="1.58252">
        <ele>1264.3</ele>
        <time>2014-09-21T14:19:45Z</time>
      </trkpt>
      <trkpt lat="42.74202" lon="1.58301">
        <ele>1266.7</ele>
        <time>2014-09-21T14:19:59Z</time>
      </trkpt>
      <trkpt lat="42.74225" lon="1.58341">
        <ele>1268.6</ele>
        <time>2014-09-21T14:20:14Z</time>
      </trkpt>
      <trkpt lat="42.7424" lon="1.58372">
        <ele>1270</ele>
        <time>2014-09-21T14:20:27Z</time>
      </trkpt>
      <trkpt lat="42.74257" lon="1.58409">
        <ele>1272</ele>
        <time>2014-09-21T14:20:44Z</time>
      </trkpt>
      <trkpt lat="42.74281" lon="1.58446">
        <ele>1274.4</ele>
        <time>2014-09-21T14:21:03Z</time>
      </trkpt>
      <trkpt lat="42.74298" lon="1.58481">
        <ele>1276.8</ele>
        <time>2014-09-21T14:21:20Z</time>
      </trkpt>
      <trkpt lat="42.74298" lon="1.58483">
        <ele>1276.8</ele>
        <time>2014-09-21T14:21:21Z</time>
      </trkpt>
      <trkpt lat="42.74298" lon="1.58487">
        <ele>1276.8</ele>
        <time>2014-09-21T14:21:24Z</time>
      </trkpt>
      <trkpt lat="42.74298" lon="1.58489">
        <ele>1277.3</ele>
        <time>2014-09-21T14:21:25Z</time>
      </trkpt>
      <trkpt lat="42.74298" lon="1.58491">
        <ele>1277.3</ele>
        <time>2014-09-21T14:21:26Z</time>
      </trkpt>
      <trkpt lat="42.74298" lon="1.58493">
        <ele>1276.8</ele>
        <time>2014-09-21T14:21:27Z</time>
      </trkpt>
      <trkpt lat="42.74298" lon="1.58495">
        <ele>1277.7</ele>
        <time>2014-09-21T14:21:28Z</time>
      </trkpt>
      <trkpt lat="42.74298" lon="1.58497">
        <ele>1277.7</ele>
        <time>2014-09-21T14:21:29Z</time>
      </trkpt>
      <trkpt lat="42.74298" lon="1.58499">
        <ele>1277.3</ele>
        <time>2014-09-21T14:21:30Z</time>
      </trkpt>
      <trkpt lat="42.74297" lon="1.585">
        <ele>1277.7</ele>
        <time>2014-09-21T14:21:31Z</time>
      </trkpt>
      <trkpt lat="42.74297" lon="1.58502">
        <ele>1277.7</ele>
        <time>2014-09-21T14:21:32Z</time>
      </trkpt>
      <trkpt lat="42.74296" lon="1.58504">
        <ele>1277.7</ele>
        <time>2014-09-21T14:21:33Z</time>
      </trkpt>
      <trkpt lat="42.74295" lon="1.58524">
        <ele>1279.7</ele>
        <time>2014-09-21T14:21:44Z</time>
      </trkpt>
      <trkpt lat="42.74295" lon="1.58526">
        <ele>1279.7</ele>
        <time>2014-09-21T14:21:45Z</time>
      </trkpt>
      <trkpt lat="42.74295" lon="1.58528">
        <ele>1279.7</ele>
        <time>2014-09-21T14:21:46Z</time>
      </trkpt>
      <trkpt lat="42.74298" lon="1.5856">
        <ele>1281.6</ele>
        <time>2014-09-21T14:22:02Z</time>
      </trkpt>
      <trkpt lat="42.74302" lon="1.58597">
        <ele>1283</ele>
        <time>2014-09-21T14:22:19Z</time>
      </trkpt>
      <trkpt lat="42.74291" lon="1.58622">
        <ele>1284.9</ele>
        <time>2014-09-21T14:22:32Z</time>
      </trkpt>
      <trkpt lat="42.74288" lon="1.58627">
        <ele>1285.4</ele>
        <time>2014-09-21T14:22:35Z</time>
      </trkpt>
      <trkpt lat="42.74283" lon="1.58658">
        <ele>1287.3</ele>
        <time>2014-09-21T14:22:49Z</time>
      </trkpt>
      <trkpt lat="42.74283" lon="1.58704">
        <ele>1288.8</ele>
        <time>2014-09-21T14:23:05Z</time>
      </trkpt>
      <trkpt lat="42.74274" lon="1.58739">
        <ele>1287.3</ele>
        <time>2014-09-21T14:23:13Z</time>
      </trkpt>
      <trkpt lat="42.74273" lon="1.58745">
        <ele>1286.9</ele>
        <time>2014-09-21T14:23:14Z</time>
      </trkpt>
      <trkpt lat="42.74274" lon="1.58751">
        <ele>1286.9</ele>
        <time>2014-09-21T14:23:15Z</time>
      </trkpt>
      <trkpt lat="42.74275" lon="1.58757">
        <ele>1286.9</ele>
        <time>2014-09-21T14:23:16Z</time>
      </trkpt>
      <trkpt lat="42.74276" lon="1.58762">
        <ele>1286.9</ele>
        <time>2014-09-21T14:23:17Z</time>
      </trkpt>
      <trkpt lat="42.74283" lon="1.58821">
        <ele>1288.3</ele>
        <time>2014-09-21T14:23:30Z</time>
      </trkpt>
      <trkpt lat="42.74279" lon="1.58875">
        <ele>1289.8</ele>
        <time>2014-09-21T14:23:47Z</time>
      </trkpt>
      <trkpt lat="42.7428" lon="1.5892">
        <ele>1292.2</ele>
        <time>2014-09-21T14:24:01Z</time>
      </trkpt>
      <trkpt lat="42.74277" lon="1.58964">
        <ele>1293.6</ele>
        <time>2014-09-21T14:24:15Z</time>
      </trkpt>
      <trkpt lat="42.74272" lon="1.59007">
        <ele>1295.5</ele>
        <time>2014-09-21T14:24:28Z</time>
      </trkpt>
      <trkpt lat="42.74255" lon="1.5903">
        <ele>1297</ele>
        <time>2014-09-21T14:24:39Z</time>
      </trkpt>
      <trkpt lat="42.7425" lon="1.59062">
        <ele>1297.9</ele>
        <time>2014-09-21T14:24:51Z</time>
      </trkpt>
      <trkpt lat="42.74244" lon="1.5909">
        <ele>1299.4</ele>
        <time>2014-09-21T14:25:02Z</time>
      </trkpt>
      <trkpt lat="42.74218" lon="1.59091">
        <ele>1300.3</ele>
        <time>2014-09-21T14:25:14Z</time>
      </trkpt>
      <trkpt lat="42.74188" lon="1.59096">
        <ele>1301.8</ele>
        <time>2014-09-21T14:25:28Z</time>
      </trkpt>
      <trkpt lat="42.74156" lon="1.59111">
        <ele>1303.7</ele>
        <time>2014-09-21T14:25:43Z</time>
      </trkpt>
      <trkpt lat="42.74123" lon="1.59132">
        <ele>1306.1</ele>
        <time>2014-09-21T14:26:00Z</time>
      </trkpt>
      <trkpt lat="42.74093" lon="1.5914">
        <ele>1307.5</ele>
        <time>2014-09-21T14:26:16Z</time>
      </trkpt>
      <trkpt lat="42.74069" lon="1.59151">
        <ele>1307.5</ele>
        <time>2014-09-21T14:26:26Z</time>
      </trkpt>
      <trkpt lat="42.74067" lon="1.59155">
        <ele>1306.6</ele>
        <time>2014-09-21T14:26:27Z</time>
      </trkpt>
      <trkpt lat="42.74067" lon="1.5916">
        <ele>1306.6</ele>
        <time>2014-09-21T14:26:28Z</time>
      </trkpt>
      <trkpt lat="42.74068" lon="1.59165">
        <ele>1306.6</ele>
        <time>2014-09-21T14:26:29Z</time>
      </trkpt>
      <trkpt lat="42.74069" lon="1.59168">
        <ele>1306.6</ele>
        <time>2014-09-21T14:26:30Z</time>
      </trkpt>
      <trkpt lat="42.74071" lon="1.59171">
        <ele>1306.6</ele>
        <time>2014-09-21T14:26:31Z</time>
      </trkpt>
      <trkpt lat="42.74073" lon="1.59173">
        <ele>1306.6</ele>
        <time>2014-09-21T14:26:32Z</time>
      </trkpt>
      <trkpt lat="42.74075" lon="1.59175">
        <ele>1306.6</ele>
        <time>2014-09-21T14:26:33Z</time>
      </trkpt>
      <trkpt lat="42.74077" lon="1.59177">
        <ele>1306.6</ele>
        <time>2014-09-21T14:26:34Z</time>
      </trkpt>
      <trkpt lat="42.74086" lon="1.59186">
        <ele>1307.5</ele>
        <time>2014-09-21T14:26:39Z</time>
      </trkpt>
      <trkpt lat="42.74115" lon="1.59222">
        <ele>1308.5</ele>
        <time>2014-09-21T14:26:54Z</time>
      </trkpt>
      <trkpt lat="42.7412" lon="1.59274">
        <ele>1308.5</ele>
        <time>2014-09-21T14:27:06Z</time>
      </trkpt>
      <trkpt lat="42.7412" lon="1.5928">
        <ele>1306.6</ele>
        <time>2014-09-21T14:27:07Z</time>
      </trkpt>
      <trkpt lat="42.74122" lon="1.59288">
        <ele>1306.1</ele>
        <time>2014-09-21T14:27:08Z</time>
      </trkpt>
      <trkpt lat="42.74124" lon="1.59294">
        <ele>1305.6</ele>
        <time>2014-09-21T14:27:09Z</time>
      </trkpt>
      <trkpt lat="42.74128" lon="1.593">
        <ele>1305.1</ele>
        <time>2014-09-21T14:27:10Z</time>
      </trkpt>
      <trkpt lat="42.74133" lon="1.59305">
        <ele>1305.1</ele>
        <time>2014-09-21T14:27:11Z</time>
      </trkpt>
      <trkpt lat="42.74139" lon="1.59309">
        <ele>1304.2</ele>
        <time>2014-09-21T14:27:12Z</time>
      </trkpt>
      <trkpt lat="42.74145" lon="1.59313">
        <ele>1303.7</ele>
        <time>2014-09-21T14:27:13Z</time>
      </trkpt>
      <trkpt lat="42.74152" lon="1.59316">
        <ele>1302.7</ele>
        <time>2014-09-21T14:27:14Z</time>
      </trkpt>
      <trkpt lat="42.74183" lon="1.59327">
        <ele>1298.9</ele>
        <time>2014-09-21T14:27:18Z</time>
      </trkpt>
      <trkpt lat="42.74191" lon="1.5933">
        <ele>1298.9</ele>
        <time>2014-09-21T14:27:19Z</time>
      </trkpt>
      <trkpt lat="42.74223" lon="1.59338">
        <ele>1295</ele>
        <time>2014-09-21T14:27:23Z</time>
      </trkpt>
      <trkpt lat="42.74255" lon="1.59346">
        <ele>1292.2</ele>
        <time>2014-09-21T14:27:27Z</time>
      </trkpt>
      <trkpt lat="42.74261" lon="1.5935">
        <ele>1291.7</ele>
        <time>2014-09-21T14:27:28Z</time>
      </trkpt>
      <trkpt lat="42.74265" lon="1.59357">
        <ele>1291.2</ele>
        <time>2014-09-21T14:27:29Z</time>
      </trkpt>
      <trkpt lat="42.74267" lon="1.59366">
        <ele>1290.7</ele>
        <time>2014-09-21T14:27:30Z</time>
      </trkpt>
      <trkpt lat="42.74266" lon="1.59375">
        <ele>1290.2</ele>
        <time>2014-09-21T14:27:31Z</time>
      </trkpt>
      <trkpt lat="42.74264" lon="1.59384">
        <ele>1289.8</ele>
        <time>2014-09-21T14:27:32Z</time>
      </trkpt>
      <trkpt lat="42.7426" lon="1.59392">
        <ele>1289.3</ele>
        <time>2014-09-21T14:27:33Z</time>
      </trkpt>
      <trkpt lat="42.74257" lon="1.59402">
        <ele>1288.3</ele>
        <time>2014-09-21T14:27:34Z</time>
      </trkpt>
      <trkpt lat="42.74251" lon="1.59421">
        <ele>1287.3</ele>
        <time>2014-09-21T14:27:36Z</time>
      </trkpt>
      <trkpt lat="42.74241" lon="1.59466">
        <ele>1284</ele>
        <time>2014-09-21T14:27:40Z</time>
      </trkpt>
      <trkpt lat="42.7424" lon="1.59477">
        <ele>1284</ele>
        <time>2014-09-21T14:27:41Z</time>
      </trkpt>
      <trkpt lat="42.74241" lon="1.59486">
        <ele>1284</ele>
        <time>2014-09-21T14:27:42Z</time>
      </trkpt>
      <trkpt lat="42.74244" lon="1.59493">
        <ele>1284</ele>
        <time>2014-09-21T14:27:43Z</time>
      </trkpt>
      <trkpt lat="42.74249" lon="1.59498">
        <ele>1284</ele>
        <time>2014-09-21T14:27:44Z</time>
      </trkpt>
      <trkpt lat="42.74255" lon="1.595">
        <ele>1283</ele>
        <time>2014-09-21T14:27:45Z</time>
      </trkpt>
      <trkpt lat="42.74262" lon="1.59501">
        <ele>1282.1</ele>
        <time>2014-09-21T14:27:46Z</time>
      </trkpt>
      <trkpt lat="42.7427" lon="1.59503">
        <ele>1281.1</ele>
        <time>2014-09-21T14:27:47Z</time>
      </trkpt>
      <trkpt lat="42.74278" lon="1.59503">
        <ele>1280.1</ele>
        <time>2014-09-21T14:27:48Z</time>
      </trkpt>
      <trkpt lat="42.74287" lon="1.59502">
        <ele>1279.2</ele>
        <time>2014-09-21T14:27:49Z</time>
      </trkpt>
      <trkpt lat="42.74295" lon="1.595">
        <ele>1278.2</ele>
        <time>2014-09-21T14:27:50Z</time>
      </trkpt>
      <trkpt lat="42.74305" lon="1.59497">
        <ele>1277.7</ele>
        <time>2014-09-21T14:27:51Z</time>
      </trkpt>
      <trkpt lat="42.74314" lon="1.59496">
        <ele>1276.3</ele>
        <time>2014-09-21T14:27:52Z</time>
      </trkpt>
      <trkpt lat="42.74324" lon="1.59495">
        <ele>1275.3</ele>
        <time>2014-09-21T14:27:53Z</time>
      </trkpt>
      <trkpt lat="42.74356" lon="1.59492">
        <ele>1273.9</ele>
        <time>2014-09-21T14:27:57Z</time>
      </trkpt>
      <trkpt lat="42.74363" lon="1.59496">
        <ele>1272.9</ele>
        <time>2014-09-21T14:27:58Z</time>
      </trkpt>
      <trkpt lat="42.74367" lon="1.59503">
        <ele>1272.4</ele>
        <time>2014-09-21T14:27:59Z</time>
      </trkpt>
      <trkpt lat="42.74371" lon="1.59511">
        <ele>1271.5</ele>
        <time>2014-09-21T14:28:00Z</time>
      </trkpt>
      <trkpt lat="42.74374" lon="1.5952">
        <ele>1271.5</ele>
        <time>2014-09-21T14:28:01Z</time>
      </trkpt>
      <trkpt lat="42.74376" lon="1.59528">
        <ele>1271</ele>
        <time>2014-09-21T14:28:02Z</time>
      </trkpt>
      <trkpt lat="42.7438" lon="1.59535">
        <ele>1271</ele>
        <time>2014-09-21T14:28:03Z</time>
      </trkpt>
      <trkpt lat="42.74384" lon="1.59539">
        <ele>1271</ele>
        <time>2014-09-21T14:28:04Z</time>
      </trkpt>
      <trkpt lat="42.74388" lon="1.59539">
        <ele>1271.5</ele>
        <time>2014-09-21T14:28:05Z</time>
      </trkpt>
      <trkpt lat="42.74391" lon="1.59536">
        <ele>1271</ele>
        <time>2014-09-21T14:28:06Z</time>
      </trkpt>
      <trkpt lat="42.74394" lon="1.59531">
        <ele>1271</ele>
        <time>2014-09-21T14:28:07Z</time>
      </trkpt>
      <trkpt lat="42.74395" lon="1.59525">
        <ele>1270</ele>
        <time>2014-09-21T14:28:08Z</time>
      </trkpt>
      <trkpt lat="42.74398" lon="1.59518">
        <ele>1269.1</ele>
        <time>2014-09-21T14:28:09Z</time>
      </trkpt>
      <trkpt lat="42.74401" lon="1.59512">
        <ele>1268.6</ele>
        <time>2014-09-21T14:28:10Z</time>
      </trkpt>
      <trkpt lat="42.74405" lon="1.59508">
        <ele>1268.1</ele>
        <time>2014-09-21T14:28:11Z</time>
      </trkpt>
      <trkpt lat="42.74411" lon="1.59505">
        <ele>1267.6</ele>
        <time>2014-09-21T14:28:12Z</time>
      </trkpt>
      <trkpt lat="42.74417" lon="1.59503">
        <ele>1267.6</ele>
        <time>2014-09-21T14:28:13Z</time>
      </trkpt>
      <trkpt lat="42.74429" lon="1.59498">
        <ele>1265.7</ele>
        <time>2014-09-21T14:28:15Z</time>
      </trkpt>
      <trkpt lat="42.74434" lon="1.59495">
        <ele>1265.2</ele>
        <time>2014-09-21T14:28:16Z</time>
      </trkpt>
      <trkpt lat="42.74438" lon="1.5949">
        <ele>1265.2</ele>
        <time>2014-09-21T14:28:17Z</time>
      </trkpt>
      <trkpt lat="42.74441" lon="1.59483">
        <ele>1264.3</ele>
        <time>2014-09-21T14:28:18Z</time>
      </trkpt>
      <trkpt lat="42.74444" lon="1.59475">
        <ele>1263.8</ele>
        <time>2014-09-21T14:28:19Z</time>
      </trkpt>
      <trkpt lat="42.74447" lon="1.59466">
        <ele>1262.8</ele>
        <time>2014-09-21T14:28:20Z</time>
      </trkpt>
      <trkpt lat="42.74449" lon="1.5945">
        <ele>1261.4</ele>
        <time>2014-09-21T14:28:22Z</time>
      </trkpt>
      <trkpt lat="42.74449" lon="1.59443">
        <ele>1260.9</ele>
        <time>2014-09-21T14:28:23Z</time>
      </trkpt>
      <trkpt lat="42.74447" lon="1.59437">
        <ele>1260.9</ele>
        <time>2014-09-21T14:28:24Z</time>
      </trkpt>
      <trkpt lat="42.74443" lon="1.59432">
        <ele>1259.9</ele>
        <time>2014-09-21T14:28:25Z</time>
      </trkpt>
      <trkpt lat="42.74439" lon="1.59428">
        <ele>1259.9</ele>
        <time>2014-09-21T14:28:26Z</time>
      </trkpt>
      <trkpt lat="42.74433" lon="1.59424">
        <ele>1259</ele>
        <time>2014-09-21T14:28:27Z</time>
      </trkpt>
      <trkpt lat="42.74427" lon="1.59422">
        <ele>1259</ele>
        <time>2014-09-21T14:28:28Z</time>
      </trkpt>
      <trkpt lat="42.74415" lon="1.59418">
        <ele>1258</ele>
        <time>2014-09-21T14:28:30Z</time>
      </trkpt>
      <trkpt lat="42.74409" lon="1.59419">
        <ele>1257.5</ele>
        <time>2014-09-21T14:28:31Z</time>
      </trkpt>
      <trkpt lat="42.74405" lon="1.59422">
        <ele>1257.5</ele>
        <time>2014-09-21T14:28:32Z</time>
      </trkpt>
      <trkpt lat="42.74401" lon="1.59426">
        <ele>1256.6</ele>
        <time>2014-09-21T14:28:33Z</time>
      </trkpt>
      <trkpt lat="42.74397" lon="1.59432">
        <ele>1256.6</ele>
        <time>2014-09-21T14:28:34Z</time>
      </trkpt>
      <trkpt lat="42.74394" lon="1.59436">
        <ele>1256.1</ele>
        <time>2014-09-21T14:28:35Z</time>
      </trkpt>
      <trkpt lat="42.7439" lon="1.59438">
        <ele>1256.1</ele>
        <time>2014-09-21T14:28:36Z</time>
      </trkpt>
      <trkpt lat="42.74385" lon="1.59436">
        <ele>1255.6</ele>
        <time>2014-09-21T14:28:37Z</time>
      </trkpt>
      <trkpt lat="42.74382" lon="1.59432">
        <ele>1255.1</ele>
        <time>2014-09-21T14:28:38Z</time>
      </trkpt>
      <trkpt lat="42.74382" lon="1.59425">
        <ele>1254.7</ele>
        <time>2014-09-21T14:28:39Z</time>
      </trkpt>
      <trkpt lat="42.74383" lon="1.59417">
        <ele>1254.2</ele>
        <time>2014-09-21T14:28:40Z</time>
      </trkpt>
      <trkpt lat="42.74384" lon="1.59409">
        <ele>1253.2</ele>
        <time>2014-09-21T14:28:41Z</time>
      </trkpt>
      <trkpt lat="42.74386" lon="1.59392">
        <ele>1252.3</ele>
        <time>2014-09-21T14:28:43Z</time>
      </trkpt>
      <trkpt lat="42.74386" lon="1.59384">
        <ele>1251.3</ele>
        <time>2014-09-21T14:28:44Z</time>
      </trkpt>
      <trkpt lat="42.74384" lon="1.59375">
        <ele>1250.8</ele>
        <time>2014-09-21T14:28:45Z</time>
      </trkpt>
      <trkpt lat="42.74381" lon="1.59358">
        <ele>1249.9</ele>
        <time>2014-09-21T14:28:47Z</time>
      </trkpt>
      <trkpt lat="42.74382" lon="1.59348">
        <ele>1249.4</ele>
        <time>2014-09-21T14:28:48Z</time>
      </trkpt>
      <trkpt lat="42.74383" lon="1.59338">
        <ele>1248.4</ele>
        <time>2014-09-21T14:28:49Z</time>
      </trkpt>
      <trkpt lat="42.74386" lon="1.59329">
        <ele>1247.5</ele>
        <time>2014-09-21T14:28:50Z</time>
      </trkpt>
      <trkpt lat="42.74389" lon="1.59321">
        <ele>1247.5</ele>
        <time>2014-09-21T14:28:51Z</time>
      </trkpt>
      <trkpt lat="42.74393" lon="1.59315">
        <ele>1247</ele>
        <time>2014-09-21T14:28:52Z</time>
      </trkpt>
      <trkpt lat="42.74398" lon="1.5931">
        <ele>1246</ele>
        <time>2014-09-21T14:28:53Z</time>
      </trkpt>
      <trkpt lat="42.74403" lon="1.59305">
        <ele>1245.5</ele>
        <time>2014-09-21T14:28:54Z</time>
      </trkpt>
      <trkpt lat="42.74407" lon="1.59298">
        <ele>1244.1</ele>
        <time>2014-09-21T14:28:55Z</time>
      </trkpt>
      <trkpt lat="42.74411" lon="1.59289">
        <ele>1243.1</ele>
        <time>2014-09-21T14:28:56Z</time>
      </trkpt>
      <trkpt lat="42.74414" lon="1.59279">
        <ele>1242.2</ele>
        <time>2014-09-21T14:28:57Z</time>
      </trkpt>
      <trkpt lat="42.74418" lon="1.5927">
        <ele>1241.2</ele>
        <time>2014-09-21T14:28:58Z</time>
      </trkpt>
      <trkpt lat="42.74423" lon="1.59261">
        <ele>1240.2</ele>
        <time>2014-09-21T14:28:59Z</time>
      </trkpt>
      <trkpt lat="42.74429" lon="1.59253">
        <ele>1239.3</ele>
        <time>2014-09-21T14:29:00Z</time>
      </trkpt>
      <trkpt lat="42.74436" lon="1.59246">
        <ele>1239.3</ele>
        <time>2014-09-21T14:29:01Z</time>
      </trkpt>
      <trkpt lat="42.74441" lon="1.59239">
        <ele>1239.3</ele>
        <time>2014-09-21T14:29:02Z</time>
      </trkpt>
      <trkpt lat="42.74445" lon="1.5923">
        <ele>1238.3</ele>
        <time>2014-09-21T14:29:03Z</time>
      </trkpt>
      <trkpt lat="42.74448" lon="1.59222">
        <ele>1237.8</ele>
        <time>2014-09-21T14:29:04Z</time>
      </trkpt>
      <trkpt lat="42.74451" lon="1.59212">
        <ele>1237.4</ele>
        <time>2014-09-21T14:29:05Z</time>
      </trkpt>
      <trkpt lat="42.74454" lon="1.59201">
        <ele>1236.4</ele>
        <time>2014-09-21T14:29:06Z</time>
      </trkpt>
      <trkpt lat="42.74463" lon="1.59158">
        <ele>1233.5</ele>
        <time>2014-09-21T14:29:10Z</time>
      </trkpt>
      <trkpt lat="42.74479" lon="1.5911">
        <ele>1229.7</ele>
        <time>2014-09-21T14:29:15Z</time>
      </trkpt>
      <trkpt lat="42.74494" lon="1.5907">
        <ele>1225.8</ele>
        <time>2014-09-21T14:29:19Z</time>
      </trkpt>
      <trkpt lat="42.74506" lon="1.59038">
        <ele>1222.9</ele>
        <time>2014-09-21T14:29:22Z</time>
      </trkpt>
      <trkpt lat="42.7451" lon="1.59026">
        <ele>1222.9</ele>
        <time>2014-09-21T14:29:23Z</time>
      </trkpt>
      <trkpt lat="42.74525" lon="1.5898">
        <ele>1219.6</ele>
        <time>2014-09-21T14:29:27Z</time>
      </trkpt>
      <trkpt lat="42.74537" lon="1.58947">
        <ele>1218.1</ele>
        <time>2014-09-21T14:29:30Z</time>
      </trkpt>
      <trkpt lat="42.74556" lon="1.58894">
        <ele>1214.8</ele>
        <time>2014-09-21T14:29:35Z</time>
      </trkpt>
      <trkpt lat="42.74559" lon="1.58882">
        <ele>1214.8</ele>
        <time>2014-09-21T14:29:36Z</time>
      </trkpt>
      <trkpt lat="42.74568" lon="1.58835">
        <ele>1211.9</ele>
        <time>2014-09-21T14:29:40Z</time>
      </trkpt>
      <trkpt lat="42.74573" lon="1.5879">
        <ele>1208.5</ele>
        <time>2014-09-21T14:29:44Z</time>
      </trkpt>
      <trkpt lat="42.7458" lon="1.58753">
        <ele>1206.1</ele>
        <time>2014-09-21T14:29:48Z</time>
      </trkpt>
      <trkpt lat="42.74583" lon="1.58744">
        <ele>1205.2</ele>
        <time>2014-09-21T14:29:49Z</time>
      </trkpt>
      <trkpt lat="42.74587" lon="1.58736">
        <ele>1204.2</ele>
        <time>2014-09-21T14:29:50Z</time>
      </trkpt>
      <trkpt lat="42.74593" lon="1.58728">
        <ele>1203.7</ele>
        <time>2014-09-21T14:29:51Z</time>
      </trkpt>
      <trkpt lat="42.746" lon="1.58722">
        <ele>1203.7</ele>
        <time>2014-09-21T14:29:52Z</time>
      </trkpt>
      <trkpt lat="42.74606" lon="1.58715">
        <ele>1202.8</ele>
        <time>2014-09-21T14:29:53Z</time>
      </trkpt>
      <trkpt lat="42.74618" lon="1.58705">
        <ele>1201.8</ele>
        <time>2014-09-21T14:29:55Z</time>
      </trkpt>
      <trkpt lat="42.74623" lon="1.58702">
        <ele>1201.8</ele>
        <time>2014-09-21T14:29:56Z</time>
      </trkpt>
      <trkpt lat="42.74628" lon="1.58699">
        <ele>1200.8</ele>
        <time>2014-09-21T14:29:57Z</time>
      </trkpt>
      <trkpt lat="42.74633" lon="1.58694">
        <ele>1199.9</ele>
        <time>2014-09-21T14:29:58Z</time>
      </trkpt>
      <trkpt lat="42.74638" lon="1.58687">
        <ele>1198.9</ele>
        <time>2014-09-21T14:29:59Z</time>
      </trkpt>
      <trkpt lat="42.74642" lon="1.5868">
        <ele>1197.9</ele>
        <time>2014-09-21T14:30:00Z</time>
      </trkpt>
      <trkpt lat="42.74646" lon="1.58672">
        <ele>1197.9</ele>
        <time>2014-09-21T14:30:01Z</time>
      </trkpt>
      <trkpt lat="42.74651" lon="1.58665">
        <ele>1196.5</ele>
        <time>2014-09-21T14:30:02Z</time>
      </trkpt>
      <trkpt lat="42.74657" lon="1.58659">
        <ele>1195.5</ele>
        <time>2014-09-21T14:30:03Z</time>
      </trkpt>
      <trkpt lat="42.74664" lon="1.58653">
        <ele>1194.6</ele>
        <time>2014-09-21T14:30:04Z</time>
      </trkpt>
      <trkpt lat="42.74687" lon="1.58638">
        <ele>1191.2</ele>
        <time>2014-09-21T14:30:07Z</time>
      </trkpt>
      <trkpt lat="42.74717" lon="1.58621">
        <ele>1188.8</ele>
        <time>2014-09-21T14:30:11Z</time>
      </trkpt>
      <trkpt lat="42.74725" lon="1.58619">
        <ele>1188.8</ele>
        <time>2014-09-21T14:30:12Z</time>
      </trkpt>
      <trkpt lat="42.74732" lon="1.58618">
        <ele>1187.4</ele>
        <time>2014-09-21T14:30:13Z</time>
      </trkpt>
      <trkpt lat="42.74738" lon="1.58618">
        <ele>1187.4</ele>
        <time>2014-09-21T14:30:14Z</time>
      </trkpt>
      <trkpt lat="42.74755" lon="1.58616">
        <ele>1186.4</ele>
        <time>2014-09-21T14:30:16Z</time>
      </trkpt>
      <trkpt lat="42.74761" lon="1.58613">
        <ele>1186.4</ele>
        <time>2014-09-21T14:30:17Z</time>
      </trkpt>
      <trkpt lat="42.74766" lon="1.58606">
        <ele>1185.4</ele>
        <time>2014-09-21T14:30:18Z</time>
      </trkpt>
      <trkpt lat="42.74767" lon="1.58598">
        <ele>1185.4</ele>
        <time>2014-09-21T14:30:19Z</time>
      </trkpt>
      <trkpt lat="42.74767" lon="1.5859">
        <ele>1185.4</ele>
        <time>2014-09-21T14:30:20Z</time>
      </trkpt>
      <trkpt lat="42.74766" lon="1.58584">
        <ele>1185.4</ele>
        <time>2014-09-21T14:30:21Z</time>
      </trkpt>
      <trkpt lat="42.74764" lon="1.58578">
        <ele>1185.4</ele>
        <time>2014-09-21T14:30:22Z</time>
      </trkpt>
      <trkpt lat="42.74762" lon="1.58567">
        <ele>1186.9</ele>
        <time>2014-09-21T14:30:24Z</time>
      </trkpt>
      <trkpt lat="42.74759" lon="1.58556">
        <ele>1186.9</ele>
        <time>2014-09-21T14:30:26Z</time>
      </trkpt>
      <trkpt lat="42.74759" lon="1.5855">
        <ele>1186.9</ele>
        <time>2014-09-21T14:30:27Z</time>
      </trkpt>
      <trkpt lat="42.74759" lon="1.58545">
        <ele>1186.9</ele>
        <time>2014-09-21T14:30:28Z</time>
      </trkpt>
      <trkpt lat="42.7476" lon="1.58539">
        <ele>1186.9</ele>
        <time>2014-09-21T14:30:29Z</time>
      </trkpt>
      <trkpt lat="42.74761" lon="1.58534">
        <ele>1186.9</ele>
        <time>2014-09-21T14:30:30Z</time>
      </trkpt>
      <trkpt lat="42.74763" lon="1.58528">
        <ele>1187.4</ele>
        <time>2014-09-21T14:30:31Z</time>
      </trkpt>
      <trkpt lat="42.74788" lon="1.58465">
        <ele>1184.5</ele>
        <time>2014-09-21T14:30:42Z</time>
      </trkpt>
      <trkpt lat="42.74792" lon="1.58454">
        <ele>1183</ele>
        <time>2014-09-21T14:30:43Z</time>
      </trkpt>
      <trkpt lat="42.74795" lon="1.58445">
        <ele>1182.6</ele>
        <time>2014-09-21T14:30:44Z</time>
      </trkpt>
      <trkpt lat="42.74798" lon="1.58435">
        <ele>1181.6</ele>
        <time>2014-09-21T14:30:45Z</time>
      </trkpt>
      <trkpt lat="42.748" lon="1.58425">
        <ele>1181.1</ele>
        <time>2014-09-21T14:30:46Z</time>
      </trkpt>
      <trkpt lat="42.74808" lon="1.58381">
        <ele>1177.8</ele>
        <time>2014-09-21T14:30:50Z</time>
      </trkpt>
      <trkpt lat="42.74811" lon="1.58335">
        <ele>1173.9</ele>
        <time>2014-09-21T14:30:54Z</time>
      </trkpt>
      <trkpt lat="42.74813" lon="1.58291">
        <ele>1170.5</ele>
        <time>2014-09-21T14:30:58Z</time>
      </trkpt>
      <trkpt lat="42.74812" lon="1.5828">
        <ele>1170.1</ele>
        <time>2014-09-21T14:30:59Z</time>
      </trkpt>
      <trkpt lat="42.74812" lon="1.5827">
        <ele>1169.6</ele>
        <time>2014-09-21T14:31:00Z</time>
      </trkpt>
      <trkpt lat="42.74813" lon="1.5826">
        <ele>1169.6</ele>
        <time>2014-09-21T14:31:01Z</time>
      </trkpt>
      <trkpt lat="42.74817" lon="1.58242">
        <ele>1168.1</ele>
        <time>2014-09-21T14:31:03Z</time>
      </trkpt>
      <trkpt lat="42.74826" lon="1.58215">
        <ele>1165.7</ele>
        <time>2014-09-21T14:31:06Z</time>
      </trkpt>
      <trkpt lat="42.74834" lon="1.58175">
        <ele>1162.4</ele>
        <time>2014-09-21T14:31:10Z</time>
      </trkpt>
      <trkpt lat="42.74838" lon="1.58158">
        <ele>1161.4</ele>
        <time>2014-09-21T14:31:12Z</time>
      </trkpt>
      <trkpt lat="42.74841" lon="1.58152">
        <ele>1160.5</ele>
        <time>2014-09-21T14:31:13Z</time>
      </trkpt>
      <trkpt lat="42.74845" lon="1.58147">
        <ele>1160</ele>
        <time>2014-09-21T14:31:14Z</time>
      </trkpt>
      <trkpt lat="42.74851" lon="1.58145">
        <ele>1159.5</ele>
        <time>2014-09-21T14:31:15Z</time>
      </trkpt>
      <trkpt lat="42.74858" lon="1.58144">
        <ele>1158.5</ele>
        <time>2014-09-21T14:31:16Z</time>
      </trkpt>
      <trkpt lat="42.74873" lon="1.58145">
        <ele>1157.6</ele>
        <time>2014-09-21T14:31:18Z</time>
      </trkpt>
      <trkpt lat="42.7488" lon="1.58145">
        <ele>1156.6</ele>
        <time>2014-09-21T14:31:19Z</time>
      </trkpt>
      <trkpt lat="42.74888" lon="1.58145">
        <ele>1156.1</ele>
        <time>2014-09-21T14:31:20Z</time>
      </trkpt>
      <trkpt lat="42.74895" lon="1.58144">
        <ele>1155.6</ele>
        <time>2014-09-21T14:31:21Z</time>
      </trkpt>
      <trkpt lat="42.74902" lon="1.58142">
        <ele>1154.7</ele>
        <time>2014-09-21T14:31:22Z</time>
      </trkpt>
      <trkpt lat="42.74909" lon="1.5814">
        <ele>1154.2</ele>
        <time>2014-09-21T14:31:23Z</time>
      </trkpt>
      <trkpt lat="42.74916" lon="1.58136">
        <ele>1153.2</ele>
        <time>2014-09-21T14:31:24Z</time>
      </trkpt>
      <trkpt lat="42.74923" lon="1.5813">
        <ele>1152.8</ele>
        <time>2014-09-21T14:31:25Z</time>
      </trkpt>
      <trkpt lat="42.74931" lon="1.58124">
        <ele>1151.8</ele>
        <time>2014-09-21T14:31:26Z</time>
      </trkpt>
      <trkpt lat="42.74959" lon="1.58105">
        <ele>1148</ele>
        <time>2014-09-21T14:31:30Z</time>
      </trkpt>
      <trkpt lat="42.74965" lon="1.58101">
        <ele>1148</ele>
        <time>2014-09-21T14:31:31Z</time>
      </trkpt>
      <trkpt lat="42.7497" lon="1.58095">
        <ele>1148</ele>
        <time>2014-09-21T14:31:32Z</time>
      </trkpt>
      <trkpt lat="42.74976" lon="1.58089">
        <ele>1146</ele>
        <time>2014-09-21T14:31:33Z</time>
      </trkpt>
      <trkpt lat="42.74981" lon="1.58083">
        <ele>1145.6</ele>
        <time>2014-09-21T14:31:34Z</time>
      </trkpt>
      <trkpt lat="42.74989" lon="1.58069">
        <ele>1144.6</ele>
        <time>2014-09-21T14:31:36Z</time>
      </trkpt>
      <trkpt lat="42.75004" lon="1.58036">
        <ele>1141.2</ele>
        <time>2014-09-21T14:31:40Z</time>
      </trkpt>
      <trkpt lat="42.75013" lon="1.58015">
        <ele>1139.8</ele>
        <time>2014-09-21T14:31:42Z</time>
      </trkpt>
      <trkpt lat="42.75023" lon="1.57986">
        <ele>1136.4</ele>
        <time>2014-09-21T14:31:45Z</time>
      </trkpt>
      <trkpt lat="42.75038" lon="1.57927">
        <ele>1132.6</ele>
        <time>2014-09-21T14:31:50Z</time>
      </trkpt>
      <trkpt lat="42.75042" lon="1.5789">
        <ele>1130.7</ele>
        <time>2014-09-21T14:31:53Z</time>
      </trkpt>
      <trkpt lat="42.75042" lon="1.57878">
        <ele>1129.7</ele>
        <time>2014-09-21T14:31:54Z</time>
      </trkpt>
      <trkpt lat="42.75041" lon="1.57865">
        <ele>1129.2</ele>
        <time>2014-09-21T14:31:55Z</time>
      </trkpt>
      <trkpt lat="42.75038" lon="1.57832">
        <ele>1127.3</ele>
        <time>2014-09-21T14:31:58Z</time>
      </trkpt>
      <trkpt lat="42.75034" lon="1.57767">
        <ele>1124.4</ele>
        <time>2014-09-21T14:32:04Z</time>
      </trkpt>
      <trkpt lat="42.75035" lon="1.57746">
        <ele>1122.5</ele>
        <time>2014-09-21T14:32:07Z</time>
      </trkpt>
      <trkpt lat="42.75037" lon="1.57728">
        <ele>1121.5</ele>
        <time>2014-09-21T14:32:10Z</time>
      </trkpt>
      <trkpt lat="42.75036" lon="1.57723">
        <ele>1121</ele>
        <time>2014-09-21T14:32:11Z</time>
      </trkpt>
      <trkpt lat="42.75034" lon="1.57706">
        <ele>1119.6</ele>
        <time>2014-09-21T14:32:14Z</time>
      </trkpt>
      <trkpt lat="42.75034" lon="1.57687">
        <ele>1118.2</ele>
        <time>2014-09-21T14:32:17Z</time>
      </trkpt>
      <trkpt lat="42.75035" lon="1.57681">
        <ele>1115.3</ele>
        <time>2014-09-21T14:32:18Z</time>
      </trkpt>
      <trkpt lat="42.75036" lon="1.57675">
        <ele>1117.2</ele>
        <time>2014-09-21T14:32:19Z</time>
      </trkpt>
      <trkpt lat="42.75039" lon="1.57669">
        <ele>1117.7</ele>
        <time>2014-09-21T14:32:20Z</time>
      </trkpt>
      <trkpt lat="42.75042" lon="1.57664">
        <ele>1117.7</ele>
        <time>2014-09-21T14:32:21Z</time>
      </trkpt>
      <trkpt lat="42.75046" lon="1.57658">
        <ele>1115.3</ele>
        <time>2014-09-21T14:32:22Z</time>
      </trkpt>
      <trkpt lat="42.75049" lon="1.57653">
        <ele>1114.8</ele>
        <time>2014-09-21T14:32:23Z</time>
      </trkpt>
      <trkpt lat="42.75052" lon="1.57647">
        <ele>1114.8</ele>
        <time>2014-09-21T14:32:24Z</time>
      </trkpt>
      <trkpt lat="42.75058" lon="1.57636">
        <ele>1114.3</ele>
        <time>2014-09-21T14:32:26Z</time>
      </trkpt>
      <trkpt lat="42.75062" lon="1.57632">
        <ele>1113.8</ele>
        <time>2014-09-21T14:32:32Z</time>
      </trkpt>
      <trkpt lat="42.75075" lon="1.57628">
        <ele>1112.4</ele>
        <time>2014-09-21T14:32:38Z</time>
      </trkpt>
      <trkpt lat="42.75079" lon="1.57629">
        <ele>1111.9</ele>
        <time>2014-09-21T14:32:39Z</time>
      </trkpt>
      <trkpt lat="42.75084" lon="1.57629">
        <ele>1110.9</ele>
        <time>2014-09-21T14:32:40Z</time>
      </trkpt>
      <trkpt lat="42.75089" lon="1.57631">
        <ele>1110.9</ele>
        <time>2014-09-21T14:32:41Z</time>
      </trkpt>
      <trkpt lat="42.75095" lon="1.57633">
        <ele>1110</ele>
        <time>2014-09-21T14:32:42Z</time>
      </trkpt>
      <trkpt lat="42.75101" lon="1.57635">
        <ele>1109.5</ele>
        <time>2014-09-21T14:32:43Z</time>
      </trkpt>
      <trkpt lat="42.75107" lon="1.57636">
        <ele>1108.5</ele>
        <time>2014-09-21T14:32:44Z</time>
      </trkpt>
      <trkpt lat="42.75113" lon="1.57635">
        <ele>1107.6</ele>
        <time>2014-09-21T14:32:45Z</time>
      </trkpt>
      <trkpt lat="42.7512" lon="1.57634">
        <ele>1107.1</ele>
        <time>2014-09-21T14:32:46Z</time>
      </trkpt>
      <trkpt lat="42.75126" lon="1.57633">
        <ele>1106.1</ele>
        <time>2014-09-21T14:32:47Z</time>
      </trkpt>
      <trkpt lat="42.75129" lon="1.57632">
        <ele>1105.7</ele>
        <time>2014-09-21T14:32:48Z</time>
      </trkpt>
      <trkpt lat="42.7514" lon="1.57626">
        <ele>1104.7</ele>
        <time>2014-09-21T14:32:49Z</time>
      </trkpt>
      <trkpt lat="42.75166" lon="1.57611">
        <ele>1102.8</ele>
        <time>2014-09-21T14:32:53Z</time>
      </trkpt>
      <trkpt lat="42.75199" lon="1.57601">
        <ele>1099.4</ele>
        <time>2014-09-21T14:32:59Z</time>
      </trkpt>
      <trkpt lat="42.75205" lon="1.57601">
        <ele>1098.9</ele>
        <time>2014-09-21T14:33:00Z</time>
      </trkpt>
      <trkpt lat="42.75227" lon="1.576">
        <ele>1097.5</ele>
        <time>2014-09-21T14:33:05Z</time>
      </trkpt>
      <trkpt lat="42.75239" lon="1.57597">
        <ele>1095.6</ele>
        <time>2014-09-21T14:33:08Z</time>
      </trkpt>
      <trkpt lat="42.75257" lon="1.57594">
        <ele>1093.6</ele>
        <time>2014-09-21T14:33:11Z</time>
      </trkpt>
      <trkpt lat="42.75264" lon="1.57591">
        <ele>1092.7</ele>
        <time>2014-09-21T14:33:12Z</time>
      </trkpt>
      <trkpt lat="42.7527" lon="1.57587">
        <ele>1092.2</ele>
        <time>2014-09-21T14:33:13Z</time>
      </trkpt>
      <trkpt lat="42.75283" lon="1.57579">
        <ele>1091.2</ele>
        <time>2014-09-21T14:33:15Z</time>
      </trkpt>
      <trkpt lat="42.75289" lon="1.57577">
        <ele>1090.3</ele>
        <time>2014-09-21T14:33:16Z</time>
      </trkpt>
      <trkpt lat="42.75296" lon="1.57577">
        <ele>1089.3</ele>
        <time>2014-09-21T14:33:17Z</time>
      </trkpt>
      <trkpt lat="42.75303" lon="1.57579">
        <ele>1088.8</ele>
        <time>2014-09-21T14:33:18Z</time>
      </trkpt>
      <trkpt lat="42.7531" lon="1.57579">
        <ele>1088.4</ele>
        <time>2014-09-21T14:33:19Z</time>
      </trkpt>
      <trkpt lat="42.75318" lon="1.57577">
        <ele>1087.9</ele>
        <time>2014-09-21T14:33:20Z</time>
      </trkpt>
      <trkpt lat="42.75331" lon="1.57574">
        <ele>1086.4</ele>
        <time>2014-09-21T14:33:22Z</time>
      </trkpt>
      <trkpt lat="42.75338" lon="1.57575">
        <ele>1086</ele>
        <time>2014-09-21T14:33:23Z</time>
      </trkpt>
      <trkpt lat="42.75344" lon="1.57579">
        <ele>1085</ele>
        <time>2014-09-21T14:33:24Z</time>
      </trkpt>
      <trkpt lat="42.75376" lon="1.57598">
        <ele>1081.6</ele>
        <time>2014-09-21T14:33:29Z</time>
      </trkpt>
      <trkpt lat="42.75386" lon="1.57599">
        <ele>1080.7</ele>
        <time>2014-09-21T14:33:30Z</time>
      </trkpt>
      <trkpt lat="42.75402" lon="1.576">
        <ele>1078.7</ele>
        <time>2014-09-21T14:33:32Z</time>
      </trkpt>
      <trkpt lat="42.75412" lon="1.57598">
        <ele>1077.8</ele>
        <time>2014-09-21T14:33:33Z</time>
      </trkpt>
      <trkpt lat="42.75421" lon="1.57594">
        <ele>1076.3</ele>
        <time>2014-09-21T14:33:34Z</time>
      </trkpt>
      <trkpt lat="42.7544" lon="1.57588">
        <ele>1074.9</ele>
        <time>2014-09-21T14:33:36Z</time>
      </trkpt>
      <trkpt lat="42.7545" lon="1.57587">
        <ele>1074.4</ele>
        <time>2014-09-21T14:33:37Z</time>
      </trkpt>
      <trkpt lat="42.75459" lon="1.57585">
        <ele>1073.5</ele>
        <time>2014-09-21T14:33:38Z</time>
      </trkpt>
      <trkpt lat="42.75468" lon="1.57584">
        <ele>1072.5</ele>
        <time>2014-09-21T14:33:39Z</time>
      </trkpt>
      <trkpt lat="42.75477" lon="1.57581">
        <ele>1072</ele>
        <time>2014-09-21T14:33:40Z</time>
      </trkpt>
      <trkpt lat="42.75495" lon="1.57574">
        <ele>1071.1</ele>
        <time>2014-09-21T14:33:42Z</time>
      </trkpt>
      <trkpt lat="42.75503" lon="1.57573">
        <ele>1070.6</ele>
        <time>2014-09-21T14:33:43Z</time>
      </trkpt>
      <trkpt lat="42.75535" lon="1.57566">
        <ele>1068.2</ele>
        <time>2014-09-21T14:33:47Z</time>
      </trkpt>
      <trkpt lat="42.75543" lon="1.57565">
        <ele>1067.2</ele>
        <time>2014-09-21T14:33:48Z</time>
      </trkpt>
      <trkpt lat="42.75552" lon="1.57564">
        <ele>1066.2</ele>
        <time>2014-09-21T14:33:49Z</time>
      </trkpt>
      <trkpt lat="42.75567" lon="1.57564">
        <ele>1064.8</ele>
        <time>2014-09-21T14:33:51Z</time>
      </trkpt>
      <trkpt lat="42.75573" lon="1.57565">
        <ele>1064.3</ele>
        <time>2014-09-21T14:33:52Z</time>
      </trkpt>
      <trkpt lat="42.75601" lon="1.57563">
        <ele>1061</ele>
        <time>2014-09-21T14:33:56Z</time>
      </trkpt>
      <trkpt lat="42.75609" lon="1.57561">
        <ele>1061</ele>
        <time>2014-09-21T14:33:57Z</time>
      </trkpt>
      <trkpt lat="42.75636" lon="1.57556">
        <ele>1058.1</ele>
        <time>2014-09-21T14:34:01Z</time>
      </trkpt>
      <trkpt lat="42.75654" lon="1.57551">
        <ele>1056.6</ele>
        <time>2014-09-21T14:34:04Z</time>
      </trkpt>
      <trkpt lat="42.75659" lon="1.57553">
        <ele>1055.7</ele>
        <time>2014-09-21T14:34:05Z</time>
      </trkpt>
      <trkpt lat="42.75664" lon="1.57555">
        <ele>1055.7</ele>
        <time>2014-09-21T14:34:06Z</time>
      </trkpt>
      <trkpt lat="42.75672" lon="1.57561">
        <ele>1053.3</ele>
        <time>2014-09-21T14:34:08Z</time>
      </trkpt>
      <trkpt lat="42.75695" lon="1.5758">
        <ele>1051.8</ele>
        <time>2014-09-21T14:34:12Z</time>
      </trkpt>
      <trkpt lat="42.75699" lon="1.57585">
        <ele>1051.3</ele>
        <time>2014-09-21T14:34:13Z</time>
      </trkpt>
      <trkpt lat="42.75703" lon="1.57589">
        <ele>1050.4</ele>
        <time>2014-09-21T14:34:14Z</time>
      </trkpt>
      <trkpt lat="42.75708" lon="1.57597">
        <ele>1049.9</ele>
        <time>2014-09-21T14:34:15Z</time>
      </trkpt>
      <trkpt lat="42.75712" lon="1.57605">
        <ele>1049.4</ele>
        <time>2014-09-21T14:34:16Z</time>
      </trkpt>
      <trkpt lat="42.75716" lon="1.57614">
        <ele>1048.5</ele>
        <time>2014-09-21T14:34:17Z</time>
      </trkpt>
      <trkpt lat="42.75719" lon="1.5762">
        <ele>1048.5</ele>
        <time>2014-09-21T14:34:18Z</time>
      </trkpt>
      <trkpt lat="42.75726" lon="1.57627">
        <ele>1048.5</ele>
        <time>2014-09-21T14:34:19Z</time>
      </trkpt>
      <trkpt lat="42.75732" lon="1.57631">
        <ele>1048</ele>
        <time>2014-09-21T14:34:20Z</time>
      </trkpt>
      <trkpt lat="42.75738" lon="1.57633">
        <ele>1048</ele>
        <time>2014-09-21T14:34:21Z</time>
      </trkpt>
      <trkpt lat="42.75744" lon="1.57634">
        <ele>1047</ele>
        <time>2014-09-21T14:34:22Z</time>
      </trkpt>
      <trkpt lat="42.7575" lon="1.57634">
        <ele>1046.1</ele>
        <time>2014-09-21T14:34:23Z</time>
      </trkpt>
      <trkpt lat="42.75756" lon="1.57636">
        <ele>1045.6</ele>
        <time>2014-09-21T14:34:24Z</time>
      </trkpt>
      <trkpt lat="42.75761" lon="1.57639">
        <ele>1045.1</ele>
        <time>2014-09-21T14:34:25Z</time>
      </trkpt>
      <trkpt lat="42.75766" lon="1.57642">
        <ele>1044.6</ele>
        <time>2014-09-21T14:34:26Z</time>
      </trkpt>
      <trkpt lat="42.75777" lon="1.57648">
        <ele>1043.7</ele>
        <time>2014-09-21T14:34:28Z</time>
      </trkpt>
      <trkpt lat="42.75782" lon="1.57647">
        <ele>1043.7</ele>
        <time>2014-09-21T14:34:29Z</time>
      </trkpt>
      <trkpt lat="42.75791" lon="1.57643">
        <ele>1042.7</ele>
        <time>2014-09-21T14:34:31Z</time>
      </trkpt>
      <trkpt lat="42.75794" lon="1.57639">
        <ele>1042.7</ele>
        <time>2014-09-21T14:34:32Z</time>
      </trkpt>
      <trkpt lat="42.75816" lon="1.57609">
        <ele>1041.7</ele>
        <time>2014-09-21T14:34:38Z</time>
      </trkpt>
      <trkpt lat="42.7582" lon="1.57605">
        <ele>1041.7</ele>
        <time>2014-09-21T14:34:39Z</time>
      </trkpt>
      <trkpt lat="42.75826" lon="1.57594">
        <ele>1041.3</ele>
        <time>2014-09-21T14:34:41Z</time>
      </trkpt>
      <trkpt lat="42.75846" lon="1.57562">
        <ele>1040.8</ele>
        <time>2014-09-21T14:34:47Z</time>
      </trkpt>
      <trkpt lat="42.75892" lon="1.57484">
        <ele>1038.8</ele>
        <time>2014-09-21T14:35:01Z</time>
      </trkpt>
      <trkpt lat="42.75899" lon="1.57473">
        <ele>1038.8</ele>
        <time>2014-09-21T14:35:03Z</time>
      </trkpt>
      <trkpt lat="42.75903" lon="1.57467">
        <ele>1038.4</ele>
        <time>2014-09-21T14:35:04Z</time>
      </trkpt>
      <trkpt lat="42.75908" lon="1.57461">
        <ele>1038.4</ele>
        <time>2014-09-21T14:35:05Z</time>
      </trkpt>
      <trkpt lat="42.75948" lon="1.57425">
        <ele>1036</ele>
        <time>2014-09-21T14:35:12Z</time>
      </trkpt>
      <trkpt lat="42.75955" lon="1.57423">
        <ele>1035</ele>
        <time>2014-09-21T14:35:13Z</time>
      </trkpt>
      <trkpt lat="42.75983" lon="1.57421">
        <ele>1032.6</ele>
        <time>2014-09-21T14:35:17Z</time>
      </trkpt>
      <trkpt lat="42.76007" lon="1.5742">
        <ele>1029.7</ele>
        <time>2014-09-21T14:35:21Z</time>
      </trkpt>
      <trkpt lat="42.76017" lon="1.57419">
        <ele>1027.8</ele>
        <time>2014-09-21T14:35:23Z</time>
      </trkpt>
      <trkpt lat="42.76023" lon="1.57417">
        <ele>1027.3</ele>
        <time>2014-09-21T14:35:24Z</time>
      </trkpt>
      <trkpt lat="42.76028" lon="1.57414">
        <ele>1026.8</ele>
        <time>2014-09-21T14:35:25Z</time>
      </trkpt>
      <trkpt lat="42.76034" lon="1.57411">
        <ele>1025.4</ele>
        <time>2014-09-21T14:35:26Z</time>
      </trkpt>
      <trkpt lat="42.7604" lon="1.5741">
        <ele>1025.4</ele>
        <time>2014-09-21T14:35:27Z</time>
      </trkpt>
      <trkpt lat="42.76047" lon="1.5741">
        <ele>1024.4</ele>
        <time>2014-09-21T14:35:28Z</time>
      </trkpt>
      <trkpt lat="42.76053" lon="1.57414">
        <ele>1023.9</ele>
        <time>2014-09-21T14:35:29Z</time>
      </trkpt>
      <trkpt lat="42.76059" lon="1.57419">
        <ele>1023</ele>
        <time>2014-09-21T14:35:30Z</time>
      </trkpt>
      <trkpt lat="42.76065" lon="1.57423">
        <ele>1022.5</ele>
        <time>2014-09-21T14:35:31Z</time>
      </trkpt>
      <trkpt lat="42.76094" lon="1.57445">
        <ele>1019.1</ele>
        <time>2014-09-21T14:35:37Z</time>
      </trkpt>
      <trkpt lat="42.76099" lon="1.57449">
        <ele>1018.7</ele>
        <time>2014-09-21T14:35:38Z</time>
      </trkpt>
      <trkpt lat="42.76103" lon="1.57454">
        <ele>1017.7</ele>
        <time>2014-09-21T14:35:39Z</time>
      </trkpt>
      <trkpt lat="42.76119" lon="1.57477">
        <ele>1014.8</ele>
        <time>2014-09-21T14:35:43Z</time>
      </trkpt>
      <trkpt lat="42.76124" lon="1.57481">
        <ele>1014.3</ele>
        <time>2014-09-21T14:35:44Z</time>
      </trkpt>
      <trkpt lat="42.7613" lon="1.57486">
        <ele>1013.9</ele>
        <time>2014-09-21T14:35:45Z</time>
      </trkpt>
      <trkpt lat="42.76152" lon="1.57499">
        <ele>1011.4</ele>
        <time>2014-09-21T14:35:48Z</time>
      </trkpt>
      <trkpt lat="42.76193" lon="1.57522">
        <ele>1008.1</ele>
        <time>2014-09-21T14:35:54Z</time>
      </trkpt>
      <trkpt lat="42.76198" lon="1.57527">
        <ele>1007.6</ele>
        <time>2014-09-21T14:35:55Z</time>
      </trkpt>
      <trkpt lat="42.76204" lon="1.57535">
        <ele>1006.6</ele>
        <time>2014-09-21T14:35:56Z</time>
      </trkpt>
      <trkpt lat="42.76216" lon="1.57552">
        <ele>1006.2</ele>
        <time>2014-09-21T14:35:58Z</time>
      </trkpt>
      <trkpt lat="42.76223" lon="1.57558">
        <ele>1005.2</ele>
        <time>2014-09-21T14:35:59Z</time>
      </trkpt>
      <trkpt lat="42.7623" lon="1.57563">
        <ele>1005.2</ele>
        <time>2014-09-21T14:36:00Z</time>
      </trkpt>
      <trkpt lat="42.76236" lon="1.57564">
        <ele>1004.2</ele>
        <time>2014-09-21T14:36:01Z</time>
      </trkpt>
      <trkpt lat="42.76242" lon="1.57563">
        <ele>1004.2</ele>
        <time>2014-09-21T14:36:02Z</time>
      </trkpt>
      <trkpt lat="42.76248" lon="1.5756">
        <ele>1003.8</ele>
        <time>2014-09-21T14:36:03Z</time>
      </trkpt>
      <trkpt lat="42.76254" lon="1.57556">
        <ele>1003.3</ele>
        <time>2014-09-21T14:36:04Z</time>
      </trkpt>
      <trkpt lat="42.76277" lon="1.57543">
        <ele>1001.4</ele>
        <time>2014-09-21T14:36:08Z</time>
      </trkpt>
      <trkpt lat="42.76283" lon="1.57538">
        <ele>1000.9</ele>
        <time>2014-09-21T14:36:09Z</time>
      </trkpt>
      <trkpt lat="42.76288" lon="1.57532">
        <ele>1000.4</ele>
        <time>2014-09-21T14:36:10Z</time>
      </trkpt>
      <trkpt lat="42.7631" lon="1.57507">
        <ele>997</ele>
        <time>2014-09-21T14:36:14Z</time>
      </trkpt>
      <trkpt lat="42.76315" lon="1.57501">
        <ele>996.1</ele>
        <time>2014-09-21T14:36:15Z</time>
      </trkpt>
      <trkpt lat="42.76319" lon="1.57493">
        <ele>995.6</ele>
        <time>2014-09-21T14:36:16Z</time>
      </trkpt>
      <trkpt lat="42.76327" lon="1.57478">
        <ele>993.7</ele>
        <time>2014-09-21T14:36:18Z</time>
      </trkpt>
      <trkpt lat="42.76339" lon="1.5745">
        <ele>990.3</ele>
        <time>2014-09-21T14:36:21Z</time>
      </trkpt>
      <trkpt lat="42.76353" lon="1.57411">
        <ele>987.4</ele>
        <time>2014-09-21T14:36:26Z</time>
      </trkpt>
      <trkpt lat="42.76356" lon="1.57403">
        <ele>986.9</ele>
        <time>2014-09-21T14:36:27Z</time>
      </trkpt>
      <trkpt lat="42.76359" lon="1.57397">
        <ele>986</ele>
        <time>2014-09-21T14:36:28Z</time>
      </trkpt>
      <trkpt lat="42.76362" lon="1.57389">
        <ele>985.5</ele>
        <time>2014-09-21T14:36:29Z</time>
      </trkpt>
      <trkpt lat="42.76363" lon="1.57381">
        <ele>985</ele>
        <time>2014-09-21T14:36:30Z</time>
      </trkpt>
      <trkpt lat="42.76365" lon="1.57371">
        <ele>984.1</ele>
        <time>2014-09-21T14:36:31Z</time>
      </trkpt>
      <trkpt lat="42.76371" lon="1.57344">
        <ele>982.6</ele>
        <time>2014-09-21T14:36:34Z</time>
      </trkpt>
      <trkpt lat="42.76374" lon="1.57338">
        <ele>982.1</ele>
        <time>2014-09-21T14:36:35Z</time>
      </trkpt>
      <trkpt lat="42.76378" lon="1.57333">
        <ele>982.1</ele>
        <time>2014-09-21T14:36:36Z</time>
      </trkpt>
      <trkpt lat="42.76382" lon="1.57328">
        <ele>981.6</ele>
        <time>2014-09-21T14:36:37Z</time>
      </trkpt>
      <trkpt lat="42.76387" lon="1.57324">
        <ele>981.6</ele>
        <time>2014-09-21T14:36:38Z</time>
      </trkpt>
      <trkpt lat="42.76392" lon="1.5732">
        <ele>981.6</ele>
        <time>2014-09-21T14:36:39Z</time>
      </trkpt>
      <trkpt lat="42.76398" lon="1.57317">
        <ele>981.2</ele>
        <time>2014-09-21T14:36:40Z</time>
      </trkpt>
      <trkpt lat="42.76403" lon="1.57314">
        <ele>980.7</ele>
        <time>2014-09-21T14:36:41Z</time>
      </trkpt>
      <trkpt lat="42.76416" lon="1.57307">
        <ele>979.7</ele>
        <time>2014-09-21T14:36:43Z</time>
      </trkpt>
      <trkpt lat="42.76428" lon="1.57297">
        <ele>978.8</ele>
        <time>2014-09-21T14:36:45Z</time>
      </trkpt>
      <trkpt lat="42.76442" lon="1.57286">
        <ele>975.9</ele>
        <time>2014-09-21T14:36:47Z</time>
      </trkpt>
      <trkpt lat="42.76448" lon="1.57279">
        <ele>975.9</ele>
        <time>2014-09-21T14:36:48Z</time>
      </trkpt>
      <trkpt lat="42.76454" lon="1.57271">
        <ele>975.9</ele>
        <time>2014-09-21T14:36:49Z</time>
      </trkpt>
      <trkpt lat="42.76483" lon="1.57234">
        <ele>974</ele>
        <time>2014-09-21T14:36:54Z</time>
      </trkpt>
      <trkpt lat="42.7649" lon="1.5723">
        <ele>973.5</ele>
        <time>2014-09-21T14:36:55Z</time>
      </trkpt>
      <trkpt lat="42.76498" lon="1.57228">
        <ele>973</ele>
        <time>2014-09-21T14:36:56Z</time>
      </trkpt>
      <trkpt lat="42.76506" lon="1.57228">
        <ele>972.5</ele>
        <time>2014-09-21T14:36:57Z</time>
      </trkpt>
      <trkpt lat="42.76514" lon="1.57229">
        <ele>972</ele>
        <time>2014-09-21T14:36:58Z</time>
      </trkpt>
      <trkpt lat="42.76521" lon="1.57229">
        <ele>971.1</ele>
        <time>2014-09-21T14:36:59Z</time>
      </trkpt>
      <trkpt lat="42.76528" lon="1.57228">
        <ele>970.6</ele>
        <time>2014-09-21T14:37:00Z</time>
      </trkpt>
      <trkpt lat="42.76559" lon="1.57215">
        <ele>967.7</ele>
        <time>2014-09-21T14:37:05Z</time>
      </trkpt>
      <trkpt lat="42.76595" lon="1.572">
        <ele>963.9</ele>
        <time>2014-09-21T14:37:11Z</time>
      </trkpt>
      <trkpt lat="42.76628" lon="1.57189">
        <ele>961</ele>
        <time>2014-09-21T14:37:16Z</time>
      </trkpt>
      <trkpt lat="42.76557" lon="1.5718">
        <ele>930.8</ele>
      </trkpt>
      <trkpt lat="42.76531" lon="1.57153">
        <ele>919.9</ele>
      </trkpt>
      <trkpt lat="42.76381" lon="1.57116">
        <ele>878.5</ele>
      </trkpt>
      <trkpt lat="42.76382" lon="1.57048">
        <ele>858.8</ele>
      </trkpt>
      <trkpt lat="42.76273" lon="1.5705">
        <ele>840.4</ele>
      </trkpt>
      <trkpt lat="42.76229" lon="1.56997">
        <ele>822.2</ele>
      </trkpt>
      <trkpt lat="42.76367" lon="1.56834">
        <ele>797.1</ele>
      </trkpt>
      <trkpt lat="42.7638" lon="1.56694">
        <ele>766.7</ele>
      </trkpt>
      <trkpt lat="42.76408" lon="1.56628">
        <ele>760</ele>
      </trkpt>
      <trkpt lat="42.76355" lon="1.56579">
        <ele>755.2</ele>
      </trkpt>
      <trkpt lat="42.76354" lon="1.56574">
        <ele>754.7</ele>
      </trkpt>
      <trkpt lat="42.76356" lon="1.56573">
        <ele>754.8</ele>
      </trkpt>
      <trkpt lat="42.7639" lon="1.56563">
        <ele>754.6</ele>
      </trkpt>
      <trkpt lat="42.76407" lon="1.56561">
        <ele>754.6</ele>
      </trkpt>
      <trkpt lat="42.76425" lon="1.56556">
        <ele>754.2</ele>
      </trkpt>
      <trkpt lat="42.76447" lon="1.5655">
        <ele>753</ele>
      </trkpt>
      <trkpt lat="42.76449" lon="1.5655">
        <ele>752.9</ele>
      </trkpt>
      <trkpt lat="42.76482" lon="1.56543">
        <ele>751.5</ele>
      </trkpt>
      <trkpt lat="42.76524" lon="1.56537">
        <ele>749.2</ele>
      </trkpt>
      <trkpt lat="42.76567" lon="1.56526">
        <ele>745.9</ele>
      </trkpt>
      <trkpt lat="42.76579" lon="1.56524">
        <ele>745.1</ele>
      </trkpt>
      <trkpt lat="42.76604" lon="1.56519">
        <ele>745.6</ele>
      </trkpt>
      <trkpt lat="42.7663" lon="1.56513">
        <ele>746.2</ele>
      </trkpt>
      <trkpt lat="42.76647" lon="1.56509">
        <ele>746.5</ele>
      </trkpt>
      <trkpt lat="42.76679" lon="1.56502">
        <ele>746.6</ele>
      </trkpt>
      <trkpt lat="42.76689" lon="1.565">
        <ele>746.6</ele>
      </trkpt>
      <trkpt lat="42.76698" lon="1.56498">
        <ele>746.5</ele>
      </trkpt>
      <trkpt lat="42.76707" lon="1.56494">
        <ele>746.4</ele>
      </trkpt>
      <trkpt lat="42.76714" lon="1.56491">
        <ele>746.1</ele>
      </trkpt>
      <trkpt lat="42.7672" lon="1.56487">
        <ele>745.8</ele>
      </trkpt>
      <trkpt lat="42.76725" lon="1.56484">
        <ele>745.5</ele>
      </trkpt>
      <trkpt lat="42.7673" lon="1.56481">
        <ele>745.2</ele>
      </trkpt>
      <trkpt lat="42.76736" lon="1.56477">
        <ele>744.8</ele>
      </trkpt>
      <trkpt lat="42.76784" lon="1.56451">
        <ele>745.5</ele>
      </trkpt>
      <trkpt lat="42.76834" lon="1.5642">
        <ele>740.3</ele>
      </trkpt>
      <trkpt lat="42.76854" lon="1.5641">
        <ele>740.7</ele>
      </trkpt>
      <trkpt lat="42.76867" lon="1.56402">
        <ele>741</ele>
      </trkpt>
      <trkpt lat="42.76879" lon="1.56398">
        <ele>741.3</ele>
      </trkpt>
      <trkpt lat="42.76896" lon="1.56391">
        <ele>741.5</ele>
      </trkpt>
      <trkpt lat="42.76913" lon="1.56387">
        <ele>741.9</ele>
      </trkpt>
      <trkpt lat="42.76931" lon="1.56383">
        <ele>742.3</ele>
      </trkpt>
      <trkpt lat="42.76948" lon="1.56381">
        <ele>742.8</ele>
      </trkpt>
      <trkpt lat="42.76964" lon="1.56375">
        <ele>742.2</ele>
      </trkpt>
      <trkpt lat="42.76971" lon="1.56372">
        <ele>741.4</ele>
      </trkpt>
      <trkpt lat="42.7698" lon="1.56368">
        <ele>740.4</ele>
      </trkpt>
      <trkpt lat="42.76995" lon="1.56358">
        <ele>737.2</ele>
      </trkpt>
      <trkpt lat="42.77009" lon="1.56348">
        <ele>734.9</ele>
      </trkpt>
      <trkpt lat="42.77023" lon="1.56336">
        <ele>732.9</ele>
      </trkpt>
      <trkpt lat="42.77038" lon="1.5632">
        <ele>732.6</ele>
      </trkpt>
      <trkpt lat="42.77049" lon="1.56304">
        <ele>731.6</ele>
      </trkpt>
      <trkpt lat="42.77064" lon="1.56284">
        <ele>729.1</ele>
      </trkpt>
      <trkpt lat="42.77081" lon="1.56263">
        <ele>724.5</ele>
      </trkpt>
      <trkpt lat="42.77098" lon="1.56245">
        <ele>724.1</ele>
      </trkpt>
      <trkpt lat="42.77114" lon="1.56227">
        <ele>725.3</ele>
      </trkpt>
      <trkpt lat="42.77132" lon="1.5621">
        <ele>725.5</ele>
      </trkpt>
      <trkpt lat="42.7715" lon="1.56192">
        <ele>724</ele>
      </trkpt>
      <trkpt lat="42.77166" lon="1.56175">
        <ele>721.1</ele>
      </trkpt>
      <trkpt lat="42.77183" lon="1.56158">
        <ele>720.4</ele>
      </trkpt>
      <trkpt lat="42.772" lon="1.56142">
        <ele>719.9</ele>
      </trkpt>
      <trkpt lat="42.77218" lon="1.56128">
        <ele>718.7</ele>
      </trkpt>
      <trkpt lat="42.77236" lon="1.56117">
        <ele>717</ele>
      </trkpt>
      <trkpt lat="42.77252" lon="1.56108">
        <ele>715.1</ele>
      </trkpt>
      <trkpt lat="42.77266" lon="1.56104">
        <ele>713.5</ele>
      </trkpt>
      <trkpt lat="42.7728" lon="1.56101">
        <ele>712.1</ele>
      </trkpt>
      <trkpt lat="42.77295" lon="1.56099">
        <ele>711.3</ele>
      </trkpt>
      <trkpt lat="42.77313" lon="1.56103">
        <ele>711.9</ele>
      </trkpt>
      <trkpt lat="42.77343" lon="1.56114">
        <ele>713.2</ele>
      </trkpt>
      <trkpt lat="42.77408" lon="1.56136">
        <ele>710.2</ele>
      </trkpt>
      <trkpt lat="42.77508" lon="1.56171">
        <ele>702.6</ele>
      </trkpt>
      <trkpt lat="42.77536" lon="1.56181">
        <ele>703.2</ele>
      </trkpt>
      <trkpt lat="42.776" lon="1.56204">
        <ele>704.5</ele>
      </trkpt>
      <trkpt lat="42.77618" lon="1.56209">
        <ele>704.4</ele>
      </trkpt>
      <trkpt lat="42.77632" lon="1.56215">
        <ele>704.7</ele>
      </trkpt>
      <trkpt lat="42.77633" lon="1.56215">
        <ele>704.7</ele>
      </trkpt>
      <trkpt lat="42.77646" lon="1.56218">
        <ele>704.4</ele>
      </trkpt>
      <trkpt lat="42.77657" lon="1.56218">
        <ele>703.5</ele>
      </trkpt>
      <trkpt lat="42.7767" lon="1.56214">
        <ele>702.1</ele>
      </trkpt>
      <trkpt lat="42.77683" lon="1.56208">
        <ele>700.9</ele>
      </trkpt>
      <trkpt lat="42.77697" lon="1.56199">
        <ele>699.1</ele>
      </trkpt>
      <trkpt lat="42.77711" lon="1.56187">
        <ele>697</ele>
      </trkpt>
      <trkpt lat="42.77723" lon="1.56172">
        <ele>694.6</ele>
      </trkpt>
      <trkpt lat="42.77738" lon="1.56153">
        <ele>694.3</ele>
      </trkpt>
      <trkpt lat="42.77756" lon="1.56127">
        <ele>694.8</ele>
      </trkpt>
      <trkpt lat="42.77768" lon="1.56114">
        <ele>694.6</ele>
      </trkpt>
      <trkpt lat="42.77772" lon="1.5611">
        <ele>694.5</ele>
      </trkpt>
      <trkpt lat="42.77779" lon="1.56104">
        <ele>694.2</ele>
      </trkpt>
      <trkpt lat="42.77789" lon="1.56102">
        <ele>693.7</ele>
      </trkpt>
      <trkpt lat="42.77797" lon="1.56103">
        <ele>693.4</ele>
      </trkpt>
      <trkpt lat="42.77808" lon="1.56106">
        <ele>692.9</ele>
      </trkpt>
      <trkpt lat="42.77822" lon="1.56111">
        <ele>692.5</ele>
      </trkpt>
      <trkpt lat="42.77839" lon="1.56121">
        <ele>692.3</ele>
      </trkpt>
      <trkpt lat="42.77861" lon="1.56133">
        <ele>692.6</ele>
      </trkpt>
      <trkpt lat="42.77893" lon="1.56149">
        <ele>692.8</ele>
      </trkpt>
      <trkpt lat="42.77906" lon="1.56154">
        <ele>692.8</ele>
      </trkpt>
      <trkpt lat="42.77917" lon="1.56157">
        <ele>692.8</ele>
      </trkpt>
      <trkpt lat="42.77928" lon="1.56157">
        <ele>692.2</ele>
      </trkpt>
      <trkpt lat="42.77941" lon="1.56153">
        <ele>691.5</ele>
      </trkpt>
      <trkpt lat="42.77955" lon="1.56148">
        <ele>690.6</ele>
      </trkpt>
      <trkpt lat="42.77965" lon="1.56144">
        <ele>690</ele>
      </trkpt>
      <trkpt lat="42.77976" lon="1.56142">
        <ele>689.3</ele>
      </trkpt>
      <trkpt lat="42.7799" lon="1.56142">
        <ele>688.6</ele>
      </trkpt>
      <trkpt lat="42.78004" lon="1.56143">
        <ele>687.9</ele>
      </trkpt>
      <trkpt lat="42.78021" lon="1.56145">
        <ele>687.1</ele>
      </trkpt>
      <trkpt lat="42.78036" lon="1.56147">
        <ele>686.4</ele>
      </trkpt>
      <trkpt lat="42.78051" lon="1.56147">
        <ele>685.6</ele>
      </trkpt>
      <trkpt lat="42.78065" lon="1.56146">
        <ele>684.8</ele>
      </trkpt>
      <trkpt lat="42.78079" lon="1.56145">
        <ele>683.9</ele>
      </trkpt>
      <trkpt lat="42.7809" lon="1.56141">
        <ele>683.2</ele>
      </trkpt>
      <trkpt lat="42.781" lon="1.56137">
        <ele>682.6</ele>
      </trkpt>
      <trkpt lat="42.78113" lon="1.56133">
        <ele>681.5</ele>
      </trkpt>
      <trkpt lat="42.78127" lon="1.5613">
        <ele>680.5</ele>
      </trkpt>
      <trkpt lat="42.78139" lon="1.56128">
        <ele>679.6</ele>
      </trkpt>
      <trkpt lat="42.78153" lon="1.56127">
        <ele>678.7</ele>
      </trkpt>
      <trkpt lat="42.78167" lon="1.56127">
        <ele>677.9</ele>
      </trkpt>
      <trkpt lat="42.78182" lon="1.56126">
        <ele>677.1</ele>
      </trkpt>
      <trkpt lat="42.78197" lon="1.56124">
        <ele>676</ele>
      </trkpt>
      <trkpt lat="42.78213" lon="1.56121">
        <ele>674.6</ele>
      </trkpt>
      <trkpt lat="42.78228" lon="1.56116">
        <ele>672.9</ele>
      </trkpt>
      <trkpt lat="42.78243" lon="1.5611">
        <ele>670.8</ele>
      </trkpt>
      <trkpt lat="42.78258" lon="1.56107">
        <ele>668.5</ele>
      </trkpt>
      <trkpt lat="42.78269" lon="1.56105">
        <ele>666.4</ele>
      </trkpt>
      <trkpt lat="42.78281" lon="1.56105">
        <ele>664.7</ele>
      </trkpt>
      <trkpt lat="42.78293" lon="1.56105">
        <ele>662.9</ele>
      </trkpt>
      <trkpt lat="42.78306" lon="1.56105">
        <ele>661.2</ele>
      </trkpt>
      <trkpt lat="42.78321" lon="1.56107">
        <ele>659.5</ele>
      </trkpt>
      <trkpt lat="42.78335" lon="1.56109">
        <ele>658.2</ele>
      </trkpt>
      <trkpt lat="42.78346" lon="1.56109">
        <ele>656.9</ele>
      </trkpt>
      <trkpt lat="42.78358" lon="1.56106">
        <ele>654.9</ele>
      </trkpt>
      <trkpt lat="42.78369" lon="1.56102">
        <ele>652.6</ele>
      </trkpt>
      <trkpt lat="42.78378" lon="1.56095">
        <ele>649.9</ele>
      </trkpt>
      <trkpt lat="42.78387" lon="1.56085">
        <ele>646.8</ele>
      </trkpt>
      <trkpt lat="42.78396" lon="1.56075">
        <ele>645</ele>
      </trkpt>
      <trkpt lat="42.78407" lon="1.56069">
        <ele>643.1</ele>
      </trkpt>
      <trkpt lat="42.78419" lon="1.56066">
        <ele>641.4</ele>
      </trkpt>
      <trkpt lat="42.78432" lon="1.56066">
        <ele>640.3</ele>
      </trkpt>
      <trkpt lat="42.78444" lon="1.56066">
        <ele>639.3</ele>
      </trkpt>
      <trkpt lat="42.7846" lon="1.56067">
        <ele>638</ele>
      </trkpt>
      <trkpt lat="42.78474" lon="1.56071">
        <ele>637.1</ele>
      </trkpt>
      <trkpt lat="42.78482" lon="1.56075">
        <ele>636.8</ele>
      </trkpt>
      <trkpt lat="42.78488" lon="1.5608">
        <ele>636.9</ele>
      </trkpt>
      <trkpt lat="42.78493" lon="1.5609">
        <ele>637.2</ele>
      </trkpt>
      <trkpt lat="42.78497" lon="1.56102">
        <ele>637.7</ele>
      </trkpt>
      <trkpt lat="42.785" lon="1.56115">
        <ele>638.2</ele>
      </trkpt>
      <trkpt lat="42.78503" lon="1.56132">
        <ele>639.1</ele>
      </trkpt>
      <trkpt lat="42.78505" lon="1.5615">
        <ele>640</ele>
      </trkpt>
      <trkpt lat="42.78506" lon="1.56166">
        <ele>640.9</ele>
      </trkpt>
      <trkpt lat="42.78509" lon="1.56182">
        <ele>643.3</ele>
      </trkpt>
      <trkpt lat="42.78514" lon="1.56197">
        <ele>645.3</ele>
      </trkpt>
      <trkpt lat="42.7852" lon="1.56212">
        <ele>646.4</ele>
      </trkpt>
      <trkpt lat="42.78529" lon="1.56225">
        <ele>646.3</ele>
      </trkpt>
      <trkpt lat="42.78538" lon="1.56236">
        <ele>645.3</ele>
      </trkpt>
      <trkpt lat="42.78546" lon="1.56242">
        <ele>643.4</ele>
      </trkpt>
      <trkpt lat="42.78554" lon="1.56244">
        <ele>641.1</ele>
      </trkpt>
      <trkpt lat="42.78563" lon="1.5624">
        <ele>638</ele>
      </trkpt>
      <trkpt lat="42.78577" lon="1.56225">
        <ele>632.4</ele>
      </trkpt>
      <trkpt lat="42.78586" lon="1.56213">
        <ele>629.5</ele>
      </trkpt>
      <trkpt lat="42.78583" lon="1.56207">
        <ele>629.5</ele>
      </trkpt>
      <trkpt lat="42.78586" lon="1.56213">
        <ele>629.5</ele>
      </trkpt>
      <trkpt lat="42.78587" lon="1.56217">
        <ele>629.6</ele>
      </trkpt>
      <trkpt lat="42.78593" lon="1.56228">
        <ele>629.6</ele>
      </trkpt>
      <trkpt lat="42.78656" lon="1.56361">
        <ele>631.6</ele>
      </trkpt>
      <trkpt lat="42.78709" lon="1.56475">
        <ele>632.3</ele>
      </trkpt>
      <trkpt lat="42.78798" lon="1.56661">
        <ele>625.9</ele>
      </trkpt>
      <trkpt lat="42.78837" lon="1.56744">
        <ele>618.9</ele>
      </trkpt>
      <trkpt lat="42.78861" lon="1.56795">
        <ele>619</ele>
      </trkpt>
      <trkpt lat="42.78883" lon="1.56841">
        <ele>616.5</ele>
      </trkpt>
      <trkpt lat="42.78908" lon="1.56895">
        <ele>611.5</ele>
      </trkpt>
      <trkpt lat="42.78924" lon="1.56929">
        <ele>609.6</ele>
      </trkpt>
      <trkpt lat="42.78932" lon="1.56948">
        <ele>610.4</ele>
      </trkpt>
      <trkpt lat="42.78936" lon="1.56959">
        <ele>610.7</ele>
      </trkpt>
      <trkpt lat="42.78939" lon="1.5697">
        <ele>611</ele>
      </trkpt>
      <trkpt lat="42.78941" lon="1.5698">
        <ele>611.3</ele>
      </trkpt>
      <trkpt lat="42.78944" lon="1.56991">
        <ele>611.5</ele>
      </trkpt>
      <trkpt lat="42.78947" lon="1.57003">
        <ele>611.7</ele>
      </trkpt>
      <trkpt lat="42.7895" lon="1.57015">
        <ele>612</ele>
      </trkpt>
      <trkpt lat="42.78957" lon="1.5705">
        <ele>612.4</ele>
      </trkpt>
      <trkpt lat="42.78966" lon="1.57097">
        <ele>612.1</ele>
      </trkpt>
      <trkpt lat="42.78977" lon="1.57157">
        <ele>609.9</ele>
      </trkpt>
      <trkpt lat="42.78985" lon="1.57201">
        <ele>608.7</ele>
      </trkpt>
      <trkpt lat="42.78996" lon="1.5726">
        <ele>607</ele>
      </trkpt>
      <trkpt lat="42.79013" lon="1.57331">
        <ele>609.6</ele>
      </trkpt>
      <trkpt lat="42.79015" lon="1.57338">
        <ele>609.8</ele>
      </trkpt>
      <trkpt lat="42.79017" lon="1.57346">
        <ele>609.9</ele>
      </trkpt>
      <trkpt lat="42.79019" lon="1.57351">
        <ele>609.8</ele>
      </trkpt>
      <trkpt lat="42.79023" lon="1.57358">
        <ele>609.4</ele>
      </trkpt>
      <trkpt lat="42.79027" lon="1.57363">
        <ele>608.7</ele>
      </trkpt>
      <trkpt lat="42.79031" lon="1.57368">
        <ele>608</ele>
      </trkpt>
      <trkpt lat="42.79035" lon="1.57372">
        <ele>607.2</ele>
      </trkpt>
      <trkpt lat="42.79039" lon="1.57376">
        <ele>606.4</ele>
      </trkpt>
      <trkpt lat="42.79051" lon="1.57389">
        <ele>603.7</ele>
      </trkpt>
      <trkpt lat="42.7906" lon="1.574">
        <ele>601.5</ele>
      </trkpt>
      <trkpt lat="42.79064" lon="1.57406">
        <ele>600.7</ele>
      </trkpt>
      <trkpt lat="42.79067" lon="1.57412">
        <ele>600.1</ele>
      </trkpt>
      <trkpt lat="42.79069" lon="1.57417">
        <ele>599.8</ele>
      </trkpt>
      <trkpt lat="42.79072" lon="1.57428">
        <ele>600.2</ele>
      </trkpt>
      <trkpt lat="42.79073" lon="1.57434">
        <ele>600.4</ele>
      </trkpt>
      <trkpt lat="42.79075" lon="1.5744">
        <ele>600.5</ele>
      </trkpt>
      <trkpt lat="42.79097" lon="1.57505">
        <ele>603.9</ele>
      </trkpt>
      <trkpt lat="42.79101" lon="1.57516">
        <ele>603.9</ele>
      </trkpt>
      <trkpt lat="42.79124" lon="1.57581">
        <ele>604.5</ele>
      </trkpt>
      <trkpt lat="42.79135" lon="1.57612">
        <ele>602.9</ele>
      </trkpt>
      <trkpt lat="42.79147" lon="1.57645">
        <ele>601</ele>
      </trkpt>
      <trkpt lat="42.79168" lon="1.57702">
        <ele>599.6</ele>
      </trkpt>
      <trkpt lat="42.7918" lon="1.57732">
        <ele>599.5</ele>
      </trkpt>
      <trkpt lat="42.79188" lon="1.57757">
        <ele>599.6</ele>
      </trkpt>
      <trkpt lat="42.79197" lon="1.57784">
        <ele>599.6</ele>
      </trkpt>
      <trkpt lat="42.79208" lon="1.57814">
        <ele>599.2</ele>
      </trkpt>
      <trkpt lat="42.7922" lon="1.57846">
        <ele>598.5</ele>
      </trkpt>
      <trkpt lat="42.79231" lon="1.57875">
        <ele>598.2</ele>
      </trkpt>
      <trkpt lat="42.79255" lon="1.57943">
        <ele>596.6</ele>
      </trkpt>
      <trkpt lat="42.79274" lon="1.57993">
        <ele>594.8</ele>
      </trkpt>
      <trkpt lat="42.79292" lon="1.58044">
        <ele>595.4</ele>
      </trkpt>
      <trkpt lat="42.79322" lon="1.58123">
        <ele>595.3</ele>
      </trkpt>
    </trkseg>
  </trk>
</gpx>